<?xml version="1.0" encoding="UTF-8" standalone="no" ?>
<gpx xmlns="http://www.topografix.com/GPX/1/1" xmlns:xsi="http://www.w3.org/2001/XMLSchema-instance" xsi:schemaLocation="http://www.topografix.com/GPX/1/1 http://www.topografix.com/GPX/1/1/gpx.xsd" version="1.1" creator="VisuGPX - https://www.visugpx.com">
  <metadata>
    <name>Pic de Prada</name>
    <desc><![CDATA[Magnifique vallon jusqu'au Pic Prada en montant par le coté W de la Serre d'Auloueilh, et descente côté E. 
Au départ du parcours, pour limiter le portage, nous n'avons pas suivi le sentier, que nous avons quand même dû rejoindre en arrivant dans le lit du Lavedan, en remontant ski sur le dos a travers la forêt de noisetiers plein nord sur 100 de deniv ! : on aurait dû rejoindre le sentier au niveau de la ligne de côte 1500 (donc en fait, suivre à la montée la même trace qu'a la descente)]]></desc>
  </metadata>
  <trk>
    <name><![CDATA[Pic de Prada_1]]></name>
    <trkseg>
      <trkpt lat="42.84841" lon="0.28787">
        <ele>1262.2</ele>
        <time>2022-03-12T08:41:35Z</time>
      </trkpt>
      <trkpt lat="42.84837" lon="0.2878">
        <ele>1263</ele>
        <time>2022-03-12T08:41:40Z</time>
      </trkpt>
      <trkpt lat="42.84838" lon="0.28768">
        <ele>1263</ele>
        <time>2022-03-12T08:41:45Z</time>
      </trkpt>
      <trkpt lat="42.84837" lon="0.28755">
        <ele>1263</ele>
        <time>2022-03-12T08:41:50Z</time>
      </trkpt>
      <trkpt lat="42.84836" lon="0.28742">
        <ele>1262</ele>
        <time>2022-03-12T08:42:00Z</time>
      </trkpt>
      <trkpt lat="42.84837" lon="0.2873">
        <ele>1262</ele>
        <time>2022-03-12T08:42:06Z</time>
      </trkpt>
      <trkpt lat="42.84843" lon="0.2872">
        <ele>1262</ele>
        <time>2022-03-12T08:42:14Z</time>
      </trkpt>
      <trkpt lat="42.84841" lon="0.28708">
        <ele>1262</ele>
        <time>2022-03-12T08:42:21Z</time>
      </trkpt>
      <trkpt lat="42.84843" lon="0.28694">
        <ele>1263</ele>
        <time>2022-03-12T08:42:27Z</time>
      </trkpt>
      <trkpt lat="42.84841" lon="0.28683">
        <ele>1263</ele>
        <time>2022-03-12T08:42:32Z</time>
      </trkpt>
      <trkpt lat="42.84841" lon="0.2867">
        <ele>1263</ele>
        <time>2022-03-12T08:42:39Z</time>
      </trkpt>
      <trkpt lat="42.84839" lon="0.28658">
        <ele>1262</ele>
        <time>2022-03-12T08:42:46Z</time>
      </trkpt>
      <trkpt lat="42.84837" lon="0.28645">
        <ele>1262</ele>
        <time>2022-03-12T08:42:54Z</time>
      </trkpt>
      <trkpt lat="42.84836" lon="0.28632">
        <ele>1262</ele>
        <time>2022-03-12T08:43:01Z</time>
      </trkpt>
      <trkpt lat="42.84831" lon="0.28621">
        <ele>1262</ele>
        <time>2022-03-12T08:43:10Z</time>
      </trkpt>
      <trkpt lat="42.84822" lon="0.28613">
        <ele>1262</ele>
        <time>2022-03-12T08:43:17Z</time>
      </trkpt>
      <trkpt lat="42.84816" lon="0.28604">
        <ele>1261</ele>
        <time>2022-03-12T08:43:22Z</time>
      </trkpt>
      <trkpt lat="42.8481" lon="0.28593">
        <ele>1261</ele>
        <time>2022-03-12T08:43:28Z</time>
      </trkpt>
      <trkpt lat="42.84804" lon="0.28582">
        <ele>1260</ele>
        <time>2022-03-12T08:43:33Z</time>
      </trkpt>
      <trkpt lat="42.84796" lon="0.28575">
        <ele>1260</ele>
        <time>2022-03-12T08:43:43Z</time>
      </trkpt>
      <trkpt lat="42.84793" lon="0.28562">
        <ele>1260</ele>
        <time>2022-03-12T08:43:50Z</time>
      </trkpt>
      <trkpt lat="42.84793" lon="0.28549">
        <ele>1259</ele>
        <time>2022-03-12T08:43:57Z</time>
      </trkpt>
      <trkpt lat="42.84789" lon="0.28537">
        <ele>1259</ele>
        <time>2022-03-12T08:44:04Z</time>
      </trkpt>
      <trkpt lat="42.84784" lon="0.28526">
        <ele>1259</ele>
        <time>2022-03-12T08:44:12Z</time>
      </trkpt>
      <trkpt lat="42.84781" lon="0.28513">
        <ele>1258</ele>
        <time>2022-03-12T08:44:19Z</time>
      </trkpt>
      <trkpt lat="42.84777" lon="0.285">
        <ele>1258</ele>
        <time>2022-03-12T08:44:24Z</time>
      </trkpt>
      <trkpt lat="42.84777" lon="0.28487">
        <ele>1258</ele>
        <time>2022-03-12T08:44:30Z</time>
      </trkpt>
      <trkpt lat="42.84773" lon="0.28473">
        <ele>1257</ele>
        <time>2022-03-12T08:44:38Z</time>
      </trkpt>
      <trkpt lat="42.84769" lon="0.28462">
        <ele>1257</ele>
        <time>2022-03-12T08:44:44Z</time>
      </trkpt>
      <trkpt lat="42.84765" lon="0.2845">
        <ele>1257</ele>
        <time>2022-03-12T08:44:51Z</time>
      </trkpt>
      <trkpt lat="42.84762" lon="0.28436">
        <ele>1257</ele>
        <time>2022-03-12T08:44:58Z</time>
      </trkpt>
      <trkpt lat="42.84761" lon="0.28423">
        <ele>1257</ele>
        <time>2022-03-12T08:45:05Z</time>
      </trkpt>
      <trkpt lat="42.84761" lon="0.28411">
        <ele>1256</ele>
        <time>2022-03-12T08:45:10Z</time>
      </trkpt>
      <trkpt lat="42.84765" lon="0.28398">
        <ele>1256</ele>
        <time>2022-03-12T08:45:16Z</time>
      </trkpt>
      <trkpt lat="42.84774" lon="0.28398">
        <ele>1256</ele>
        <time>2022-03-12T08:45:23Z</time>
      </trkpt>
      <trkpt lat="42.84781" lon="0.28407">
        <ele>1257</ele>
        <time>2022-03-12T08:45:29Z</time>
      </trkpt>
      <trkpt lat="42.84791" lon="0.28415">
        <ele>1257</ele>
        <time>2022-03-12T08:45:41Z</time>
      </trkpt>
      <trkpt lat="42.84799" lon="0.28421">
        <ele>1259</ele>
        <time>2022-03-12T08:45:47Z</time>
      </trkpt>
      <trkpt lat="42.84808" lon="0.28427">
        <ele>1260</ele>
        <time>2022-03-12T08:45:53Z</time>
      </trkpt>
      <trkpt lat="42.84816" lon="0.28432">
        <ele>1260</ele>
        <time>2022-03-12T08:46:00Z</time>
      </trkpt>
      <trkpt lat="42.84826" lon="0.28433">
        <ele>1261</ele>
        <time>2022-03-12T08:46:08Z</time>
      </trkpt>
      <trkpt lat="42.84818" lon="0.28426">
        <ele>1262</ele>
        <time>2022-03-12T08:46:25Z</time>
      </trkpt>
      <trkpt lat="42.84809" lon="0.28423">
        <ele>1263</ele>
        <time>2022-03-12T08:46:38Z</time>
      </trkpt>
      <trkpt lat="42.84802" lon="0.28414">
        <ele>1264</ele>
        <time>2022-03-12T08:46:45Z</time>
      </trkpt>
      <trkpt lat="42.84797" lon="0.28402">
        <ele>1265</ele>
        <time>2022-03-12T08:46:52Z</time>
      </trkpt>
      <trkpt lat="42.84791" lon="0.28391">
        <ele>1266</ele>
        <time>2022-03-12T08:47:01Z</time>
      </trkpt>
      <trkpt lat="42.8479" lon="0.28377">
        <ele>1268</ele>
        <time>2022-03-12T08:47:10Z</time>
      </trkpt>
      <trkpt lat="42.8479" lon="0.28364">
        <ele>1269</ele>
        <time>2022-03-12T08:47:16Z</time>
      </trkpt>
      <trkpt lat="42.84788" lon="0.28352">
        <ele>1271</ele>
        <time>2022-03-12T08:47:24Z</time>
      </trkpt>
      <trkpt lat="42.84786" lon="0.2834">
        <ele>1272</ele>
        <time>2022-03-12T08:47:33Z</time>
      </trkpt>
      <trkpt lat="42.84782" lon="0.28328">
        <ele>1273</ele>
        <time>2022-03-12T08:47:39Z</time>
      </trkpt>
      <trkpt lat="42.8478" lon="0.28316">
        <ele>1274</ele>
        <time>2022-03-12T08:47:49Z</time>
      </trkpt>
      <trkpt lat="42.84781" lon="0.28303">
        <ele>1275</ele>
        <time>2022-03-12T08:47:58Z</time>
      </trkpt>
      <trkpt lat="42.84783" lon="0.2829">
        <ele>1276</ele>
        <time>2022-03-12T08:51:41Z</time>
      </trkpt>
      <trkpt lat="42.84783" lon="0.28278">
        <ele>1278</ele>
        <time>2022-03-12T08:51:53Z</time>
      </trkpt>
      <trkpt lat="42.84784" lon="0.28265">
        <ele>1278</ele>
        <time>2022-03-12T08:52:02Z</time>
      </trkpt>
      <trkpt lat="42.84788" lon="0.28252">
        <ele>1279</ele>
        <time>2022-03-12T08:52:14Z</time>
      </trkpt>
      <trkpt lat="42.84788" lon="0.2824">
        <ele>1281</ele>
        <time>2022-03-12T08:52:26Z</time>
      </trkpt>
      <trkpt lat="42.8479" lon="0.28227">
        <ele>1282</ele>
        <time>2022-03-12T08:52:42Z</time>
      </trkpt>
      <trkpt lat="42.84791" lon="0.28219">
        <ele>1283</ele>
        <time>2022-03-12T08:52:49Z</time>
      </trkpt>
      <trkpt lat="42.84792" lon="0.28216">
        <ele>1283</ele>
        <time>2022-03-12T08:52:51Z</time>
      </trkpt>
      <trkpt lat="42.84793" lon="0.28213">
        <ele>1284</ele>
        <time>2022-03-12T08:52:53Z</time>
      </trkpt>
      <trkpt lat="42.84794" lon="0.2821">
        <ele>1284</ele>
        <time>2022-03-12T08:52:56Z</time>
      </trkpt>
      <trkpt lat="42.84794" lon="0.28207">
        <ele>1284</ele>
        <time>2022-03-12T08:52:59Z</time>
      </trkpt>
      <trkpt lat="42.84794" lon="0.28204">
        <ele>1285</ele>
        <time>2022-03-12T08:53:02Z</time>
      </trkpt>
      <trkpt lat="42.84796" lon="0.28202">
        <ele>1285</ele>
        <time>2022-03-12T08:53:05Z</time>
      </trkpt>
      <trkpt lat="42.84797" lon="0.28199">
        <ele>1285</ele>
        <time>2022-03-12T08:53:08Z</time>
      </trkpt>
      <trkpt lat="42.84798" lon="0.28197">
        <ele>1285</ele>
        <time>2022-03-12T08:53:11Z</time>
      </trkpt>
      <trkpt lat="42.848" lon="0.28195">
        <ele>1286</ele>
        <time>2022-03-12T08:53:13Z</time>
      </trkpt>
      <trkpt lat="42.848" lon="0.28192">
        <ele>1286</ele>
        <time>2022-03-12T08:53:15Z</time>
      </trkpt>
      <trkpt lat="42.84801" lon="0.2819">
        <ele>1287</ele>
        <time>2022-03-12T08:53:17Z</time>
      </trkpt>
      <trkpt lat="42.84801" lon="0.28182">
        <ele>1288</ele>
        <time>2022-03-12T08:53:24Z</time>
      </trkpt>
      <trkpt lat="42.84801" lon="0.28179">
        <ele>1288</ele>
        <time>2022-03-12T08:53:26Z</time>
      </trkpt>
      <trkpt lat="42.84802" lon="0.28177">
        <ele>1288</ele>
        <time>2022-03-12T08:53:28Z</time>
      </trkpt>
      <trkpt lat="42.84804" lon="0.28174">
        <ele>1288</ele>
        <time>2022-03-12T08:53:32Z</time>
      </trkpt>
      <trkpt lat="42.84804" lon="0.28172">
        <ele>1288</ele>
        <time>2022-03-12T08:53:34Z</time>
      </trkpt>
      <trkpt lat="42.84805" lon="0.28169">
        <ele>1289</ele>
        <time>2022-03-12T08:53:37Z</time>
      </trkpt>
      <trkpt lat="42.84805" lon="0.28166">
        <ele>1289</ele>
        <time>2022-03-12T08:53:39Z</time>
      </trkpt>
      <trkpt lat="42.84805" lon="0.28164">
        <ele>1289</ele>
        <time>2022-03-12T08:53:41Z</time>
      </trkpt>
      <trkpt lat="42.84805" lon="0.28161">
        <ele>1290</ele>
        <time>2022-03-12T08:53:44Z</time>
      </trkpt>
      <trkpt lat="42.84806" lon="0.28157">
        <ele>1290</ele>
        <time>2022-03-12T08:53:47Z</time>
      </trkpt>
      <trkpt lat="42.84806" lon="0.28154">
        <ele>1290</ele>
        <time>2022-03-12T08:53:49Z</time>
      </trkpt>
      <trkpt lat="42.84806" lon="0.28151">
        <ele>1290</ele>
        <time>2022-03-12T08:53:52Z</time>
      </trkpt>
      <trkpt lat="42.84807" lon="0.28148">
        <ele>1291</ele>
        <time>2022-03-12T08:53:55Z</time>
      </trkpt>
      <trkpt lat="42.84807" lon="0.28144">
        <ele>1291</ele>
        <time>2022-03-12T08:54:00Z</time>
      </trkpt>
      <trkpt lat="42.84808" lon="0.28141">
        <ele>1292</ele>
        <time>2022-03-12T08:54:02Z</time>
      </trkpt>
      <trkpt lat="42.84809" lon="0.28137">
        <ele>1292</ele>
        <time>2022-03-12T08:54:05Z</time>
      </trkpt>
      <trkpt lat="42.84809" lon="0.28135">
        <ele>1292</ele>
        <time>2022-03-12T08:54:07Z</time>
      </trkpt>
      <trkpt lat="42.8481" lon="0.28132">
        <ele>1293</ele>
        <time>2022-03-12T08:54:10Z</time>
      </trkpt>
      <trkpt lat="42.84811" lon="0.28129">
        <ele>1292</ele>
        <time>2022-03-12T08:54:13Z</time>
      </trkpt>
      <trkpt lat="42.84812" lon="0.28126">
        <ele>1293</ele>
        <time>2022-03-12T08:54:15Z</time>
      </trkpt>
      <trkpt lat="42.84812" lon="0.28122">
        <ele>1293</ele>
        <time>2022-03-12T08:54:19Z</time>
      </trkpt>
      <trkpt lat="42.84813" lon="0.28119">
        <ele>1293</ele>
        <time>2022-03-12T08:54:22Z</time>
      </trkpt>
      <trkpt lat="42.84813" lon="0.28116">
        <ele>1294</ele>
        <time>2022-03-12T08:54:25Z</time>
      </trkpt>
      <trkpt lat="42.84814" lon="0.28114">
        <ele>1294</ele>
        <time>2022-03-12T08:54:27Z</time>
      </trkpt>
      <trkpt lat="42.84815" lon="0.2811">
        <ele>1294</ele>
        <time>2022-03-12T08:54:31Z</time>
      </trkpt>
      <trkpt lat="42.84815" lon="0.28108">
        <ele>1294</ele>
        <time>2022-03-12T08:54:33Z</time>
      </trkpt>
      <trkpt lat="42.84816" lon="0.28105">
        <ele>1294</ele>
        <time>2022-03-12T08:54:34Z</time>
      </trkpt>
      <trkpt lat="42.84817" lon="0.28102">
        <ele>1294</ele>
        <time>2022-03-12T08:54:38Z</time>
      </trkpt>
      <trkpt lat="42.84817" lon="0.281">
        <ele>1295</ele>
        <time>2022-03-12T08:54:40Z</time>
      </trkpt>
      <trkpt lat="42.84818" lon="0.28097">
        <ele>1295</ele>
        <time>2022-03-12T08:54:43Z</time>
      </trkpt>
      <trkpt lat="42.84819" lon="0.28094">
        <ele>1296</ele>
        <time>2022-03-12T08:54:46Z</time>
      </trkpt>
      <trkpt lat="42.8482" lon="0.28091">
        <ele>1296</ele>
        <time>2022-03-12T08:54:49Z</time>
      </trkpt>
      <trkpt lat="42.84821" lon="0.28087">
        <ele>1296</ele>
        <time>2022-03-12T08:54:52Z</time>
      </trkpt>
      <trkpt lat="42.84821" lon="0.28084">
        <ele>1296</ele>
        <time>2022-03-12T08:54:55Z</time>
      </trkpt>
      <trkpt lat="42.84822" lon="0.28081">
        <ele>1296</ele>
        <time>2022-03-12T08:54:58Z</time>
      </trkpt>
      <trkpt lat="42.84822" lon="0.28078">
        <ele>1297</ele>
        <time>2022-03-12T08:55:01Z</time>
      </trkpt>
      <trkpt lat="42.84823" lon="0.28075">
        <ele>1298</ele>
        <time>2022-03-12T08:55:04Z</time>
      </trkpt>
      <trkpt lat="42.84823" lon="0.28072">
        <ele>1298</ele>
        <time>2022-03-12T08:55:07Z</time>
      </trkpt>
      <trkpt lat="42.84824" lon="0.28068">
        <ele>1298</ele>
        <time>2022-03-12T08:55:10Z</time>
      </trkpt>
      <trkpt lat="42.84825" lon="0.28065">
        <ele>1298</ele>
        <time>2022-03-12T08:55:12Z</time>
      </trkpt>
      <trkpt lat="42.84827" lon="0.28062">
        <ele>1298</ele>
        <time>2022-03-12T08:55:16Z</time>
      </trkpt>
      <trkpt lat="42.84827" lon="0.2806">
        <ele>1298</ele>
        <time>2022-03-12T08:55:18Z</time>
      </trkpt>
      <trkpt lat="42.84828" lon="0.28057">
        <ele>1299</ele>
        <time>2022-03-12T08:55:20Z</time>
      </trkpt>
      <trkpt lat="42.84829" lon="0.28053">
        <ele>1299</ele>
        <time>2022-03-12T08:55:23Z</time>
      </trkpt>
      <trkpt lat="42.8483" lon="0.2805">
        <ele>1299</ele>
        <time>2022-03-12T08:55:26Z</time>
      </trkpt>
      <trkpt lat="42.8483" lon="0.28047">
        <ele>1300</ele>
        <time>2022-03-12T08:55:29Z</time>
      </trkpt>
      <trkpt lat="42.84831" lon="0.28044">
        <ele>1300</ele>
        <time>2022-03-12T08:55:31Z</time>
      </trkpt>
      <trkpt lat="42.84832" lon="0.28042">
        <ele>1300</ele>
        <time>2022-03-12T08:55:35Z</time>
      </trkpt>
      <trkpt lat="42.84833" lon="0.28038">
        <ele>1301</ele>
        <time>2022-03-12T08:55:38Z</time>
      </trkpt>
      <trkpt lat="42.84834" lon="0.28036">
        <ele>1301</ele>
        <time>2022-03-12T08:55:41Z</time>
      </trkpt>
      <trkpt lat="42.84836" lon="0.28033">
        <ele>1302</ele>
        <time>2022-03-12T08:55:45Z</time>
      </trkpt>
      <trkpt lat="42.84837" lon="0.28031">
        <ele>1302</ele>
        <time>2022-03-12T08:55:48Z</time>
      </trkpt>
      <trkpt lat="42.84839" lon="0.28028">
        <ele>1303</ele>
        <time>2022-03-12T08:55:51Z</time>
      </trkpt>
      <trkpt lat="42.8484" lon="0.28026">
        <ele>1303</ele>
        <time>2022-03-12T08:55:54Z</time>
      </trkpt>
      <trkpt lat="42.84841" lon="0.28023">
        <ele>1303</ele>
        <time>2022-03-12T08:55:56Z</time>
      </trkpt>
      <trkpt lat="42.84843" lon="0.28021">
        <ele>1303</ele>
        <time>2022-03-12T08:55:58Z</time>
      </trkpt>
      <trkpt lat="42.84843" lon="0.28017">
        <ele>1303</ele>
        <time>2022-03-12T08:56:00Z</time>
      </trkpt>
      <trkpt lat="42.84845" lon="0.28015">
        <ele>1303</ele>
        <time>2022-03-12T08:56:02Z</time>
      </trkpt>
      <trkpt lat="42.84845" lon="0.28012">
        <ele>1303</ele>
        <time>2022-03-12T08:56:04Z</time>
      </trkpt>
      <trkpt lat="42.84847" lon="0.2801">
        <ele>1304</ele>
        <time>2022-03-12T08:56:07Z</time>
      </trkpt>
      <trkpt lat="42.84849" lon="0.28008">
        <ele>1304</ele>
        <time>2022-03-12T08:56:09Z</time>
      </trkpt>
      <trkpt lat="42.84851" lon="0.28008">
        <ele>1304</ele>
        <time>2022-03-12T08:56:13Z</time>
      </trkpt>
      <trkpt lat="42.84855" lon="0.28004">
        <ele>1305</ele>
        <time>2022-03-12T08:56:19Z</time>
      </trkpt>
      <trkpt lat="42.8486" lon="0.27995">
        <ele>1305</ele>
        <time>2022-03-12T08:56:27Z</time>
      </trkpt>
      <trkpt lat="42.84862" lon="0.27993">
        <ele>1305</ele>
        <time>2022-03-12T08:56:28Z</time>
      </trkpt>
      <trkpt lat="42.84864" lon="0.27991">
        <ele>1306</ele>
        <time>2022-03-12T08:56:32Z</time>
      </trkpt>
      <trkpt lat="42.84865" lon="0.27988">
        <ele>1306</ele>
        <time>2022-03-12T08:56:36Z</time>
      </trkpt>
      <trkpt lat="42.84868" lon="0.27985">
        <ele>1306</ele>
        <time>2022-03-12T08:56:40Z</time>
      </trkpt>
      <trkpt lat="42.84874" lon="0.27982">
        <ele>1307</ele>
        <time>2022-03-12T08:56:47Z</time>
      </trkpt>
      <trkpt lat="42.84875" lon="0.27979">
        <ele>1307</ele>
        <time>2022-03-12T08:56:49Z</time>
      </trkpt>
      <trkpt lat="42.84875" lon="0.27976">
        <ele>1307</ele>
        <time>2022-03-12T08:56:51Z</time>
      </trkpt>
      <trkpt lat="42.84875" lon="0.27972">
        <ele>1307</ele>
        <time>2022-03-12T08:56:53Z</time>
      </trkpt>
      <trkpt lat="42.84876" lon="0.2797">
        <ele>1308</ele>
        <time>2022-03-12T08:56:55Z</time>
      </trkpt>
      <trkpt lat="42.84877" lon="0.27966">
        <ele>1308</ele>
        <time>2022-03-12T08:56:57Z</time>
      </trkpt>
      <trkpt lat="42.84877" lon="0.27964">
        <ele>1308</ele>
        <time>2022-03-12T08:56:59Z</time>
      </trkpt>
      <trkpt lat="42.84877" lon="0.2796">
        <ele>1308</ele>
        <time>2022-03-12T08:57:01Z</time>
      </trkpt>
      <trkpt lat="42.84877" lon="0.27957">
        <ele>1308</ele>
        <time>2022-03-12T08:57:04Z</time>
      </trkpt>
      <trkpt lat="42.84877" lon="0.27953">
        <ele>1309</ele>
        <time>2022-03-12T08:57:07Z</time>
      </trkpt>
      <trkpt lat="42.84877" lon="0.2795">
        <ele>1309</ele>
        <time>2022-03-12T08:57:09Z</time>
      </trkpt>
      <trkpt lat="42.84878" lon="0.27948">
        <ele>1309</ele>
        <time>2022-03-12T08:57:11Z</time>
      </trkpt>
      <trkpt lat="42.84878" lon="0.27945">
        <ele>1309</ele>
        <time>2022-03-12T08:57:13Z</time>
      </trkpt>
      <trkpt lat="42.84878" lon="0.27942">
        <ele>1309</ele>
        <time>2022-03-12T08:57:16Z</time>
      </trkpt>
      <trkpt lat="42.84879" lon="0.27939">
        <ele>1309</ele>
        <time>2022-03-12T08:57:21Z</time>
      </trkpt>
      <trkpt lat="42.8488" lon="0.27936">
        <ele>1309</ele>
        <time>2022-03-12T08:57:24Z</time>
      </trkpt>
      <trkpt lat="42.8488" lon="0.27933">
        <ele>1309</ele>
        <time>2022-03-12T08:57:25Z</time>
      </trkpt>
      <trkpt lat="42.8488" lon="0.2793">
        <ele>1309</ele>
        <time>2022-03-12T08:57:29Z</time>
      </trkpt>
      <trkpt lat="42.84881" lon="0.27927">
        <ele>1309</ele>
        <time>2022-03-12T08:57:31Z</time>
      </trkpt>
      <trkpt lat="42.84882" lon="0.27926">
        <ele>1309</ele>
        <time>2022-03-12T08:57:33Z</time>
      </trkpt>
      <trkpt lat="42.84883" lon="0.27923">
        <ele>1310</ele>
        <time>2022-03-12T08:57:36Z</time>
      </trkpt>
      <trkpt lat="42.84884" lon="0.27919">
        <ele>1310</ele>
        <time>2022-03-12T08:57:39Z</time>
      </trkpt>
      <trkpt lat="42.84885" lon="0.27916">
        <ele>1310</ele>
        <time>2022-03-12T08:57:41Z</time>
      </trkpt>
      <trkpt lat="42.84886" lon="0.27913">
        <ele>1310</ele>
        <time>2022-03-12T08:57:44Z</time>
      </trkpt>
      <trkpt lat="42.84886" lon="0.2791">
        <ele>1310</ele>
        <time>2022-03-12T08:57:47Z</time>
      </trkpt>
      <trkpt lat="42.84887" lon="0.27907">
        <ele>1310</ele>
        <time>2022-03-12T08:57:49Z</time>
      </trkpt>
      <trkpt lat="42.84887" lon="0.27904">
        <ele>1310</ele>
        <time>2022-03-12T08:57:52Z</time>
      </trkpt>
      <trkpt lat="42.84888" lon="0.27901">
        <ele>1311</ele>
        <time>2022-03-12T08:57:55Z</time>
      </trkpt>
      <trkpt lat="42.84888" lon="0.27898">
        <ele>1312</ele>
        <time>2022-03-12T08:57:58Z</time>
      </trkpt>
      <trkpt lat="42.84888" lon="0.27895">
        <ele>1312</ele>
        <time>2022-03-12T08:58:01Z</time>
      </trkpt>
      <trkpt lat="42.84888" lon="0.27892">
        <ele>1312</ele>
        <time>2022-03-12T08:58:03Z</time>
      </trkpt>
      <trkpt lat="42.84887" lon="0.27889">
        <ele>1313</ele>
        <time>2022-03-12T08:58:09Z</time>
      </trkpt>
      <trkpt lat="42.84887" lon="0.27886">
        <ele>1313</ele>
        <time>2022-03-12T08:58:11Z</time>
      </trkpt>
      <trkpt lat="42.84888" lon="0.27884">
        <ele>1313</ele>
        <time>2022-03-12T08:58:13Z</time>
      </trkpt>
      <trkpt lat="42.84889" lon="0.27881">
        <ele>1313</ele>
        <time>2022-03-12T08:58:16Z</time>
      </trkpt>
      <trkpt lat="42.84889" lon="0.27877">
        <ele>1314</ele>
        <time>2022-03-12T08:58:19Z</time>
      </trkpt>
      <trkpt lat="42.84889" lon="0.27874">
        <ele>1314</ele>
        <time>2022-03-12T08:58:22Z</time>
      </trkpt>
      <trkpt lat="42.8489" lon="0.27872">
        <ele>1314</ele>
        <time>2022-03-12T08:58:25Z</time>
      </trkpt>
      <trkpt lat="42.84891" lon="0.27869">
        <ele>1314</ele>
        <time>2022-03-12T08:58:28Z</time>
      </trkpt>
      <trkpt lat="42.84891" lon="0.27866">
        <ele>1314</ele>
        <time>2022-03-12T08:58:31Z</time>
      </trkpt>
      <trkpt lat="42.84892" lon="0.27863">
        <ele>1314</ele>
        <time>2022-03-12T08:58:34Z</time>
      </trkpt>
      <trkpt lat="42.84892" lon="0.2786">
        <ele>1315</ele>
        <time>2022-03-12T08:58:37Z</time>
      </trkpt>
      <trkpt lat="42.84893" lon="0.27857">
        <ele>1315</ele>
        <time>2022-03-12T08:58:40Z</time>
      </trkpt>
      <trkpt lat="42.84894" lon="0.27853">
        <ele>1316</ele>
        <time>2022-03-12T08:58:43Z</time>
      </trkpt>
      <trkpt lat="42.84895" lon="0.27851">
        <ele>1316</ele>
        <time>2022-03-12T08:58:46Z</time>
      </trkpt>
      <trkpt lat="42.84896" lon="0.27848">
        <ele>1316</ele>
        <time>2022-03-12T08:58:49Z</time>
      </trkpt>
      <trkpt lat="42.84896" lon="0.27845">
        <ele>1316</ele>
        <time>2022-03-12T08:58:52Z</time>
      </trkpt>
      <trkpt lat="42.84897" lon="0.27842">
        <ele>1317</ele>
        <time>2022-03-12T08:58:55Z</time>
      </trkpt>
      <trkpt lat="42.84898" lon="0.2784">
        <ele>1317</ele>
        <time>2022-03-12T08:58:57Z</time>
      </trkpt>
      <trkpt lat="42.84899" lon="0.27837">
        <ele>1317</ele>
        <time>2022-03-12T08:59:00Z</time>
      </trkpt>
      <trkpt lat="42.849" lon="0.27834">
        <ele>1317</ele>
        <time>2022-03-12T08:59:03Z</time>
      </trkpt>
      <trkpt lat="42.84901" lon="0.27832">
        <ele>1318</ele>
        <time>2022-03-12T08:59:05Z</time>
      </trkpt>
      <trkpt lat="42.84902" lon="0.27829">
        <ele>1319</ele>
        <time>2022-03-12T08:59:08Z</time>
      </trkpt>
      <trkpt lat="42.84903" lon="0.27827">
        <ele>1319</ele>
        <time>2022-03-12T08:59:11Z</time>
      </trkpt>
      <trkpt lat="42.84904" lon="0.27824">
        <ele>1319</ele>
        <time>2022-03-12T08:59:14Z</time>
      </trkpt>
      <trkpt lat="42.84904" lon="0.27821">
        <ele>1320</ele>
        <time>2022-03-12T08:59:17Z</time>
      </trkpt>
      <trkpt lat="42.84905" lon="0.27818">
        <ele>1320</ele>
        <time>2022-03-12T08:59:20Z</time>
      </trkpt>
      <trkpt lat="42.84906" lon="0.27816">
        <ele>1319</ele>
        <time>2022-03-12T08:59:23Z</time>
      </trkpt>
      <trkpt lat="42.84907" lon="0.27813">
        <ele>1320</ele>
        <time>2022-03-12T08:59:27Z</time>
      </trkpt>
      <trkpt lat="42.84908" lon="0.2781">
        <ele>1321</ele>
        <time>2022-03-12T08:59:30Z</time>
      </trkpt>
      <trkpt lat="42.84909" lon="0.27808">
        <ele>1321</ele>
        <time>2022-03-12T08:59:32Z</time>
      </trkpt>
      <trkpt lat="42.8491" lon="0.27805">
        <ele>1321</ele>
        <time>2022-03-12T08:59:35Z</time>
      </trkpt>
      <trkpt lat="42.84911" lon="0.27802">
        <ele>1322</ele>
        <time>2022-03-12T08:59:38Z</time>
      </trkpt>
      <trkpt lat="42.84911" lon="0.27799">
        <ele>1322</ele>
        <time>2022-03-12T08:59:41Z</time>
      </trkpt>
      <trkpt lat="42.84912" lon="0.27796">
        <ele>1322</ele>
        <time>2022-03-12T08:59:44Z</time>
      </trkpt>
      <trkpt lat="42.84912" lon="0.27793">
        <ele>1322</ele>
        <time>2022-03-12T08:59:47Z</time>
      </trkpt>
      <trkpt lat="42.84913" lon="0.27791">
        <ele>1323</ele>
        <time>2022-03-12T08:59:50Z</time>
      </trkpt>
      <trkpt lat="42.84914" lon="0.27788">
        <ele>1323</ele>
        <time>2022-03-12T08:59:53Z</time>
      </trkpt>
      <trkpt lat="42.84915" lon="0.27785">
        <ele>1323</ele>
        <time>2022-03-12T08:59:56Z</time>
      </trkpt>
      <trkpt lat="42.84916" lon="0.27782">
        <ele>1324</ele>
        <time>2022-03-12T08:59:59Z</time>
      </trkpt>
      <trkpt lat="42.84917" lon="0.27779">
        <ele>1323</ele>
        <time>2022-03-12T09:00:02Z</time>
      </trkpt>
      <trkpt lat="42.84918" lon="0.27776">
        <ele>1325</ele>
        <time>2022-03-12T09:00:05Z</time>
      </trkpt>
      <trkpt lat="42.84919" lon="0.27772">
        <ele>1325</ele>
        <time>2022-03-12T09:00:08Z</time>
      </trkpt>
      <trkpt lat="42.8492" lon="0.2777">
        <ele>1325</ele>
        <time>2022-03-12T09:00:11Z</time>
      </trkpt>
      <trkpt lat="42.84921" lon="0.27767">
        <ele>1325</ele>
        <time>2022-03-12T09:00:14Z</time>
      </trkpt>
      <trkpt lat="42.84921" lon="0.27764">
        <ele>1326</ele>
        <time>2022-03-12T09:00:17Z</time>
      </trkpt>
      <trkpt lat="42.84921" lon="0.27762">
        <ele>1326</ele>
        <time>2022-03-12T09:00:20Z</time>
      </trkpt>
      <trkpt lat="42.8492" lon="0.27759">
        <ele>1326</ele>
        <time>2022-03-12T09:00:22Z</time>
      </trkpt>
      <trkpt lat="42.8492" lon="0.27756">
        <ele>1326</ele>
        <time>2022-03-12T09:00:24Z</time>
      </trkpt>
      <trkpt lat="42.8492" lon="0.27753">
        <ele>1326</ele>
        <time>2022-03-12T09:00:26Z</time>
      </trkpt>
      <trkpt lat="42.8492" lon="0.2775">
        <ele>1326</ele>
        <time>2022-03-12T09:00:28Z</time>
      </trkpt>
      <trkpt lat="42.84922" lon="0.27749">
        <ele>1327</ele>
        <time>2022-03-12T09:00:30Z</time>
      </trkpt>
      <trkpt lat="42.84923" lon="0.27746">
        <ele>1327</ele>
        <time>2022-03-12T09:00:32Z</time>
      </trkpt>
      <trkpt lat="42.84924" lon="0.27743">
        <ele>1327</ele>
        <time>2022-03-12T09:00:34Z</time>
      </trkpt>
      <trkpt lat="42.84925" lon="0.2774">
        <ele>1327</ele>
        <time>2022-03-12T09:00:35Z</time>
      </trkpt>
      <trkpt lat="42.84928" lon="0.27737">
        <ele>1328</ele>
        <time>2022-03-12T09:00:41Z</time>
      </trkpt>
      <trkpt lat="42.8493" lon="0.27735">
        <ele>1328</ele>
        <time>2022-03-12T09:00:44Z</time>
      </trkpt>
      <trkpt lat="42.84932" lon="0.27733">
        <ele>1329</ele>
        <time>2022-03-12T09:00:47Z</time>
      </trkpt>
      <trkpt lat="42.84935" lon="0.27731">
        <ele>1329</ele>
        <time>2022-03-12T09:00:50Z</time>
      </trkpt>
      <trkpt lat="42.84936" lon="0.27729">
        <ele>1329</ele>
        <time>2022-03-12T09:00:53Z</time>
      </trkpt>
      <trkpt lat="42.84938" lon="0.27727">
        <ele>1329</ele>
        <time>2022-03-12T09:00:56Z</time>
      </trkpt>
      <trkpt lat="42.8494" lon="0.27725">
        <ele>1329</ele>
        <time>2022-03-12T09:00:58Z</time>
      </trkpt>
      <trkpt lat="42.84941" lon="0.27724">
        <ele>1329</ele>
        <time>2022-03-12T09:01:00Z</time>
      </trkpt>
      <trkpt lat="42.84946" lon="0.27713">
        <ele>1331</ele>
        <time>2022-03-12T09:01:12Z</time>
      </trkpt>
      <trkpt lat="42.84948" lon="0.27705">
        <ele>1331</ele>
        <time>2022-03-12T09:01:18Z</time>
      </trkpt>
      <trkpt lat="42.84949" lon="0.27702">
        <ele>1331</ele>
        <time>2022-03-12T09:01:21Z</time>
      </trkpt>
      <trkpt lat="42.8495" lon="0.277">
        <ele>1331</ele>
        <time>2022-03-12T09:01:24Z</time>
      </trkpt>
      <trkpt lat="42.84951" lon="0.27697">
        <ele>1331</ele>
        <time>2022-03-12T09:01:27Z</time>
      </trkpt>
      <trkpt lat="42.84953" lon="0.27694">
        <ele>1331</ele>
        <time>2022-03-12T09:01:30Z</time>
      </trkpt>
      <trkpt lat="42.84953" lon="0.27692">
        <ele>1332</ele>
        <time>2022-03-12T09:01:32Z</time>
      </trkpt>
      <trkpt lat="42.84954" lon="0.27689">
        <ele>1332</ele>
        <time>2022-03-12T09:01:34Z</time>
      </trkpt>
      <trkpt lat="42.84955" lon="0.27686">
        <ele>1332</ele>
        <time>2022-03-12T09:01:37Z</time>
      </trkpt>
      <trkpt lat="42.84956" lon="0.27683">
        <ele>1332</ele>
        <time>2022-03-12T09:01:39Z</time>
      </trkpt>
      <trkpt lat="42.84956" lon="0.27681">
        <ele>1332</ele>
        <time>2022-03-12T09:01:41Z</time>
      </trkpt>
      <trkpt lat="42.84957" lon="0.27678">
        <ele>1333</ele>
        <time>2022-03-12T09:01:44Z</time>
      </trkpt>
      <trkpt lat="42.84959" lon="0.27675">
        <ele>1333</ele>
        <time>2022-03-12T09:01:47Z</time>
      </trkpt>
      <trkpt lat="42.8496" lon="0.27672">
        <ele>1333</ele>
        <time>2022-03-12T09:01:49Z</time>
      </trkpt>
      <trkpt lat="42.84961" lon="0.2767">
        <ele>1333</ele>
        <time>2022-03-12T09:01:51Z</time>
      </trkpt>
      <trkpt lat="42.84962" lon="0.27667">
        <ele>1333</ele>
        <time>2022-03-12T09:01:54Z</time>
      </trkpt>
      <trkpt lat="42.84963" lon="0.27665">
        <ele>1333</ele>
        <time>2022-03-12T09:01:56Z</time>
      </trkpt>
      <trkpt lat="42.84964" lon="0.27662">
        <ele>1334</ele>
        <time>2022-03-12T09:01:59Z</time>
      </trkpt>
      <trkpt lat="42.84966" lon="0.27659">
        <ele>1334</ele>
        <time>2022-03-12T09:02:02Z</time>
      </trkpt>
      <trkpt lat="42.84967" lon="0.27657">
        <ele>1334</ele>
        <time>2022-03-12T09:02:04Z</time>
      </trkpt>
      <trkpt lat="42.84967" lon="0.27654">
        <ele>1334</ele>
        <time>2022-03-12T09:02:06Z</time>
      </trkpt>
      <trkpt lat="42.84969" lon="0.27651">
        <ele>1334</ele>
        <time>2022-03-12T09:02:09Z</time>
      </trkpt>
      <trkpt lat="42.84969" lon="0.27647">
        <ele>1335</ele>
        <time>2022-03-12T09:02:12Z</time>
      </trkpt>
      <trkpt lat="42.84971" lon="0.27644">
        <ele>1335</ele>
        <time>2022-03-12T09:02:15Z</time>
      </trkpt>
      <trkpt lat="42.84972" lon="0.27642">
        <ele>1335</ele>
        <time>2022-03-12T09:02:18Z</time>
      </trkpt>
      <trkpt lat="42.84972" lon="0.27638">
        <ele>1335</ele>
        <time>2022-03-12T09:02:21Z</time>
      </trkpt>
      <trkpt lat="42.84972" lon="0.27636">
        <ele>1336</ele>
        <time>2022-03-12T09:02:23Z</time>
      </trkpt>
      <trkpt lat="42.84973" lon="0.27633">
        <ele>1336</ele>
        <time>2022-03-12T09:02:25Z</time>
      </trkpt>
      <trkpt lat="42.84974" lon="0.27631">
        <ele>1336</ele>
        <time>2022-03-12T09:02:27Z</time>
      </trkpt>
      <trkpt lat="42.84976" lon="0.27629">
        <ele>1336</ele>
        <time>2022-03-12T09:02:29Z</time>
      </trkpt>
      <trkpt lat="42.84977" lon="0.27625">
        <ele>1336</ele>
        <time>2022-03-12T09:02:33Z</time>
      </trkpt>
      <trkpt lat="42.84978" lon="0.27623">
        <ele>1336</ele>
        <time>2022-03-12T09:02:36Z</time>
      </trkpt>
      <trkpt lat="42.84979" lon="0.2762">
        <ele>1336</ele>
        <time>2022-03-12T09:02:39Z</time>
      </trkpt>
      <trkpt lat="42.84981" lon="0.27617">
        <ele>1337</ele>
        <time>2022-03-12T09:02:43Z</time>
      </trkpt>
      <trkpt lat="42.84982" lon="0.27615">
        <ele>1337</ele>
        <time>2022-03-12T09:02:46Z</time>
      </trkpt>
      <trkpt lat="42.84983" lon="0.27611">
        <ele>1337</ele>
        <time>2022-03-12T09:02:49Z</time>
      </trkpt>
      <trkpt lat="42.84983" lon="0.27608">
        <ele>1337</ele>
        <time>2022-03-12T09:02:52Z</time>
      </trkpt>
      <trkpt lat="42.84984" lon="0.27604">
        <ele>1337</ele>
        <time>2022-03-12T09:02:55Z</time>
      </trkpt>
      <trkpt lat="42.84984" lon="0.27601">
        <ele>1337</ele>
        <time>2022-03-12T09:02:58Z</time>
      </trkpt>
      <trkpt lat="42.84986" lon="0.27599">
        <ele>1336</ele>
        <time>2022-03-12T09:03:01Z</time>
      </trkpt>
      <trkpt lat="42.84985" lon="0.27596">
        <ele>1336</ele>
        <time>2022-03-12T09:03:04Z</time>
      </trkpt>
      <trkpt lat="42.84985" lon="0.27594">
        <ele>1336</ele>
        <time>2022-03-12T09:03:06Z</time>
      </trkpt>
      <trkpt lat="42.84986" lon="0.27591">
        <ele>1336</ele>
        <time>2022-03-12T09:03:07Z</time>
      </trkpt>
      <trkpt lat="42.84986" lon="0.27588">
        <ele>1337</ele>
        <time>2022-03-12T09:03:10Z</time>
      </trkpt>
      <trkpt lat="42.84987" lon="0.27586">
        <ele>1337</ele>
        <time>2022-03-12T09:03:12Z</time>
      </trkpt>
      <trkpt lat="42.84989" lon="0.27583">
        <ele>1336</ele>
        <time>2022-03-12T09:03:14Z</time>
      </trkpt>
      <trkpt lat="42.84989" lon="0.27581">
        <ele>1337</ele>
        <time>2022-03-12T09:03:16Z</time>
      </trkpt>
      <trkpt lat="42.84989" lon="0.27578">
        <ele>1336</ele>
        <time>2022-03-12T09:03:18Z</time>
      </trkpt>
      <trkpt lat="42.84989" lon="0.27575">
        <ele>1337</ele>
        <time>2022-03-12T09:03:20Z</time>
      </trkpt>
      <trkpt lat="42.84989" lon="0.27573">
        <ele>1337</ele>
        <time>2022-03-12T09:03:22Z</time>
      </trkpt>
      <trkpt lat="42.8499" lon="0.27571">
        <ele>1337</ele>
        <time>2022-03-12T09:03:24Z</time>
      </trkpt>
      <trkpt lat="42.84991" lon="0.27568">
        <ele>1337</ele>
        <time>2022-03-12T09:03:26Z</time>
      </trkpt>
      <trkpt lat="42.84992" lon="0.27565">
        <ele>1337</ele>
        <time>2022-03-12T09:03:28Z</time>
      </trkpt>
      <trkpt lat="42.84993" lon="0.27563">
        <ele>1338</ele>
        <time>2022-03-12T09:03:30Z</time>
      </trkpt>
      <trkpt lat="42.84993" lon="0.2756">
        <ele>1338</ele>
        <time>2022-03-12T09:03:33Z</time>
      </trkpt>
      <trkpt lat="42.84994" lon="0.27557">
        <ele>1336</ele>
        <time>2022-03-12T09:03:35Z</time>
      </trkpt>
      <trkpt lat="42.84994" lon="0.27555">
        <ele>1337</ele>
        <time>2022-03-12T09:03:37Z</time>
      </trkpt>
      <trkpt lat="42.84995" lon="0.27552">
        <ele>1338</ele>
        <time>2022-03-12T09:03:39Z</time>
      </trkpt>
      <trkpt lat="42.84995" lon="0.27549">
        <ele>1338</ele>
        <time>2022-03-12T09:03:41Z</time>
      </trkpt>
      <trkpt lat="42.84995" lon="0.27546">
        <ele>1338</ele>
        <time>2022-03-12T09:03:43Z</time>
      </trkpt>
      <trkpt lat="42.84996" lon="0.27544">
        <ele>1338</ele>
        <time>2022-03-12T09:03:45Z</time>
      </trkpt>
      <trkpt lat="42.84996" lon="0.27541">
        <ele>1338</ele>
        <time>2022-03-12T09:03:47Z</time>
      </trkpt>
      <trkpt lat="42.84995" lon="0.27538">
        <ele>1338</ele>
        <time>2022-03-12T09:03:49Z</time>
      </trkpt>
      <trkpt lat="42.84996" lon="0.27535">
        <ele>1339</ele>
        <time>2022-03-12T09:03:52Z</time>
      </trkpt>
      <trkpt lat="42.84996" lon="0.27532">
        <ele>1339</ele>
        <time>2022-03-12T09:03:54Z</time>
      </trkpt>
      <trkpt lat="42.84996" lon="0.27529">
        <ele>1338</ele>
        <time>2022-03-12T09:03:56Z</time>
      </trkpt>
      <trkpt lat="42.84996" lon="0.27526">
        <ele>1339</ele>
        <time>2022-03-12T09:03:58Z</time>
      </trkpt>
      <trkpt lat="42.84997" lon="0.27523">
        <ele>1340</ele>
        <time>2022-03-12T09:04:00Z</time>
      </trkpt>
      <trkpt lat="42.84998" lon="0.27521">
        <ele>1340</ele>
        <time>2022-03-12T09:04:02Z</time>
      </trkpt>
      <trkpt lat="42.84999" lon="0.27517">
        <ele>1340</ele>
        <time>2022-03-12T09:04:05Z</time>
      </trkpt>
      <trkpt lat="42.84999" lon="0.27515">
        <ele>1340</ele>
        <time>2022-03-12T09:04:07Z</time>
      </trkpt>
      <trkpt lat="42.85" lon="0.27512">
        <ele>1340</ele>
        <time>2022-03-12T09:04:09Z</time>
      </trkpt>
      <trkpt lat="42.85001" lon="0.2751">
        <ele>1340</ele>
        <time>2022-03-12T09:04:11Z</time>
      </trkpt>
      <trkpt lat="42.85001" lon="0.27507">
        <ele>1341</ele>
        <time>2022-03-12T09:04:13Z</time>
      </trkpt>
      <trkpt lat="42.85002" lon="0.27505">
        <ele>1341</ele>
        <time>2022-03-12T09:04:15Z</time>
      </trkpt>
      <trkpt lat="42.85003" lon="0.27502">
        <ele>1341</ele>
        <time>2022-03-12T09:04:17Z</time>
      </trkpt>
      <trkpt lat="42.85004" lon="0.275">
        <ele>1341</ele>
        <time>2022-03-12T09:04:19Z</time>
      </trkpt>
      <trkpt lat="42.85004" lon="0.27497">
        <ele>1341</ele>
        <time>2022-03-12T09:04:21Z</time>
      </trkpt>
      <trkpt lat="42.85005" lon="0.27495">
        <ele>1341</ele>
        <time>2022-03-12T09:04:23Z</time>
      </trkpt>
      <trkpt lat="42.85006" lon="0.27492">
        <ele>1341</ele>
        <time>2022-03-12T09:04:26Z</time>
      </trkpt>
      <trkpt lat="42.85007" lon="0.2749">
        <ele>1341</ele>
        <time>2022-03-12T09:04:28Z</time>
      </trkpt>
      <trkpt lat="42.85008" lon="0.27487">
        <ele>1341</ele>
        <time>2022-03-12T09:04:30Z</time>
      </trkpt>
      <trkpt lat="42.85009" lon="0.27484">
        <ele>1341</ele>
        <time>2022-03-12T09:04:32Z</time>
      </trkpt>
      <trkpt lat="42.8501" lon="0.27482">
        <ele>1341</ele>
        <time>2022-03-12T09:04:34Z</time>
      </trkpt>
      <trkpt lat="42.85012" lon="0.2748">
        <ele>1341</ele>
        <time>2022-03-12T09:04:37Z</time>
      </trkpt>
      <trkpt lat="42.85013" lon="0.27478">
        <ele>1341</ele>
        <time>2022-03-12T09:04:39Z</time>
      </trkpt>
      <trkpt lat="42.85015" lon="0.27476">
        <ele>1341</ele>
        <time>2022-03-12T09:04:42Z</time>
      </trkpt>
      <trkpt lat="42.85017" lon="0.27474">
        <ele>1342</ele>
        <time>2022-03-12T09:04:45Z</time>
      </trkpt>
      <trkpt lat="42.85018" lon="0.27473">
        <ele>1342</ele>
        <time>2022-03-12T09:04:48Z</time>
      </trkpt>
      <trkpt lat="42.85018" lon="0.27469">
        <ele>1342</ele>
        <time>2022-03-12T09:04:50Z</time>
      </trkpt>
      <trkpt lat="42.8502" lon="0.27467">
        <ele>1342</ele>
        <time>2022-03-12T09:04:53Z</time>
      </trkpt>
      <trkpt lat="42.85022" lon="0.27464">
        <ele>1342</ele>
        <time>2022-03-12T09:04:56Z</time>
      </trkpt>
      <trkpt lat="42.85023" lon="0.27462">
        <ele>1342</ele>
        <time>2022-03-12T09:04:58Z</time>
      </trkpt>
      <trkpt lat="42.85025" lon="0.27461">
        <ele>1342</ele>
        <time>2022-03-12T09:05:01Z</time>
      </trkpt>
      <trkpt lat="42.85027" lon="0.27459">
        <ele>1343</ele>
        <time>2022-03-12T09:05:04Z</time>
      </trkpt>
      <trkpt lat="42.85029" lon="0.27457">
        <ele>1343</ele>
        <time>2022-03-12T09:05:07Z</time>
      </trkpt>
      <trkpt lat="42.8503" lon="0.27455">
        <ele>1344</ele>
        <time>2022-03-12T09:05:10Z</time>
      </trkpt>
      <trkpt lat="42.85033" lon="0.27453">
        <ele>1344</ele>
        <time>2022-03-12T09:05:13Z</time>
      </trkpt>
      <trkpt lat="42.85035" lon="0.27452">
        <ele>1344</ele>
        <time>2022-03-12T09:05:15Z</time>
      </trkpt>
      <trkpt lat="42.85037" lon="0.27451">
        <ele>1345</ele>
        <time>2022-03-12T09:05:17Z</time>
      </trkpt>
      <trkpt lat="42.85039" lon="0.2745">
        <ele>1345</ele>
        <time>2022-03-12T09:05:19Z</time>
      </trkpt>
      <trkpt lat="42.8504" lon="0.27449">
        <ele>1345</ele>
        <time>2022-03-12T09:05:20Z</time>
      </trkpt>
      <trkpt lat="42.85042" lon="0.27447">
        <ele>1345</ele>
        <time>2022-03-12T09:05:23Z</time>
      </trkpt>
      <trkpt lat="42.85043" lon="0.27445">
        <ele>1345</ele>
        <time>2022-03-12T09:05:25Z</time>
      </trkpt>
      <trkpt lat="42.85045" lon="0.27444">
        <ele>1345</ele>
        <time>2022-03-12T09:05:28Z</time>
      </trkpt>
      <trkpt lat="42.85047" lon="0.27443">
        <ele>1346</ele>
        <time>2022-03-12T09:05:31Z</time>
      </trkpt>
      <trkpt lat="42.85049" lon="0.27441">
        <ele>1346</ele>
        <time>2022-03-12T09:05:34Z</time>
      </trkpt>
      <trkpt lat="42.8505" lon="0.27439">
        <ele>1347</ele>
        <time>2022-03-12T09:05:37Z</time>
      </trkpt>
      <trkpt lat="42.85051" lon="0.27437">
        <ele>1347</ele>
        <time>2022-03-12T09:05:41Z</time>
      </trkpt>
      <trkpt lat="42.85053" lon="0.27436">
        <ele>1348</ele>
        <time>2022-03-12T09:05:43Z</time>
      </trkpt>
      <trkpt lat="42.85055" lon="0.27435">
        <ele>1348</ele>
        <time>2022-03-12T09:05:45Z</time>
      </trkpt>
      <trkpt lat="42.85057" lon="0.27433">
        <ele>1348</ele>
        <time>2022-03-12T09:05:50Z</time>
      </trkpt>
      <trkpt lat="42.85059" lon="0.27432">
        <ele>1348</ele>
        <time>2022-03-12T09:05:53Z</time>
      </trkpt>
      <trkpt lat="42.85061" lon="0.2743">
        <ele>1349</ele>
        <time>2022-03-12T09:05:56Z</time>
      </trkpt>
      <trkpt lat="42.85064" lon="0.27428">
        <ele>1349</ele>
        <time>2022-03-12T09:05:58Z</time>
      </trkpt>
      <trkpt lat="42.85065" lon="0.27427">
        <ele>1349</ele>
        <time>2022-03-12T09:06:01Z</time>
      </trkpt>
      <trkpt lat="42.85067" lon="0.27426">
        <ele>1349</ele>
        <time>2022-03-12T09:06:03Z</time>
      </trkpt>
      <trkpt lat="42.85069" lon="0.27423">
        <ele>1349</ele>
        <time>2022-03-12T09:06:06Z</time>
      </trkpt>
      <trkpt lat="42.8507" lon="0.27421">
        <ele>1350</ele>
        <time>2022-03-12T09:06:08Z</time>
      </trkpt>
      <trkpt lat="42.85073" lon="0.27419">
        <ele>1350</ele>
        <time>2022-03-12T09:06:11Z</time>
      </trkpt>
      <trkpt lat="42.85074" lon="0.27417">
        <ele>1350</ele>
        <time>2022-03-12T09:06:13Z</time>
      </trkpt>
      <trkpt lat="42.85075" lon="0.27415">
        <ele>1350</ele>
        <time>2022-03-12T09:06:15Z</time>
      </trkpt>
      <trkpt lat="42.85076" lon="0.27413">
        <ele>1350</ele>
        <time>2022-03-12T09:06:17Z</time>
      </trkpt>
      <trkpt lat="42.85077" lon="0.27411">
        <ele>1350</ele>
        <time>2022-03-12T09:06:19Z</time>
      </trkpt>
      <trkpt lat="42.85079" lon="0.27409">
        <ele>1350</ele>
        <time>2022-03-12T09:06:21Z</time>
      </trkpt>
      <trkpt lat="42.8508" lon="0.27407">
        <ele>1351</ele>
        <time>2022-03-12T09:06:23Z</time>
      </trkpt>
      <trkpt lat="42.85082" lon="0.27405">
        <ele>1351</ele>
        <time>2022-03-12T09:06:26Z</time>
      </trkpt>
      <trkpt lat="42.85084" lon="0.27403">
        <ele>1351</ele>
        <time>2022-03-12T09:06:29Z</time>
      </trkpt>
      <trkpt lat="42.85086" lon="0.27401">
        <ele>1352</ele>
        <time>2022-03-12T09:06:32Z</time>
      </trkpt>
      <trkpt lat="42.85088" lon="0.27399">
        <ele>1352</ele>
        <time>2022-03-12T09:06:35Z</time>
      </trkpt>
      <trkpt lat="42.8509" lon="0.27397">
        <ele>1352</ele>
        <time>2022-03-12T09:06:38Z</time>
      </trkpt>
      <trkpt lat="42.85092" lon="0.27394">
        <ele>1352</ele>
        <time>2022-03-12T09:06:41Z</time>
      </trkpt>
      <trkpt lat="42.85093" lon="0.27392">
        <ele>1353</ele>
        <time>2022-03-12T09:06:44Z</time>
      </trkpt>
      <trkpt lat="42.85095" lon="0.2739">
        <ele>1353</ele>
        <time>2022-03-12T09:06:47Z</time>
      </trkpt>
      <trkpt lat="42.85097" lon="0.27387">
        <ele>1353</ele>
        <time>2022-03-12T09:06:50Z</time>
      </trkpt>
      <trkpt lat="42.85099" lon="0.27385">
        <ele>1353</ele>
        <time>2022-03-12T09:06:53Z</time>
      </trkpt>
      <trkpt lat="42.85101" lon="0.27383">
        <ele>1354</ele>
        <time>2022-03-12T09:06:56Z</time>
      </trkpt>
      <trkpt lat="42.85103" lon="0.27381">
        <ele>1354</ele>
        <time>2022-03-12T09:06:59Z</time>
      </trkpt>
      <trkpt lat="42.85104" lon="0.27378">
        <ele>1355</ele>
        <time>2022-03-12T09:07:02Z</time>
      </trkpt>
      <trkpt lat="42.85107" lon="0.27376">
        <ele>1355</ele>
        <time>2022-03-12T09:07:05Z</time>
      </trkpt>
      <trkpt lat="42.85108" lon="0.27375">
        <ele>1355</ele>
        <time>2022-03-12T09:07:07Z</time>
      </trkpt>
      <trkpt lat="42.8511" lon="0.27373">
        <ele>1355</ele>
        <time>2022-03-12T09:07:10Z</time>
      </trkpt>
      <trkpt lat="42.85112" lon="0.27371">
        <ele>1355</ele>
        <time>2022-03-12T09:07:13Z</time>
      </trkpt>
      <trkpt lat="42.85114" lon="0.27368">
        <ele>1356</ele>
        <time>2022-03-12T09:07:16Z</time>
      </trkpt>
      <trkpt lat="42.85115" lon="0.27366">
        <ele>1356</ele>
        <time>2022-03-12T09:07:19Z</time>
      </trkpt>
      <trkpt lat="42.85116" lon="0.27363">
        <ele>1356</ele>
        <time>2022-03-12T09:07:28Z</time>
      </trkpt>
      <trkpt lat="42.85117" lon="0.27361">
        <ele>1356</ele>
        <time>2022-03-12T09:07:31Z</time>
      </trkpt>
      <trkpt lat="42.85119" lon="0.27359">
        <ele>1356</ele>
        <time>2022-03-12T09:07:33Z</time>
      </trkpt>
      <trkpt lat="42.8512" lon="0.27357">
        <ele>1356</ele>
        <time>2022-03-12T09:07:37Z</time>
      </trkpt>
      <trkpt lat="42.85122" lon="0.27355">
        <ele>1357</ele>
        <time>2022-03-12T09:07:40Z</time>
      </trkpt>
      <trkpt lat="42.85123" lon="0.27354">
        <ele>1357</ele>
        <time>2022-03-12T09:08:03Z</time>
      </trkpt>
      <trkpt lat="42.85125" lon="0.27352">
        <ele>1358</ele>
        <time>2022-03-12T09:08:05Z</time>
      </trkpt>
      <trkpt lat="42.85126" lon="0.2735">
        <ele>1358</ele>
        <time>2022-03-12T09:08:07Z</time>
      </trkpt>
      <trkpt lat="42.85128" lon="0.27348">
        <ele>1359</ele>
        <time>2022-03-12T09:08:09Z</time>
      </trkpt>
      <trkpt lat="42.85129" lon="0.27347">
        <ele>1359</ele>
        <time>2022-03-12T09:08:11Z</time>
      </trkpt>
      <trkpt lat="42.85131" lon="0.27345">
        <ele>1359</ele>
        <time>2022-03-12T09:08:13Z</time>
      </trkpt>
      <trkpt lat="42.85132" lon="0.27343">
        <ele>1359</ele>
        <time>2022-03-12T09:08:16Z</time>
      </trkpt>
      <trkpt lat="42.85133" lon="0.27341">
        <ele>1359</ele>
        <time>2022-03-12T09:08:22Z</time>
      </trkpt>
      <trkpt lat="42.85134" lon="0.27338">
        <ele>1360</ele>
        <time>2022-03-12T09:08:25Z</time>
      </trkpt>
      <trkpt lat="42.85135" lon="0.27336">
        <ele>1360</ele>
        <time>2022-03-12T09:08:27Z</time>
      </trkpt>
      <trkpt lat="42.85137" lon="0.27334">
        <ele>1360</ele>
        <time>2022-03-12T09:08:30Z</time>
      </trkpt>
      <trkpt lat="42.85139" lon="0.27332">
        <ele>1361</ele>
        <time>2022-03-12T09:08:33Z</time>
      </trkpt>
      <trkpt lat="42.8514" lon="0.2733">
        <ele>1361</ele>
        <time>2022-03-12T09:08:35Z</time>
      </trkpt>
      <trkpt lat="42.85142" lon="0.27328">
        <ele>1361</ele>
        <time>2022-03-12T09:08:38Z</time>
      </trkpt>
      <trkpt lat="42.85143" lon="0.27325">
        <ele>1361</ele>
        <time>2022-03-12T09:08:41Z</time>
      </trkpt>
      <trkpt lat="42.85145" lon="0.27322">
        <ele>1362</ele>
        <time>2022-03-12T09:08:44Z</time>
      </trkpt>
      <trkpt lat="42.85147" lon="0.2732">
        <ele>1362</ele>
        <time>2022-03-12T09:08:47Z</time>
      </trkpt>
      <trkpt lat="42.85149" lon="0.27318">
        <ele>1363</ele>
        <time>2022-03-12T09:08:49Z</time>
      </trkpt>
      <trkpt lat="42.8515" lon="0.27316">
        <ele>1363</ele>
        <time>2022-03-12T09:08:52Z</time>
      </trkpt>
      <trkpt lat="42.85152" lon="0.27314">
        <ele>1363</ele>
        <time>2022-03-12T09:08:54Z</time>
      </trkpt>
      <trkpt lat="42.85153" lon="0.27311">
        <ele>1364</ele>
        <time>2022-03-12T09:08:57Z</time>
      </trkpt>
      <trkpt lat="42.85155" lon="0.27309">
        <ele>1365</ele>
        <time>2022-03-12T09:09:00Z</time>
      </trkpt>
      <trkpt lat="42.85156" lon="0.27306">
        <ele>1365</ele>
        <time>2022-03-12T09:09:03Z</time>
      </trkpt>
      <trkpt lat="42.85155" lon="0.27303">
        <ele>1365</ele>
        <time>2022-03-12T09:09:07Z</time>
      </trkpt>
      <trkpt lat="42.85152" lon="0.27301">
        <ele>1366</ele>
        <time>2022-03-12T09:09:10Z</time>
      </trkpt>
      <trkpt lat="42.8515" lon="0.273">
        <ele>1366</ele>
        <time>2022-03-12T09:09:13Z</time>
      </trkpt>
      <trkpt lat="42.85148" lon="0.27299">
        <ele>1366</ele>
        <time>2022-03-12T09:09:34Z</time>
      </trkpt>
      <trkpt lat="42.85146" lon="0.27298">
        <ele>1366</ele>
        <time>2022-03-12T09:09:36Z</time>
      </trkpt>
      <trkpt lat="42.85144" lon="0.27297">
        <ele>1366</ele>
        <time>2022-03-12T09:09:38Z</time>
      </trkpt>
      <trkpt lat="42.85142" lon="0.27294">
        <ele>1366</ele>
        <time>2022-03-12T09:09:41Z</time>
      </trkpt>
      <trkpt lat="42.85141" lon="0.27292">
        <ele>1366</ele>
        <time>2022-03-12T09:09:43Z</time>
      </trkpt>
      <trkpt lat="42.85139" lon="0.27289">
        <ele>1366</ele>
        <time>2022-03-12T09:09:46Z</time>
      </trkpt>
      <trkpt lat="42.85138" lon="0.27287">
        <ele>1367</ele>
        <time>2022-03-12T09:09:48Z</time>
      </trkpt>
      <trkpt lat="42.85137" lon="0.27285">
        <ele>1366</ele>
        <time>2022-03-12T09:09:50Z</time>
      </trkpt>
      <trkpt lat="42.85137" lon="0.27282">
        <ele>1366</ele>
        <time>2022-03-12T09:09:53Z</time>
      </trkpt>
      <trkpt lat="42.85135" lon="0.27281">
        <ele>1366</ele>
        <time>2022-03-12T09:10:26Z</time>
      </trkpt>
      <trkpt lat="42.85135" lon="0.27279">
        <ele>1367</ele>
        <time>2022-03-12T09:12:22Z</time>
      </trkpt>
      <trkpt lat="42.85136" lon="0.27281">
        <ele>1367</ele>
        <time>2022-03-12T09:12:31Z</time>
      </trkpt>
      <trkpt lat="42.85135" lon="0.27283">
        <ele>1367</ele>
        <time>2022-03-12T09:13:14Z</time>
      </trkpt>
      <trkpt lat="42.85136" lon="0.2728">
        <ele>1367</ele>
        <time>2022-03-12T09:13:40Z</time>
      </trkpt>
      <trkpt lat="42.85138" lon="0.2728">
        <ele>1367</ele>
        <time>2022-03-12T09:13:52Z</time>
      </trkpt>
      <trkpt lat="42.85133" lon="0.27282">
        <ele>1366</ele>
        <time>2022-03-12T09:14:10Z</time>
      </trkpt>
      <trkpt lat="42.85135" lon="0.27281">
        <ele>1367</ele>
        <time>2022-03-12T09:14:26Z</time>
      </trkpt>
      <trkpt lat="42.85137" lon="0.27281">
        <ele>1366</ele>
        <time>2022-03-12T09:15:36Z</time>
      </trkpt>
      <trkpt lat="42.85134" lon="0.27279">
        <ele>1366</ele>
        <time>2022-03-12T09:17:26Z</time>
      </trkpt>
      <trkpt lat="42.85135" lon="0.27276">
        <ele>1367</ele>
        <time>2022-03-12T09:18:36Z</time>
      </trkpt>
      <trkpt lat="42.85136" lon="0.27273">
        <ele>1367</ele>
        <time>2022-03-12T09:18:45Z</time>
      </trkpt>
      <trkpt lat="42.85139" lon="0.27262">
        <ele>1368</ele>
        <time>2022-03-12T09:18:56Z</time>
      </trkpt>
      <trkpt lat="42.85142" lon="0.27256">
        <ele>1369</ele>
        <time>2022-03-12T09:19:09Z</time>
      </trkpt>
      <trkpt lat="42.85149" lon="0.27247">
        <ele>1370</ele>
        <time>2022-03-12T09:19:20Z</time>
      </trkpt>
      <trkpt lat="42.85152" lon="0.27235">
        <ele>1372</ele>
        <time>2022-03-12T09:19:31Z</time>
      </trkpt>
      <trkpt lat="42.85157" lon="0.27224">
        <ele>1373</ele>
        <time>2022-03-12T09:19:45Z</time>
      </trkpt>
      <trkpt lat="42.85162" lon="0.2722">
        <ele>1374</ele>
        <time>2022-03-12T09:19:52Z</time>
      </trkpt>
      <trkpt lat="42.85164" lon="0.27218">
        <ele>1375</ele>
        <time>2022-03-12T09:19:55Z</time>
      </trkpt>
      <trkpt lat="42.85165" lon="0.27215">
        <ele>1375</ele>
        <time>2022-03-12T09:19:58Z</time>
      </trkpt>
      <trkpt lat="42.85166" lon="0.27213">
        <ele>1375</ele>
        <time>2022-03-12T09:20:01Z</time>
      </trkpt>
      <trkpt lat="42.85168" lon="0.2721">
        <ele>1375</ele>
        <time>2022-03-12T09:20:04Z</time>
      </trkpt>
      <trkpt lat="42.85168" lon="0.27208">
        <ele>1375</ele>
        <time>2022-03-12T09:20:07Z</time>
      </trkpt>
      <trkpt lat="42.85169" lon="0.27205">
        <ele>1376</ele>
        <time>2022-03-12T09:20:13Z</time>
      </trkpt>
      <trkpt lat="42.85171" lon="0.27203">
        <ele>1376</ele>
        <time>2022-03-12T09:20:16Z</time>
      </trkpt>
      <trkpt lat="42.85173" lon="0.27201">
        <ele>1376</ele>
        <time>2022-03-12T09:20:19Z</time>
      </trkpt>
      <trkpt lat="42.85174" lon="0.27199">
        <ele>1377</ele>
        <time>2022-03-12T09:20:22Z</time>
      </trkpt>
      <trkpt lat="42.85176" lon="0.27196">
        <ele>1377</ele>
        <time>2022-03-12T09:20:25Z</time>
      </trkpt>
      <trkpt lat="42.85178" lon="0.27193">
        <ele>1378</ele>
        <time>2022-03-12T09:20:28Z</time>
      </trkpt>
      <trkpt lat="42.85179" lon="0.27191">
        <ele>1378</ele>
        <time>2022-03-12T09:20:31Z</time>
      </trkpt>
      <trkpt lat="42.85181" lon="0.27188">
        <ele>1378</ele>
        <time>2022-03-12T09:20:34Z</time>
      </trkpt>
      <trkpt lat="42.85183" lon="0.27186">
        <ele>1378</ele>
        <time>2022-03-12T09:20:37Z</time>
      </trkpt>
      <trkpt lat="42.85184" lon="0.27184">
        <ele>1379</ele>
        <time>2022-03-12T09:20:40Z</time>
      </trkpt>
      <trkpt lat="42.85186" lon="0.27181">
        <ele>1379</ele>
        <time>2022-03-12T09:20:43Z</time>
      </trkpt>
      <trkpt lat="42.85188" lon="0.2718">
        <ele>1380</ele>
        <time>2022-03-12T09:20:46Z</time>
      </trkpt>
      <trkpt lat="42.8519" lon="0.27178">
        <ele>1381</ele>
        <time>2022-03-12T09:20:49Z</time>
      </trkpt>
      <trkpt lat="42.85192" lon="0.27175">
        <ele>1381</ele>
        <time>2022-03-12T09:20:51Z</time>
      </trkpt>
      <trkpt lat="42.85194" lon="0.27173">
        <ele>1381</ele>
        <time>2022-03-12T09:20:55Z</time>
      </trkpt>
      <trkpt lat="42.85196" lon="0.27172">
        <ele>1381</ele>
        <time>2022-03-12T09:20:58Z</time>
      </trkpt>
      <trkpt lat="42.85198" lon="0.2717">
        <ele>1382</ele>
        <time>2022-03-12T09:21:01Z</time>
      </trkpt>
      <trkpt lat="42.852" lon="0.27168">
        <ele>1382</ele>
        <time>2022-03-12T09:21:04Z</time>
      </trkpt>
      <trkpt lat="42.85203" lon="0.27166">
        <ele>1382</ele>
        <time>2022-03-12T09:21:07Z</time>
      </trkpt>
      <trkpt lat="42.85205" lon="0.27164">
        <ele>1382</ele>
        <time>2022-03-12T09:21:10Z</time>
      </trkpt>
      <trkpt lat="42.85207" lon="0.27162">
        <ele>1383</ele>
        <time>2022-03-12T09:21:13Z</time>
      </trkpt>
      <trkpt lat="42.85209" lon="0.27161">
        <ele>1383</ele>
        <time>2022-03-12T09:21:16Z</time>
      </trkpt>
      <trkpt lat="42.85211" lon="0.27159">
        <ele>1383</ele>
        <time>2022-03-12T09:21:19Z</time>
      </trkpt>
      <trkpt lat="42.85213" lon="0.27157">
        <ele>1384</ele>
        <time>2022-03-12T09:21:22Z</time>
      </trkpt>
      <trkpt lat="42.85215" lon="0.27156">
        <ele>1385</ele>
        <time>2022-03-12T09:21:25Z</time>
      </trkpt>
      <trkpt lat="42.85216" lon="0.27154">
        <ele>1385</ele>
        <time>2022-03-12T09:21:28Z</time>
      </trkpt>
      <trkpt lat="42.85217" lon="0.27151">
        <ele>1385</ele>
        <time>2022-03-12T09:21:31Z</time>
      </trkpt>
      <trkpt lat="42.85219" lon="0.27149">
        <ele>1385</ele>
        <time>2022-03-12T09:21:34Z</time>
      </trkpt>
      <trkpt lat="42.8522" lon="0.27147">
        <ele>1385</ele>
        <time>2022-03-12T09:21:37Z</time>
      </trkpt>
      <trkpt lat="42.85222" lon="0.27145">
        <ele>1386</ele>
        <time>2022-03-12T09:21:40Z</time>
      </trkpt>
      <trkpt lat="42.85224" lon="0.27143">
        <ele>1387</ele>
        <time>2022-03-12T09:21:43Z</time>
      </trkpt>
      <trkpt lat="42.85225" lon="0.2714">
        <ele>1387</ele>
        <time>2022-03-12T09:21:46Z</time>
      </trkpt>
      <trkpt lat="42.85227" lon="0.27139">
        <ele>1387</ele>
        <time>2022-03-12T09:21:49Z</time>
      </trkpt>
      <trkpt lat="42.8523" lon="0.27137">
        <ele>1387</ele>
        <time>2022-03-12T09:21:53Z</time>
      </trkpt>
      <trkpt lat="42.85232" lon="0.27137">
        <ele>1387</ele>
        <time>2022-03-12T09:21:56Z</time>
      </trkpt>
      <trkpt lat="42.85234" lon="0.27135">
        <ele>1388</ele>
        <time>2022-03-12T09:21:59Z</time>
      </trkpt>
      <trkpt lat="42.85236" lon="0.27135">
        <ele>1388</ele>
        <time>2022-03-12T09:22:02Z</time>
      </trkpt>
      <trkpt lat="42.85238" lon="0.27134">
        <ele>1388</ele>
        <time>2022-03-12T09:22:05Z</time>
      </trkpt>
      <trkpt lat="42.8524" lon="0.27132">
        <ele>1388</ele>
        <time>2022-03-12T09:22:07Z</time>
      </trkpt>
      <trkpt lat="42.85241" lon="0.27131">
        <ele>1388</ele>
        <time>2022-03-12T09:22:11Z</time>
      </trkpt>
      <trkpt lat="42.85243" lon="0.27131">
        <ele>1389</ele>
        <time>2022-03-12T09:22:14Z</time>
      </trkpt>
      <trkpt lat="42.85245" lon="0.2713">
        <ele>1390</ele>
        <time>2022-03-12T09:22:18Z</time>
      </trkpt>
      <trkpt lat="42.85247" lon="0.27129">
        <ele>1391</ele>
        <time>2022-03-12T09:22:21Z</time>
      </trkpt>
      <trkpt lat="42.85249" lon="0.27128">
        <ele>1392</ele>
        <time>2022-03-12T09:22:24Z</time>
      </trkpt>
      <trkpt lat="42.85251" lon="0.27128">
        <ele>1392</ele>
        <time>2022-03-12T09:22:27Z</time>
      </trkpt>
      <trkpt lat="42.85253" lon="0.27128">
        <ele>1392</ele>
        <time>2022-03-12T09:22:30Z</time>
      </trkpt>
      <trkpt lat="42.85256" lon="0.27127">
        <ele>1393</ele>
        <time>2022-03-12T09:22:34Z</time>
      </trkpt>
      <trkpt lat="42.85258" lon="0.27127">
        <ele>1393</ele>
        <time>2022-03-12T09:22:37Z</time>
      </trkpt>
      <trkpt lat="42.85259" lon="0.27127">
        <ele>1394</ele>
        <time>2022-03-12T09:22:40Z</time>
      </trkpt>
      <trkpt lat="42.85262" lon="0.27127">
        <ele>1394</ele>
        <time>2022-03-12T09:22:44Z</time>
      </trkpt>
      <trkpt lat="42.85264" lon="0.27126">
        <ele>1396</ele>
        <time>2022-03-12T09:22:47Z</time>
      </trkpt>
      <trkpt lat="42.85266" lon="0.27125">
        <ele>1396</ele>
        <time>2022-03-12T09:22:51Z</time>
      </trkpt>
      <trkpt lat="42.85268" lon="0.27126">
        <ele>1396</ele>
        <time>2022-03-12T09:22:55Z</time>
      </trkpt>
      <trkpt lat="42.8527" lon="0.27125">
        <ele>1397</ele>
        <time>2022-03-12T09:22:59Z</time>
      </trkpt>
      <trkpt lat="42.85272" lon="0.27124">
        <ele>1398</ele>
        <time>2022-03-12T09:23:06Z</time>
      </trkpt>
      <trkpt lat="42.85275" lon="0.27124">
        <ele>1399</ele>
        <time>2022-03-12T09:23:10Z</time>
      </trkpt>
      <trkpt lat="42.85277" lon="0.27123">
        <ele>1399</ele>
        <time>2022-03-12T09:23:14Z</time>
      </trkpt>
      <trkpt lat="42.85279" lon="0.27123">
        <ele>1400</ele>
        <time>2022-03-12T09:23:17Z</time>
      </trkpt>
      <trkpt lat="42.85281" lon="0.27123">
        <ele>1401</ele>
        <time>2022-03-12T09:23:20Z</time>
      </trkpt>
      <trkpt lat="42.85283" lon="0.27123">
        <ele>1401</ele>
        <time>2022-03-12T09:23:23Z</time>
      </trkpt>
      <trkpt lat="42.85285" lon="0.27122">
        <ele>1402</ele>
        <time>2022-03-12T09:23:26Z</time>
      </trkpt>
      <trkpt lat="42.85287" lon="0.27122">
        <ele>1402</ele>
        <time>2022-03-12T09:23:29Z</time>
      </trkpt>
      <trkpt lat="42.85289" lon="0.27122">
        <ele>1403</ele>
        <time>2022-03-12T09:23:32Z</time>
      </trkpt>
      <trkpt lat="42.85291" lon="0.27122">
        <ele>1403</ele>
        <time>2022-03-12T09:23:36Z</time>
      </trkpt>
      <trkpt lat="42.85293" lon="0.27123">
        <ele>1403</ele>
        <time>2022-03-12T09:23:40Z</time>
      </trkpt>
      <trkpt lat="42.85295" lon="0.27123">
        <ele>1404</ele>
        <time>2022-03-12T09:23:42Z</time>
      </trkpt>
      <trkpt lat="42.85297" lon="0.27123">
        <ele>1404</ele>
        <time>2022-03-12T09:23:48Z</time>
      </trkpt>
      <trkpt lat="42.85299" lon="0.27123">
        <ele>1405</ele>
        <time>2022-03-12T09:23:51Z</time>
      </trkpt>
      <trkpt lat="42.85301" lon="0.27121">
        <ele>1406</ele>
        <time>2022-03-12T09:23:56Z</time>
      </trkpt>
      <trkpt lat="42.85302" lon="0.27119">
        <ele>1406</ele>
        <time>2022-03-12T09:23:59Z</time>
      </trkpt>
      <trkpt lat="42.85304" lon="0.27118">
        <ele>1406</ele>
        <time>2022-03-12T09:24:02Z</time>
      </trkpt>
      <trkpt lat="42.85305" lon="0.27116">
        <ele>1407</ele>
        <time>2022-03-12T09:24:05Z</time>
      </trkpt>
      <trkpt lat="42.85306" lon="0.27114">
        <ele>1407</ele>
        <time>2022-03-12T09:24:08Z</time>
      </trkpt>
      <trkpt lat="42.85307" lon="0.27112">
        <ele>1407</ele>
        <time>2022-03-12T09:24:11Z</time>
      </trkpt>
      <trkpt lat="42.85309" lon="0.2711">
        <ele>1408</ele>
        <time>2022-03-12T09:24:15Z</time>
      </trkpt>
      <trkpt lat="42.85311" lon="0.27108">
        <ele>1408</ele>
        <time>2022-03-12T09:24:19Z</time>
      </trkpt>
      <trkpt lat="42.85312" lon="0.27106">
        <ele>1408</ele>
        <time>2022-03-12T09:24:22Z</time>
      </trkpt>
      <trkpt lat="42.85314" lon="0.27103">
        <ele>1408</ele>
        <time>2022-03-12T09:24:26Z</time>
      </trkpt>
      <trkpt lat="42.85315" lon="0.27101">
        <ele>1409</ele>
        <time>2022-03-12T09:24:29Z</time>
      </trkpt>
      <trkpt lat="42.85316" lon="0.27098">
        <ele>1409</ele>
        <time>2022-03-12T09:24:33Z</time>
      </trkpt>
      <trkpt lat="42.85317" lon="0.27096">
        <ele>1410</ele>
        <time>2022-03-12T09:24:37Z</time>
      </trkpt>
      <trkpt lat="42.85318" lon="0.27093">
        <ele>1410</ele>
        <time>2022-03-12T09:24:40Z</time>
      </trkpt>
      <trkpt lat="42.85319" lon="0.2709">
        <ele>1411</ele>
        <time>2022-03-12T09:24:43Z</time>
      </trkpt>
      <trkpt lat="42.8532" lon="0.27087">
        <ele>1411</ele>
        <time>2022-03-12T09:24:46Z</time>
      </trkpt>
      <trkpt lat="42.85321" lon="0.27084">
        <ele>1411</ele>
        <time>2022-03-12T09:24:49Z</time>
      </trkpt>
      <trkpt lat="42.85322" lon="0.27082">
        <ele>1411</ele>
        <time>2022-03-12T09:24:53Z</time>
      </trkpt>
      <trkpt lat="42.85324" lon="0.27079">
        <ele>1412</ele>
        <time>2022-03-12T09:24:56Z</time>
      </trkpt>
      <trkpt lat="42.85325" lon="0.27076">
        <ele>1412</ele>
        <time>2022-03-12T09:24:58Z</time>
      </trkpt>
      <trkpt lat="42.85326" lon="0.27074">
        <ele>1413</ele>
        <time>2022-03-12T09:25:02Z</time>
      </trkpt>
      <trkpt lat="42.85327" lon="0.27071">
        <ele>1414</ele>
        <time>2022-03-12T09:25:05Z</time>
      </trkpt>
      <trkpt lat="42.85329" lon="0.27069">
        <ele>1414</ele>
        <time>2022-03-12T09:25:09Z</time>
      </trkpt>
      <trkpt lat="42.85331" lon="0.27067">
        <ele>1414</ele>
        <time>2022-03-12T09:25:12Z</time>
      </trkpt>
      <trkpt lat="42.85333" lon="0.27066">
        <ele>1414</ele>
        <time>2022-03-12T09:25:15Z</time>
      </trkpt>
      <trkpt lat="42.85335" lon="0.27066">
        <ele>1415</ele>
        <time>2022-03-12T09:25:18Z</time>
      </trkpt>
      <trkpt lat="42.85337" lon="0.27065">
        <ele>1415</ele>
        <time>2022-03-12T09:25:20Z</time>
      </trkpt>
      <trkpt lat="42.8534" lon="0.27065">
        <ele>1415</ele>
        <time>2022-03-12T09:25:22Z</time>
      </trkpt>
      <trkpt lat="42.85341" lon="0.27064">
        <ele>1416</ele>
        <time>2022-03-12T09:25:25Z</time>
      </trkpt>
      <trkpt lat="42.85343" lon="0.27062">
        <ele>1416</ele>
        <time>2022-03-12T09:25:28Z</time>
      </trkpt>
      <trkpt lat="42.85344" lon="0.27061">
        <ele>1416</ele>
        <time>2022-03-12T09:25:32Z</time>
      </trkpt>
      <trkpt lat="42.85347" lon="0.27061">
        <ele>1417</ele>
        <time>2022-03-12T09:25:35Z</time>
      </trkpt>
      <trkpt lat="42.85348" lon="0.2706">
        <ele>1417</ele>
        <time>2022-03-12T09:25:37Z</time>
      </trkpt>
      <trkpt lat="42.8535" lon="0.27059">
        <ele>1418</ele>
        <time>2022-03-12T09:25:40Z</time>
      </trkpt>
      <trkpt lat="42.85352" lon="0.27059">
        <ele>1418</ele>
        <time>2022-03-12T09:25:43Z</time>
      </trkpt>
      <trkpt lat="42.85354" lon="0.27059">
        <ele>1418</ele>
        <time>2022-03-12T09:25:47Z</time>
      </trkpt>
      <trkpt lat="42.85356" lon="0.27058">
        <ele>1418</ele>
        <time>2022-03-12T09:25:50Z</time>
      </trkpt>
      <trkpt lat="42.85358" lon="0.27057">
        <ele>1419</ele>
        <time>2022-03-12T09:25:53Z</time>
      </trkpt>
      <trkpt lat="42.8536" lon="0.27055">
        <ele>1419</ele>
        <time>2022-03-12T09:25:57Z</time>
      </trkpt>
      <trkpt lat="42.85362" lon="0.27054">
        <ele>1419</ele>
        <time>2022-03-12T09:26:00Z</time>
      </trkpt>
      <trkpt lat="42.85363" lon="0.27052">
        <ele>1419</ele>
        <time>2022-03-12T09:26:04Z</time>
      </trkpt>
      <trkpt lat="42.85365" lon="0.27051">
        <ele>1420</ele>
        <time>2022-03-12T09:26:07Z</time>
      </trkpt>
      <trkpt lat="42.85367" lon="0.2705">
        <ele>1420</ele>
        <time>2022-03-12T09:26:10Z</time>
      </trkpt>
      <trkpt lat="42.85369" lon="0.27049">
        <ele>1420</ele>
        <time>2022-03-12T09:26:13Z</time>
      </trkpt>
      <trkpt lat="42.85371" lon="0.27047">
        <ele>1421</ele>
        <time>2022-03-12T09:26:16Z</time>
      </trkpt>
      <trkpt lat="42.85372" lon="0.27045">
        <ele>1422</ele>
        <time>2022-03-12T09:26:19Z</time>
      </trkpt>
      <trkpt lat="42.85374" lon="0.27044">
        <ele>1422</ele>
        <time>2022-03-12T09:26:22Z</time>
      </trkpt>
      <trkpt lat="42.85376" lon="0.27043">
        <ele>1422</ele>
        <time>2022-03-12T09:26:25Z</time>
      </trkpt>
      <trkpt lat="42.85378" lon="0.27042">
        <ele>1423</ele>
        <time>2022-03-12T09:26:28Z</time>
      </trkpt>
      <trkpt lat="42.8538" lon="0.2704">
        <ele>1423</ele>
        <time>2022-03-12T09:26:31Z</time>
      </trkpt>
      <trkpt lat="42.85382" lon="0.27039">
        <ele>1423</ele>
        <time>2022-03-12T09:26:34Z</time>
      </trkpt>
      <trkpt lat="42.85384" lon="0.27038">
        <ele>1424</ele>
        <time>2022-03-12T09:26:37Z</time>
      </trkpt>
      <trkpt lat="42.85385" lon="0.27037">
        <ele>1424</ele>
        <time>2022-03-12T09:26:40Z</time>
      </trkpt>
      <trkpt lat="42.85387" lon="0.27036">
        <ele>1424</ele>
        <time>2022-03-12T09:26:44Z</time>
      </trkpt>
      <trkpt lat="42.8539" lon="0.27035">
        <ele>1425</ele>
        <time>2022-03-12T09:26:48Z</time>
      </trkpt>
      <trkpt lat="42.85391" lon="0.27033">
        <ele>1426</ele>
        <time>2022-03-12T09:26:52Z</time>
      </trkpt>
      <trkpt lat="42.85393" lon="0.27032">
        <ele>1426</ele>
        <time>2022-03-12T09:26:55Z</time>
      </trkpt>
      <trkpt lat="42.85395" lon="0.27031">
        <ele>1426</ele>
        <time>2022-03-12T09:26:58Z</time>
      </trkpt>
      <trkpt lat="42.85397" lon="0.2703">
        <ele>1427</ele>
        <time>2022-03-12T09:27:01Z</time>
      </trkpt>
      <trkpt lat="42.85399" lon="0.2703">
        <ele>1427</ele>
        <time>2022-03-12T09:27:04Z</time>
      </trkpt>
      <trkpt lat="42.85401" lon="0.27028">
        <ele>1428</ele>
        <time>2022-03-12T09:27:07Z</time>
      </trkpt>
      <trkpt lat="42.85403" lon="0.27028">
        <ele>1428</ele>
        <time>2022-03-12T09:27:10Z</time>
      </trkpt>
      <trkpt lat="42.85404" lon="0.27026">
        <ele>1429</ele>
        <time>2022-03-12T09:27:13Z</time>
      </trkpt>
      <trkpt lat="42.85406" lon="0.27025">
        <ele>1429</ele>
        <time>2022-03-12T09:27:16Z</time>
      </trkpt>
      <trkpt lat="42.85408" lon="0.27024">
        <ele>1430</ele>
        <time>2022-03-12T09:27:20Z</time>
      </trkpt>
      <trkpt lat="42.8541" lon="0.27022">
        <ele>1430</ele>
        <time>2022-03-12T09:27:23Z</time>
      </trkpt>
      <trkpt lat="42.85412" lon="0.27021">
        <ele>1432</ele>
        <time>2022-03-12T09:27:27Z</time>
      </trkpt>
      <trkpt lat="42.85414" lon="0.2702">
        <ele>1433</ele>
        <time>2022-03-12T09:27:31Z</time>
      </trkpt>
      <trkpt lat="42.85415" lon="0.27017">
        <ele>1433</ele>
        <time>2022-03-12T09:27:35Z</time>
      </trkpt>
      <trkpt lat="42.85417" lon="0.27016">
        <ele>1434</ele>
        <time>2022-03-12T09:27:38Z</time>
      </trkpt>
      <trkpt lat="42.85418" lon="0.27014">
        <ele>1434</ele>
        <time>2022-03-12T09:27:42Z</time>
      </trkpt>
      <trkpt lat="42.85419" lon="0.27012">
        <ele>1434</ele>
        <time>2022-03-12T09:27:45Z</time>
      </trkpt>
      <trkpt lat="42.85421" lon="0.2701">
        <ele>1434</ele>
        <time>2022-03-12T09:27:48Z</time>
      </trkpt>
      <trkpt lat="42.85423" lon="0.27009">
        <ele>1435</ele>
        <time>2022-03-12T09:27:51Z</time>
      </trkpt>
      <trkpt lat="42.85425" lon="0.27007">
        <ele>1435</ele>
        <time>2022-03-12T09:27:54Z</time>
      </trkpt>
      <trkpt lat="42.85426" lon="0.27006">
        <ele>1435</ele>
        <time>2022-03-12T09:27:57Z</time>
      </trkpt>
      <trkpt lat="42.85428" lon="0.27004">
        <ele>1436</ele>
        <time>2022-03-12T09:28:00Z</time>
      </trkpt>
      <trkpt lat="42.85429" lon="0.27002">
        <ele>1437</ele>
        <time>2022-03-12T09:28:04Z</time>
      </trkpt>
      <trkpt lat="42.85431" lon="0.27">
        <ele>1437</ele>
        <time>2022-03-12T09:28:08Z</time>
      </trkpt>
      <trkpt lat="42.85432" lon="0.26998">
        <ele>1438</ele>
        <time>2022-03-12T09:28:11Z</time>
      </trkpt>
      <trkpt lat="42.85433" lon="0.26996">
        <ele>1438</ele>
        <time>2022-03-12T09:28:14Z</time>
      </trkpt>
      <trkpt lat="42.85434" lon="0.26994">
        <ele>1438</ele>
        <time>2022-03-12T09:28:17Z</time>
      </trkpt>
      <trkpt lat="42.85435" lon="0.26991">
        <ele>1438</ele>
        <time>2022-03-12T09:28:20Z</time>
      </trkpt>
      <trkpt lat="42.85436" lon="0.26989">
        <ele>1439</ele>
        <time>2022-03-12T09:28:24Z</time>
      </trkpt>
      <trkpt lat="42.85437" lon="0.26987">
        <ele>1440</ele>
        <time>2022-03-12T09:28:27Z</time>
      </trkpt>
      <trkpt lat="42.85439" lon="0.26985">
        <ele>1440</ele>
        <time>2022-03-12T09:28:31Z</time>
      </trkpt>
      <trkpt lat="42.8544" lon="0.26982">
        <ele>1441</ele>
        <time>2022-03-12T09:28:35Z</time>
      </trkpt>
      <trkpt lat="42.85442" lon="0.2698">
        <ele>1442</ele>
        <time>2022-03-12T09:28:38Z</time>
      </trkpt>
      <trkpt lat="42.85443" lon="0.26979">
        <ele>1442</ele>
        <time>2022-03-12T09:28:41Z</time>
      </trkpt>
      <trkpt lat="42.85444" lon="0.26977">
        <ele>1443</ele>
        <time>2022-03-12T09:28:44Z</time>
      </trkpt>
      <trkpt lat="42.85446" lon="0.26975">
        <ele>1443</ele>
        <time>2022-03-12T09:28:48Z</time>
      </trkpt>
      <trkpt lat="42.85448" lon="0.26972">
        <ele>1444</ele>
        <time>2022-03-12T09:28:52Z</time>
      </trkpt>
      <trkpt lat="42.85449" lon="0.2697">
        <ele>1444</ele>
        <time>2022-03-12T09:28:55Z</time>
      </trkpt>
      <trkpt lat="42.8545" lon="0.26968">
        <ele>1445</ele>
        <time>2022-03-12T09:28:58Z</time>
      </trkpt>
      <trkpt lat="42.85451" lon="0.26966">
        <ele>1446</ele>
        <time>2022-03-12T09:29:01Z</time>
      </trkpt>
      <trkpt lat="42.85452" lon="0.26964">
        <ele>1446</ele>
        <time>2022-03-12T09:29:04Z</time>
      </trkpt>
      <trkpt lat="42.85453" lon="0.26961">
        <ele>1446</ele>
        <time>2022-03-12T09:29:07Z</time>
      </trkpt>
      <trkpt lat="42.85455" lon="0.26959">
        <ele>1447</ele>
        <time>2022-03-12T09:29:10Z</time>
      </trkpt>
      <trkpt lat="42.85456" lon="0.26957">
        <ele>1447</ele>
        <time>2022-03-12T09:29:13Z</time>
      </trkpt>
      <trkpt lat="42.85457" lon="0.26956">
        <ele>1448</ele>
        <time>2022-03-12T09:29:16Z</time>
      </trkpt>
      <trkpt lat="42.85459" lon="0.26953">
        <ele>1448</ele>
        <time>2022-03-12T09:29:20Z</time>
      </trkpt>
      <trkpt lat="42.85461" lon="0.26952">
        <ele>1450</ele>
        <time>2022-03-12T09:29:23Z</time>
      </trkpt>
      <trkpt lat="42.85463" lon="0.26951">
        <ele>1450</ele>
        <time>2022-03-12T09:29:27Z</time>
      </trkpt>
      <trkpt lat="42.85465" lon="0.2695">
        <ele>1450</ele>
        <time>2022-03-12T09:29:30Z</time>
      </trkpt>
      <trkpt lat="42.85467" lon="0.2695">
        <ele>1451</ele>
        <time>2022-03-12T09:29:34Z</time>
      </trkpt>
      <trkpt lat="42.85469" lon="0.26948">
        <ele>1452</ele>
        <time>2022-03-12T09:29:37Z</time>
      </trkpt>
      <trkpt lat="42.85472" lon="0.26943">
        <ele>1452</ele>
        <time>2022-03-12T09:29:51Z</time>
      </trkpt>
      <trkpt lat="42.85474" lon="0.26944">
        <ele>1453</ele>
        <time>2022-03-12T09:29:56Z</time>
      </trkpt>
      <trkpt lat="42.85476" lon="0.26944">
        <ele>1454</ele>
        <time>2022-03-12T09:30:01Z</time>
      </trkpt>
      <trkpt lat="42.85478" lon="0.26945">
        <ele>1455</ele>
        <time>2022-03-12T09:30:05Z</time>
      </trkpt>
      <trkpt lat="42.8548" lon="0.26946">
        <ele>1456</ele>
        <time>2022-03-12T09:30:09Z</time>
      </trkpt>
      <trkpt lat="42.85482" lon="0.26947">
        <ele>1456</ele>
        <time>2022-03-12T09:30:13Z</time>
      </trkpt>
      <trkpt lat="42.85484" lon="0.26948">
        <ele>1457</ele>
        <time>2022-03-12T09:30:18Z</time>
      </trkpt>
      <trkpt lat="42.85486" lon="0.26948">
        <ele>1458</ele>
        <time>2022-03-12T09:30:21Z</time>
      </trkpt>
      <trkpt lat="42.85488" lon="0.26947">
        <ele>1458</ele>
        <time>2022-03-12T09:30:25Z</time>
      </trkpt>
      <trkpt lat="42.8549" lon="0.26947">
        <ele>1459</ele>
        <time>2022-03-12T09:30:28Z</time>
      </trkpt>
      <trkpt lat="42.85492" lon="0.26946">
        <ele>1459</ele>
        <time>2022-03-12T09:30:31Z</time>
      </trkpt>
      <trkpt lat="42.85494" lon="0.26946">
        <ele>1460</ele>
        <time>2022-03-12T09:30:35Z</time>
      </trkpt>
      <trkpt lat="42.85496" lon="0.26946">
        <ele>1460</ele>
        <time>2022-03-12T09:30:38Z</time>
      </trkpt>
      <trkpt lat="42.85498" lon="0.26947">
        <ele>1460</ele>
        <time>2022-03-12T09:30:41Z</time>
      </trkpt>
      <trkpt lat="42.855" lon="0.26947">
        <ele>1460</ele>
        <time>2022-03-12T09:30:44Z</time>
      </trkpt>
      <trkpt lat="42.85502" lon="0.26946">
        <ele>1461</ele>
        <time>2022-03-12T09:30:47Z</time>
      </trkpt>
      <trkpt lat="42.85504" lon="0.26946">
        <ele>1461</ele>
        <time>2022-03-12T09:30:51Z</time>
      </trkpt>
      <trkpt lat="42.85506" lon="0.26945">
        <ele>1462</ele>
        <time>2022-03-12T09:30:56Z</time>
      </trkpt>
      <trkpt lat="42.85508" lon="0.26944">
        <ele>1463</ele>
        <time>2022-03-12T09:31:00Z</time>
      </trkpt>
      <trkpt lat="42.85509" lon="0.26942">
        <ele>1463</ele>
        <time>2022-03-12T09:31:05Z</time>
      </trkpt>
      <trkpt lat="42.8551" lon="0.2694">
        <ele>1463</ele>
        <time>2022-03-12T09:31:08Z</time>
      </trkpt>
      <trkpt lat="42.85512" lon="0.26938">
        <ele>1464</ele>
        <time>2022-03-12T09:31:11Z</time>
      </trkpt>
      <trkpt lat="42.85513" lon="0.26937">
        <ele>1465</ele>
        <time>2022-03-12T09:31:14Z</time>
      </trkpt>
      <trkpt lat="42.85515" lon="0.26935">
        <ele>1466</ele>
        <time>2022-03-12T09:31:18Z</time>
      </trkpt>
      <trkpt lat="42.85517" lon="0.26934">
        <ele>1467</ele>
        <time>2022-03-12T09:31:22Z</time>
      </trkpt>
      <trkpt lat="42.8552" lon="0.26934">
        <ele>1467</ele>
        <time>2022-03-12T09:31:28Z</time>
      </trkpt>
      <trkpt lat="42.85522" lon="0.26934">
        <ele>1468</ele>
        <time>2022-03-12T09:31:34Z</time>
      </trkpt>
      <trkpt lat="42.85522" lon="0.26935">
        <ele>1468</ele>
        <time>2022-03-12T09:32:12Z</time>
      </trkpt>
      <trkpt lat="42.85523" lon="0.26935">
        <ele>1469</ele>
        <time>2022-03-12T09:32:23Z</time>
      </trkpt>
      <trkpt lat="42.85525" lon="0.26936">
        <ele>1468</ele>
        <time>2022-03-12T09:32:29Z</time>
      </trkpt>
      <trkpt lat="42.85527" lon="0.26936">
        <ele>1470</ele>
        <time>2022-03-12T09:33:14Z</time>
      </trkpt>
      <trkpt lat="42.85529" lon="0.26936">
        <ele>1470</ele>
        <time>2022-03-12T09:33:17Z</time>
      </trkpt>
      <trkpt lat="42.85531" lon="0.26936">
        <ele>1471</ele>
        <time>2022-03-12T09:33:20Z</time>
      </trkpt>
      <trkpt lat="42.85533" lon="0.26936">
        <ele>1472</ele>
        <time>2022-03-12T09:33:23Z</time>
      </trkpt>
      <trkpt lat="42.85535" lon="0.26935">
        <ele>1472</ele>
        <time>2022-03-12T09:33:26Z</time>
      </trkpt>
      <trkpt lat="42.85537" lon="0.26935">
        <ele>1472</ele>
        <time>2022-03-12T09:33:29Z</time>
      </trkpt>
      <trkpt lat="42.85539" lon="0.26934">
        <ele>1473</ele>
        <time>2022-03-12T09:33:32Z</time>
      </trkpt>
      <trkpt lat="42.85541" lon="0.26933">
        <ele>1473</ele>
        <time>2022-03-12T09:33:35Z</time>
      </trkpt>
      <trkpt lat="42.85543" lon="0.26932">
        <ele>1473</ele>
        <time>2022-03-12T09:33:38Z</time>
      </trkpt>
      <trkpt lat="42.85545" lon="0.2693">
        <ele>1474</ele>
        <time>2022-03-12T09:33:42Z</time>
      </trkpt>
      <trkpt lat="42.85547" lon="0.26929">
        <ele>1475</ele>
        <time>2022-03-12T09:33:45Z</time>
      </trkpt>
      <trkpt lat="42.85548" lon="0.26928">
        <ele>1476</ele>
        <time>2022-03-12T09:33:49Z</time>
      </trkpt>
      <trkpt lat="42.8555" lon="0.26927">
        <ele>1477</ele>
        <time>2022-03-12T09:33:52Z</time>
      </trkpt>
      <trkpt lat="42.85552" lon="0.26926">
        <ele>1477</ele>
        <time>2022-03-12T09:33:55Z</time>
      </trkpt>
      <trkpt lat="42.85554" lon="0.26925">
        <ele>1477</ele>
        <time>2022-03-12T09:33:59Z</time>
      </trkpt>
      <trkpt lat="42.85556" lon="0.26925">
        <ele>1478</ele>
        <time>2022-03-12T09:34:02Z</time>
      </trkpt>
      <trkpt lat="42.85557" lon="0.26923">
        <ele>1479</ele>
        <time>2022-03-12T09:34:05Z</time>
      </trkpt>
      <trkpt lat="42.85559" lon="0.26922">
        <ele>1479</ele>
        <time>2022-03-12T09:34:08Z</time>
      </trkpt>
      <trkpt lat="42.8556" lon="0.26919">
        <ele>1480</ele>
        <time>2022-03-12T09:34:11Z</time>
      </trkpt>
      <trkpt lat="42.85561" lon="0.26916">
        <ele>1481</ele>
        <time>2022-03-12T09:34:14Z</time>
      </trkpt>
      <trkpt lat="42.85562" lon="0.26913">
        <ele>1481</ele>
        <time>2022-03-12T09:34:18Z</time>
      </trkpt>
      <trkpt lat="42.85563" lon="0.2691">
        <ele>1481</ele>
        <time>2022-03-12T09:34:21Z</time>
      </trkpt>
      <trkpt lat="42.85564" lon="0.26908">
        <ele>1482</ele>
        <time>2022-03-12T09:34:24Z</time>
      </trkpt>
      <trkpt lat="42.85565" lon="0.26906">
        <ele>1482</ele>
        <time>2022-03-12T09:34:27Z</time>
      </trkpt>
      <trkpt lat="42.85566" lon="0.26903">
        <ele>1483</ele>
        <time>2022-03-12T09:34:30Z</time>
      </trkpt>
      <trkpt lat="42.85567" lon="0.26901">
        <ele>1483</ele>
        <time>2022-03-12T09:34:33Z</time>
      </trkpt>
      <trkpt lat="42.85568" lon="0.26899">
        <ele>1483</ele>
        <time>2022-03-12T09:34:36Z</time>
      </trkpt>
      <trkpt lat="42.8557" lon="0.26897">
        <ele>1484</ele>
        <time>2022-03-12T09:34:40Z</time>
      </trkpt>
      <trkpt lat="42.8557" lon="0.26894">
        <ele>1484</ele>
        <time>2022-03-12T09:34:43Z</time>
      </trkpt>
      <trkpt lat="42.85571" lon="0.26891">
        <ele>1484</ele>
        <time>2022-03-12T09:34:47Z</time>
      </trkpt>
      <trkpt lat="42.85571" lon="0.26888">
        <ele>1486</ele>
        <time>2022-03-12T09:34:51Z</time>
      </trkpt>
      <trkpt lat="42.85572" lon="0.26885">
        <ele>1486</ele>
        <time>2022-03-12T09:34:54Z</time>
      </trkpt>
      <trkpt lat="42.85571" lon="0.26882">
        <ele>1486</ele>
        <time>2022-03-12T09:34:57Z</time>
      </trkpt>
      <trkpt lat="42.85572" lon="0.26878">
        <ele>1486</ele>
        <time>2022-03-12T09:35:00Z</time>
      </trkpt>
      <trkpt lat="42.85572" lon="0.26876">
        <ele>1487</ele>
        <time>2022-03-12T09:35:03Z</time>
      </trkpt>
      <trkpt lat="42.85573" lon="0.26873">
        <ele>1487</ele>
        <time>2022-03-12T09:35:06Z</time>
      </trkpt>
      <trkpt lat="42.85573" lon="0.2687">
        <ele>1487</ele>
        <time>2022-03-12T09:35:09Z</time>
      </trkpt>
      <trkpt lat="42.85573" lon="0.26867">
        <ele>1487</ele>
        <time>2022-03-12T09:35:12Z</time>
      </trkpt>
      <trkpt lat="42.85573" lon="0.26864">
        <ele>1488</ele>
        <time>2022-03-12T09:35:16Z</time>
      </trkpt>
      <trkpt lat="42.85575" lon="0.26861">
        <ele>1488</ele>
        <time>2022-03-12T09:35:20Z</time>
      </trkpt>
      <trkpt lat="42.85576" lon="0.26859">
        <ele>1489</ele>
        <time>2022-03-12T09:35:22Z</time>
      </trkpt>
      <trkpt lat="42.85576" lon="0.26857">
        <ele>1490</ele>
        <time>2022-03-12T09:35:26Z</time>
      </trkpt>
      <trkpt lat="42.85577" lon="0.26854">
        <ele>1490</ele>
        <time>2022-03-12T09:35:29Z</time>
      </trkpt>
      <trkpt lat="42.85578" lon="0.26852">
        <ele>1491</ele>
        <time>2022-03-12T09:35:33Z</time>
      </trkpt>
      <trkpt lat="42.85578" lon="0.26849">
        <ele>1491</ele>
        <time>2022-03-12T09:35:37Z</time>
      </trkpt>
      <trkpt lat="42.85579" lon="0.26846">
        <ele>1492</ele>
        <time>2022-03-12T09:35:41Z</time>
      </trkpt>
      <trkpt lat="42.8558" lon="0.26843">
        <ele>1493</ele>
        <time>2022-03-12T09:35:45Z</time>
      </trkpt>
      <trkpt lat="42.8558" lon="0.26841">
        <ele>1493</ele>
        <time>2022-03-12T09:35:49Z</time>
      </trkpt>
      <trkpt lat="42.8558" lon="0.26838">
        <ele>1493</ele>
        <time>2022-03-12T09:35:53Z</time>
      </trkpt>
      <trkpt lat="42.8558" lon="0.26835">
        <ele>1494</ele>
        <time>2022-03-12T09:35:56Z</time>
      </trkpt>
      <trkpt lat="42.8558" lon="0.26832">
        <ele>1494</ele>
        <time>2022-03-12T09:35:59Z</time>
      </trkpt>
      <trkpt lat="42.85581" lon="0.26829">
        <ele>1495</ele>
        <time>2022-03-12T09:36:03Z</time>
      </trkpt>
      <trkpt lat="42.85582" lon="0.26827">
        <ele>1496</ele>
        <time>2022-03-12T09:36:06Z</time>
      </trkpt>
      <trkpt lat="42.85583" lon="0.26824">
        <ele>1496</ele>
        <time>2022-03-12T09:36:10Z</time>
      </trkpt>
      <trkpt lat="42.85584" lon="0.26822">
        <ele>1496</ele>
        <time>2022-03-12T09:36:13Z</time>
      </trkpt>
      <trkpt lat="42.85585" lon="0.26819">
        <ele>1497</ele>
        <time>2022-03-12T09:36:17Z</time>
      </trkpt>
      <trkpt lat="42.85587" lon="0.26817">
        <ele>1498</ele>
        <time>2022-03-12T09:36:20Z</time>
      </trkpt>
      <trkpt lat="42.85588" lon="0.26815">
        <ele>1499</ele>
        <time>2022-03-12T09:36:24Z</time>
      </trkpt>
      <trkpt lat="42.8559" lon="0.26813">
        <ele>1500</ele>
        <time>2022-03-12T09:36:28Z</time>
      </trkpt>
      <trkpt lat="42.85591" lon="0.26812">
        <ele>1500</ele>
        <time>2022-03-12T09:36:31Z</time>
      </trkpt>
      <trkpt lat="42.85593" lon="0.2681">
        <ele>1501</ele>
        <time>2022-03-12T09:36:35Z</time>
      </trkpt>
      <trkpt lat="42.85594" lon="0.26808">
        <ele>1501</ele>
        <time>2022-03-12T09:36:38Z</time>
      </trkpt>
      <trkpt lat="42.85596" lon="0.26807">
        <ele>1502</ele>
        <time>2022-03-12T09:36:41Z</time>
      </trkpt>
      <trkpt lat="42.85598" lon="0.26805">
        <ele>1503</ele>
        <time>2022-03-12T09:36:45Z</time>
      </trkpt>
      <trkpt lat="42.85599" lon="0.26804">
        <ele>1503</ele>
        <time>2022-03-12T09:36:49Z</time>
      </trkpt>
      <trkpt lat="42.85601" lon="0.26802">
        <ele>1504</ele>
        <time>2022-03-12T09:36:53Z</time>
      </trkpt>
      <trkpt lat="42.85603" lon="0.268">
        <ele>1506</ele>
        <time>2022-03-12T09:36:59Z</time>
      </trkpt>
      <trkpt lat="42.85604" lon="0.26798">
        <ele>1505</ele>
        <time>2022-03-12T09:37:03Z</time>
      </trkpt>
      <trkpt lat="42.85605" lon="0.26795">
        <ele>1507</ele>
        <time>2022-03-12T09:37:07Z</time>
      </trkpt>
      <trkpt lat="42.85607" lon="0.26793">
        <ele>1508</ele>
        <time>2022-03-12T09:37:11Z</time>
      </trkpt>
      <trkpt lat="42.85608" lon="0.26791">
        <ele>1508</ele>
        <time>2022-03-12T09:37:15Z</time>
      </trkpt>
      <trkpt lat="42.8561" lon="0.2679">
        <ele>1510</ele>
        <time>2022-03-12T09:37:22Z</time>
      </trkpt>
      <trkpt lat="42.85611" lon="0.26787">
        <ele>1509</ele>
        <time>2022-03-12T09:37:26Z</time>
      </trkpt>
      <trkpt lat="42.85612" lon="0.26785">
        <ele>1511</ele>
        <time>2022-03-12T09:37:29Z</time>
      </trkpt>
      <trkpt lat="42.85614" lon="0.26783">
        <ele>1511</ele>
        <time>2022-03-12T09:37:33Z</time>
      </trkpt>
      <trkpt lat="42.85615" lon="0.2678">
        <ele>1511</ele>
        <time>2022-03-12T09:37:37Z</time>
      </trkpt>
      <trkpt lat="42.85617" lon="0.26778">
        <ele>1512</ele>
        <time>2022-03-12T09:37:41Z</time>
      </trkpt>
      <trkpt lat="42.85618" lon="0.26776">
        <ele>1514</ele>
        <time>2022-03-12T09:37:44Z</time>
      </trkpt>
      <trkpt lat="42.85619" lon="0.26773">
        <ele>1514</ele>
        <time>2022-03-12T09:37:48Z</time>
      </trkpt>
      <trkpt lat="42.85619" lon="0.2677">
        <ele>1515</ele>
        <time>2022-03-12T09:37:52Z</time>
      </trkpt>
      <trkpt lat="42.85619" lon="0.26767">
        <ele>1515</ele>
        <time>2022-03-12T09:37:57Z</time>
      </trkpt>
      <trkpt lat="42.8562" lon="0.26765">
        <ele>1516</ele>
        <time>2022-03-12T09:38:00Z</time>
      </trkpt>
      <trkpt lat="42.85621" lon="0.26763">
        <ele>1517</ele>
        <time>2022-03-12T09:38:05Z</time>
      </trkpt>
      <trkpt lat="42.85622" lon="0.2676">
        <ele>1517</ele>
        <time>2022-03-12T09:38:09Z</time>
      </trkpt>
      <trkpt lat="42.85624" lon="0.26759">
        <ele>1518</ele>
        <time>2022-03-12T09:38:13Z</time>
      </trkpt>
      <trkpt lat="42.85626" lon="0.26757">
        <ele>1519</ele>
        <time>2022-03-12T09:38:17Z</time>
      </trkpt>
      <trkpt lat="42.85628" lon="0.26755">
        <ele>1519</ele>
        <time>2022-03-12T09:38:21Z</time>
      </trkpt>
      <trkpt lat="42.85629" lon="0.26753">
        <ele>1520</ele>
        <time>2022-03-12T09:38:25Z</time>
      </trkpt>
      <trkpt lat="42.85631" lon="0.26752">
        <ele>1521</ele>
        <time>2022-03-12T09:38:28Z</time>
      </trkpt>
      <trkpt lat="42.85633" lon="0.2675">
        <ele>1521</ele>
        <time>2022-03-12T09:38:31Z</time>
      </trkpt>
      <trkpt lat="42.85635" lon="0.2675">
        <ele>1521</ele>
        <time>2022-03-12T09:38:34Z</time>
      </trkpt>
      <trkpt lat="42.85637" lon="0.26749">
        <ele>1523</ele>
        <time>2022-03-12T09:38:38Z</time>
      </trkpt>
      <trkpt lat="42.85638" lon="0.26747">
        <ele>1523</ele>
        <time>2022-03-12T09:38:45Z</time>
      </trkpt>
      <trkpt lat="42.85639" lon="0.26745">
        <ele>1523</ele>
        <time>2022-03-12T09:38:48Z</time>
      </trkpt>
      <trkpt lat="42.85641" lon="0.26742">
        <ele>1524</ele>
        <time>2022-03-12T09:38:51Z</time>
      </trkpt>
      <trkpt lat="42.85642" lon="0.2674">
        <ele>1525</ele>
        <time>2022-03-12T09:38:54Z</time>
      </trkpt>
      <trkpt lat="42.85643" lon="0.26738">
        <ele>1525</ele>
        <time>2022-03-12T09:38:57Z</time>
      </trkpt>
      <trkpt lat="42.85644" lon="0.26736">
        <ele>1525</ele>
        <time>2022-03-12T09:39:00Z</time>
      </trkpt>
      <trkpt lat="42.85646" lon="0.26733">
        <ele>1526</ele>
        <time>2022-03-12T09:39:03Z</time>
      </trkpt>
      <trkpt lat="42.85648" lon="0.26731">
        <ele>1526</ele>
        <time>2022-03-12T09:39:06Z</time>
      </trkpt>
      <trkpt lat="42.8565" lon="0.2673">
        <ele>1526</ele>
        <time>2022-03-12T09:39:09Z</time>
      </trkpt>
      <trkpt lat="42.85651" lon="0.26728">
        <ele>1527</ele>
        <time>2022-03-12T09:39:12Z</time>
      </trkpt>
      <trkpt lat="42.8565" lon="0.26731">
        <ele>1527</ele>
        <time>2022-03-12T09:39:23Z</time>
      </trkpt>
      <trkpt lat="42.85649" lon="0.26733">
        <ele>1528</ele>
        <time>2022-03-12T09:39:26Z</time>
      </trkpt>
      <trkpt lat="42.8565" lon="0.2673">
        <ele>1527</ele>
        <time>2022-03-12T09:39:48Z</time>
      </trkpt>
      <trkpt lat="42.85651" lon="0.26727">
        <ele>1527</ele>
        <time>2022-03-12T09:39:50Z</time>
      </trkpt>
      <trkpt lat="42.85652" lon="0.26725">
        <ele>1527</ele>
        <time>2022-03-12T09:39:53Z</time>
      </trkpt>
      <trkpt lat="42.85652" lon="0.26723">
        <ele>1527</ele>
        <time>2022-03-12T09:39:58Z</time>
      </trkpt>
      <trkpt lat="42.85653" lon="0.26721">
        <ele>1527</ele>
        <time>2022-03-12T09:40:02Z</time>
      </trkpt>
      <trkpt lat="42.85651" lon="0.26718">
        <ele>1527</ele>
        <time>2022-03-12T09:40:27Z</time>
      </trkpt>
      <trkpt lat="42.85649" lon="0.26718">
        <ele>1527</ele>
        <time>2022-03-12T09:40:29Z</time>
      </trkpt>
      <trkpt lat="42.85647" lon="0.26715">
        <ele>1527</ele>
        <time>2022-03-12T09:40:32Z</time>
      </trkpt>
      <trkpt lat="42.85647" lon="0.26713">
        <ele>1527</ele>
        <time>2022-03-12T09:40:34Z</time>
      </trkpt>
      <trkpt lat="42.85645" lon="0.26711">
        <ele>1527</ele>
        <time>2022-03-12T09:40:36Z</time>
      </trkpt>
      <trkpt lat="42.85644" lon="0.26709">
        <ele>1527</ele>
        <time>2022-03-12T09:40:38Z</time>
      </trkpt>
      <trkpt lat="42.85644" lon="0.26706">
        <ele>1528</ele>
        <time>2022-03-12T09:40:41Z</time>
      </trkpt>
      <trkpt lat="42.85646" lon="0.26705">
        <ele>1529</ele>
        <time>2022-03-12T09:41:21Z</time>
      </trkpt>
      <trkpt lat="42.85644" lon="0.26704">
        <ele>1529</ele>
        <time>2022-03-12T09:42:29Z</time>
      </trkpt>
      <trkpt lat="42.85645" lon="0.26706">
        <ele>1530</ele>
        <time>2022-03-12T09:42:41Z</time>
      </trkpt>
      <trkpt lat="42.85645" lon="0.26703">
        <ele>1530</ele>
        <time>2022-03-12T09:43:44Z</time>
      </trkpt>
      <trkpt lat="42.85646" lon="0.267">
        <ele>1530</ele>
        <time>2022-03-12T09:43:56Z</time>
      </trkpt>
      <trkpt lat="42.85646" lon="0.26697">
        <ele>1531</ele>
        <time>2022-03-12T09:43:58Z</time>
      </trkpt>
      <trkpt lat="42.85647" lon="0.26694">
        <ele>1531</ele>
        <time>2022-03-12T09:44:00Z</time>
      </trkpt>
      <trkpt lat="42.85647" lon="0.26691">
        <ele>1531</ele>
        <time>2022-03-12T09:44:03Z</time>
      </trkpt>
      <trkpt lat="42.85647" lon="0.26688">
        <ele>1531</ele>
        <time>2022-03-12T09:44:07Z</time>
      </trkpt>
      <trkpt lat="42.85647" lon="0.26685">
        <ele>1531</ele>
        <time>2022-03-12T09:44:09Z</time>
      </trkpt>
      <trkpt lat="42.85647" lon="0.26682">
        <ele>1531</ele>
        <time>2022-03-12T09:44:11Z</time>
      </trkpt>
      <trkpt lat="42.85647" lon="0.26679">
        <ele>1531</ele>
        <time>2022-03-12T09:44:13Z</time>
      </trkpt>
      <trkpt lat="42.85646" lon="0.26675">
        <ele>1531</ele>
        <time>2022-03-12T09:44:15Z</time>
      </trkpt>
      <trkpt lat="42.85646" lon="0.26671">
        <ele>1530</ele>
        <time>2022-03-12T09:44:17Z</time>
      </trkpt>
      <trkpt lat="42.85646" lon="0.26669">
        <ele>1530</ele>
        <time>2022-03-12T09:44:20Z</time>
      </trkpt>
      <trkpt lat="42.85645" lon="0.26666">
        <ele>1530</ele>
        <time>2022-03-12T09:44:22Z</time>
      </trkpt>
      <trkpt lat="42.85645" lon="0.26663">
        <ele>1530</ele>
        <time>2022-03-12T09:44:24Z</time>
      </trkpt>
      <trkpt lat="42.85645" lon="0.26659">
        <ele>1530</ele>
        <time>2022-03-12T09:44:27Z</time>
      </trkpt>
      <trkpt lat="42.85644" lon="0.26656">
        <ele>1530</ele>
        <time>2022-03-12T09:44:38Z</time>
      </trkpt>
      <trkpt lat="42.85644" lon="0.26653">
        <ele>1530</ele>
        <time>2022-03-12T09:44:40Z</time>
      </trkpt>
      <trkpt lat="42.85643" lon="0.26649">
        <ele>1530</ele>
        <time>2022-03-12T09:44:42Z</time>
      </trkpt>
      <trkpt lat="42.85642" lon="0.26647">
        <ele>1530</ele>
        <time>2022-03-12T09:44:44Z</time>
      </trkpt>
      <trkpt lat="42.85642" lon="0.26644">
        <ele>1530</ele>
        <time>2022-03-12T09:44:46Z</time>
      </trkpt>
      <trkpt lat="42.85641" lon="0.26642">
        <ele>1529</ele>
        <time>2022-03-12T09:44:53Z</time>
      </trkpt>
      <trkpt lat="42.8564" lon="0.26637">
        <ele>1528</ele>
        <time>2022-03-12T09:44:55Z</time>
      </trkpt>
      <trkpt lat="42.8564" lon="0.26635">
        <ele>1528</ele>
        <time>2022-03-12T09:44:56Z</time>
      </trkpt>
      <trkpt lat="42.85639" lon="0.26631">
        <ele>1528</ele>
        <time>2022-03-12T09:44:58Z</time>
      </trkpt>
      <trkpt lat="42.85638" lon="0.26627">
        <ele>1527</ele>
        <time>2022-03-12T09:45:00Z</time>
      </trkpt>
      <trkpt lat="42.85637" lon="0.26623">
        <ele>1526</ele>
        <time>2022-03-12T09:45:02Z</time>
      </trkpt>
      <trkpt lat="42.85636" lon="0.2662">
        <ele>1526</ele>
        <time>2022-03-12T09:45:03Z</time>
      </trkpt>
      <trkpt lat="42.85636" lon="0.26618">
        <ele>1526</ele>
        <time>2022-03-12T09:45:04Z</time>
      </trkpt>
      <trkpt lat="42.85635" lon="0.26615">
        <ele>1526</ele>
        <time>2022-03-12T09:45:05Z</time>
      </trkpt>
      <trkpt lat="42.85635" lon="0.26613">
        <ele>1525</ele>
        <time>2022-03-12T09:45:06Z</time>
      </trkpt>
      <trkpt lat="42.85634" lon="0.2661">
        <ele>1525</ele>
        <time>2022-03-12T09:45:07Z</time>
      </trkpt>
      <trkpt lat="42.85634" lon="0.26605">
        <ele>1525</ele>
        <time>2022-03-12T09:45:09Z</time>
      </trkpt>
      <trkpt lat="42.85634" lon="0.26602">
        <ele>1524</ele>
        <time>2022-03-12T09:45:10Z</time>
      </trkpt>
      <trkpt lat="42.85633" lon="0.26598">
        <ele>1523</ele>
        <time>2022-03-12T09:45:11Z</time>
      </trkpt>
      <trkpt lat="42.85633" lon="0.26595">
        <ele>1523</ele>
        <time>2022-03-12T09:45:12Z</time>
      </trkpt>
      <trkpt lat="42.85633" lon="0.26592">
        <ele>1523</ele>
        <time>2022-03-12T09:45:13Z</time>
      </trkpt>
      <trkpt lat="42.85633" lon="0.26589">
        <ele>1522</ele>
        <time>2022-03-12T09:45:14Z</time>
      </trkpt>
      <trkpt lat="42.85633" lon="0.26586">
        <ele>1522</ele>
        <time>2022-03-12T09:45:15Z</time>
      </trkpt>
      <trkpt lat="42.85633" lon="0.26581">
        <ele>1521</ele>
        <time>2022-03-12T09:45:17Z</time>
      </trkpt>
      <trkpt lat="42.85633" lon="0.26579">
        <ele>1521</ele>
        <time>2022-03-12T09:45:18Z</time>
      </trkpt>
      <trkpt lat="42.85634" lon="0.26576">
        <ele>1521</ele>
        <time>2022-03-12T09:45:19Z</time>
      </trkpt>
      <trkpt lat="42.85634" lon="0.26573">
        <ele>1521</ele>
        <time>2022-03-12T09:45:20Z</time>
      </trkpt>
      <trkpt lat="42.85634" lon="0.2657">
        <ele>1521</ele>
        <time>2022-03-12T09:45:21Z</time>
      </trkpt>
      <trkpt lat="42.85635" lon="0.26567">
        <ele>1520</ele>
        <time>2022-03-12T09:45:23Z</time>
      </trkpt>
      <trkpt lat="42.85637" lon="0.26565">
        <ele>1520</ele>
        <time>2022-03-12T09:45:25Z</time>
      </trkpt>
      <trkpt lat="42.85639" lon="0.26562">
        <ele>1520</ele>
        <time>2022-03-12T09:45:28Z</time>
      </trkpt>
      <trkpt lat="42.8564" lon="0.2656">
        <ele>1520</ele>
        <time>2022-03-12T09:45:30Z</time>
      </trkpt>
      <trkpt lat="42.85641" lon="0.26558">
        <ele>1520</ele>
        <time>2022-03-12T09:45:32Z</time>
      </trkpt>
      <trkpt lat="42.85642" lon="0.26556">
        <ele>1521</ele>
        <time>2022-03-12T09:45:35Z</time>
      </trkpt>
      <trkpt lat="42.85643" lon="0.26553">
        <ele>1521</ele>
        <time>2022-03-12T09:45:38Z</time>
      </trkpt>
      <trkpt lat="42.85646" lon="0.26551">
        <ele>1520</ele>
        <time>2022-03-12T09:45:46Z</time>
      </trkpt>
      <trkpt lat="42.85648" lon="0.26549">
        <ele>1521</ele>
        <time>2022-03-12T09:45:48Z</time>
      </trkpt>
      <trkpt lat="42.85649" lon="0.26547">
        <ele>1521</ele>
        <time>2022-03-12T09:45:53Z</time>
      </trkpt>
      <trkpt lat="42.85651" lon="0.26544">
        <ele>1521</ele>
        <time>2022-03-12T09:45:56Z</time>
      </trkpt>
      <trkpt lat="42.85654" lon="0.26537">
        <ele>1522</ele>
        <time>2022-03-12T09:46:02Z</time>
      </trkpt>
      <trkpt lat="42.85655" lon="0.26535">
        <ele>1522</ele>
        <time>2022-03-12T09:46:04Z</time>
      </trkpt>
      <trkpt lat="42.85657" lon="0.26533">
        <ele>1522</ele>
        <time>2022-03-12T09:46:06Z</time>
      </trkpt>
      <trkpt lat="42.85658" lon="0.26531">
        <ele>1522</ele>
        <time>2022-03-12T09:46:08Z</time>
      </trkpt>
      <trkpt lat="42.8566" lon="0.26529">
        <ele>1523</ele>
        <time>2022-03-12T09:46:11Z</time>
      </trkpt>
      <trkpt lat="42.85662" lon="0.26528">
        <ele>1523</ele>
        <time>2022-03-12T09:46:13Z</time>
      </trkpt>
      <trkpt lat="42.85663" lon="0.26526">
        <ele>1523</ele>
        <time>2022-03-12T09:46:15Z</time>
      </trkpt>
      <trkpt lat="42.85665" lon="0.26525">
        <ele>1523</ele>
        <time>2022-03-12T09:46:17Z</time>
      </trkpt>
      <trkpt lat="42.85667" lon="0.26523">
        <ele>1523</ele>
        <time>2022-03-12T09:46:20Z</time>
      </trkpt>
      <trkpt lat="42.85668" lon="0.26522">
        <ele>1524</ele>
        <time>2022-03-12T09:46:23Z</time>
      </trkpt>
      <trkpt lat="42.8567" lon="0.26519">
        <ele>1524</ele>
        <time>2022-03-12T09:46:26Z</time>
      </trkpt>
      <trkpt lat="42.85672" lon="0.26517">
        <ele>1524</ele>
        <time>2022-03-12T09:46:29Z</time>
      </trkpt>
      <trkpt lat="42.85673" lon="0.26515">
        <ele>1524</ele>
        <time>2022-03-12T09:46:31Z</time>
      </trkpt>
      <trkpt lat="42.85674" lon="0.26513">
        <ele>1524</ele>
        <time>2022-03-12T09:46:33Z</time>
      </trkpt>
      <trkpt lat="42.85676" lon="0.26511">
        <ele>1524</ele>
        <time>2022-03-12T09:46:35Z</time>
      </trkpt>
      <trkpt lat="42.85677" lon="0.26508">
        <ele>1524</ele>
        <time>2022-03-12T09:46:38Z</time>
      </trkpt>
      <trkpt lat="42.85679" lon="0.26507">
        <ele>1524</ele>
        <time>2022-03-12T09:46:40Z</time>
      </trkpt>
      <trkpt lat="42.8568" lon="0.26505">
        <ele>1525</ele>
        <time>2022-03-12T09:46:42Z</time>
      </trkpt>
      <trkpt lat="42.85682" lon="0.26503">
        <ele>1526</ele>
        <time>2022-03-12T09:46:45Z</time>
      </trkpt>
      <trkpt lat="42.85684" lon="0.26502">
        <ele>1527</ele>
        <time>2022-03-12T09:46:49Z</time>
      </trkpt>
      <trkpt lat="42.85686" lon="0.26501">
        <ele>1528</ele>
        <time>2022-03-12T09:46:54Z</time>
      </trkpt>
      <trkpt lat="42.85688" lon="0.26496">
        <ele>1529</ele>
        <time>2022-03-12T09:47:00Z</time>
      </trkpt>
      <trkpt lat="42.85689" lon="0.26493">
        <ele>1530</ele>
        <time>2022-03-12T09:47:04Z</time>
      </trkpt>
      <trkpt lat="42.85689" lon="0.26489">
        <ele>1530</ele>
        <time>2022-03-12T09:47:07Z</time>
      </trkpt>
      <trkpt lat="42.85689" lon="0.26487">
        <ele>1530</ele>
        <time>2022-03-12T09:47:10Z</time>
      </trkpt>
      <trkpt lat="42.85689" lon="0.26483">
        <ele>1530</ele>
        <time>2022-03-12T09:47:13Z</time>
      </trkpt>
      <trkpt lat="42.85688" lon="0.26479">
        <ele>1530</ele>
        <time>2022-03-12T09:47:16Z</time>
      </trkpt>
      <trkpt lat="42.85688" lon="0.26477">
        <ele>1530</ele>
        <time>2022-03-12T09:47:18Z</time>
      </trkpt>
      <trkpt lat="42.85687" lon="0.26473">
        <ele>1530</ele>
        <time>2022-03-12T09:47:21Z</time>
      </trkpt>
      <trkpt lat="42.85687" lon="0.26471">
        <ele>1530</ele>
        <time>2022-03-12T09:47:24Z</time>
      </trkpt>
      <trkpt lat="42.85686" lon="0.26468">
        <ele>1530</ele>
        <time>2022-03-12T09:47:27Z</time>
      </trkpt>
      <trkpt lat="42.85686" lon="0.26464">
        <ele>1530</ele>
        <time>2022-03-12T09:47:30Z</time>
      </trkpt>
      <trkpt lat="42.85685" lon="0.26462">
        <ele>1530</ele>
        <time>2022-03-12T09:47:32Z</time>
      </trkpt>
      <trkpt lat="42.85685" lon="0.26459">
        <ele>1530</ele>
        <time>2022-03-12T09:47:35Z</time>
      </trkpt>
      <trkpt lat="42.85685" lon="0.26456">
        <ele>1531</ele>
        <time>2022-03-12T09:47:38Z</time>
      </trkpt>
      <trkpt lat="42.85687" lon="0.26453">
        <ele>1531</ele>
        <time>2022-03-12T09:47:41Z</time>
      </trkpt>
      <trkpt lat="42.85688" lon="0.2645">
        <ele>1532</ele>
        <time>2022-03-12T09:47:44Z</time>
      </trkpt>
      <trkpt lat="42.85689" lon="0.26446">
        <ele>1532</ele>
        <time>2022-03-12T09:47:47Z</time>
      </trkpt>
      <trkpt lat="42.8569" lon="0.26445">
        <ele>1532</ele>
        <time>2022-03-12T09:47:49Z</time>
      </trkpt>
      <trkpt lat="42.85691" lon="0.26442">
        <ele>1532</ele>
        <time>2022-03-12T09:47:52Z</time>
      </trkpt>
      <trkpt lat="42.85692" lon="0.26439">
        <ele>1532</ele>
        <time>2022-03-12T09:47:55Z</time>
      </trkpt>
      <trkpt lat="42.85692" lon="0.26437">
        <ele>1533</ele>
        <time>2022-03-12T09:48:00Z</time>
      </trkpt>
      <trkpt lat="42.85693" lon="0.26435">
        <ele>1533</ele>
        <time>2022-03-12T09:48:04Z</time>
      </trkpt>
      <trkpt lat="42.85694" lon="0.26432">
        <ele>1535</ele>
        <time>2022-03-12T09:48:18Z</time>
      </trkpt>
      <trkpt lat="42.85695" lon="0.26429">
        <ele>1535</ele>
        <time>2022-03-12T09:48:22Z</time>
      </trkpt>
      <trkpt lat="42.85697" lon="0.26429">
        <ele>1535</ele>
        <time>2022-03-12T09:48:27Z</time>
      </trkpt>
      <trkpt lat="42.85697" lon="0.26425">
        <ele>1536</ele>
        <time>2022-03-12T09:48:32Z</time>
      </trkpt>
      <trkpt lat="42.85697" lon="0.26421">
        <ele>1536</ele>
        <time>2022-03-12T09:48:36Z</time>
      </trkpt>
      <trkpt lat="42.85697" lon="0.26418">
        <ele>1536</ele>
        <time>2022-03-12T09:48:38Z</time>
      </trkpt>
      <trkpt lat="42.85698" lon="0.26416">
        <ele>1536</ele>
        <time>2022-03-12T09:48:41Z</time>
      </trkpt>
      <trkpt lat="42.85698" lon="0.26413">
        <ele>1536</ele>
        <time>2022-03-12T09:48:44Z</time>
      </trkpt>
      <trkpt lat="42.85698" lon="0.2641">
        <ele>1537</ele>
        <time>2022-03-12T09:48:47Z</time>
      </trkpt>
      <trkpt lat="42.85699" lon="0.26407">
        <ele>1537</ele>
        <time>2022-03-12T09:48:52Z</time>
      </trkpt>
      <trkpt lat="42.85698" lon="0.26404">
        <ele>1537</ele>
        <time>2022-03-12T09:48:59Z</time>
      </trkpt>
      <trkpt lat="42.85698" lon="0.26402">
        <ele>1537</ele>
        <time>2022-03-12T09:49:02Z</time>
      </trkpt>
      <trkpt lat="42.85699" lon="0.26398">
        <ele>1537</ele>
        <time>2022-03-12T09:49:05Z</time>
      </trkpt>
      <trkpt lat="42.85698" lon="0.26395">
        <ele>1537</ele>
        <time>2022-03-12T09:49:07Z</time>
      </trkpt>
      <trkpt lat="42.85698" lon="0.26392">
        <ele>1537</ele>
        <time>2022-03-12T09:49:09Z</time>
      </trkpt>
      <trkpt lat="42.85697" lon="0.26379">
        <ele>1537</ele>
        <time>2022-03-12T09:49:21Z</time>
      </trkpt>
      <trkpt lat="42.85696" lon="0.2637">
        <ele>1537</ele>
        <time>2022-03-12T09:49:31Z</time>
      </trkpt>
      <trkpt lat="42.85696" lon="0.26367">
        <ele>1537</ele>
        <time>2022-03-12T09:49:34Z</time>
      </trkpt>
      <trkpt lat="42.85696" lon="0.26364">
        <ele>1536</ele>
        <time>2022-03-12T09:49:37Z</time>
      </trkpt>
      <trkpt lat="42.85692" lon="0.26352">
        <ele>1536</ele>
        <time>2022-03-12T09:49:56Z</time>
      </trkpt>
      <trkpt lat="42.8569" lon="0.26339">
        <ele>1533</ele>
        <time>2022-03-12T09:50:16Z</time>
      </trkpt>
      <trkpt lat="42.85685" lon="0.26328">
        <ele>1532</ele>
        <time>2022-03-12T09:50:33Z</time>
      </trkpt>
      <trkpt lat="42.85682" lon="0.26314">
        <ele>1531</ele>
        <time>2022-03-12T09:51:08Z</time>
      </trkpt>
      <trkpt lat="42.85677" lon="0.26304">
        <ele>1531</ele>
        <time>2022-03-12T09:51:13Z</time>
      </trkpt>
      <trkpt lat="42.85684" lon="0.26312">
        <ele>1532</ele>
        <time>2022-03-12T09:51:22Z</time>
      </trkpt>
      <trkpt lat="42.85693" lon="0.26313">
        <ele>1533</ele>
        <time>2022-03-12T09:51:39Z</time>
      </trkpt>
      <trkpt lat="42.85701" lon="0.26308">
        <ele>1538</ele>
        <time>2022-03-12T09:53:30Z</time>
      </trkpt>
      <trkpt lat="42.85709" lon="0.26302">
        <ele>1542</ele>
        <time>2022-03-12T09:53:46Z</time>
      </trkpt>
      <trkpt lat="42.85712" lon="0.26304">
        <ele>1542</ele>
        <time>2022-03-12T09:53:51Z</time>
      </trkpt>
      <trkpt lat="42.85713" lon="0.26304">
        <ele>1543</ele>
        <time>2022-03-12T09:53:53Z</time>
      </trkpt>
      <trkpt lat="42.85715" lon="0.26306">
        <ele>1546</ele>
        <time>2022-03-12T09:54:13Z</time>
      </trkpt>
      <trkpt lat="42.85717" lon="0.26306">
        <ele>1546</ele>
        <time>2022-03-12T09:54:15Z</time>
      </trkpt>
      <trkpt lat="42.85719" lon="0.26307">
        <ele>1547</ele>
        <time>2022-03-12T09:54:27Z</time>
      </trkpt>
      <trkpt lat="42.85719" lon="0.2631">
        <ele>1547</ele>
        <time>2022-03-12T09:54:32Z</time>
      </trkpt>
      <trkpt lat="42.85719" lon="0.26313">
        <ele>1547</ele>
        <time>2022-03-12T09:54:38Z</time>
      </trkpt>
      <trkpt lat="42.85719" lon="0.26318">
        <ele>1547</ele>
        <time>2022-03-12T09:55:27Z</time>
      </trkpt>
      <trkpt lat="42.85718" lon="0.26314">
        <ele>1547</ele>
        <time>2022-03-12T09:55:54Z</time>
      </trkpt>
      <trkpt lat="42.85719" lon="0.26313">
        <ele>1549</ele>
        <time>2022-03-12T09:56:06Z</time>
      </trkpt>
      <trkpt lat="42.85721" lon="0.26301">
        <ele>1551</ele>
        <time>2022-03-12T09:56:26Z</time>
      </trkpt>
      <trkpt lat="42.85729" lon="0.26307">
        <ele>1555</ele>
        <time>2022-03-12T09:56:40Z</time>
      </trkpt>
      <trkpt lat="42.85738" lon="0.26306">
        <ele>1559</ele>
        <time>2022-03-12T09:56:57Z</time>
      </trkpt>
      <trkpt lat="42.85737" lon="0.26303">
        <ele>1559</ele>
        <time>2022-03-12T09:57:01Z</time>
      </trkpt>
      <trkpt lat="42.85743" lon="0.26302">
        <ele>1560</ele>
        <time>2022-03-12T09:57:18Z</time>
      </trkpt>
      <trkpt lat="42.85745" lon="0.26302">
        <ele>1561</ele>
        <time>2022-03-12T09:57:23Z</time>
      </trkpt>
      <trkpt lat="42.85754" lon="0.26302">
        <ele>1563</ele>
        <time>2022-03-12T09:58:31Z</time>
      </trkpt>
      <trkpt lat="42.85748" lon="0.26308">
        <ele>1567</ele>
        <time>2022-03-12T09:58:54Z</time>
      </trkpt>
      <trkpt lat="42.85751" lon="0.26309">
        <ele>1567</ele>
        <time>2022-03-12T09:59:00Z</time>
      </trkpt>
      <trkpt lat="42.85752" lon="0.26306">
        <ele>1569</ele>
        <time>2022-03-12T09:59:11Z</time>
      </trkpt>
      <trkpt lat="42.85754" lon="0.26305">
        <ele>1570</ele>
        <time>2022-03-12T09:59:15Z</time>
      </trkpt>
      <trkpt lat="42.85758" lon="0.26308">
        <ele>1572</ele>
        <time>2022-03-12T09:59:25Z</time>
      </trkpt>
      <trkpt lat="42.8576" lon="0.26307">
        <ele>1573</ele>
        <time>2022-03-12T09:59:32Z</time>
      </trkpt>
      <trkpt lat="42.85762" lon="0.26307">
        <ele>1575</ele>
        <time>2022-03-12T09:59:39Z</time>
      </trkpt>
      <trkpt lat="42.8576" lon="0.26307">
        <ele>1575</ele>
        <time>2022-03-12T09:59:48Z</time>
      </trkpt>
      <trkpt lat="42.85762" lon="0.26306">
        <ele>1576</ele>
        <time>2022-03-12T10:00:02Z</time>
      </trkpt>
      <trkpt lat="42.85763" lon="0.26305">
        <ele>1577</ele>
        <time>2022-03-12T10:00:06Z</time>
      </trkpt>
      <trkpt lat="42.85763" lon="0.26293">
        <ele>1577</ele>
        <time>2022-03-12T10:00:24Z</time>
      </trkpt>
      <trkpt lat="42.85763" lon="0.26298">
        <ele>1577</ele>
        <time>2022-03-12T10:00:27Z</time>
      </trkpt>
      <trkpt lat="42.85765" lon="0.26299">
        <ele>1578</ele>
        <time>2022-03-12T10:00:30Z</time>
      </trkpt>
      <trkpt lat="42.85769" lon="0.26299">
        <ele>1580</ele>
        <time>2022-03-12T10:00:38Z</time>
      </trkpt>
      <trkpt lat="42.85767" lon="0.26297">
        <ele>1581</ele>
        <time>2022-03-12T10:00:49Z</time>
      </trkpt>
      <trkpt lat="42.85769" lon="0.26297">
        <ele>1581</ele>
        <time>2022-03-12T10:00:54Z</time>
      </trkpt>
      <trkpt lat="42.85769" lon="0.26295">
        <ele>1582</ele>
        <time>2022-03-12T10:00:58Z</time>
      </trkpt>
      <trkpt lat="42.8577" lon="0.26292">
        <ele>1582</ele>
        <time>2022-03-12T10:01:03Z</time>
      </trkpt>
      <trkpt lat="42.85772" lon="0.26292">
        <ele>1583</ele>
        <time>2022-03-12T10:01:18Z</time>
      </trkpt>
      <trkpt lat="42.85774" lon="0.26291">
        <ele>1583</ele>
        <time>2022-03-12T10:01:30Z</time>
      </trkpt>
      <trkpt lat="42.8578" lon="0.26296">
        <ele>1583</ele>
        <time>2022-03-12T10:01:43Z</time>
      </trkpt>
      <trkpt lat="42.85781" lon="0.26295">
        <ele>1584</ele>
        <time>2022-03-12T10:01:47Z</time>
      </trkpt>
      <trkpt lat="42.85783" lon="0.26293">
        <ele>1585</ele>
        <time>2022-03-12T10:01:54Z</time>
      </trkpt>
      <trkpt lat="42.85784" lon="0.2629">
        <ele>1587</ele>
        <time>2022-03-12T10:01:59Z</time>
      </trkpt>
      <trkpt lat="42.85785" lon="0.26289">
        <ele>1588</ele>
        <time>2022-03-12T10:02:04Z</time>
      </trkpt>
      <trkpt lat="42.85787" lon="0.26289">
        <ele>1589</ele>
        <time>2022-03-12T10:02:08Z</time>
      </trkpt>
      <trkpt lat="42.85787" lon="0.26287">
        <ele>1589</ele>
        <time>2022-03-12T10:02:20Z</time>
      </trkpt>
      <trkpt lat="42.85797" lon="0.26285">
        <ele>1590</ele>
        <time>2022-03-12T10:02:42Z</time>
      </trkpt>
      <trkpt lat="42.85797" lon="0.26291">
        <ele>1590</ele>
        <time>2022-03-12T10:03:10Z</time>
      </trkpt>
      <trkpt lat="42.85791" lon="0.26288">
        <ele>1589</ele>
        <time>2022-03-12T10:03:38Z</time>
      </trkpt>
      <trkpt lat="42.85788" lon="0.2629">
        <ele>1590</ele>
        <time>2022-03-12T10:04:00Z</time>
      </trkpt>
      <trkpt lat="42.85787" lon="0.26288">
        <ele>1590</ele>
        <time>2022-03-12T10:04:16Z</time>
      </trkpt>
      <trkpt lat="42.8579" lon="0.26286">
        <ele>1591</ele>
        <time>2022-03-12T10:04:27Z</time>
      </trkpt>
      <trkpt lat="42.8579" lon="0.26289">
        <ele>1591</ele>
        <time>2022-03-12T10:04:36Z</time>
      </trkpt>
      <trkpt lat="42.85791" lon="0.26289">
        <ele>1591</ele>
        <time>2022-03-12T10:05:01Z</time>
      </trkpt>
      <trkpt lat="42.85794" lon="0.26288">
        <ele>1593</ele>
        <time>2022-03-12T10:05:07Z</time>
      </trkpt>
      <trkpt lat="42.85796" lon="0.26289">
        <ele>1595</ele>
        <time>2022-03-12T10:05:17Z</time>
      </trkpt>
      <trkpt lat="42.85798" lon="0.2629">
        <ele>1595</ele>
        <time>2022-03-12T10:05:21Z</time>
      </trkpt>
      <trkpt lat="42.85799" lon="0.26289">
        <ele>1599</ele>
        <time>2022-03-12T10:05:32Z</time>
      </trkpt>
      <trkpt lat="42.85801" lon="0.2629">
        <ele>1600</ele>
        <time>2022-03-12T10:05:37Z</time>
      </trkpt>
      <trkpt lat="42.85803" lon="0.2629">
        <ele>1601</ele>
        <time>2022-03-12T10:05:45Z</time>
      </trkpt>
      <trkpt lat="42.85804" lon="0.26292">
        <ele>1603</ele>
        <time>2022-03-12T10:05:50Z</time>
      </trkpt>
      <trkpt lat="42.85807" lon="0.26292">
        <ele>1605</ele>
        <time>2022-03-12T10:06:13Z</time>
      </trkpt>
      <trkpt lat="42.85809" lon="0.2629">
        <ele>1605</ele>
        <time>2022-03-12T10:06:40Z</time>
      </trkpt>
      <trkpt lat="42.85811" lon="0.26285">
        <ele>1606</ele>
        <time>2022-03-12T10:06:47Z</time>
      </trkpt>
      <trkpt lat="42.85813" lon="0.26284">
        <ele>1606</ele>
        <time>2022-03-12T10:06:50Z</time>
      </trkpt>
      <trkpt lat="42.85815" lon="0.26281">
        <ele>1606</ele>
        <time>2022-03-12T10:06:53Z</time>
      </trkpt>
      <trkpt lat="42.85816" lon="0.2628">
        <ele>1606</ele>
        <time>2022-03-12T10:06:56Z</time>
      </trkpt>
      <trkpt lat="42.85825" lon="0.26278">
        <ele>1606</ele>
        <time>2022-03-12T10:07:23Z</time>
      </trkpt>
      <trkpt lat="42.85827" lon="0.26279">
        <ele>1606</ele>
        <time>2022-03-12T10:07:25Z</time>
      </trkpt>
      <trkpt lat="42.85829" lon="0.2628">
        <ele>1606</ele>
        <time>2022-03-12T10:07:28Z</time>
      </trkpt>
      <trkpt lat="42.85831" lon="0.26279">
        <ele>1606</ele>
        <time>2022-03-12T10:07:34Z</time>
      </trkpt>
      <trkpt lat="42.85822" lon="0.26279">
        <ele>1606</ele>
        <time>2022-03-12T10:08:06Z</time>
      </trkpt>
      <trkpt lat="42.85814" lon="0.26285">
        <ele>1607</ele>
        <time>2022-03-12T10:09:22Z</time>
      </trkpt>
      <trkpt lat="42.8581" lon="0.26273">
        <ele>1606</ele>
        <time>2022-03-12T10:10:12Z</time>
      </trkpt>
      <trkpt lat="42.85808" lon="0.2626">
        <ele>1605</ele>
        <time>2022-03-12T10:10:39Z</time>
      </trkpt>
      <trkpt lat="42.85808" lon="0.26247">
        <ele>1604</ele>
        <time>2022-03-12T10:10:46Z</time>
      </trkpt>
      <trkpt lat="42.8581" lon="0.26234">
        <ele>1605</ele>
        <time>2022-03-12T10:11:00Z</time>
      </trkpt>
      <trkpt lat="42.85811" lon="0.2622">
        <ele>1605</ele>
        <time>2022-03-12T10:11:12Z</time>
      </trkpt>
      <trkpt lat="42.85812" lon="0.26208">
        <ele>1605</ele>
        <time>2022-03-12T10:11:19Z</time>
      </trkpt>
      <trkpt lat="42.85813" lon="0.26194">
        <ele>1605</ele>
        <time>2022-03-12T10:11:31Z</time>
      </trkpt>
      <trkpt lat="42.85817" lon="0.26182">
        <ele>1605</ele>
        <time>2022-03-12T10:12:29Z</time>
      </trkpt>
      <trkpt lat="42.85818" lon="0.26177">
        <ele>1606</ele>
        <time>2022-03-12T10:12:34Z</time>
      </trkpt>
      <trkpt lat="42.85827" lon="0.26175">
        <ele>1608</ele>
        <time>2022-03-12T10:12:47Z</time>
      </trkpt>
      <trkpt lat="42.85832" lon="0.26164">
        <ele>1610</ele>
        <time>2022-03-12T10:13:16Z</time>
      </trkpt>
      <trkpt lat="42.85831" lon="0.26151">
        <ele>1611</ele>
        <time>2022-03-12T10:13:26Z</time>
      </trkpt>
      <trkpt lat="42.85836" lon="0.2614">
        <ele>1612</ele>
        <time>2022-03-12T10:13:38Z</time>
      </trkpt>
      <trkpt lat="42.85841" lon="0.26135">
        <ele>1614</ele>
        <time>2022-03-12T10:13:46Z</time>
      </trkpt>
      <trkpt lat="42.85843" lon="0.26122">
        <ele>1614</ele>
        <time>2022-03-12T10:13:58Z</time>
      </trkpt>
      <trkpt lat="42.85845" lon="0.26117">
        <ele>1613</ele>
        <time>2022-03-12T10:14:03Z</time>
      </trkpt>
      <trkpt lat="42.8585" lon="0.26106">
        <ele>1614</ele>
        <time>2022-03-12T10:14:13Z</time>
      </trkpt>
      <trkpt lat="42.85853" lon="0.26094">
        <ele>1613</ele>
        <time>2022-03-12T10:14:24Z</time>
      </trkpt>
      <trkpt lat="42.85857" lon="0.26082">
        <ele>1614</ele>
        <time>2022-03-12T10:14:46Z</time>
      </trkpt>
      <trkpt lat="42.85863" lon="0.26073">
        <ele>1616</ele>
        <time>2022-03-12T10:15:03Z</time>
      </trkpt>
      <trkpt lat="42.85866" lon="0.26061">
        <ele>1617</ele>
        <time>2022-03-12T10:15:14Z</time>
      </trkpt>
      <trkpt lat="42.85869" lon="0.26074">
        <ele>1616</ele>
        <time>2022-03-12T10:17:05Z</time>
      </trkpt>
      <trkpt lat="42.85872" lon="0.26061">
        <ele>1618</ele>
        <time>2022-03-12T10:17:53Z</time>
      </trkpt>
      <trkpt lat="42.85877" lon="0.26052">
        <ele>1619</ele>
        <time>2022-03-12T10:18:09Z</time>
      </trkpt>
      <trkpt lat="42.8588" lon="0.26039">
        <ele>1620</ele>
        <time>2022-03-12T10:18:43Z</time>
      </trkpt>
      <trkpt lat="42.85888" lon="0.26032">
        <ele>1623</ele>
        <time>2022-03-12T10:22:17Z</time>
      </trkpt>
      <trkpt lat="42.85896" lon="0.26027">
        <ele>1625</ele>
        <time>2022-03-12T10:22:42Z</time>
      </trkpt>
      <trkpt lat="42.85902" lon="0.26018">
        <ele>1628</ele>
        <time>2022-03-12T10:22:55Z</time>
      </trkpt>
      <trkpt lat="42.85906" lon="0.26006">
        <ele>1630</ele>
        <time>2022-03-12T10:23:11Z</time>
      </trkpt>
      <trkpt lat="42.85906" lon="0.25993">
        <ele>1630</ele>
        <time>2022-03-12T10:23:23Z</time>
      </trkpt>
      <trkpt lat="42.85914" lon="0.25986">
        <ele>1633</ele>
        <time>2022-03-12T10:23:48Z</time>
      </trkpt>
      <trkpt lat="42.85922" lon="0.2598">
        <ele>1635</ele>
        <time>2022-03-12T10:24:01Z</time>
      </trkpt>
      <trkpt lat="42.8593" lon="0.25975">
        <ele>1638</ele>
        <time>2022-03-12T10:24:13Z</time>
      </trkpt>
      <trkpt lat="42.85936" lon="0.25966">
        <ele>1642</ele>
        <time>2022-03-12T10:24:34Z</time>
      </trkpt>
      <trkpt lat="42.85978" lon="0.25897">
        <ele>1657</ele>
        <time>2022-03-12T10:26:13Z</time>
      </trkpt>
      <trkpt lat="42.85972" lon="0.25887">
        <ele>1659</ele>
        <time>2022-03-12T10:26:23Z</time>
      </trkpt>
      <trkpt lat="42.85964" lon="0.25879">
        <ele>1660</ele>
        <time>2022-03-12T10:26:29Z</time>
      </trkpt>
      <trkpt lat="42.85968" lon="0.25867">
        <ele>1663</ele>
        <time>2022-03-12T10:26:45Z</time>
      </trkpt>
      <trkpt lat="42.85974" lon="0.25857">
        <ele>1665</ele>
        <time>2022-03-12T10:27:01Z</time>
      </trkpt>
      <trkpt lat="42.85967" lon="0.25848">
        <ele>1668</ele>
        <time>2022-03-12T10:27:16Z</time>
      </trkpt>
      <trkpt lat="42.85963" lon="0.25835">
        <ele>1670</ele>
        <time>2022-03-12T10:27:32Z</time>
      </trkpt>
      <trkpt lat="42.85959" lon="0.25821">
        <ele>1672</ele>
        <time>2022-03-12T10:27:46Z</time>
      </trkpt>
      <trkpt lat="42.85951" lon="0.25812">
        <ele>1673</ele>
        <time>2022-03-12T10:27:57Z</time>
      </trkpt>
      <trkpt lat="42.85943" lon="0.25792">
        <ele>1678</ele>
        <time>2022-03-12T10:28:30Z</time>
      </trkpt>
      <trkpt lat="42.85944" lon="0.25779">
        <ele>1680</ele>
        <time>2022-03-12T10:28:54Z</time>
      </trkpt>
      <trkpt lat="42.85945" lon="0.25767">
        <ele>1683</ele>
        <time>2022-03-12T10:29:19Z</time>
      </trkpt>
      <trkpt lat="42.85946" lon="0.25755">
        <ele>1686</ele>
        <time>2022-03-12T10:29:34Z</time>
      </trkpt>
      <trkpt lat="42.85943" lon="0.25743">
        <ele>1687</ele>
        <time>2022-03-12T10:29:47Z</time>
      </trkpt>
      <trkpt lat="42.85945" lon="0.2573">
        <ele>1691</ele>
        <time>2022-03-12T10:30:05Z</time>
      </trkpt>
      <trkpt lat="42.85944" lon="0.25717">
        <ele>1693</ele>
        <time>2022-03-12T10:30:22Z</time>
      </trkpt>
      <trkpt lat="42.8594" lon="0.25706">
        <ele>1696</ele>
        <time>2022-03-12T10:30:39Z</time>
      </trkpt>
      <trkpt lat="42.85934" lon="0.25696">
        <ele>1697</ele>
        <time>2022-03-12T10:30:58Z</time>
      </trkpt>
      <trkpt lat="42.85933" lon="0.25684">
        <ele>1701</ele>
        <time>2022-03-12T10:31:26Z</time>
      </trkpt>
      <trkpt lat="42.8593" lon="0.25671">
        <ele>1702</ele>
        <time>2022-03-12T10:31:40Z</time>
      </trkpt>
      <trkpt lat="42.85929" lon="0.25659">
        <ele>1704</ele>
        <time>2022-03-12T10:31:55Z</time>
      </trkpt>
      <trkpt lat="42.85925" lon="0.25648">
        <ele>1707</ele>
        <time>2022-03-12T10:32:12Z</time>
      </trkpt>
      <trkpt lat="42.85923" lon="0.25635">
        <ele>1710</ele>
        <time>2022-03-12T10:32:29Z</time>
      </trkpt>
      <trkpt lat="42.8592" lon="0.25624">
        <ele>1712</ele>
        <time>2022-03-12T10:32:45Z</time>
      </trkpt>
      <trkpt lat="42.85915" lon="0.25613">
        <ele>1712</ele>
        <time>2022-03-12T10:32:57Z</time>
      </trkpt>
      <trkpt lat="42.85909" lon="0.25603">
        <ele>1715</ele>
        <time>2022-03-12T10:33:12Z</time>
      </trkpt>
      <trkpt lat="42.85905" lon="0.25592">
        <ele>1717</ele>
        <time>2022-03-12T10:33:29Z</time>
      </trkpt>
      <trkpt lat="42.859" lon="0.25581">
        <ele>1718</ele>
        <time>2022-03-12T10:33:43Z</time>
      </trkpt>
      <trkpt lat="42.85893" lon="0.25573">
        <ele>1721</ele>
        <time>2022-03-12T10:34:09Z</time>
      </trkpt>
      <trkpt lat="42.85884" lon="0.25569">
        <ele>1722</ele>
        <time>2022-03-12T10:34:24Z</time>
      </trkpt>
      <trkpt lat="42.85875" lon="0.25566">
        <ele>1725</ele>
        <time>2022-03-12T10:34:37Z</time>
      </trkpt>
      <trkpt lat="42.85866" lon="0.25561">
        <ele>1726</ele>
        <time>2022-03-12T10:34:50Z</time>
      </trkpt>
      <trkpt lat="42.85858" lon="0.25553">
        <ele>1727</ele>
        <time>2022-03-12T10:35:02Z</time>
      </trkpt>
      <trkpt lat="42.85852" lon="0.25544">
        <ele>1730</ele>
        <time>2022-03-12T10:35:22Z</time>
      </trkpt>
      <trkpt lat="42.85845" lon="0.25536">
        <ele>1735</ele>
        <time>2022-03-12T10:35:40Z</time>
      </trkpt>
      <trkpt lat="42.85839" lon="0.25525">
        <ele>1737</ele>
        <time>2022-03-12T10:35:59Z</time>
      </trkpt>
      <trkpt lat="42.85831" lon="0.25519">
        <ele>1741</ele>
        <time>2022-03-12T10:36:18Z</time>
      </trkpt>
      <trkpt lat="42.85823" lon="0.25512">
        <ele>1743</ele>
        <time>2022-03-12T10:36:35Z</time>
      </trkpt>
      <trkpt lat="42.85815" lon="0.25505">
        <ele>1746</ele>
        <time>2022-03-12T10:36:52Z</time>
      </trkpt>
      <trkpt lat="42.85806" lon="0.25502">
        <ele>1749</ele>
        <time>2022-03-12T10:37:06Z</time>
      </trkpt>
      <trkpt lat="42.85797" lon="0.25498">
        <ele>1752</ele>
        <time>2022-03-12T10:37:23Z</time>
      </trkpt>
      <trkpt lat="42.85795" lon="0.25485">
        <ele>1755</ele>
        <time>2022-03-12T10:38:16Z</time>
      </trkpt>
      <trkpt lat="42.85797" lon="0.25473">
        <ele>1757</ele>
        <time>2022-03-12T10:38:32Z</time>
      </trkpt>
      <trkpt lat="42.85806" lon="0.25467">
        <ele>1757</ele>
        <time>2022-03-12T10:38:43Z</time>
      </trkpt>
      <trkpt lat="42.85802" lon="0.25455">
        <ele>1760</ele>
        <time>2022-03-12T10:39:02Z</time>
      </trkpt>
      <trkpt lat="42.85793" lon="0.25453">
        <ele>1763</ele>
        <time>2022-03-12T10:39:17Z</time>
      </trkpt>
      <trkpt lat="42.85788" lon="0.25442">
        <ele>1766</ele>
        <time>2022-03-12T10:39:34Z</time>
      </trkpt>
      <trkpt lat="42.85786" lon="0.25429">
        <ele>1768</ele>
        <time>2022-03-12T10:39:48Z</time>
      </trkpt>
      <trkpt lat="42.85785" lon="0.25417">
        <ele>1770</ele>
        <time>2022-03-12T10:40:03Z</time>
      </trkpt>
      <trkpt lat="42.8578" lon="0.25407">
        <ele>1773</ele>
        <time>2022-03-12T10:40:18Z</time>
      </trkpt>
      <trkpt lat="42.85778" lon="0.25395">
        <ele>1777</ele>
        <time>2022-03-12T10:40:38Z</time>
      </trkpt>
      <trkpt lat="42.85774" lon="0.25384">
        <ele>1779</ele>
        <time>2022-03-12T10:40:54Z</time>
      </trkpt>
      <trkpt lat="42.85773" lon="0.25371">
        <ele>1780</ele>
        <time>2022-03-12T10:41:10Z</time>
      </trkpt>
      <trkpt lat="42.85766" lon="0.25363">
        <ele>1783</ele>
        <time>2022-03-12T10:41:25Z</time>
      </trkpt>
      <trkpt lat="42.85761" lon="0.25352">
        <ele>1786</ele>
        <time>2022-03-12T10:41:43Z</time>
      </trkpt>
      <trkpt lat="42.8576" lon="0.2534">
        <ele>1790</ele>
        <time>2022-03-12T10:42:08Z</time>
      </trkpt>
      <trkpt lat="42.85758" lon="0.25328">
        <ele>1794</ele>
        <time>2022-03-12T10:42:30Z</time>
      </trkpt>
      <trkpt lat="42.85754" lon="0.25317">
        <ele>1797</ele>
        <time>2022-03-12T10:42:47Z</time>
      </trkpt>
      <trkpt lat="42.8575" lon="0.25306">
        <ele>1800</ele>
        <time>2022-03-12T10:43:02Z</time>
      </trkpt>
      <trkpt lat="42.85744" lon="0.25295">
        <ele>1802</ele>
        <time>2022-03-12T10:43:18Z</time>
      </trkpt>
      <trkpt lat="42.85739" lon="0.25284">
        <ele>1805</ele>
        <time>2022-03-12T10:43:38Z</time>
      </trkpt>
      <trkpt lat="42.85733" lon="0.25274">
        <ele>1808</ele>
        <time>2022-03-12T10:43:56Z</time>
      </trkpt>
      <trkpt lat="42.85727" lon="0.25264">
        <ele>1812</ele>
        <time>2022-03-12T10:44:16Z</time>
      </trkpt>
      <trkpt lat="42.85717" lon="0.25263">
        <ele>1815</ele>
        <time>2022-03-12T10:44:41Z</time>
      </trkpt>
      <trkpt lat="42.8571" lon="0.25254">
        <ele>1816</ele>
        <time>2022-03-12T10:44:51Z</time>
      </trkpt>
      <trkpt lat="42.85701" lon="0.25249">
        <ele>1820</ele>
        <time>2022-03-12T10:45:12Z</time>
      </trkpt>
      <trkpt lat="42.85696" lon="0.25238">
        <ele>1822</ele>
        <time>2022-03-12T10:45:30Z</time>
      </trkpt>
      <trkpt lat="42.85691" lon="0.25228">
        <ele>1824</ele>
        <time>2022-03-12T10:45:43Z</time>
      </trkpt>
      <trkpt lat="42.85708" lon="0.25206">
        <ele>1830</ele>
        <time>2022-03-12T10:46:38Z</time>
      </trkpt>
      <trkpt lat="42.85703" lon="0.25195">
        <ele>1832</ele>
        <time>2022-03-12T10:46:52Z</time>
      </trkpt>
      <trkpt lat="42.85695" lon="0.25187">
        <ele>1834</ele>
        <time>2022-03-12T10:47:04Z</time>
      </trkpt>
      <trkpt lat="42.8569" lon="0.25177">
        <ele>1836</ele>
        <time>2022-03-12T10:47:19Z</time>
      </trkpt>
      <trkpt lat="42.85683" lon="0.25168">
        <ele>1839</ele>
        <time>2022-03-12T10:47:40Z</time>
      </trkpt>
      <trkpt lat="42.85702" lon="0.25146">
        <ele>1845</ele>
        <time>2022-03-12T10:48:18Z</time>
      </trkpt>
      <trkpt lat="42.85721" lon="0.25095">
        <ele>1855</ele>
        <time>2022-03-12T10:49:31Z</time>
      </trkpt>
      <trkpt lat="42.8572" lon="0.25083">
        <ele>1859</ele>
        <time>2022-03-12T10:49:53Z</time>
      </trkpt>
      <trkpt lat="42.8572" lon="0.2507">
        <ele>1860</ele>
        <time>2022-03-12T10:50:06Z</time>
      </trkpt>
      <trkpt lat="42.85721" lon="0.25057">
        <ele>1861</ele>
        <time>2022-03-12T10:50:18Z</time>
      </trkpt>
      <trkpt lat="42.8572" lon="0.25045">
        <ele>1862</ele>
        <time>2022-03-12T10:50:31Z</time>
      </trkpt>
      <trkpt lat="42.85721" lon="0.25032">
        <ele>1862</ele>
        <time>2022-03-12T10:50:42Z</time>
      </trkpt>
      <trkpt lat="42.85719" lon="0.2502">
        <ele>1863</ele>
        <time>2022-03-12T10:50:54Z</time>
      </trkpt>
      <trkpt lat="42.8572" lon="0.25007">
        <ele>1862</ele>
        <time>2022-03-12T10:51:09Z</time>
      </trkpt>
      <trkpt lat="42.85718" lon="0.24995">
        <ele>1863</ele>
        <time>2022-03-12T10:51:21Z</time>
      </trkpt>
      <trkpt lat="42.85714" lon="0.24983">
        <ele>1864</ele>
        <time>2022-03-12T10:51:57Z</time>
      </trkpt>
      <trkpt lat="42.85708" lon="0.24974">
        <ele>1863</ele>
        <time>2022-03-12T10:53:33Z</time>
      </trkpt>
      <trkpt lat="42.85704" lon="0.24962">
        <ele>1864</ele>
        <time>2022-03-12T10:53:43Z</time>
      </trkpt>
      <trkpt lat="42.85703" lon="0.24949">
        <ele>1864</ele>
        <time>2022-03-12T10:54:11Z</time>
      </trkpt>
      <trkpt lat="42.85706" lon="0.24937">
        <ele>1865</ele>
        <time>2022-03-12T10:54:21Z</time>
      </trkpt>
      <trkpt lat="42.85708" lon="0.24924">
        <ele>1866</ele>
        <time>2022-03-12T10:54:34Z</time>
      </trkpt>
      <trkpt lat="42.85707" lon="0.24912">
        <ele>1866</ele>
        <time>2022-03-12T10:54:43Z</time>
      </trkpt>
      <trkpt lat="42.85705" lon="0.24899">
        <ele>1867</ele>
        <time>2022-03-12T10:54:52Z</time>
      </trkpt>
      <trkpt lat="42.85701" lon="0.24887">
        <ele>1868</ele>
        <time>2022-03-12T10:55:04Z</time>
      </trkpt>
      <trkpt lat="42.85696" lon="0.24876">
        <ele>1868</ele>
        <time>2022-03-12T10:55:16Z</time>
      </trkpt>
      <trkpt lat="42.85683" lon="0.2488">
        <ele>1868</ele>
        <time>2022-03-12T10:55:17Z</time>
      </trkpt>
      <trkpt lat="42.85673" lon="0.24879">
        <ele>1869</ele>
        <time>2022-03-12T10:55:19Z</time>
      </trkpt>
      <trkpt lat="42.85666" lon="0.2487">
        <ele>1870</ele>
        <time>2022-03-12T10:55:24Z</time>
      </trkpt>
      <trkpt lat="42.85663" lon="0.24857">
        <ele>1870</ele>
        <time>2022-03-12T10:55:32Z</time>
      </trkpt>
      <trkpt lat="42.8566" lon="0.24845">
        <ele>1871</ele>
        <time>2022-03-12T10:55:43Z</time>
      </trkpt>
      <trkpt lat="42.85659" lon="0.24831">
        <ele>1872</ele>
        <time>2022-03-12T10:55:53Z</time>
      </trkpt>
      <trkpt lat="42.85659" lon="0.24819">
        <ele>1873</ele>
        <time>2022-03-12T10:56:07Z</time>
      </trkpt>
      <trkpt lat="42.85662" lon="0.24807">
        <ele>1873</ele>
        <time>2022-03-12T10:56:18Z</time>
      </trkpt>
      <trkpt lat="42.85665" lon="0.24794">
        <ele>1873</ele>
        <time>2022-03-12T10:56:29Z</time>
      </trkpt>
      <trkpt lat="42.85671" lon="0.24784">
        <ele>1874</ele>
        <time>2022-03-12T10:56:38Z</time>
      </trkpt>
      <trkpt lat="42.85676" lon="0.24774">
        <ele>1875</ele>
        <time>2022-03-12T10:56:49Z</time>
      </trkpt>
      <trkpt lat="42.85679" lon="0.24762">
        <ele>1875</ele>
        <time>2022-03-12T10:57:02Z</time>
      </trkpt>
      <trkpt lat="42.85683" lon="0.2475">
        <ele>1877</ele>
        <time>2022-03-12T10:57:15Z</time>
      </trkpt>
      <trkpt lat="42.85689" lon="0.24741">
        <ele>1878</ele>
        <time>2022-03-12T10:57:27Z</time>
      </trkpt>
      <trkpt lat="42.85693" lon="0.24729">
        <ele>1880</ele>
        <time>2022-03-12T10:57:41Z</time>
      </trkpt>
      <trkpt lat="42.85698" lon="0.24718">
        <ele>1880</ele>
        <time>2022-03-12T10:57:57Z</time>
      </trkpt>
      <trkpt lat="42.85702" lon="0.24706">
        <ele>1881</ele>
        <time>2022-03-12T10:58:09Z</time>
      </trkpt>
      <trkpt lat="42.85705" lon="0.24694">
        <ele>1881</ele>
        <time>2022-03-12T10:58:19Z</time>
      </trkpt>
      <trkpt lat="42.85699" lon="0.24685">
        <ele>1881</ele>
        <time>2022-03-12T11:03:37Z</time>
      </trkpt>
      <trkpt lat="42.85706" lon="0.24691">
        <ele>1882</ele>
        <time>2022-03-12T11:05:48Z</time>
      </trkpt>
      <trkpt lat="42.85708" lon="0.24678">
        <ele>1884</ele>
        <time>2022-03-12T11:11:29Z</time>
      </trkpt>
      <trkpt lat="42.85708" lon="0.24665">
        <ele>1884</ele>
        <time>2022-03-12T11:11:40Z</time>
      </trkpt>
      <trkpt lat="42.85708" lon="0.24652">
        <ele>1887</ele>
        <time>2022-03-12T11:11:54Z</time>
      </trkpt>
      <trkpt lat="42.8571" lon="0.2464">
        <ele>1889</ele>
        <time>2022-03-12T11:12:05Z</time>
      </trkpt>
      <trkpt lat="42.85708" lon="0.24628">
        <ele>1890</ele>
        <time>2022-03-12T11:12:18Z</time>
      </trkpt>
      <trkpt lat="42.85708" lon="0.24615">
        <ele>1892</ele>
        <time>2022-03-12T11:12:32Z</time>
      </trkpt>
      <trkpt lat="42.85707" lon="0.24603">
        <ele>1893</ele>
        <time>2022-03-12T11:12:46Z</time>
      </trkpt>
      <trkpt lat="42.85705" lon="0.2459">
        <ele>1897</ele>
        <time>2022-03-12T11:13:01Z</time>
      </trkpt>
      <trkpt lat="42.85707" lon="0.24577">
        <ele>1899</ele>
        <time>2022-03-12T11:13:16Z</time>
      </trkpt>
      <trkpt lat="42.85708" lon="0.24565">
        <ele>1900</ele>
        <time>2022-03-12T11:13:30Z</time>
      </trkpt>
      <trkpt lat="42.85704" lon="0.24552">
        <ele>1902</ele>
        <time>2022-03-12T11:13:44Z</time>
      </trkpt>
      <trkpt lat="42.85706" lon="0.24539">
        <ele>1907</ele>
        <time>2022-03-12T11:14:06Z</time>
      </trkpt>
      <trkpt lat="42.85704" lon="0.24527">
        <ele>1908</ele>
        <time>2022-03-12T11:14:20Z</time>
      </trkpt>
      <trkpt lat="42.85704" lon="0.24515">
        <ele>1910</ele>
        <time>2022-03-12T11:14:36Z</time>
      </trkpt>
      <trkpt lat="42.85699" lon="0.24504">
        <ele>1912</ele>
        <time>2022-03-12T11:14:50Z</time>
      </trkpt>
      <trkpt lat="42.85696" lon="0.24492">
        <ele>1915</ele>
        <time>2022-03-12T11:15:08Z</time>
      </trkpt>
      <trkpt lat="42.85696" lon="0.24479">
        <ele>1918</ele>
        <time>2022-03-12T11:15:23Z</time>
      </trkpt>
      <trkpt lat="42.85703" lon="0.24473">
        <ele>1922</ele>
        <time>2022-03-12T11:15:48Z</time>
      </trkpt>
      <trkpt lat="42.85712" lon="0.24466">
        <ele>1924</ele>
        <time>2022-03-12T11:16:02Z</time>
      </trkpt>
      <trkpt lat="42.85715" lon="0.24455">
        <ele>1925</ele>
        <time>2022-03-12T11:16:19Z</time>
      </trkpt>
      <trkpt lat="42.85714" lon="0.24441">
        <ele>1928</ele>
        <time>2022-03-12T11:16:38Z</time>
      </trkpt>
      <trkpt lat="42.8572" lon="0.24431">
        <ele>1930</ele>
        <time>2022-03-12T11:16:54Z</time>
      </trkpt>
      <trkpt lat="42.85722" lon="0.24418">
        <ele>1932</ele>
        <time>2022-03-12T11:17:26Z</time>
      </trkpt>
      <trkpt lat="42.85723" lon="0.24406">
        <ele>1936</ele>
        <time>2022-03-12T11:17:49Z</time>
      </trkpt>
      <trkpt lat="42.85721" lon="0.24394">
        <ele>1937</ele>
        <time>2022-03-12T11:18:06Z</time>
      </trkpt>
      <trkpt lat="42.85723" lon="0.24382">
        <ele>1941</ele>
        <time>2022-03-12T11:18:19Z</time>
      </trkpt>
      <trkpt lat="42.85725" lon="0.24369">
        <ele>1945</ele>
        <time>2022-03-12T11:18:45Z</time>
      </trkpt>
      <trkpt lat="42.85728" lon="0.24357">
        <ele>1948</ele>
        <time>2022-03-12T11:19:04Z</time>
      </trkpt>
      <trkpt lat="42.85727" lon="0.24344">
        <ele>1952</ele>
        <time>2022-03-12T11:19:21Z</time>
      </trkpt>
      <trkpt lat="42.85727" lon="0.24331">
        <ele>1955</ele>
        <time>2022-03-12T11:19:49Z</time>
      </trkpt>
      <trkpt lat="42.85724" lon="0.2432">
        <ele>1960</ele>
        <time>2022-03-12T11:20:16Z</time>
      </trkpt>
      <trkpt lat="42.8572" lon="0.24309">
        <ele>1967</ele>
        <time>2022-03-12T11:20:45Z</time>
      </trkpt>
      <trkpt lat="42.85713" lon="0.24299">
        <ele>1968</ele>
        <time>2022-03-12T11:21:04Z</time>
      </trkpt>
      <trkpt lat="42.85706" lon="0.24292">
        <ele>1972</ele>
        <time>2022-03-12T11:21:23Z</time>
      </trkpt>
      <trkpt lat="42.85697" lon="0.24289">
        <ele>1974</ele>
        <time>2022-03-12T11:21:41Z</time>
      </trkpt>
      <trkpt lat="42.85689" lon="0.24283">
        <ele>1976</ele>
        <time>2022-03-12T11:22:01Z</time>
      </trkpt>
      <trkpt lat="42.85688" lon="0.24281">
        <ele>1977</ele>
        <time>2022-03-12T11:24:45Z</time>
      </trkpt>
      <trkpt lat="42.85686" lon="0.24283">
        <ele>1977</ele>
        <time>2022-03-12T11:26:12Z</time>
      </trkpt>
      <trkpt lat="42.85685" lon="0.24281">
        <ele>1978</ele>
        <time>2022-03-12T11:27:11Z</time>
      </trkpt>
      <trkpt lat="42.85683" lon="0.2428">
        <ele>1979</ele>
        <time>2022-03-12T11:27:20Z</time>
      </trkpt>
      <trkpt lat="42.85682" lon="0.24278">
        <ele>1979</ele>
        <time>2022-03-12T11:27:25Z</time>
      </trkpt>
      <trkpt lat="42.8568" lon="0.24277">
        <ele>1980</ele>
        <time>2022-03-12T11:27:35Z</time>
      </trkpt>
      <trkpt lat="42.85678" lon="0.24276">
        <ele>1981</ele>
        <time>2022-03-12T11:27:44Z</time>
      </trkpt>
      <trkpt lat="42.85676" lon="0.24275">
        <ele>1982</ele>
        <time>2022-03-12T11:28:14Z</time>
      </trkpt>
      <trkpt lat="42.85674" lon="0.24275">
        <ele>1983</ele>
        <time>2022-03-12T11:28:17Z</time>
      </trkpt>
      <trkpt lat="42.85672" lon="0.24275">
        <ele>1983</ele>
        <time>2022-03-12T11:28:21Z</time>
      </trkpt>
      <trkpt lat="42.8567" lon="0.24275">
        <ele>1984</ele>
        <time>2022-03-12T11:28:28Z</time>
      </trkpt>
      <trkpt lat="42.85668" lon="0.24275">
        <ele>1985</ele>
        <time>2022-03-12T11:28:36Z</time>
      </trkpt>
      <trkpt lat="42.85666" lon="0.24275">
        <ele>1985</ele>
        <time>2022-03-12T11:28:41Z</time>
      </trkpt>
      <trkpt lat="42.85664" lon="0.24275">
        <ele>1988</ele>
        <time>2022-03-12T11:29:02Z</time>
      </trkpt>
      <trkpt lat="42.85662" lon="0.24273">
        <ele>1988</ele>
        <time>2022-03-12T11:29:14Z</time>
      </trkpt>
      <trkpt lat="42.8566" lon="0.24272">
        <ele>1988</ele>
        <time>2022-03-12T11:29:17Z</time>
      </trkpt>
      <trkpt lat="42.85659" lon="0.24271">
        <ele>1989</ele>
        <time>2022-03-12T11:32:01Z</time>
      </trkpt>
      <trkpt lat="42.85657" lon="0.2427">
        <ele>1989</ele>
        <time>2022-03-12T11:32:53Z</time>
      </trkpt>
      <trkpt lat="42.85656" lon="0.24269">
        <ele>1990</ele>
        <time>2022-03-12T11:36:40Z</time>
      </trkpt>
      <trkpt lat="42.85654" lon="0.24266">
        <ele>1989</ele>
        <time>2022-03-12T11:37:19Z</time>
      </trkpt>
      <trkpt lat="42.85652" lon="0.24265">
        <ele>1990</ele>
        <time>2022-03-12T11:37:23Z</time>
      </trkpt>
      <trkpt lat="42.85651" lon="0.24263">
        <ele>1990</ele>
        <time>2022-03-12T11:37:27Z</time>
      </trkpt>
      <trkpt lat="42.85649" lon="0.24261">
        <ele>1991</ele>
        <time>2022-03-12T11:37:32Z</time>
      </trkpt>
      <trkpt lat="42.85648" lon="0.24259">
        <ele>1992</ele>
        <time>2022-03-12T11:37:36Z</time>
      </trkpt>
      <trkpt lat="42.85646" lon="0.24256">
        <ele>1993</ele>
        <time>2022-03-12T11:37:40Z</time>
      </trkpt>
      <trkpt lat="42.85645" lon="0.24254">
        <ele>1993</ele>
        <time>2022-03-12T11:37:44Z</time>
      </trkpt>
      <trkpt lat="42.85643" lon="0.24253">
        <ele>1994</ele>
        <time>2022-03-12T11:37:48Z</time>
      </trkpt>
      <trkpt lat="42.85641" lon="0.2425">
        <ele>1994</ele>
        <time>2022-03-12T11:37:52Z</time>
      </trkpt>
      <trkpt lat="42.85641" lon="0.24247">
        <ele>1995</ele>
        <time>2022-03-12T11:37:56Z</time>
      </trkpt>
      <trkpt lat="42.85642" lon="0.24245">
        <ele>1995</ele>
        <time>2022-03-12T11:38:00Z</time>
      </trkpt>
      <trkpt lat="42.85643" lon="0.24242">
        <ele>1996</ele>
        <time>2022-03-12T11:38:04Z</time>
      </trkpt>
      <trkpt lat="42.85644" lon="0.24239">
        <ele>1997</ele>
        <time>2022-03-12T11:38:08Z</time>
      </trkpt>
      <trkpt lat="42.85645" lon="0.24237">
        <ele>1998</ele>
        <time>2022-03-12T11:38:12Z</time>
      </trkpt>
      <trkpt lat="42.85645" lon="0.24234">
        <ele>1998</ele>
        <time>2022-03-12T11:38:16Z</time>
      </trkpt>
      <trkpt lat="42.85646" lon="0.24231">
        <ele>1999</ele>
        <time>2022-03-12T11:38:21Z</time>
      </trkpt>
      <trkpt lat="42.85647" lon="0.24229">
        <ele>1999</ele>
        <time>2022-03-12T11:38:26Z</time>
      </trkpt>
      <trkpt lat="42.85646" lon="0.24226">
        <ele>2001</ele>
        <time>2022-03-12T11:38:32Z</time>
      </trkpt>
      <trkpt lat="42.85644" lon="0.24224">
        <ele>2001</ele>
        <time>2022-03-12T11:38:36Z</time>
      </trkpt>
      <trkpt lat="42.85642" lon="0.24223">
        <ele>2001</ele>
        <time>2022-03-12T11:38:39Z</time>
      </trkpt>
      <trkpt lat="42.8564" lon="0.24221">
        <ele>2002</ele>
        <time>2022-03-12T11:38:43Z</time>
      </trkpt>
      <trkpt lat="42.85639" lon="0.2422">
        <ele>2003</ele>
        <time>2022-03-12T11:38:46Z</time>
      </trkpt>
      <trkpt lat="42.85637" lon="0.24218">
        <ele>2003</ele>
        <time>2022-03-12T11:38:50Z</time>
      </trkpt>
      <trkpt lat="42.85636" lon="0.24216">
        <ele>2003</ele>
        <time>2022-03-12T11:38:53Z</time>
      </trkpt>
      <trkpt lat="42.85634" lon="0.24214">
        <ele>2004</ele>
        <time>2022-03-12T11:38:57Z</time>
      </trkpt>
      <trkpt lat="42.85632" lon="0.24212">
        <ele>2004</ele>
        <time>2022-03-12T11:39:01Z</time>
      </trkpt>
      <trkpt lat="42.85631" lon="0.24211">
        <ele>2005</ele>
        <time>2022-03-12T11:39:05Z</time>
      </trkpt>
      <trkpt lat="42.85629" lon="0.24209">
        <ele>2005</ele>
        <time>2022-03-12T11:39:09Z</time>
      </trkpt>
      <trkpt lat="42.85627" lon="0.24207">
        <ele>2006</ele>
        <time>2022-03-12T11:39:13Z</time>
      </trkpt>
      <trkpt lat="42.85625" lon="0.24205">
        <ele>2007</ele>
        <time>2022-03-12T11:39:17Z</time>
      </trkpt>
      <trkpt lat="42.85623" lon="0.24203">
        <ele>2007</ele>
        <time>2022-03-12T11:39:21Z</time>
      </trkpt>
      <trkpt lat="42.85621" lon="0.24201">
        <ele>2008</ele>
        <time>2022-03-12T11:39:24Z</time>
      </trkpt>
      <trkpt lat="42.8562" lon="0.24198">
        <ele>2008</ele>
        <time>2022-03-12T11:39:27Z</time>
      </trkpt>
      <trkpt lat="42.85618" lon="0.24196">
        <ele>2008</ele>
        <time>2022-03-12T11:39:30Z</time>
      </trkpt>
      <trkpt lat="42.85617" lon="0.24193">
        <ele>2009</ele>
        <time>2022-03-12T11:39:33Z</time>
      </trkpt>
      <trkpt lat="42.85615" lon="0.2419">
        <ele>2009</ele>
        <time>2022-03-12T11:39:36Z</time>
      </trkpt>
      <trkpt lat="42.85614" lon="0.24188">
        <ele>2009</ele>
        <time>2022-03-12T11:39:39Z</time>
      </trkpt>
      <trkpt lat="42.85613" lon="0.24185">
        <ele>2009</ele>
        <time>2022-03-12T11:39:42Z</time>
      </trkpt>
      <trkpt lat="42.85612" lon="0.24182">
        <ele>2009</ele>
        <time>2022-03-12T11:39:46Z</time>
      </trkpt>
      <trkpt lat="42.85611" lon="0.24179">
        <ele>2010</ele>
        <time>2022-03-12T11:39:53Z</time>
      </trkpt>
      <trkpt lat="42.8561" lon="0.24176">
        <ele>2010</ele>
        <time>2022-03-12T11:39:56Z</time>
      </trkpt>
      <trkpt lat="42.8561" lon="0.24173">
        <ele>2011</ele>
        <time>2022-03-12T11:39:59Z</time>
      </trkpt>
      <trkpt lat="42.85609" lon="0.2417">
        <ele>2011</ele>
        <time>2022-03-12T11:40:02Z</time>
      </trkpt>
      <trkpt lat="42.85608" lon="0.24166">
        <ele>2011</ele>
        <time>2022-03-12T11:40:05Z</time>
      </trkpt>
      <trkpt lat="42.85607" lon="0.24163">
        <ele>2012</ele>
        <time>2022-03-12T11:40:08Z</time>
      </trkpt>
      <trkpt lat="42.85606" lon="0.2416">
        <ele>2012</ele>
        <time>2022-03-12T11:40:11Z</time>
      </trkpt>
      <trkpt lat="42.85605" lon="0.24157">
        <ele>2012</ele>
        <time>2022-03-12T11:40:14Z</time>
      </trkpt>
      <trkpt lat="42.85605" lon="0.24155">
        <ele>2014</ele>
        <time>2022-03-12T11:40:17Z</time>
      </trkpt>
      <trkpt lat="42.85604" lon="0.24151">
        <ele>2015</ele>
        <time>2022-03-12T11:40:21Z</time>
      </trkpt>
      <trkpt lat="42.85604" lon="0.24149">
        <ele>2015</ele>
        <time>2022-03-12T11:40:24Z</time>
      </trkpt>
      <trkpt lat="42.85603" lon="0.24146">
        <ele>2016</ele>
        <time>2022-03-12T11:40:27Z</time>
      </trkpt>
      <trkpt lat="42.85603" lon="0.24143">
        <ele>2016</ele>
        <time>2022-03-12T11:40:31Z</time>
      </trkpt>
      <trkpt lat="42.85602" lon="0.2414">
        <ele>2016</ele>
        <time>2022-03-12T11:40:34Z</time>
      </trkpt>
      <trkpt lat="42.85602" lon="0.24138">
        <ele>2017</ele>
        <time>2022-03-12T11:40:36Z</time>
      </trkpt>
      <trkpt lat="42.85602" lon="0.24135">
        <ele>2018</ele>
        <time>2022-03-12T11:40:38Z</time>
      </trkpt>
      <trkpt lat="42.85601" lon="0.24132">
        <ele>2018</ele>
        <time>2022-03-12T11:40:40Z</time>
      </trkpt>
      <trkpt lat="42.856" lon="0.24129">
        <ele>2018</ele>
        <time>2022-03-12T11:40:42Z</time>
      </trkpt>
      <trkpt lat="42.85599" lon="0.24125">
        <ele>2019</ele>
        <time>2022-03-12T11:40:44Z</time>
      </trkpt>
      <trkpt lat="42.85598" lon="0.24123">
        <ele>2019</ele>
        <time>2022-03-12T11:40:46Z</time>
      </trkpt>
      <trkpt lat="42.85598" lon="0.2412">
        <ele>2020</ele>
        <time>2022-03-12T11:40:48Z</time>
      </trkpt>
      <trkpt lat="42.85597" lon="0.24117">
        <ele>2020</ele>
        <time>2022-03-12T11:40:51Z</time>
      </trkpt>
      <trkpt lat="42.85597" lon="0.24114">
        <ele>2020</ele>
        <time>2022-03-12T11:40:54Z</time>
      </trkpt>
      <trkpt lat="42.85596" lon="0.24111">
        <ele>2020</ele>
        <time>2022-03-12T11:40:57Z</time>
      </trkpt>
      <trkpt lat="42.85596" lon="0.24108">
        <ele>2020</ele>
        <time>2022-03-12T11:41:00Z</time>
      </trkpt>
      <trkpt lat="42.85595" lon="0.24106">
        <ele>2020</ele>
        <time>2022-03-12T11:41:03Z</time>
      </trkpt>
      <trkpt lat="42.85594" lon="0.24103">
        <ele>2020</ele>
        <time>2022-03-12T11:41:06Z</time>
      </trkpt>
      <trkpt lat="42.85593" lon="0.241">
        <ele>2021</ele>
        <time>2022-03-12T11:41:09Z</time>
      </trkpt>
      <trkpt lat="42.85592" lon="0.24097">
        <ele>2021</ele>
        <time>2022-03-12T11:41:12Z</time>
      </trkpt>
      <trkpt lat="42.85591" lon="0.24095">
        <ele>2021</ele>
        <time>2022-03-12T11:41:14Z</time>
      </trkpt>
      <trkpt lat="42.8559" lon="0.24093">
        <ele>2022</ele>
        <time>2022-03-12T11:41:17Z</time>
      </trkpt>
      <trkpt lat="42.85589" lon="0.24091">
        <ele>2022</ele>
        <time>2022-03-12T11:41:20Z</time>
      </trkpt>
      <trkpt lat="42.85587" lon="0.24088">
        <ele>2022</ele>
        <time>2022-03-12T11:41:23Z</time>
      </trkpt>
      <trkpt lat="42.85586" lon="0.24086">
        <ele>2022</ele>
        <time>2022-03-12T11:41:25Z</time>
      </trkpt>
      <trkpt lat="42.85585" lon="0.24084">
        <ele>2022</ele>
        <time>2022-03-12T11:41:27Z</time>
      </trkpt>
      <trkpt lat="42.85584" lon="0.24082">
        <ele>2022</ele>
        <time>2022-03-12T11:41:30Z</time>
      </trkpt>
      <trkpt lat="42.85582" lon="0.2408">
        <ele>2022</ele>
        <time>2022-03-12T11:41:33Z</time>
      </trkpt>
      <trkpt lat="42.85581" lon="0.24078">
        <ele>2022</ele>
        <time>2022-03-12T11:41:35Z</time>
      </trkpt>
      <trkpt lat="42.8558" lon="0.24077">
        <ele>2022</ele>
        <time>2022-03-12T11:41:37Z</time>
      </trkpt>
      <trkpt lat="42.85578" lon="0.24075">
        <ele>2022</ele>
        <time>2022-03-12T11:41:40Z</time>
      </trkpt>
      <trkpt lat="42.85576" lon="0.24072">
        <ele>2022</ele>
        <time>2022-03-12T11:41:43Z</time>
      </trkpt>
      <trkpt lat="42.85575" lon="0.2407">
        <ele>2023</ele>
        <time>2022-03-12T11:41:46Z</time>
      </trkpt>
      <trkpt lat="42.85574" lon="0.24068">
        <ele>2023</ele>
        <time>2022-03-12T11:41:49Z</time>
      </trkpt>
      <trkpt lat="42.85573" lon="0.24065">
        <ele>2023</ele>
        <time>2022-03-12T11:41:52Z</time>
      </trkpt>
      <trkpt lat="42.85571" lon="0.24063">
        <ele>2024</ele>
        <time>2022-03-12T11:41:55Z</time>
      </trkpt>
      <trkpt lat="42.8557" lon="0.24061">
        <ele>2024</ele>
        <time>2022-03-12T11:41:58Z</time>
      </trkpt>
      <trkpt lat="42.85568" lon="0.24059">
        <ele>2024</ele>
        <time>2022-03-12T11:42:01Z</time>
      </trkpt>
      <trkpt lat="42.85567" lon="0.24057">
        <ele>2025</ele>
        <time>2022-03-12T11:42:04Z</time>
      </trkpt>
      <trkpt lat="42.85565" lon="0.24055">
        <ele>2025</ele>
        <time>2022-03-12T11:42:08Z</time>
      </trkpt>
      <trkpt lat="42.85564" lon="0.24053">
        <ele>2025</ele>
        <time>2022-03-12T11:42:11Z</time>
      </trkpt>
      <trkpt lat="42.85562" lon="0.24051">
        <ele>2026</ele>
        <time>2022-03-12T11:42:14Z</time>
      </trkpt>
      <trkpt lat="42.85561" lon="0.24049">
        <ele>2026</ele>
        <time>2022-03-12T11:42:17Z</time>
      </trkpt>
      <trkpt lat="42.8556" lon="0.24046">
        <ele>2027</ele>
        <time>2022-03-12T11:42:21Z</time>
      </trkpt>
      <trkpt lat="42.85558" lon="0.24044">
        <ele>2027</ele>
        <time>2022-03-12T11:42:25Z</time>
      </trkpt>
      <trkpt lat="42.85556" lon="0.24043">
        <ele>2028</ele>
        <time>2022-03-12T11:42:28Z</time>
      </trkpt>
      <trkpt lat="42.85555" lon="0.24041">
        <ele>2028</ele>
        <time>2022-03-12T11:42:31Z</time>
      </trkpt>
      <trkpt lat="42.85553" lon="0.24039">
        <ele>2028</ele>
        <time>2022-03-12T11:42:33Z</time>
      </trkpt>
      <trkpt lat="42.85552" lon="0.24037">
        <ele>2028</ele>
        <time>2022-03-12T11:42:36Z</time>
      </trkpt>
      <trkpt lat="42.8555" lon="0.24034">
        <ele>2029</ele>
        <time>2022-03-12T11:42:40Z</time>
      </trkpt>
      <trkpt lat="42.85549" lon="0.24032">
        <ele>2029</ele>
        <time>2022-03-12T11:42:43Z</time>
      </trkpt>
      <trkpt lat="42.85547" lon="0.2403">
        <ele>2030</ele>
        <time>2022-03-12T11:42:46Z</time>
      </trkpt>
      <trkpt lat="42.85546" lon="0.24028">
        <ele>2030</ele>
        <time>2022-03-12T11:42:49Z</time>
      </trkpt>
      <trkpt lat="42.85545" lon="0.24026">
        <ele>2030</ele>
        <time>2022-03-12T11:42:52Z</time>
      </trkpt>
      <trkpt lat="42.85544" lon="0.24023">
        <ele>2030</ele>
        <time>2022-03-12T11:42:55Z</time>
      </trkpt>
      <trkpt lat="42.85544" lon="0.24021">
        <ele>2030</ele>
        <time>2022-03-12T11:42:58Z</time>
      </trkpt>
      <trkpt lat="42.85543" lon="0.24018">
        <ele>2031</ele>
        <time>2022-03-12T11:43:01Z</time>
      </trkpt>
      <trkpt lat="42.85542" lon="0.24016">
        <ele>2031</ele>
        <time>2022-03-12T11:43:04Z</time>
      </trkpt>
      <trkpt lat="42.85541" lon="0.24014">
        <ele>2031</ele>
        <time>2022-03-12T11:43:07Z</time>
      </trkpt>
      <trkpt lat="42.8554" lon="0.24011">
        <ele>2031</ele>
        <time>2022-03-12T11:43:10Z</time>
      </trkpt>
      <trkpt lat="42.85539" lon="0.24009">
        <ele>2031</ele>
        <time>2022-03-12T11:43:13Z</time>
      </trkpt>
      <trkpt lat="42.85538" lon="0.24006">
        <ele>2031</ele>
        <time>2022-03-12T11:43:16Z</time>
      </trkpt>
      <trkpt lat="42.85537" lon="0.24003">
        <ele>2031</ele>
        <time>2022-03-12T11:43:20Z</time>
      </trkpt>
      <trkpt lat="42.85536" lon="0.24">
        <ele>2032</ele>
        <time>2022-03-12T11:43:23Z</time>
      </trkpt>
      <trkpt lat="42.85535" lon="0.23998">
        <ele>2033</ele>
        <time>2022-03-12T11:43:26Z</time>
      </trkpt>
      <trkpt lat="42.85534" lon="0.23995">
        <ele>2032</ele>
        <time>2022-03-12T11:43:30Z</time>
      </trkpt>
      <trkpt lat="42.85533" lon="0.23992">
        <ele>2033</ele>
        <time>2022-03-12T11:43:34Z</time>
      </trkpt>
      <trkpt lat="42.85533" lon="0.2399">
        <ele>2033</ele>
        <time>2022-03-12T11:43:37Z</time>
      </trkpt>
      <trkpt lat="42.85532" lon="0.23987">
        <ele>2034</ele>
        <time>2022-03-12T11:43:41Z</time>
      </trkpt>
      <trkpt lat="42.85531" lon="0.23984">
        <ele>2034</ele>
        <time>2022-03-12T11:43:44Z</time>
      </trkpt>
      <trkpt lat="42.8553" lon="0.23982">
        <ele>2035</ele>
        <time>2022-03-12T11:43:47Z</time>
      </trkpt>
      <trkpt lat="42.85529" lon="0.23979">
        <ele>2035</ele>
        <time>2022-03-12T11:43:50Z</time>
      </trkpt>
      <trkpt lat="42.85529" lon="0.23977">
        <ele>2035</ele>
        <time>2022-03-12T11:43:53Z</time>
      </trkpt>
      <trkpt lat="42.85528" lon="0.23974">
        <ele>2035</ele>
        <time>2022-03-12T11:43:56Z</time>
      </trkpt>
      <trkpt lat="42.85528" lon="0.23971">
        <ele>2035</ele>
        <time>2022-03-12T11:43:59Z</time>
      </trkpt>
      <trkpt lat="42.85528" lon="0.23969">
        <ele>2035</ele>
        <time>2022-03-12T11:44:02Z</time>
      </trkpt>
      <trkpt lat="42.85527" lon="0.23966">
        <ele>2036</ele>
        <time>2022-03-12T11:44:05Z</time>
      </trkpt>
      <trkpt lat="42.85527" lon="0.23963">
        <ele>2036</ele>
        <time>2022-03-12T11:44:09Z</time>
      </trkpt>
      <trkpt lat="42.85526" lon="0.23961">
        <ele>2037</ele>
        <time>2022-03-12T11:44:12Z</time>
      </trkpt>
      <trkpt lat="42.85525" lon="0.23957">
        <ele>2038</ele>
        <time>2022-03-12T11:44:16Z</time>
      </trkpt>
      <trkpt lat="42.85525" lon="0.23954">
        <ele>2038</ele>
        <time>2022-03-12T11:44:20Z</time>
      </trkpt>
      <trkpt lat="42.85525" lon="0.23951">
        <ele>2040</ele>
        <time>2022-03-12T11:44:24Z</time>
      </trkpt>
      <trkpt lat="42.85526" lon="0.23949">
        <ele>2040</ele>
        <time>2022-03-12T11:44:27Z</time>
      </trkpt>
      <trkpt lat="42.85527" lon="0.23948">
        <ele>2041</ele>
        <time>2022-03-12T11:44:30Z</time>
      </trkpt>
      <trkpt lat="42.8553" lon="0.23947">
        <ele>2041</ele>
        <time>2022-03-12T11:44:34Z</time>
      </trkpt>
      <trkpt lat="42.85532" lon="0.23946">
        <ele>2042</ele>
        <time>2022-03-12T11:44:38Z</time>
      </trkpt>
      <trkpt lat="42.85534" lon="0.23946">
        <ele>2042</ele>
        <time>2022-03-12T11:44:42Z</time>
      </trkpt>
      <trkpt lat="42.85536" lon="0.23945">
        <ele>2044</ele>
        <time>2022-03-12T11:44:57Z</time>
      </trkpt>
      <trkpt lat="42.85538" lon="0.23946">
        <ele>2043</ele>
        <time>2022-03-12T11:45:04Z</time>
      </trkpt>
      <trkpt lat="42.8554" lon="0.23946">
        <ele>2044</ele>
        <time>2022-03-12T11:45:07Z</time>
      </trkpt>
      <trkpt lat="42.85542" lon="0.23946">
        <ele>2045</ele>
        <time>2022-03-12T11:45:10Z</time>
      </trkpt>
      <trkpt lat="42.85544" lon="0.23947">
        <ele>2046</ele>
        <time>2022-03-12T11:45:14Z</time>
      </trkpt>
      <trkpt lat="42.85547" lon="0.23947">
        <ele>2046</ele>
        <time>2022-03-12T11:45:18Z</time>
      </trkpt>
      <trkpt lat="42.85549" lon="0.23947">
        <ele>2046</ele>
        <time>2022-03-12T11:45:22Z</time>
      </trkpt>
      <trkpt lat="42.85549" lon="0.23944">
        <ele>2047</ele>
        <time>2022-03-12T11:45:29Z</time>
      </trkpt>
      <trkpt lat="42.85548" lon="0.23941">
        <ele>2049</ele>
        <time>2022-03-12T11:45:33Z</time>
      </trkpt>
      <trkpt lat="42.85547" lon="0.23939">
        <ele>2050</ele>
        <time>2022-03-12T11:45:36Z</time>
      </trkpt>
      <trkpt lat="42.85546" lon="0.23937">
        <ele>2050</ele>
        <time>2022-03-12T11:45:40Z</time>
      </trkpt>
      <trkpt lat="42.85545" lon="0.23935">
        <ele>2050</ele>
        <time>2022-03-12T11:45:44Z</time>
      </trkpt>
      <trkpt lat="42.85544" lon="0.23933">
        <ele>2050</ele>
        <time>2022-03-12T11:45:48Z</time>
      </trkpt>
      <trkpt lat="42.85543" lon="0.2393">
        <ele>2051</ele>
        <time>2022-03-12T11:45:52Z</time>
      </trkpt>
      <trkpt lat="42.85541" lon="0.23928">
        <ele>2051</ele>
        <time>2022-03-12T11:45:56Z</time>
      </trkpt>
      <trkpt lat="42.85542" lon="0.23925">
        <ele>2052</ele>
        <time>2022-03-12T11:46:00Z</time>
      </trkpt>
      <trkpt lat="42.85544" lon="0.23924">
        <ele>2052</ele>
        <time>2022-03-12T11:46:03Z</time>
      </trkpt>
      <trkpt lat="42.85546" lon="0.23924">
        <ele>2053</ele>
        <time>2022-03-12T11:46:07Z</time>
      </trkpt>
      <trkpt lat="42.85548" lon="0.23923">
        <ele>2054</ele>
        <time>2022-03-12T11:46:15Z</time>
      </trkpt>
      <trkpt lat="42.85551" lon="0.23922">
        <ele>2054</ele>
        <time>2022-03-12T11:46:19Z</time>
      </trkpt>
      <trkpt lat="42.85553" lon="0.23921">
        <ele>2056</ele>
        <time>2022-03-12T11:46:40Z</time>
      </trkpt>
      <trkpt lat="42.85555" lon="0.2392">
        <ele>2056</ele>
        <time>2022-03-12T11:46:43Z</time>
      </trkpt>
      <trkpt lat="42.85557" lon="0.2392">
        <ele>2056</ele>
        <time>2022-03-12T11:46:46Z</time>
      </trkpt>
      <trkpt lat="42.85559" lon="0.23919">
        <ele>2057</ele>
        <time>2022-03-12T11:46:51Z</time>
      </trkpt>
      <trkpt lat="42.85562" lon="0.2392">
        <ele>2057</ele>
        <time>2022-03-12T11:46:54Z</time>
      </trkpt>
      <trkpt lat="42.85564" lon="0.23921">
        <ele>2058</ele>
        <time>2022-03-12T11:46:59Z</time>
      </trkpt>
      <trkpt lat="42.85565" lon="0.23922">
        <ele>2059</ele>
        <time>2022-03-12T11:47:02Z</time>
      </trkpt>
      <trkpt lat="42.85567" lon="0.23923">
        <ele>2059</ele>
        <time>2022-03-12T11:47:05Z</time>
      </trkpt>
      <trkpt lat="42.85569" lon="0.23924">
        <ele>2060</ele>
        <time>2022-03-12T11:47:08Z</time>
      </trkpt>
      <trkpt lat="42.85571" lon="0.23925">
        <ele>2060</ele>
        <time>2022-03-12T11:47:11Z</time>
      </trkpt>
      <trkpt lat="42.85573" lon="0.23927">
        <ele>2060</ele>
        <time>2022-03-12T11:47:15Z</time>
      </trkpt>
      <trkpt lat="42.85575" lon="0.23928">
        <ele>2061</ele>
        <time>2022-03-12T11:47:19Z</time>
      </trkpt>
      <trkpt lat="42.85577" lon="0.2393">
        <ele>2062</ele>
        <time>2022-03-12T11:47:24Z</time>
      </trkpt>
      <trkpt lat="42.85578" lon="0.23931">
        <ele>2062</ele>
        <time>2022-03-12T11:47:28Z</time>
      </trkpt>
      <trkpt lat="42.8558" lon="0.23933">
        <ele>2062</ele>
        <time>2022-03-12T11:47:32Z</time>
      </trkpt>
      <trkpt lat="42.85582" lon="0.23934">
        <ele>2063</ele>
        <time>2022-03-12T11:47:37Z</time>
      </trkpt>
      <trkpt lat="42.85584" lon="0.23935">
        <ele>2064</ele>
        <time>2022-03-12T11:47:45Z</time>
      </trkpt>
      <trkpt lat="42.85586" lon="0.23935">
        <ele>2066</ele>
        <time>2022-03-12T11:47:51Z</time>
      </trkpt>
      <trkpt lat="42.85587" lon="0.23933">
        <ele>2067</ele>
        <time>2022-03-12T11:47:55Z</time>
      </trkpt>
      <trkpt lat="42.85587" lon="0.2393">
        <ele>2067</ele>
        <time>2022-03-12T11:47:59Z</time>
      </trkpt>
      <trkpt lat="42.85587" lon="0.23927">
        <ele>2068</ele>
        <time>2022-03-12T11:48:06Z</time>
      </trkpt>
      <trkpt lat="42.85587" lon="0.23924">
        <ele>2068</ele>
        <time>2022-03-12T11:48:15Z</time>
      </trkpt>
      <trkpt lat="42.85588" lon="0.23921">
        <ele>2068</ele>
        <time>2022-03-12T11:48:18Z</time>
      </trkpt>
      <trkpt lat="42.85589" lon="0.23919">
        <ele>2069</ele>
        <time>2022-03-12T11:48:22Z</time>
      </trkpt>
      <trkpt lat="42.85589" lon="0.23916">
        <ele>2069</ele>
        <time>2022-03-12T11:48:25Z</time>
      </trkpt>
      <trkpt lat="42.8559" lon="0.23914">
        <ele>2069</ele>
        <time>2022-03-12T11:48:28Z</time>
      </trkpt>
      <trkpt lat="42.85591" lon="0.23911">
        <ele>2069</ele>
        <time>2022-03-12T11:48:31Z</time>
      </trkpt>
      <trkpt lat="42.85591" lon="0.23908">
        <ele>2070</ele>
        <time>2022-03-12T11:48:35Z</time>
      </trkpt>
      <trkpt lat="42.85591" lon="0.23905">
        <ele>2071</ele>
        <time>2022-03-12T11:48:38Z</time>
      </trkpt>
      <trkpt lat="42.85592" lon="0.23902">
        <ele>2071</ele>
        <time>2022-03-12T11:48:41Z</time>
      </trkpt>
      <trkpt lat="42.85592" lon="0.23899">
        <ele>2071</ele>
        <time>2022-03-12T11:48:44Z</time>
      </trkpt>
      <trkpt lat="42.85592" lon="0.23897">
        <ele>2072</ele>
        <time>2022-03-12T11:48:47Z</time>
      </trkpt>
      <trkpt lat="42.85593" lon="0.23894">
        <ele>2072</ele>
        <time>2022-03-12T11:48:50Z</time>
      </trkpt>
      <trkpt lat="42.85593" lon="0.23891">
        <ele>2072</ele>
        <time>2022-03-12T11:48:53Z</time>
      </trkpt>
      <trkpt lat="42.85594" lon="0.23889">
        <ele>2072</ele>
        <time>2022-03-12T11:48:56Z</time>
      </trkpt>
      <trkpt lat="42.85595" lon="0.23886">
        <ele>2072</ele>
        <time>2022-03-12T11:49:00Z</time>
      </trkpt>
      <trkpt lat="42.85595" lon="0.23883">
        <ele>2072</ele>
        <time>2022-03-12T11:49:04Z</time>
      </trkpt>
      <trkpt lat="42.85595" lon="0.2388">
        <ele>2073</ele>
        <time>2022-03-12T11:49:08Z</time>
      </trkpt>
      <trkpt lat="42.85596" lon="0.23878">
        <ele>2073</ele>
        <time>2022-03-12T11:49:12Z</time>
      </trkpt>
      <trkpt lat="42.85596" lon="0.23875">
        <ele>2074</ele>
        <time>2022-03-12T11:49:16Z</time>
      </trkpt>
      <trkpt lat="42.85597" lon="0.23872">
        <ele>2074</ele>
        <time>2022-03-12T11:49:20Z</time>
      </trkpt>
      <trkpt lat="42.85597" lon="0.23869">
        <ele>2075</ele>
        <time>2022-03-12T11:49:24Z</time>
      </trkpt>
      <trkpt lat="42.85598" lon="0.23866">
        <ele>2075</ele>
        <time>2022-03-12T11:49:28Z</time>
      </trkpt>
      <trkpt lat="42.85599" lon="0.23863">
        <ele>2076</ele>
        <time>2022-03-12T11:49:33Z</time>
      </trkpt>
      <trkpt lat="42.85599" lon="0.23861">
        <ele>2076</ele>
        <time>2022-03-12T11:49:38Z</time>
      </trkpt>
      <trkpt lat="42.85599" lon="0.23858">
        <ele>2077</ele>
        <time>2022-03-12T11:49:43Z</time>
      </trkpt>
      <trkpt lat="42.856" lon="0.23855">
        <ele>2077</ele>
        <time>2022-03-12T11:49:48Z</time>
      </trkpt>
      <trkpt lat="42.856" lon="0.23852">
        <ele>2077</ele>
        <time>2022-03-12T11:49:52Z</time>
      </trkpt>
      <trkpt lat="42.856" lon="0.2385">
        <ele>2078</ele>
        <time>2022-03-12T11:49:56Z</time>
      </trkpt>
      <trkpt lat="42.856" lon="0.23847">
        <ele>2079</ele>
        <time>2022-03-12T11:50:00Z</time>
      </trkpt>
      <trkpt lat="42.85602" lon="0.23845">
        <ele>2079</ele>
        <time>2022-03-12T11:50:05Z</time>
      </trkpt>
      <trkpt lat="42.85603" lon="0.23843">
        <ele>2080</ele>
        <time>2022-03-12T11:50:10Z</time>
      </trkpt>
      <trkpt lat="42.85604" lon="0.23841">
        <ele>2080</ele>
        <time>2022-03-12T11:50:15Z</time>
      </trkpt>
      <trkpt lat="42.85605" lon="0.23838">
        <ele>2082</ele>
        <time>2022-03-12T11:50:20Z</time>
      </trkpt>
      <trkpt lat="42.85606" lon="0.23836">
        <ele>2082</ele>
        <time>2022-03-12T11:50:26Z</time>
      </trkpt>
      <trkpt lat="42.85607" lon="0.23834">
        <ele>2083</ele>
        <time>2022-03-12T11:50:30Z</time>
      </trkpt>
      <trkpt lat="42.85608" lon="0.23832">
        <ele>2083</ele>
        <time>2022-03-12T11:50:35Z</time>
      </trkpt>
      <trkpt lat="42.8561" lon="0.23831">
        <ele>2084</ele>
        <time>2022-03-12T11:50:40Z</time>
      </trkpt>
      <trkpt lat="42.85611" lon="0.23829">
        <ele>2085</ele>
        <time>2022-03-12T11:50:45Z</time>
      </trkpt>
      <trkpt lat="42.85613" lon="0.23827">
        <ele>2085</ele>
        <time>2022-03-12T11:50:51Z</time>
      </trkpt>
      <trkpt lat="42.85615" lon="0.23825">
        <ele>2086</ele>
        <time>2022-03-12T11:50:56Z</time>
      </trkpt>
      <trkpt lat="42.85616" lon="0.23823">
        <ele>2087</ele>
        <time>2022-03-12T11:51:01Z</time>
      </trkpt>
      <trkpt lat="42.85617" lon="0.23822">
        <ele>2087</ele>
        <time>2022-03-12T11:51:05Z</time>
      </trkpt>
      <trkpt lat="42.85618" lon="0.23819">
        <ele>2087</ele>
        <time>2022-03-12T11:51:10Z</time>
      </trkpt>
      <trkpt lat="42.85619" lon="0.23817">
        <ele>2089</ele>
        <time>2022-03-12T11:51:14Z</time>
      </trkpt>
      <trkpt lat="42.8562" lon="0.23815">
        <ele>2089</ele>
        <time>2022-03-12T11:51:19Z</time>
      </trkpt>
      <trkpt lat="42.85622" lon="0.23812">
        <ele>2090</ele>
        <time>2022-03-12T11:51:23Z</time>
      </trkpt>
      <trkpt lat="42.85623" lon="0.2381">
        <ele>2090</ele>
        <time>2022-03-12T11:51:27Z</time>
      </trkpt>
      <trkpt lat="42.85624" lon="0.23808">
        <ele>2090</ele>
        <time>2022-03-12T11:51:32Z</time>
      </trkpt>
      <trkpt lat="42.85625" lon="0.23806">
        <ele>2092</ele>
        <time>2022-03-12T11:51:36Z</time>
      </trkpt>
      <trkpt lat="42.85627" lon="0.23804">
        <ele>2093</ele>
        <time>2022-03-12T11:51:40Z</time>
      </trkpt>
      <trkpt lat="42.85628" lon="0.23802">
        <ele>2093</ele>
        <time>2022-03-12T11:51:44Z</time>
      </trkpt>
      <trkpt lat="42.85629" lon="0.23799">
        <ele>2094</ele>
        <time>2022-03-12T11:51:48Z</time>
      </trkpt>
      <trkpt lat="42.85631" lon="0.23798">
        <ele>2095</ele>
        <time>2022-03-12T11:51:53Z</time>
      </trkpt>
      <trkpt lat="42.85632" lon="0.23795">
        <ele>2095</ele>
        <time>2022-03-12T11:51:57Z</time>
      </trkpt>
      <trkpt lat="42.85633" lon="0.23793">
        <ele>2095</ele>
        <time>2022-03-12T11:52:01Z</time>
      </trkpt>
      <trkpt lat="42.85634" lon="0.2379">
        <ele>2097</ele>
        <time>2022-03-12T11:52:05Z</time>
      </trkpt>
      <trkpt lat="42.85635" lon="0.23788">
        <ele>2096</ele>
        <time>2022-03-12T11:52:09Z</time>
      </trkpt>
      <trkpt lat="42.85636" lon="0.23785">
        <ele>2097</ele>
        <time>2022-03-12T11:52:13Z</time>
      </trkpt>
      <trkpt lat="42.85637" lon="0.23782">
        <ele>2098</ele>
        <time>2022-03-12T11:52:17Z</time>
      </trkpt>
      <trkpt lat="42.85637" lon="0.2378">
        <ele>2098</ele>
        <time>2022-03-12T11:52:21Z</time>
      </trkpt>
      <trkpt lat="42.85638" lon="0.23777">
        <ele>2099</ele>
        <time>2022-03-12T11:52:25Z</time>
      </trkpt>
      <trkpt lat="42.85638" lon="0.23774">
        <ele>2099</ele>
        <time>2022-03-12T11:52:29Z</time>
      </trkpt>
      <trkpt lat="42.85638" lon="0.23771">
        <ele>2100</ele>
        <time>2022-03-12T11:52:33Z</time>
      </trkpt>
      <trkpt lat="42.85638" lon="0.23768">
        <ele>2101</ele>
        <time>2022-03-12T11:52:37Z</time>
      </trkpt>
      <trkpt lat="42.85638" lon="0.23765">
        <ele>2101</ele>
        <time>2022-03-12T11:52:40Z</time>
      </trkpt>
      <trkpt lat="42.85638" lon="0.23762">
        <ele>2102</ele>
        <time>2022-03-12T11:52:43Z</time>
      </trkpt>
      <trkpt lat="42.85638" lon="0.2376">
        <ele>2102</ele>
        <time>2022-03-12T11:52:46Z</time>
      </trkpt>
      <trkpt lat="42.85638" lon="0.23757">
        <ele>2103</ele>
        <time>2022-03-12T11:52:50Z</time>
      </trkpt>
      <trkpt lat="42.85638" lon="0.23755">
        <ele>2104</ele>
        <time>2022-03-12T11:52:55Z</time>
      </trkpt>
      <trkpt lat="42.85638" lon="0.23752">
        <ele>2104</ele>
        <time>2022-03-12T11:52:59Z</time>
      </trkpt>
      <trkpt lat="42.85638" lon="0.2375">
        <ele>2105</ele>
        <time>2022-03-12T11:53:02Z</time>
      </trkpt>
      <trkpt lat="42.85636" lon="0.23748">
        <ele>2105</ele>
        <time>2022-03-12T11:53:05Z</time>
      </trkpt>
      <trkpt lat="42.85634" lon="0.23747">
        <ele>2105</ele>
        <time>2022-03-12T11:53:13Z</time>
      </trkpt>
      <trkpt lat="42.85632" lon="0.23746">
        <ele>2105</ele>
        <time>2022-03-12T11:53:15Z</time>
      </trkpt>
      <trkpt lat="42.8563" lon="0.23746">
        <ele>2105</ele>
        <time>2022-03-12T11:53:18Z</time>
      </trkpt>
      <trkpt lat="42.85627" lon="0.23746">
        <ele>2105</ele>
        <time>2022-03-12T11:53:21Z</time>
      </trkpt>
      <trkpt lat="42.85625" lon="0.23746">
        <ele>2105</ele>
        <time>2022-03-12T11:53:24Z</time>
      </trkpt>
      <trkpt lat="42.85623" lon="0.23747">
        <ele>2106</ele>
        <time>2022-03-12T11:53:27Z</time>
      </trkpt>
      <trkpt lat="42.85621" lon="0.23747">
        <ele>2106</ele>
        <time>2022-03-12T11:53:30Z</time>
      </trkpt>
      <trkpt lat="42.85619" lon="0.23749">
        <ele>2107</ele>
        <time>2022-03-12T11:53:34Z</time>
      </trkpt>
      <trkpt lat="42.85617" lon="0.23749">
        <ele>2107</ele>
        <time>2022-03-12T11:53:38Z</time>
      </trkpt>
      <trkpt lat="42.85615" lon="0.23751">
        <ele>2107</ele>
        <time>2022-03-12T11:53:42Z</time>
      </trkpt>
      <trkpt lat="42.85613" lon="0.23753">
        <ele>2108</ele>
        <time>2022-03-12T11:53:47Z</time>
      </trkpt>
      <trkpt lat="42.85612" lon="0.23754">
        <ele>2109</ele>
        <time>2022-03-12T11:53:51Z</time>
      </trkpt>
      <trkpt lat="42.8561" lon="0.23756">
        <ele>2109</ele>
        <time>2022-03-12T11:53:55Z</time>
      </trkpt>
      <trkpt lat="42.85607" lon="0.23757">
        <ele>2109</ele>
        <time>2022-03-12T11:53:58Z</time>
      </trkpt>
      <trkpt lat="42.85605" lon="0.23758">
        <ele>2110</ele>
        <time>2022-03-12T11:54:01Z</time>
      </trkpt>
      <trkpt lat="42.85603" lon="0.23758">
        <ele>2110</ele>
        <time>2022-03-12T11:54:04Z</time>
      </trkpt>
      <trkpt lat="42.85601" lon="0.23757">
        <ele>2110</ele>
        <time>2022-03-12T11:54:07Z</time>
      </trkpt>
      <trkpt lat="42.856" lon="0.23754">
        <ele>2111</ele>
        <time>2022-03-12T11:54:11Z</time>
      </trkpt>
      <trkpt lat="42.856" lon="0.23752">
        <ele>2111</ele>
        <time>2022-03-12T11:54:18Z</time>
      </trkpt>
      <trkpt lat="42.856" lon="0.23749">
        <ele>2112</ele>
        <time>2022-03-12T11:54:22Z</time>
      </trkpt>
      <trkpt lat="42.85601" lon="0.23747">
        <ele>2112</ele>
        <time>2022-03-12T11:54:25Z</time>
      </trkpt>
      <trkpt lat="42.85601" lon="0.23744">
        <ele>2113</ele>
        <time>2022-03-12T11:54:29Z</time>
      </trkpt>
      <trkpt lat="42.85602" lon="0.23742">
        <ele>2113</ele>
        <time>2022-03-12T11:54:33Z</time>
      </trkpt>
      <trkpt lat="42.85602" lon="0.23739">
        <ele>2114</ele>
        <time>2022-03-12T11:54:44Z</time>
      </trkpt>
      <trkpt lat="42.85602" lon="0.23736">
        <ele>2114</ele>
        <time>2022-03-12T11:54:47Z</time>
      </trkpt>
      <trkpt lat="42.85602" lon="0.23733">
        <ele>2115</ele>
        <time>2022-03-12T11:54:51Z</time>
      </trkpt>
      <trkpt lat="42.85602" lon="0.23731">
        <ele>2115</ele>
        <time>2022-03-12T11:54:55Z</time>
      </trkpt>
      <trkpt lat="42.85603" lon="0.23728">
        <ele>2116</ele>
        <time>2022-03-12T11:54:59Z</time>
      </trkpt>
      <trkpt lat="42.85603" lon="0.23725">
        <ele>2118</ele>
        <time>2022-03-12T11:55:05Z</time>
      </trkpt>
      <trkpt lat="42.85603" lon="0.23722">
        <ele>2118</ele>
        <time>2022-03-12T11:55:10Z</time>
      </trkpt>
      <trkpt lat="42.85603" lon="0.2372">
        <ele>2119</ele>
        <time>2022-03-12T11:55:14Z</time>
      </trkpt>
      <trkpt lat="42.85604" lon="0.23717">
        <ele>2120</ele>
        <time>2022-03-12T11:55:19Z</time>
      </trkpt>
      <trkpt lat="42.85605" lon="0.23715">
        <ele>2120</ele>
        <time>2022-03-12T11:55:23Z</time>
      </trkpt>
      <trkpt lat="42.85606" lon="0.23713">
        <ele>2121</ele>
        <time>2022-03-12T11:55:28Z</time>
      </trkpt>
      <trkpt lat="42.85607" lon="0.2371">
        <ele>2121</ele>
        <time>2022-03-12T11:55:33Z</time>
      </trkpt>
      <trkpt lat="42.85608" lon="0.23708">
        <ele>2122</ele>
        <time>2022-03-12T11:55:38Z</time>
      </trkpt>
      <trkpt lat="42.85609" lon="0.23705">
        <ele>2122</ele>
        <time>2022-03-12T11:55:43Z</time>
      </trkpt>
      <trkpt lat="42.8561" lon="0.23703">
        <ele>2124</ele>
        <time>2022-03-12T11:55:49Z</time>
      </trkpt>
      <trkpt lat="42.85611" lon="0.237">
        <ele>2124</ele>
        <time>2022-03-12T11:55:54Z</time>
      </trkpt>
      <trkpt lat="42.85612" lon="0.23697">
        <ele>2125</ele>
        <time>2022-03-12T11:55:59Z</time>
      </trkpt>
      <trkpt lat="42.85613" lon="0.23695">
        <ele>2125</ele>
        <time>2022-03-12T11:56:03Z</time>
      </trkpt>
      <trkpt lat="42.85613" lon="0.23693">
        <ele>2126</ele>
        <time>2022-03-12T11:56:07Z</time>
      </trkpt>
      <trkpt lat="42.85614" lon="0.2369">
        <ele>2126</ele>
        <time>2022-03-12T11:56:11Z</time>
      </trkpt>
      <trkpt lat="42.85614" lon="0.23688">
        <ele>2127</ele>
        <time>2022-03-12T11:56:15Z</time>
      </trkpt>
      <trkpt lat="42.85615" lon="0.23685">
        <ele>2128</ele>
        <time>2022-03-12T11:56:19Z</time>
      </trkpt>
      <trkpt lat="42.85616" lon="0.23682">
        <ele>2128</ele>
        <time>2022-03-12T11:56:23Z</time>
      </trkpt>
      <trkpt lat="42.85617" lon="0.23679">
        <ele>2129</ele>
        <time>2022-03-12T11:56:27Z</time>
      </trkpt>
      <trkpt lat="42.85618" lon="0.23677">
        <ele>2129</ele>
        <time>2022-03-12T11:56:31Z</time>
      </trkpt>
      <trkpt lat="42.85619" lon="0.23675">
        <ele>2129</ele>
        <time>2022-03-12T11:56:35Z</time>
      </trkpt>
      <trkpt lat="42.85619" lon="0.23672">
        <ele>2130</ele>
        <time>2022-03-12T11:56:40Z</time>
      </trkpt>
      <trkpt lat="42.8562" lon="0.23669">
        <ele>2131</ele>
        <time>2022-03-12T11:56:44Z</time>
      </trkpt>
      <trkpt lat="42.8562" lon="0.23667">
        <ele>2131</ele>
        <time>2022-03-12T11:56:47Z</time>
      </trkpt>
      <trkpt lat="42.85621" lon="0.23664">
        <ele>2132</ele>
        <time>2022-03-12T11:56:51Z</time>
      </trkpt>
      <trkpt lat="42.85621" lon="0.23661">
        <ele>2133</ele>
        <time>2022-03-12T11:56:55Z</time>
      </trkpt>
      <trkpt lat="42.85621" lon="0.23658">
        <ele>2133</ele>
        <time>2022-03-12T11:56:58Z</time>
      </trkpt>
      <trkpt lat="42.85621" lon="0.23655">
        <ele>2134</ele>
        <time>2022-03-12T11:57:02Z</time>
      </trkpt>
      <trkpt lat="42.85621" lon="0.23652">
        <ele>2134</ele>
        <time>2022-03-12T11:57:05Z</time>
      </trkpt>
      <trkpt lat="42.85622" lon="0.2365">
        <ele>2134</ele>
        <time>2022-03-12T11:57:08Z</time>
      </trkpt>
      <trkpt lat="42.85623" lon="0.23648">
        <ele>2134</ele>
        <time>2022-03-12T11:57:11Z</time>
      </trkpt>
      <trkpt lat="42.85625" lon="0.23647">
        <ele>2136</ele>
        <time>2022-03-12T11:57:15Z</time>
      </trkpt>
      <trkpt lat="42.85627" lon="0.23648">
        <ele>2137</ele>
        <time>2022-03-12T11:57:33Z</time>
      </trkpt>
      <trkpt lat="42.85629" lon="0.23649">
        <ele>2137</ele>
        <time>2022-03-12T11:57:37Z</time>
      </trkpt>
      <trkpt lat="42.85631" lon="0.23651">
        <ele>2137</ele>
        <time>2022-03-12T11:57:41Z</time>
      </trkpt>
      <trkpt lat="42.85633" lon="0.23652">
        <ele>2138</ele>
        <time>2022-03-12T11:57:45Z</time>
      </trkpt>
      <trkpt lat="42.85635" lon="0.23652">
        <ele>2138</ele>
        <time>2022-03-12T11:57:49Z</time>
      </trkpt>
      <trkpt lat="42.85638" lon="0.23653">
        <ele>2138</ele>
        <time>2022-03-12T11:57:53Z</time>
      </trkpt>
      <trkpt lat="42.8564" lon="0.23652">
        <ele>2139</ele>
        <time>2022-03-12T11:57:57Z</time>
      </trkpt>
      <trkpt lat="42.85642" lon="0.23652">
        <ele>2139</ele>
        <time>2022-03-12T11:58:01Z</time>
      </trkpt>
      <trkpt lat="42.85644" lon="0.23652">
        <ele>2140</ele>
        <time>2022-03-12T11:58:05Z</time>
      </trkpt>
      <trkpt lat="42.85646" lon="0.23652">
        <ele>2141</ele>
        <time>2022-03-12T11:58:09Z</time>
      </trkpt>
      <trkpt lat="42.85648" lon="0.23652">
        <ele>2141</ele>
        <time>2022-03-12T11:58:14Z</time>
      </trkpt>
      <trkpt lat="42.8565" lon="0.23652">
        <ele>2141</ele>
        <time>2022-03-12T11:58:18Z</time>
      </trkpt>
      <trkpt lat="42.85652" lon="0.23652">
        <ele>2142</ele>
        <time>2022-03-12T11:58:22Z</time>
      </trkpt>
      <trkpt lat="42.85654" lon="0.23652">
        <ele>2144</ele>
        <time>2022-03-12T11:58:26Z</time>
      </trkpt>
      <trkpt lat="42.85656" lon="0.23652">
        <ele>2145</ele>
        <time>2022-03-12T11:58:31Z</time>
      </trkpt>
      <trkpt lat="42.85656" lon="0.23649">
        <ele>2145</ele>
        <time>2022-03-12T11:58:36Z</time>
      </trkpt>
      <trkpt lat="42.85655" lon="0.23647">
        <ele>2146</ele>
        <time>2022-03-12T11:58:40Z</time>
      </trkpt>
      <trkpt lat="42.85655" lon="0.23644">
        <ele>2146</ele>
        <time>2022-03-12T11:58:44Z</time>
      </trkpt>
      <trkpt lat="42.85655" lon="0.23641">
        <ele>2147</ele>
        <time>2022-03-12T11:58:48Z</time>
      </trkpt>
      <trkpt lat="42.85656" lon="0.23639">
        <ele>2148</ele>
        <time>2022-03-12T11:58:52Z</time>
      </trkpt>
      <trkpt lat="42.85656" lon="0.23636">
        <ele>2149</ele>
        <time>2022-03-12T11:58:56Z</time>
      </trkpt>
      <trkpt lat="42.85656" lon="0.23633">
        <ele>2149</ele>
        <time>2022-03-12T11:59:00Z</time>
      </trkpt>
      <trkpt lat="42.85657" lon="0.2363">
        <ele>2150</ele>
        <time>2022-03-12T11:59:04Z</time>
      </trkpt>
      <trkpt lat="42.85658" lon="0.23628">
        <ele>2150</ele>
        <time>2022-03-12T11:59:08Z</time>
      </trkpt>
      <trkpt lat="42.85659" lon="0.23626">
        <ele>2151</ele>
        <time>2022-03-12T11:59:11Z</time>
      </trkpt>
      <trkpt lat="42.8566" lon="0.23623">
        <ele>2151</ele>
        <time>2022-03-12T11:59:15Z</time>
      </trkpt>
      <trkpt lat="42.85661" lon="0.23621">
        <ele>2152</ele>
        <time>2022-03-12T11:59:19Z</time>
      </trkpt>
      <trkpt lat="42.85662" lon="0.23619">
        <ele>2152</ele>
        <time>2022-03-12T11:59:23Z</time>
      </trkpt>
      <trkpt lat="42.85663" lon="0.23617">
        <ele>2153</ele>
        <time>2022-03-12T11:59:26Z</time>
      </trkpt>
      <trkpt lat="42.85665" lon="0.23614">
        <ele>2154</ele>
        <time>2022-03-12T11:59:30Z</time>
      </trkpt>
      <trkpt lat="42.85666" lon="0.23612">
        <ele>2154</ele>
        <time>2022-03-12T11:59:34Z</time>
      </trkpt>
      <trkpt lat="42.85667" lon="0.23609">
        <ele>2155</ele>
        <time>2022-03-12T11:59:38Z</time>
      </trkpt>
      <trkpt lat="42.85668" lon="0.23607">
        <ele>2155</ele>
        <time>2022-03-12T11:59:41Z</time>
      </trkpt>
      <trkpt lat="42.85669" lon="0.23604">
        <ele>2155</ele>
        <time>2022-03-12T11:59:44Z</time>
      </trkpt>
      <trkpt lat="42.8567" lon="0.23602">
        <ele>2155</ele>
        <time>2022-03-12T11:59:47Z</time>
      </trkpt>
      <trkpt lat="42.8567" lon="0.23599">
        <ele>2155</ele>
        <time>2022-03-12T11:59:50Z</time>
      </trkpt>
      <trkpt lat="42.85671" lon="0.23597">
        <ele>2155</ele>
        <time>2022-03-12T11:59:56Z</time>
      </trkpt>
      <trkpt lat="42.85672" lon="0.23594">
        <ele>2155</ele>
        <time>2022-03-12T11:59:59Z</time>
      </trkpt>
      <trkpt lat="42.85674" lon="0.23592">
        <ele>2156</ele>
        <time>2022-03-12T12:00:02Z</time>
      </trkpt>
      <trkpt lat="42.85675" lon="0.2359">
        <ele>2156</ele>
        <time>2022-03-12T12:00:05Z</time>
      </trkpt>
      <trkpt lat="42.85676" lon="0.23587">
        <ele>2156</ele>
        <time>2022-03-12T12:00:08Z</time>
      </trkpt>
      <trkpt lat="42.85677" lon="0.23584">
        <ele>2157</ele>
        <time>2022-03-12T12:00:11Z</time>
      </trkpt>
      <trkpt lat="42.85678" lon="0.23582">
        <ele>2156</ele>
        <time>2022-03-12T12:00:13Z</time>
      </trkpt>
      <trkpt lat="42.8568" lon="0.2358">
        <ele>2156</ele>
        <time>2022-03-12T12:00:16Z</time>
      </trkpt>
      <trkpt lat="42.85682" lon="0.23578">
        <ele>2156</ele>
        <time>2022-03-12T12:00:19Z</time>
      </trkpt>
      <trkpt lat="42.85684" lon="0.23575">
        <ele>2156</ele>
        <time>2022-03-12T12:00:22Z</time>
      </trkpt>
      <trkpt lat="42.85685" lon="0.23573">
        <ele>2157</ele>
        <time>2022-03-12T12:00:25Z</time>
      </trkpt>
      <trkpt lat="42.85687" lon="0.23571">
        <ele>2157</ele>
        <time>2022-03-12T12:00:28Z</time>
      </trkpt>
      <trkpt lat="42.85689" lon="0.23569">
        <ele>2156</ele>
        <time>2022-03-12T12:02:54Z</time>
      </trkpt>
      <trkpt lat="42.8569" lon="0.23568">
        <ele>2156</ele>
        <time>2022-03-12T12:02:56Z</time>
      </trkpt>
      <trkpt lat="42.85692" lon="0.23566">
        <ele>2156</ele>
        <time>2022-03-12T12:02:58Z</time>
      </trkpt>
      <trkpt lat="42.85693" lon="0.23564">
        <ele>2156</ele>
        <time>2022-03-12T12:03:00Z</time>
      </trkpt>
      <trkpt lat="42.85695" lon="0.23563">
        <ele>2156</ele>
        <time>2022-03-12T12:03:02Z</time>
      </trkpt>
      <trkpt lat="42.85697" lon="0.23561">
        <ele>2156</ele>
        <time>2022-03-12T12:03:04Z</time>
      </trkpt>
      <trkpt lat="42.85698" lon="0.23559">
        <ele>2157</ele>
        <time>2022-03-12T12:03:06Z</time>
      </trkpt>
      <trkpt lat="42.85699" lon="0.23557">
        <ele>2157</ele>
        <time>2022-03-12T12:03:08Z</time>
      </trkpt>
      <trkpt lat="42.85701" lon="0.23555">
        <ele>2157</ele>
        <time>2022-03-12T12:03:11Z</time>
      </trkpt>
      <trkpt lat="42.85702" lon="0.23553">
        <ele>2157</ele>
        <time>2022-03-12T12:03:13Z</time>
      </trkpt>
      <trkpt lat="42.85704" lon="0.2355">
        <ele>2157</ele>
        <time>2022-03-12T12:03:16Z</time>
      </trkpt>
      <trkpt lat="42.85705" lon="0.23547">
        <ele>2157</ele>
        <time>2022-03-12T12:03:19Z</time>
      </trkpt>
      <trkpt lat="42.85707" lon="0.23544">
        <ele>2157</ele>
        <time>2022-03-12T12:03:22Z</time>
      </trkpt>
      <trkpt lat="42.85708" lon="0.23542">
        <ele>2157</ele>
        <time>2022-03-12T12:03:25Z</time>
      </trkpt>
      <trkpt lat="42.8571" lon="0.23539">
        <ele>2157</ele>
        <time>2022-03-12T12:03:28Z</time>
      </trkpt>
      <trkpt lat="42.85711" lon="0.23536">
        <ele>2158</ele>
        <time>2022-03-12T12:03:31Z</time>
      </trkpt>
      <trkpt lat="42.85712" lon="0.23534">
        <ele>2157</ele>
        <time>2022-03-12T12:03:33Z</time>
      </trkpt>
      <trkpt lat="42.85714" lon="0.2353">
        <ele>2158</ele>
        <time>2022-03-12T12:03:36Z</time>
      </trkpt>
      <trkpt lat="42.85715" lon="0.23528">
        <ele>2158</ele>
        <time>2022-03-12T12:03:39Z</time>
      </trkpt>
      <trkpt lat="42.85716" lon="0.23525">
        <ele>2158</ele>
        <time>2022-03-12T12:03:42Z</time>
      </trkpt>
      <trkpt lat="42.85717" lon="0.23522">
        <ele>2159</ele>
        <time>2022-03-12T12:03:45Z</time>
      </trkpt>
      <trkpt lat="42.85718" lon="0.23519">
        <ele>2159</ele>
        <time>2022-03-12T12:03:48Z</time>
      </trkpt>
      <trkpt lat="42.85719" lon="0.23517">
        <ele>2159</ele>
        <time>2022-03-12T12:03:51Z</time>
      </trkpt>
      <trkpt lat="42.8572" lon="0.23514">
        <ele>2159</ele>
        <time>2022-03-12T12:03:54Z</time>
      </trkpt>
      <trkpt lat="42.85721" lon="0.23511">
        <ele>2160</ele>
        <time>2022-03-12T12:03:57Z</time>
      </trkpt>
      <trkpt lat="42.85722" lon="0.23509">
        <ele>2160</ele>
        <time>2022-03-12T12:04:00Z</time>
      </trkpt>
      <trkpt lat="42.85724" lon="0.23506">
        <ele>2160</ele>
        <time>2022-03-12T12:04:03Z</time>
      </trkpt>
      <trkpt lat="42.85725" lon="0.23503">
        <ele>2160</ele>
        <time>2022-03-12T12:04:06Z</time>
      </trkpt>
      <trkpt lat="42.85726" lon="0.23501">
        <ele>2160</ele>
        <time>2022-03-12T12:04:08Z</time>
      </trkpt>
      <trkpt lat="42.85727" lon="0.23498">
        <ele>2161</ele>
        <time>2022-03-12T12:04:11Z</time>
      </trkpt>
      <trkpt lat="42.85729" lon="0.23495">
        <ele>2161</ele>
        <time>2022-03-12T12:04:14Z</time>
      </trkpt>
      <trkpt lat="42.8573" lon="0.23492">
        <ele>2161</ele>
        <time>2022-03-12T12:04:17Z</time>
      </trkpt>
      <trkpt lat="42.85731" lon="0.23489">
        <ele>2161</ele>
        <time>2022-03-12T12:04:20Z</time>
      </trkpt>
      <trkpt lat="42.85732" lon="0.23487">
        <ele>2161</ele>
        <time>2022-03-12T12:04:23Z</time>
      </trkpt>
      <trkpt lat="42.85733" lon="0.23484">
        <ele>2162</ele>
        <time>2022-03-12T12:04:26Z</time>
      </trkpt>
      <trkpt lat="42.85734" lon="0.23481">
        <ele>2162</ele>
        <time>2022-03-12T12:04:29Z</time>
      </trkpt>
      <trkpt lat="42.85735" lon="0.23479">
        <ele>2162</ele>
        <time>2022-03-12T12:04:32Z</time>
      </trkpt>
      <trkpt lat="42.85736" lon="0.23476">
        <ele>2163</ele>
        <time>2022-03-12T12:04:35Z</time>
      </trkpt>
      <trkpt lat="42.85737" lon="0.23473">
        <ele>2163</ele>
        <time>2022-03-12T12:04:38Z</time>
      </trkpt>
      <trkpt lat="42.85737" lon="0.2347">
        <ele>2164</ele>
        <time>2022-03-12T12:04:42Z</time>
      </trkpt>
      <trkpt lat="42.85738" lon="0.23468">
        <ele>2165</ele>
        <time>2022-03-12T12:04:45Z</time>
      </trkpt>
      <trkpt lat="42.85739" lon="0.23465">
        <ele>2165</ele>
        <time>2022-03-12T12:04:49Z</time>
      </trkpt>
      <trkpt lat="42.8574" lon="0.23463">
        <ele>2165</ele>
        <time>2022-03-12T12:04:53Z</time>
      </trkpt>
      <trkpt lat="42.85741" lon="0.2346">
        <ele>2166</ele>
        <time>2022-03-12T12:04:57Z</time>
      </trkpt>
      <trkpt lat="42.85742" lon="0.23457">
        <ele>2166</ele>
        <time>2022-03-12T12:05:01Z</time>
      </trkpt>
      <trkpt lat="42.85742" lon="0.23455">
        <ele>2166</ele>
        <time>2022-03-12T12:05:05Z</time>
      </trkpt>
      <trkpt lat="42.85743" lon="0.23452">
        <ele>2167</ele>
        <time>2022-03-12T12:05:09Z</time>
      </trkpt>
      <trkpt lat="42.85743" lon="0.23449">
        <ele>2167</ele>
        <time>2022-03-12T12:05:13Z</time>
      </trkpt>
      <trkpt lat="42.85744" lon="0.23447">
        <ele>2168</ele>
        <time>2022-03-12T12:05:17Z</time>
      </trkpt>
      <trkpt lat="42.85745" lon="0.23444">
        <ele>2170</ele>
        <time>2022-03-12T12:05:21Z</time>
      </trkpt>
      <trkpt lat="42.85745" lon="0.23441">
        <ele>2171</ele>
        <time>2022-03-12T12:05:26Z</time>
      </trkpt>
      <trkpt lat="42.85745" lon="0.23439">
        <ele>2171</ele>
        <time>2022-03-12T12:05:30Z</time>
      </trkpt>
      <trkpt lat="42.85746" lon="0.23436">
        <ele>2171</ele>
        <time>2022-03-12T12:05:34Z</time>
      </trkpt>
      <trkpt lat="42.85746" lon="0.23433">
        <ele>2172</ele>
        <time>2022-03-12T12:05:39Z</time>
      </trkpt>
      <trkpt lat="42.85746" lon="0.2343">
        <ele>2173</ele>
        <time>2022-03-12T12:05:44Z</time>
      </trkpt>
      <trkpt lat="42.85747" lon="0.23428">
        <ele>2173</ele>
        <time>2022-03-12T12:05:48Z</time>
      </trkpt>
      <trkpt lat="42.85747" lon="0.23425">
        <ele>2174</ele>
        <time>2022-03-12T12:05:53Z</time>
      </trkpt>
      <trkpt lat="42.85747" lon="0.23422">
        <ele>2175</ele>
        <time>2022-03-12T12:05:56Z</time>
      </trkpt>
      <trkpt lat="42.85747" lon="0.2342">
        <ele>2175</ele>
        <time>2022-03-12T12:05:59Z</time>
      </trkpt>
      <trkpt lat="42.85747" lon="0.23416">
        <ele>2175</ele>
        <time>2022-03-12T12:06:03Z</time>
      </trkpt>
      <trkpt lat="42.85747" lon="0.23413">
        <ele>2176</ele>
        <time>2022-03-12T12:06:07Z</time>
      </trkpt>
      <trkpt lat="42.85746" lon="0.2341">
        <ele>2176</ele>
        <time>2022-03-12T12:06:11Z</time>
      </trkpt>
      <trkpt lat="42.85746" lon="0.23408">
        <ele>2177</ele>
        <time>2022-03-12T12:06:14Z</time>
      </trkpt>
      <trkpt lat="42.85746" lon="0.23405">
        <ele>2177</ele>
        <time>2022-03-12T12:06:17Z</time>
      </trkpt>
      <trkpt lat="42.85746" lon="0.23403">
        <ele>2178</ele>
        <time>2022-03-12T12:06:21Z</time>
      </trkpt>
      <trkpt lat="42.85746" lon="0.234">
        <ele>2178</ele>
        <time>2022-03-12T12:06:24Z</time>
      </trkpt>
      <trkpt lat="42.85745" lon="0.23397">
        <ele>2179</ele>
        <time>2022-03-12T12:06:28Z</time>
      </trkpt>
      <trkpt lat="42.85745" lon="0.23394">
        <ele>2179</ele>
        <time>2022-03-12T12:06:31Z</time>
      </trkpt>
      <trkpt lat="42.85745" lon="0.23391">
        <ele>2179</ele>
        <time>2022-03-12T12:06:35Z</time>
      </trkpt>
      <trkpt lat="42.85744" lon="0.23388">
        <ele>2180</ele>
        <time>2022-03-12T12:06:42Z</time>
      </trkpt>
      <trkpt lat="42.85744" lon="0.23386">
        <ele>2180</ele>
        <time>2022-03-12T12:06:45Z</time>
      </trkpt>
      <trkpt lat="42.85744" lon="0.23383">
        <ele>2181</ele>
        <time>2022-03-12T12:06:48Z</time>
      </trkpt>
      <trkpt lat="42.85743" lon="0.2338">
        <ele>2182</ele>
        <time>2022-03-12T12:06:52Z</time>
      </trkpt>
      <trkpt lat="42.85743" lon="0.23377">
        <ele>2182</ele>
        <time>2022-03-12T12:06:56Z</time>
      </trkpt>
      <trkpt lat="42.85743" lon="0.23374">
        <ele>2183</ele>
        <time>2022-03-12T12:07:00Z</time>
      </trkpt>
      <trkpt lat="42.85742" lon="0.23371">
        <ele>2183</ele>
        <time>2022-03-12T12:07:04Z</time>
      </trkpt>
      <trkpt lat="42.85742" lon="0.23369">
        <ele>2185</ele>
        <time>2022-03-12T12:07:08Z</time>
      </trkpt>
      <trkpt lat="42.85742" lon="0.23366">
        <ele>2185</ele>
        <time>2022-03-12T12:07:12Z</time>
      </trkpt>
      <trkpt lat="42.85742" lon="0.23363">
        <ele>2185</ele>
        <time>2022-03-12T12:07:19Z</time>
      </trkpt>
      <trkpt lat="42.85741" lon="0.23361">
        <ele>2186</ele>
        <time>2022-03-12T12:07:23Z</time>
      </trkpt>
      <trkpt lat="42.85741" lon="0.23358">
        <ele>2186</ele>
        <time>2022-03-12T12:07:28Z</time>
      </trkpt>
      <trkpt lat="42.85741" lon="0.23356">
        <ele>2187</ele>
        <time>2022-03-12T12:07:32Z</time>
      </trkpt>
      <trkpt lat="42.85741" lon="0.23353">
        <ele>2188</ele>
        <time>2022-03-12T12:07:37Z</time>
      </trkpt>
      <trkpt lat="42.8574" lon="0.2335">
        <ele>2188</ele>
        <time>2022-03-12T12:07:40Z</time>
      </trkpt>
      <trkpt lat="42.8574" lon="0.23348">
        <ele>2188</ele>
        <time>2022-03-12T12:07:44Z</time>
      </trkpt>
      <trkpt lat="42.8574" lon="0.23345">
        <ele>2189</ele>
        <time>2022-03-12T12:07:48Z</time>
      </trkpt>
      <trkpt lat="42.8574" lon="0.23343">
        <ele>2190</ele>
        <time>2022-03-12T12:07:52Z</time>
      </trkpt>
      <trkpt lat="42.8574" lon="0.2334">
        <ele>2190</ele>
        <time>2022-03-12T12:07:56Z</time>
      </trkpt>
      <trkpt lat="42.85739" lon="0.23337">
        <ele>2191</ele>
        <time>2022-03-12T12:08:00Z</time>
      </trkpt>
      <trkpt lat="42.85739" lon="0.23334">
        <ele>2191</ele>
        <time>2022-03-12T12:08:04Z</time>
      </trkpt>
      <trkpt lat="42.85739" lon="0.23332">
        <ele>2192</ele>
        <time>2022-03-12T12:08:08Z</time>
      </trkpt>
      <trkpt lat="42.85739" lon="0.23329">
        <ele>2192</ele>
        <time>2022-03-12T12:08:12Z</time>
      </trkpt>
      <trkpt lat="42.85739" lon="0.23326">
        <ele>2192</ele>
        <time>2022-03-12T12:08:16Z</time>
      </trkpt>
      <trkpt lat="42.85739" lon="0.23323">
        <ele>2193</ele>
        <time>2022-03-12T12:08:20Z</time>
      </trkpt>
      <trkpt lat="42.85739" lon="0.2332">
        <ele>2193</ele>
        <time>2022-03-12T12:08:24Z</time>
      </trkpt>
      <trkpt lat="42.85739" lon="0.23318">
        <ele>2194</ele>
        <time>2022-03-12T12:08:28Z</time>
      </trkpt>
      <trkpt lat="42.8574" lon="0.23315">
        <ele>2196</ele>
        <time>2022-03-12T12:08:32Z</time>
      </trkpt>
      <trkpt lat="42.8574" lon="0.23312">
        <ele>2196</ele>
        <time>2022-03-12T12:08:35Z</time>
      </trkpt>
      <trkpt lat="42.8574" lon="0.2331">
        <ele>2197</ele>
        <time>2022-03-12T12:08:39Z</time>
      </trkpt>
      <trkpt lat="42.8574" lon="0.23307">
        <ele>2197</ele>
        <time>2022-03-12T12:08:43Z</time>
      </trkpt>
      <trkpt lat="42.85741" lon="0.23304">
        <ele>2197</ele>
        <time>2022-03-12T12:08:47Z</time>
      </trkpt>
      <trkpt lat="42.85741" lon="0.23301">
        <ele>2198</ele>
        <time>2022-03-12T12:08:51Z</time>
      </trkpt>
      <trkpt lat="42.85742" lon="0.23299">
        <ele>2199</ele>
        <time>2022-03-12T12:08:55Z</time>
      </trkpt>
      <trkpt lat="42.85742" lon="0.23295">
        <ele>2200</ele>
        <time>2022-03-12T12:08:59Z</time>
      </trkpt>
      <trkpt lat="42.85743" lon="0.23293">
        <ele>2200</ele>
        <time>2022-03-12T12:09:02Z</time>
      </trkpt>
      <trkpt lat="42.85745" lon="0.23291">
        <ele>2200</ele>
        <time>2022-03-12T12:09:05Z</time>
      </trkpt>
      <trkpt lat="42.85746" lon="0.23289">
        <ele>2201</ele>
        <time>2022-03-12T12:09:08Z</time>
      </trkpt>
      <trkpt lat="42.85748" lon="0.23287">
        <ele>2201</ele>
        <time>2022-03-12T12:09:11Z</time>
      </trkpt>
      <trkpt lat="42.8575" lon="0.23286">
        <ele>2201</ele>
        <time>2022-03-12T12:09:14Z</time>
      </trkpt>
      <trkpt lat="42.85752" lon="0.23284">
        <ele>2201</ele>
        <time>2022-03-12T12:09:17Z</time>
      </trkpt>
      <trkpt lat="42.85754" lon="0.23282">
        <ele>2201</ele>
        <time>2022-03-12T12:09:20Z</time>
      </trkpt>
      <trkpt lat="42.85755" lon="0.23281">
        <ele>2202</ele>
        <time>2022-03-12T12:09:23Z</time>
      </trkpt>
      <trkpt lat="42.85757" lon="0.2328">
        <ele>2202</ele>
        <time>2022-03-12T12:09:26Z</time>
      </trkpt>
      <trkpt lat="42.85759" lon="0.23279">
        <ele>2202</ele>
        <time>2022-03-12T12:09:29Z</time>
      </trkpt>
      <trkpt lat="42.85761" lon="0.23278">
        <ele>2202</ele>
        <time>2022-03-12T12:09:32Z</time>
      </trkpt>
      <trkpt lat="42.85763" lon="0.23277">
        <ele>2203</ele>
        <time>2022-03-12T12:09:36Z</time>
      </trkpt>
      <trkpt lat="42.85765" lon="0.23276">
        <ele>2203</ele>
        <time>2022-03-12T12:09:40Z</time>
      </trkpt>
      <trkpt lat="42.85766" lon="0.23275">
        <ele>2203</ele>
        <time>2022-03-12T12:09:45Z</time>
      </trkpt>
      <trkpt lat="42.85768" lon="0.23275">
        <ele>2204</ele>
        <time>2022-03-12T12:09:49Z</time>
      </trkpt>
      <trkpt lat="42.8577" lon="0.23274">
        <ele>2204</ele>
        <time>2022-03-12T12:09:52Z</time>
      </trkpt>
      <trkpt lat="42.85772" lon="0.23274">
        <ele>2205</ele>
        <time>2022-03-12T12:09:56Z</time>
      </trkpt>
      <trkpt lat="42.85774" lon="0.23273">
        <ele>2206</ele>
        <time>2022-03-12T12:10:49Z</time>
      </trkpt>
      <trkpt lat="42.85776" lon="0.23273">
        <ele>2206</ele>
        <time>2022-03-12T12:10:52Z</time>
      </trkpt>
      <trkpt lat="42.85778" lon="0.23272">
        <ele>2207</ele>
        <time>2022-03-12T12:10:55Z</time>
      </trkpt>
      <trkpt lat="42.8578" lon="0.23272">
        <ele>2207</ele>
        <time>2022-03-12T12:10:58Z</time>
      </trkpt>
      <trkpt lat="42.85782" lon="0.23272">
        <ele>2207</ele>
        <time>2022-03-12T12:11:01Z</time>
      </trkpt>
      <trkpt lat="42.85784" lon="0.23271">
        <ele>2208</ele>
        <time>2022-03-12T12:11:04Z</time>
      </trkpt>
      <trkpt lat="42.85786" lon="0.2327">
        <ele>2208</ele>
        <time>2022-03-12T12:11:07Z</time>
      </trkpt>
      <trkpt lat="42.85788" lon="0.23269">
        <ele>2208</ele>
        <time>2022-03-12T12:11:11Z</time>
      </trkpt>
      <trkpt lat="42.8579" lon="0.23268">
        <ele>2209</ele>
        <time>2022-03-12T12:11:15Z</time>
      </trkpt>
      <trkpt lat="42.85792" lon="0.23268">
        <ele>2210</ele>
        <time>2022-03-12T12:11:19Z</time>
      </trkpt>
      <trkpt lat="42.85794" lon="0.23267">
        <ele>2210</ele>
        <time>2022-03-12T12:11:23Z</time>
      </trkpt>
      <trkpt lat="42.85796" lon="0.23266">
        <ele>2211</ele>
        <time>2022-03-12T12:11:27Z</time>
      </trkpt>
      <trkpt lat="42.85798" lon="0.23265">
        <ele>2212</ele>
        <time>2022-03-12T12:11:31Z</time>
      </trkpt>
      <trkpt lat="42.858" lon="0.23265">
        <ele>2212</ele>
        <time>2022-03-12T12:11:35Z</time>
      </trkpt>
      <trkpt lat="42.85802" lon="0.23264">
        <ele>2212</ele>
        <time>2022-03-12T12:11:39Z</time>
      </trkpt>
      <trkpt lat="42.85804" lon="0.23262">
        <ele>2213</ele>
        <time>2022-03-12T12:11:44Z</time>
      </trkpt>
      <trkpt lat="42.85806" lon="0.23261">
        <ele>2214</ele>
        <time>2022-03-12T12:11:48Z</time>
      </trkpt>
      <trkpt lat="42.85808" lon="0.23261">
        <ele>2215</ele>
        <time>2022-03-12T12:11:52Z</time>
      </trkpt>
      <trkpt lat="42.8581" lon="0.2326">
        <ele>2215</ele>
        <time>2022-03-12T12:11:56Z</time>
      </trkpt>
      <trkpt lat="42.85812" lon="0.23259">
        <ele>2216</ele>
        <time>2022-03-12T12:12:00Z</time>
      </trkpt>
      <trkpt lat="42.85814" lon="0.23258">
        <ele>2216</ele>
        <time>2022-03-12T12:12:04Z</time>
      </trkpt>
      <trkpt lat="42.85816" lon="0.23257">
        <ele>2217</ele>
        <time>2022-03-12T12:12:08Z</time>
      </trkpt>
      <trkpt lat="42.85818" lon="0.23256">
        <ele>2217</ele>
        <time>2022-03-12T12:12:12Z</time>
      </trkpt>
      <trkpt lat="42.8582" lon="0.23255">
        <ele>2217</ele>
        <time>2022-03-12T12:12:16Z</time>
      </trkpt>
      <trkpt lat="42.85822" lon="0.23254">
        <ele>2218</ele>
        <time>2022-03-12T12:12:19Z</time>
      </trkpt>
      <trkpt lat="42.85824" lon="0.23254">
        <ele>2219</ele>
        <time>2022-03-12T12:12:22Z</time>
      </trkpt>
      <trkpt lat="42.85826" lon="0.23254">
        <ele>2219</ele>
        <time>2022-03-12T12:12:26Z</time>
      </trkpt>
      <trkpt lat="42.85828" lon="0.23253">
        <ele>2220</ele>
        <time>2022-03-12T12:12:30Z</time>
      </trkpt>
      <trkpt lat="42.85829" lon="0.23251">
        <ele>2220</ele>
        <time>2022-03-12T12:12:33Z</time>
      </trkpt>
      <trkpt lat="42.85831" lon="0.23249">
        <ele>2220</ele>
        <time>2022-03-12T12:12:36Z</time>
      </trkpt>
      <trkpt lat="42.85834" lon="0.23247">
        <ele>2220</ele>
        <time>2022-03-12T12:12:39Z</time>
      </trkpt>
      <trkpt lat="42.85835" lon="0.23246">
        <ele>2220</ele>
        <time>2022-03-12T12:12:41Z</time>
      </trkpt>
      <trkpt lat="42.85837" lon="0.23244">
        <ele>2220</ele>
        <time>2022-03-12T12:12:43Z</time>
      </trkpt>
      <trkpt lat="42.85839" lon="0.23242">
        <ele>2220</ele>
        <time>2022-03-12T12:12:45Z</time>
      </trkpt>
      <trkpt lat="42.85842" lon="0.23241">
        <ele>2220</ele>
        <time>2022-03-12T12:12:47Z</time>
      </trkpt>
      <trkpt lat="42.85844" lon="0.23239">
        <ele>2220</ele>
        <time>2022-03-12T12:12:49Z</time>
      </trkpt>
      <trkpt lat="42.85847" lon="0.23238">
        <ele>2220</ele>
        <time>2022-03-12T12:12:51Z</time>
      </trkpt>
      <trkpt lat="42.85849" lon="0.23236">
        <ele>2220</ele>
        <time>2022-03-12T12:12:53Z</time>
      </trkpt>
      <trkpt lat="42.85851" lon="0.23235">
        <ele>2220</ele>
        <time>2022-03-12T12:16:51Z</time>
      </trkpt>
      <trkpt lat="42.85853" lon="0.23233">
        <ele>2220</ele>
        <time>2022-03-12T12:16:53Z</time>
      </trkpt>
      <trkpt lat="42.85855" lon="0.23231">
        <ele>2220</ele>
        <time>2022-03-12T12:16:55Z</time>
      </trkpt>
      <trkpt lat="42.85857" lon="0.23229">
        <ele>2220</ele>
        <time>2022-03-12T12:16:57Z</time>
      </trkpt>
      <trkpt lat="42.85859" lon="0.23227">
        <ele>2220</ele>
        <time>2022-03-12T12:16:59Z</time>
      </trkpt>
      <trkpt lat="42.8586" lon="0.23225">
        <ele>2220</ele>
        <time>2022-03-12T12:17:01Z</time>
      </trkpt>
      <trkpt lat="42.85862" lon="0.23223">
        <ele>2220</ele>
        <time>2022-03-12T12:17:03Z</time>
      </trkpt>
      <trkpt lat="42.85864" lon="0.23221">
        <ele>2220</ele>
        <time>2022-03-12T12:17:06Z</time>
      </trkpt>
      <trkpt lat="42.85865" lon="0.23218">
        <ele>2220</ele>
        <time>2022-03-12T12:17:08Z</time>
      </trkpt>
      <trkpt lat="42.85867" lon="0.23216">
        <ele>2220</ele>
        <time>2022-03-12T12:17:10Z</time>
      </trkpt>
      <trkpt lat="42.85868" lon="0.23214">
        <ele>2220</ele>
        <time>2022-03-12T12:17:12Z</time>
      </trkpt>
      <trkpt lat="42.85869" lon="0.23212">
        <ele>2220</ele>
        <time>2022-03-12T12:17:14Z</time>
      </trkpt>
      <trkpt lat="42.85871" lon="0.2321">
        <ele>2220</ele>
        <time>2022-03-12T12:17:16Z</time>
      </trkpt>
      <trkpt lat="42.85872" lon="0.23208">
        <ele>2220</ele>
        <time>2022-03-12T12:17:18Z</time>
      </trkpt>
      <trkpt lat="42.85874" lon="0.23206">
        <ele>2220</ele>
        <time>2022-03-12T12:17:20Z</time>
      </trkpt>
      <trkpt lat="42.85875" lon="0.23204">
        <ele>2220</ele>
        <time>2022-03-12T12:17:22Z</time>
      </trkpt>
      <trkpt lat="42.85877" lon="0.23202">
        <ele>2220</ele>
        <time>2022-03-12T12:17:25Z</time>
      </trkpt>
      <trkpt lat="42.85878" lon="0.232">
        <ele>2220</ele>
        <time>2022-03-12T12:17:27Z</time>
      </trkpt>
      <trkpt lat="42.8588" lon="0.23197">
        <ele>2220</ele>
        <time>2022-03-12T12:17:30Z</time>
      </trkpt>
      <trkpt lat="42.85881" lon="0.23194">
        <ele>2220</ele>
        <time>2022-03-12T12:17:33Z</time>
      </trkpt>
      <trkpt lat="42.85883" lon="0.23192">
        <ele>2220</ele>
        <time>2022-03-12T12:17:36Z</time>
      </trkpt>
      <trkpt lat="42.85885" lon="0.2319">
        <ele>2222</ele>
        <time>2022-03-12T12:17:39Z</time>
      </trkpt>
      <trkpt lat="42.85886" lon="0.23187">
        <ele>2222</ele>
        <time>2022-03-12T12:17:42Z</time>
      </trkpt>
      <trkpt lat="42.85888" lon="0.23184">
        <ele>2222</ele>
        <time>2022-03-12T12:17:45Z</time>
      </trkpt>
      <trkpt lat="42.85889" lon="0.23182">
        <ele>2222</ele>
        <time>2022-03-12T12:17:48Z</time>
      </trkpt>
      <trkpt lat="42.85891" lon="0.23179">
        <ele>2222</ele>
        <time>2022-03-12T12:17:51Z</time>
      </trkpt>
      <trkpt lat="42.85893" lon="0.23177">
        <ele>2223</ele>
        <time>2022-03-12T12:17:54Z</time>
      </trkpt>
      <trkpt lat="42.85895" lon="0.23175">
        <ele>2223</ele>
        <time>2022-03-12T12:17:57Z</time>
      </trkpt>
      <trkpt lat="42.85896" lon="0.23173">
        <ele>2223</ele>
        <time>2022-03-12T12:18:00Z</time>
      </trkpt>
      <trkpt lat="42.85898" lon="0.23171">
        <ele>2223</ele>
        <time>2022-03-12T12:18:03Z</time>
      </trkpt>
      <trkpt lat="42.859" lon="0.23169">
        <ele>2223</ele>
        <time>2022-03-12T12:18:06Z</time>
      </trkpt>
      <trkpt lat="42.85902" lon="0.23168">
        <ele>2224</ele>
        <time>2022-03-12T12:18:09Z</time>
      </trkpt>
      <trkpt lat="42.85904" lon="0.23166">
        <ele>2224</ele>
        <time>2022-03-12T12:18:12Z</time>
      </trkpt>
      <trkpt lat="42.85907" lon="0.23165">
        <ele>2225</ele>
        <time>2022-03-12T12:18:15Z</time>
      </trkpt>
      <trkpt lat="42.85909" lon="0.23164">
        <ele>2225</ele>
        <time>2022-03-12T12:18:18Z</time>
      </trkpt>
      <trkpt lat="42.85911" lon="0.23163">
        <ele>2226</ele>
        <time>2022-03-12T12:18:21Z</time>
      </trkpt>
      <trkpt lat="42.85913" lon="0.23162">
        <ele>2226</ele>
        <time>2022-03-12T12:18:24Z</time>
      </trkpt>
      <trkpt lat="42.85915" lon="0.23162">
        <ele>2226</ele>
        <time>2022-03-12T12:18:27Z</time>
      </trkpt>
      <trkpt lat="42.85917" lon="0.23161">
        <ele>2226</ele>
        <time>2022-03-12T12:18:30Z</time>
      </trkpt>
      <trkpt lat="42.85919" lon="0.23161">
        <ele>2226</ele>
        <time>2022-03-12T12:18:33Z</time>
      </trkpt>
      <trkpt lat="42.85921" lon="0.2316">
        <ele>2226</ele>
        <time>2022-03-12T12:18:36Z</time>
      </trkpt>
      <trkpt lat="42.85924" lon="0.23159">
        <ele>2226</ele>
        <time>2022-03-12T12:18:39Z</time>
      </trkpt>
      <trkpt lat="42.85925" lon="0.23159">
        <ele>2227</ele>
        <time>2022-03-12T12:18:42Z</time>
      </trkpt>
      <trkpt lat="42.85928" lon="0.23158">
        <ele>2227</ele>
        <time>2022-03-12T12:18:45Z</time>
      </trkpt>
      <trkpt lat="42.85929" lon="0.23158">
        <ele>2227</ele>
        <time>2022-03-12T12:18:48Z</time>
      </trkpt>
      <trkpt lat="42.85931" lon="0.23157">
        <ele>2228</ele>
        <time>2022-03-12T12:18:52Z</time>
      </trkpt>
      <trkpt lat="42.85933" lon="0.23156">
        <ele>2228</ele>
        <time>2022-03-12T12:18:55Z</time>
      </trkpt>
      <trkpt lat="42.85935" lon="0.23155">
        <ele>2229</ele>
        <time>2022-03-12T12:18:58Z</time>
      </trkpt>
      <trkpt lat="42.85937" lon="0.23153">
        <ele>2229</ele>
        <time>2022-03-12T12:19:01Z</time>
      </trkpt>
      <trkpt lat="42.85939" lon="0.23152">
        <ele>2230</ele>
        <time>2022-03-12T12:19:05Z</time>
      </trkpt>
      <trkpt lat="42.85941" lon="0.2315">
        <ele>2230</ele>
        <time>2022-03-12T12:19:08Z</time>
      </trkpt>
      <trkpt lat="42.85942" lon="0.23149">
        <ele>2230</ele>
        <time>2022-03-12T12:19:12Z</time>
      </trkpt>
      <trkpt lat="42.85944" lon="0.23146">
        <ele>2230</ele>
        <time>2022-03-12T12:19:16Z</time>
      </trkpt>
      <trkpt lat="42.85946" lon="0.23145">
        <ele>2231</ele>
        <time>2022-03-12T12:19:19Z</time>
      </trkpt>
      <trkpt lat="42.85947" lon="0.23142">
        <ele>2231</ele>
        <time>2022-03-12T12:19:22Z</time>
      </trkpt>
      <trkpt lat="42.85948" lon="0.2314">
        <ele>2232</ele>
        <time>2022-03-12T12:19:25Z</time>
      </trkpt>
      <trkpt lat="42.85949" lon="0.23138">
        <ele>2232</ele>
        <time>2022-03-12T12:19:28Z</time>
      </trkpt>
      <trkpt lat="42.8595" lon="0.23136">
        <ele>2233</ele>
        <time>2022-03-12T12:19:31Z</time>
      </trkpt>
      <trkpt lat="42.85952" lon="0.23134">
        <ele>2233</ele>
        <time>2022-03-12T12:19:34Z</time>
      </trkpt>
      <trkpt lat="42.85953" lon="0.23131">
        <ele>2233</ele>
        <time>2022-03-12T12:19:37Z</time>
      </trkpt>
      <trkpt lat="42.85954" lon="0.23129">
        <ele>2233</ele>
        <time>2022-03-12T12:19:40Z</time>
      </trkpt>
      <trkpt lat="42.85955" lon="0.23126">
        <ele>2233</ele>
        <time>2022-03-12T12:19:43Z</time>
      </trkpt>
      <trkpt lat="42.85957" lon="0.23123">
        <ele>2234</ele>
        <time>2022-03-12T12:19:47Z</time>
      </trkpt>
      <trkpt lat="42.85958" lon="0.23121">
        <ele>2234</ele>
        <time>2022-03-12T12:19:50Z</time>
      </trkpt>
      <trkpt lat="42.85959" lon="0.23118">
        <ele>2234</ele>
        <time>2022-03-12T12:19:53Z</time>
      </trkpt>
      <trkpt lat="42.85959" lon="0.23116">
        <ele>2235</ele>
        <time>2022-03-12T12:19:56Z</time>
      </trkpt>
      <trkpt lat="42.8596" lon="0.23113">
        <ele>2235</ele>
        <time>2022-03-12T12:19:59Z</time>
      </trkpt>
      <trkpt lat="42.8596" lon="0.23111">
        <ele>2235</ele>
        <time>2022-03-12T12:20:02Z</time>
      </trkpt>
      <trkpt lat="42.85961" lon="0.23108">
        <ele>2236</ele>
        <time>2022-03-12T12:20:05Z</time>
      </trkpt>
      <trkpt lat="42.85961" lon="0.23105">
        <ele>2236</ele>
        <time>2022-03-12T12:20:09Z</time>
      </trkpt>
      <trkpt lat="42.85961" lon="0.23102">
        <ele>2237</ele>
        <time>2022-03-12T12:20:12Z</time>
      </trkpt>
      <trkpt lat="42.85961" lon="0.231">
        <ele>2238</ele>
        <time>2022-03-12T12:20:15Z</time>
      </trkpt>
      <trkpt lat="42.85961" lon="0.23097">
        <ele>2238</ele>
        <time>2022-03-12T12:20:18Z</time>
      </trkpt>
      <trkpt lat="42.85961" lon="0.23094">
        <ele>2238</ele>
        <time>2022-03-12T12:20:21Z</time>
      </trkpt>
      <trkpt lat="42.8596" lon="0.23091">
        <ele>2239</ele>
        <time>2022-03-12T12:20:24Z</time>
      </trkpt>
      <trkpt lat="42.8596" lon="0.23088">
        <ele>2239</ele>
        <time>2022-03-12T12:20:28Z</time>
      </trkpt>
      <trkpt lat="42.8596" lon="0.23085">
        <ele>2239</ele>
        <time>2022-03-12T12:20:31Z</time>
      </trkpt>
      <trkpt lat="42.8596" lon="0.23082">
        <ele>2239</ele>
        <time>2022-03-12T12:20:35Z</time>
      </trkpt>
      <trkpt lat="42.85959" lon="0.23079">
        <ele>2240</ele>
        <time>2022-03-12T12:20:38Z</time>
      </trkpt>
      <trkpt lat="42.85959" lon="0.23077">
        <ele>2240</ele>
        <time>2022-03-12T12:20:41Z</time>
      </trkpt>
      <trkpt lat="42.85958" lon="0.23074">
        <ele>2240</ele>
        <time>2022-03-12T12:20:44Z</time>
      </trkpt>
      <trkpt lat="42.85957" lon="0.23071">
        <ele>2241</ele>
        <time>2022-03-12T12:20:47Z</time>
      </trkpt>
      <trkpt lat="42.85956" lon="0.23069">
        <ele>2241</ele>
        <time>2022-03-12T12:20:50Z</time>
      </trkpt>
      <trkpt lat="42.85955" lon="0.23066">
        <ele>2242</ele>
        <time>2022-03-12T12:20:53Z</time>
      </trkpt>
      <trkpt lat="42.85954" lon="0.23063">
        <ele>2242</ele>
        <time>2022-03-12T12:20:56Z</time>
      </trkpt>
      <trkpt lat="42.85953" lon="0.23061">
        <ele>2243</ele>
        <time>2022-03-12T12:21:00Z</time>
      </trkpt>
      <trkpt lat="42.85951" lon="0.23059">
        <ele>2243</ele>
        <time>2022-03-12T12:21:03Z</time>
      </trkpt>
      <trkpt lat="42.8595" lon="0.23057">
        <ele>2243</ele>
        <time>2022-03-12T12:21:06Z</time>
      </trkpt>
      <trkpt lat="42.85948" lon="0.23054">
        <ele>2243</ele>
        <time>2022-03-12T12:21:09Z</time>
      </trkpt>
      <trkpt lat="42.85947" lon="0.23052">
        <ele>2243</ele>
        <time>2022-03-12T12:21:12Z</time>
      </trkpt>
      <trkpt lat="42.85946" lon="0.23049">
        <ele>2243</ele>
        <time>2022-03-12T12:21:15Z</time>
      </trkpt>
      <trkpt lat="42.85945" lon="0.23047">
        <ele>2244</ele>
        <time>2022-03-12T12:21:18Z</time>
      </trkpt>
      <trkpt lat="42.85944" lon="0.23045">
        <ele>2244</ele>
        <time>2022-03-12T12:21:21Z</time>
      </trkpt>
      <trkpt lat="42.85943" lon="0.23042">
        <ele>2244</ele>
        <time>2022-03-12T12:21:24Z</time>
      </trkpt>
      <trkpt lat="42.85942" lon="0.2304">
        <ele>2245</ele>
        <time>2022-03-12T12:21:27Z</time>
      </trkpt>
      <trkpt lat="42.8594" lon="0.23038">
        <ele>2246</ele>
        <time>2022-03-12T12:21:30Z</time>
      </trkpt>
      <trkpt lat="42.85939" lon="0.23035">
        <ele>2246</ele>
        <time>2022-03-12T12:21:34Z</time>
      </trkpt>
      <trkpt lat="42.85938" lon="0.23032">
        <ele>2248</ele>
        <time>2022-03-12T12:21:38Z</time>
      </trkpt>
      <trkpt lat="42.85936" lon="0.2303">
        <ele>2248</ele>
        <time>2022-03-12T12:21:41Z</time>
      </trkpt>
      <trkpt lat="42.85935" lon="0.23028">
        <ele>2249</ele>
        <time>2022-03-12T12:21:44Z</time>
      </trkpt>
      <trkpt lat="42.85935" lon="0.23025">
        <ele>2249</ele>
        <time>2022-03-12T12:21:48Z</time>
      </trkpt>
      <trkpt lat="42.85934" lon="0.23022">
        <ele>2249</ele>
        <time>2022-03-12T12:21:52Z</time>
      </trkpt>
      <trkpt lat="42.85934" lon="0.23019">
        <ele>2249</ele>
        <time>2022-03-12T12:21:55Z</time>
      </trkpt>
      <trkpt lat="42.85934" lon="0.23016">
        <ele>2250</ele>
        <time>2022-03-12T12:21:58Z</time>
      </trkpt>
      <trkpt lat="42.85934" lon="0.23013">
        <ele>2250</ele>
        <time>2022-03-12T12:22:02Z</time>
      </trkpt>
      <trkpt lat="42.85934" lon="0.2301">
        <ele>2251</ele>
        <time>2022-03-12T12:22:06Z</time>
      </trkpt>
      <trkpt lat="42.85933" lon="0.23007">
        <ele>2251</ele>
        <time>2022-03-12T12:22:09Z</time>
      </trkpt>
      <trkpt lat="42.85933" lon="0.23005">
        <ele>2252</ele>
        <time>2022-03-12T12:22:12Z</time>
      </trkpt>
      <trkpt lat="42.85933" lon="0.23002">
        <ele>2252</ele>
        <time>2022-03-12T12:22:15Z</time>
      </trkpt>
      <trkpt lat="42.85933" lon="0.22999">
        <ele>2253</ele>
        <time>2022-03-12T12:22:18Z</time>
      </trkpt>
      <trkpt lat="42.85933" lon="0.22996">
        <ele>2253</ele>
        <time>2022-03-12T12:22:22Z</time>
      </trkpt>
      <trkpt lat="42.85934" lon="0.22993">
        <ele>2254</ele>
        <time>2022-03-12T12:22:26Z</time>
      </trkpt>
      <trkpt lat="42.85934" lon="0.2299">
        <ele>2254</ele>
        <time>2022-03-12T12:22:29Z</time>
      </trkpt>
      <trkpt lat="42.85934" lon="0.22987">
        <ele>2254</ele>
        <time>2022-03-12T12:22:33Z</time>
      </trkpt>
      <trkpt lat="42.85934" lon="0.22985">
        <ele>2255</ele>
        <time>2022-03-12T12:22:37Z</time>
      </trkpt>
      <trkpt lat="42.85935" lon="0.22982">
        <ele>2256</ele>
        <time>2022-03-12T12:22:42Z</time>
      </trkpt>
      <trkpt lat="42.85934" lon="0.22979">
        <ele>2256</ele>
        <time>2022-03-12T12:22:45Z</time>
      </trkpt>
      <trkpt lat="42.85935" lon="0.22976">
        <ele>2256</ele>
        <time>2022-03-12T12:22:48Z</time>
      </trkpt>
      <trkpt lat="42.85935" lon="0.22973">
        <ele>2257</ele>
        <time>2022-03-12T12:22:51Z</time>
      </trkpt>
      <trkpt lat="42.85935" lon="0.2297">
        <ele>2257</ele>
        <time>2022-03-12T12:22:54Z</time>
      </trkpt>
      <trkpt lat="42.85935" lon="0.22968">
        <ele>2258</ele>
        <time>2022-03-12T12:22:57Z</time>
      </trkpt>
      <trkpt lat="42.85935" lon="0.22965">
        <ele>2259</ele>
        <time>2022-03-12T12:23:00Z</time>
      </trkpt>
      <trkpt lat="42.85935" lon="0.22963">
        <ele>2259</ele>
        <time>2022-03-12T12:23:03Z</time>
      </trkpt>
      <trkpt lat="42.85936" lon="0.2296">
        <ele>2259</ele>
        <time>2022-03-12T12:23:06Z</time>
      </trkpt>
      <trkpt lat="42.85936" lon="0.22957">
        <ele>2260</ele>
        <time>2022-03-12T12:23:11Z</time>
      </trkpt>
      <trkpt lat="42.85936" lon="0.22954">
        <ele>2260</ele>
        <time>2022-03-12T12:23:14Z</time>
      </trkpt>
      <trkpt lat="42.85936" lon="0.22951">
        <ele>2260</ele>
        <time>2022-03-12T12:23:17Z</time>
      </trkpt>
      <trkpt lat="42.85936" lon="0.22948">
        <ele>2261</ele>
        <time>2022-03-12T12:23:20Z</time>
      </trkpt>
      <trkpt lat="42.85936" lon="0.22946">
        <ele>2261</ele>
        <time>2022-03-12T12:23:23Z</time>
      </trkpt>
      <trkpt lat="42.85936" lon="0.22943">
        <ele>2261</ele>
        <time>2022-03-12T12:23:26Z</time>
      </trkpt>
      <trkpt lat="42.85936" lon="0.2294">
        <ele>2262</ele>
        <time>2022-03-12T12:23:29Z</time>
      </trkpt>
      <trkpt lat="42.85936" lon="0.22938">
        <ele>2262</ele>
        <time>2022-03-12T12:23:32Z</time>
      </trkpt>
      <trkpt lat="42.85936" lon="0.22935">
        <ele>2263</ele>
        <time>2022-03-12T12:23:36Z</time>
      </trkpt>
      <trkpt lat="42.85937" lon="0.22931">
        <ele>2264</ele>
        <time>2022-03-12T12:23:40Z</time>
      </trkpt>
      <trkpt lat="42.85937" lon="0.22929">
        <ele>2264</ele>
        <time>2022-03-12T12:23:43Z</time>
      </trkpt>
      <trkpt lat="42.85937" lon="0.22926">
        <ele>2264</ele>
        <time>2022-03-12T12:23:46Z</time>
      </trkpt>
      <trkpt lat="42.85937" lon="0.22924">
        <ele>2265</ele>
        <time>2022-03-12T12:23:49Z</time>
      </trkpt>
      <trkpt lat="42.85937" lon="0.22921">
        <ele>2265</ele>
        <time>2022-03-12T12:23:52Z</time>
      </trkpt>
      <trkpt lat="42.85937" lon="0.22918">
        <ele>2265</ele>
        <time>2022-03-12T12:23:56Z</time>
      </trkpt>
      <trkpt lat="42.85938" lon="0.22915">
        <ele>2265</ele>
        <time>2022-03-12T12:23:59Z</time>
      </trkpt>
      <trkpt lat="42.85938" lon="0.22913">
        <ele>2266</ele>
        <time>2022-03-12T12:24:02Z</time>
      </trkpt>
      <trkpt lat="42.85939" lon="0.2291">
        <ele>2267</ele>
        <time>2022-03-12T12:24:05Z</time>
      </trkpt>
      <trkpt lat="42.8594" lon="0.22907">
        <ele>2267</ele>
        <time>2022-03-12T12:24:08Z</time>
      </trkpt>
      <trkpt lat="42.8594" lon="0.22905">
        <ele>2267</ele>
        <time>2022-03-12T12:24:11Z</time>
      </trkpt>
      <trkpt lat="42.8594" lon="0.22902">
        <ele>2267</ele>
        <time>2022-03-12T12:24:14Z</time>
      </trkpt>
      <trkpt lat="42.85941" lon="0.229">
        <ele>2268</ele>
        <time>2022-03-12T12:24:17Z</time>
      </trkpt>
      <trkpt lat="42.85941" lon="0.22897">
        <ele>2268</ele>
        <time>2022-03-12T12:24:21Z</time>
      </trkpt>
      <trkpt lat="42.85942" lon="0.22894">
        <ele>2269</ele>
        <time>2022-03-12T12:24:52Z</time>
      </trkpt>
      <trkpt lat="42.8594" lon="0.22893">
        <ele>2269</ele>
        <time>2022-03-12T12:29:41Z</time>
      </trkpt>
      <trkpt lat="42.85942" lon="0.22893">
        <ele>2269</ele>
        <time>2022-03-12T12:30:43Z</time>
      </trkpt>
      <trkpt lat="42.85943" lon="0.22895">
        <ele>2270</ele>
        <time>2022-03-12T12:35:36Z</time>
      </trkpt>
      <trkpt lat="42.85941" lon="0.22895">
        <ele>2269</ele>
        <time>2022-03-12T12:36:14Z</time>
      </trkpt>
      <trkpt lat="42.85941" lon="0.22893">
        <ele>2270</ele>
        <time>2022-03-12T12:37:44Z</time>
      </trkpt>
      <trkpt lat="42.8594" lon="0.22895">
        <ele>2270</ele>
        <time>2022-03-12T12:38:00Z</time>
      </trkpt>
      <trkpt lat="42.8594" lon="0.22892">
        <ele>2270</ele>
        <time>2022-03-12T12:38:47Z</time>
      </trkpt>
      <trkpt lat="42.85939" lon="0.2289">
        <ele>2269</ele>
        <time>2022-03-12T12:40:14Z</time>
      </trkpt>
      <trkpt lat="42.8594" lon="0.22891">
        <ele>2269</ele>
        <time>2022-03-12T12:40:32Z</time>
      </trkpt>
      <trkpt lat="42.85942" lon="0.22892">
        <ele>2269</ele>
        <time>2022-03-12T12:40:37Z</time>
      </trkpt>
      <trkpt lat="42.85944" lon="0.22893">
        <ele>2269</ele>
        <time>2022-03-12T12:40:43Z</time>
      </trkpt>
      <trkpt lat="42.85942" lon="0.22894">
        <ele>2269</ele>
        <time>2022-03-12T12:40:51Z</time>
      </trkpt>
      <trkpt lat="42.85941" lon="0.22896">
        <ele>2269</ele>
        <time>2022-03-12T12:41:24Z</time>
      </trkpt>
      <trkpt lat="42.85939" lon="0.22895">
        <ele>2269</ele>
        <time>2022-03-12T12:41:37Z</time>
      </trkpt>
      <trkpt lat="42.85937" lon="0.22896">
        <ele>2270</ele>
        <time>2022-03-12T12:41:56Z</time>
      </trkpt>
      <trkpt lat="42.85937" lon="0.22894">
        <ele>2269</ele>
        <time>2022-03-12T12:42:04Z</time>
      </trkpt>
      <trkpt lat="42.85938" lon="0.22893">
        <ele>2269</ele>
        <time>2022-03-12T12:42:30Z</time>
      </trkpt>
      <trkpt lat="42.85938" lon="0.2289">
        <ele>2270</ele>
        <time>2022-03-12T12:43:21Z</time>
      </trkpt>
      <trkpt lat="42.8594" lon="0.22891">
        <ele>2270</ele>
        <time>2022-03-12T12:44:32Z</time>
      </trkpt>
      <trkpt lat="42.85941" lon="0.22889">
        <ele>2271</ele>
        <time>2022-03-12T12:45:29Z</time>
      </trkpt>
      <trkpt lat="42.85942" lon="0.22887">
        <ele>2272</ele>
        <time>2022-03-12T12:45:32Z</time>
      </trkpt>
      <trkpt lat="42.85943" lon="0.22884">
        <ele>2274</ele>
        <time>2022-03-12T12:45:37Z</time>
      </trkpt>
      <trkpt lat="42.85945" lon="0.22882">
        <ele>2275</ele>
        <time>2022-03-12T12:45:41Z</time>
      </trkpt>
      <trkpt lat="42.85946" lon="0.2288">
        <ele>2275</ele>
        <time>2022-03-12T12:45:45Z</time>
      </trkpt>
      <trkpt lat="42.85947" lon="0.22878">
        <ele>2275</ele>
        <time>2022-03-12T12:45:47Z</time>
      </trkpt>
      <trkpt lat="42.85948" lon="0.22876">
        <ele>2275</ele>
        <time>2022-03-12T12:45:49Z</time>
      </trkpt>
      <trkpt lat="42.8595" lon="0.22873">
        <ele>2276</ele>
        <time>2022-03-12T12:45:52Z</time>
      </trkpt>
      <trkpt lat="42.85952" lon="0.2287">
        <ele>2277</ele>
        <time>2022-03-12T12:45:55Z</time>
      </trkpt>
      <trkpt lat="42.85953" lon="0.22869">
        <ele>2277</ele>
        <time>2022-03-12T12:45:57Z</time>
      </trkpt>
      <trkpt lat="42.85954" lon="0.22866">
        <ele>2277</ele>
        <time>2022-03-12T12:46:00Z</time>
      </trkpt>
      <trkpt lat="42.85956" lon="0.22864">
        <ele>2277</ele>
        <time>2022-03-12T12:46:02Z</time>
      </trkpt>
      <trkpt lat="42.85957" lon="0.22862">
        <ele>2277</ele>
        <time>2022-03-12T12:46:05Z</time>
      </trkpt>
      <trkpt lat="42.85959" lon="0.22859">
        <ele>2278</ele>
        <time>2022-03-12T12:46:08Z</time>
      </trkpt>
      <trkpt lat="42.85961" lon="0.22857">
        <ele>2278</ele>
        <time>2022-03-12T12:46:11Z</time>
      </trkpt>
      <trkpt lat="42.85963" lon="0.22855">
        <ele>2279</ele>
        <time>2022-03-12T12:46:14Z</time>
      </trkpt>
      <trkpt lat="42.85964" lon="0.22853">
        <ele>2279</ele>
        <time>2022-03-12T12:46:16Z</time>
      </trkpt>
      <trkpt lat="42.85966" lon="0.2285">
        <ele>2279</ele>
        <time>2022-03-12T12:46:19Z</time>
      </trkpt>
      <trkpt lat="42.85968" lon="0.22848">
        <ele>2279</ele>
        <time>2022-03-12T12:46:22Z</time>
      </trkpt>
      <trkpt lat="42.85969" lon="0.22845">
        <ele>2280</ele>
        <time>2022-03-12T12:46:25Z</time>
      </trkpt>
      <trkpt lat="42.8597" lon="0.22843">
        <ele>2280</ele>
        <time>2022-03-12T12:46:28Z</time>
      </trkpt>
      <trkpt lat="42.85972" lon="0.22841">
        <ele>2281</ele>
        <time>2022-03-12T12:46:33Z</time>
      </trkpt>
      <trkpt lat="42.85973" lon="0.22838">
        <ele>2281</ele>
        <time>2022-03-12T12:46:36Z</time>
      </trkpt>
      <trkpt lat="42.85974" lon="0.22836">
        <ele>2281</ele>
        <time>2022-03-12T12:46:39Z</time>
      </trkpt>
      <trkpt lat="42.85975" lon="0.22833">
        <ele>2282</ele>
        <time>2022-03-12T12:46:42Z</time>
      </trkpt>
      <trkpt lat="42.85977" lon="0.22831">
        <ele>2282</ele>
        <time>2022-03-12T12:46:45Z</time>
      </trkpt>
      <trkpt lat="42.85978" lon="0.2283">
        <ele>2282</ele>
        <time>2022-03-12T12:46:48Z</time>
      </trkpt>
      <trkpt lat="42.85979" lon="0.22827">
        <ele>2283</ele>
        <time>2022-03-12T12:46:51Z</time>
      </trkpt>
      <trkpt lat="42.8598" lon="0.22825">
        <ele>2283</ele>
        <time>2022-03-12T12:46:55Z</time>
      </trkpt>
      <trkpt lat="42.85981" lon="0.22823">
        <ele>2284</ele>
        <time>2022-03-12T12:46:58Z</time>
      </trkpt>
      <trkpt lat="42.85983" lon="0.22821">
        <ele>2284</ele>
        <time>2022-03-12T12:47:01Z</time>
      </trkpt>
      <trkpt lat="42.85985" lon="0.2282">
        <ele>2285</ele>
        <time>2022-03-12T12:47:05Z</time>
      </trkpt>
      <trkpt lat="42.85987" lon="0.22819">
        <ele>2285</ele>
        <time>2022-03-12T12:47:09Z</time>
      </trkpt>
      <trkpt lat="42.85989" lon="0.22817">
        <ele>2286</ele>
        <time>2022-03-12T12:47:12Z</time>
      </trkpt>
      <trkpt lat="42.8599" lon="0.22817">
        <ele>2286</ele>
        <time>2022-03-12T12:47:15Z</time>
      </trkpt>
      <trkpt lat="42.85992" lon="0.22816">
        <ele>2286</ele>
        <time>2022-03-12T12:47:19Z</time>
      </trkpt>
      <trkpt lat="42.85995" lon="0.22815">
        <ele>2287</ele>
        <time>2022-03-12T12:47:23Z</time>
      </trkpt>
      <trkpt lat="42.85997" lon="0.22814">
        <ele>2288</ele>
        <time>2022-03-12T12:47:26Z</time>
      </trkpt>
      <trkpt lat="42.85999" lon="0.22813">
        <ele>2288</ele>
        <time>2022-03-12T12:47:29Z</time>
      </trkpt>
      <trkpt lat="42.86" lon="0.22811">
        <ele>2288</ele>
        <time>2022-03-12T12:47:32Z</time>
      </trkpt>
      <trkpt lat="42.86002" lon="0.2281">
        <ele>2289</ele>
        <time>2022-03-12T12:47:35Z</time>
      </trkpt>
      <trkpt lat="42.86004" lon="0.22809">
        <ele>2289</ele>
        <time>2022-03-12T12:47:39Z</time>
      </trkpt>
      <trkpt lat="42.86006" lon="0.22808">
        <ele>2290</ele>
        <time>2022-03-12T12:47:43Z</time>
      </trkpt>
      <trkpt lat="42.86008" lon="0.22806">
        <ele>2290</ele>
        <time>2022-03-12T12:47:47Z</time>
      </trkpt>
      <trkpt lat="42.8601" lon="0.22805">
        <ele>2290</ele>
        <time>2022-03-12T12:47:51Z</time>
      </trkpt>
      <trkpt lat="42.86011" lon="0.22803">
        <ele>2291</ele>
        <time>2022-03-12T12:47:55Z</time>
      </trkpt>
      <trkpt lat="42.86014" lon="0.22802">
        <ele>2292</ele>
        <time>2022-03-12T12:47:59Z</time>
      </trkpt>
      <trkpt lat="42.86015" lon="0.22801">
        <ele>2292</ele>
        <time>2022-03-12T12:48:02Z</time>
      </trkpt>
      <trkpt lat="42.86017" lon="0.228">
        <ele>2293</ele>
        <time>2022-03-12T12:48:05Z</time>
      </trkpt>
      <trkpt lat="42.86019" lon="0.22799">
        <ele>2293</ele>
        <time>2022-03-12T12:48:09Z</time>
      </trkpt>
      <trkpt lat="42.86021" lon="0.22798">
        <ele>2294</ele>
        <time>2022-03-12T12:48:13Z</time>
      </trkpt>
      <trkpt lat="42.86024" lon="0.22797">
        <ele>2294</ele>
        <time>2022-03-12T12:48:17Z</time>
      </trkpt>
      <trkpt lat="42.86026" lon="0.22796">
        <ele>2294</ele>
        <time>2022-03-12T12:48:19Z</time>
      </trkpt>
      <trkpt lat="42.86028" lon="0.22795">
        <ele>2295</ele>
        <time>2022-03-12T12:48:23Z</time>
      </trkpt>
      <trkpt lat="42.8603" lon="0.22794">
        <ele>2295</ele>
        <time>2022-03-12T12:48:27Z</time>
      </trkpt>
      <trkpt lat="42.86032" lon="0.22794">
        <ele>2296</ele>
        <time>2022-03-12T12:48:31Z</time>
      </trkpt>
      <trkpt lat="42.86034" lon="0.22793">
        <ele>2296</ele>
        <time>2022-03-12T12:48:35Z</time>
      </trkpt>
      <trkpt lat="42.86036" lon="0.22793">
        <ele>2297</ele>
        <time>2022-03-12T12:48:39Z</time>
      </trkpt>
      <trkpt lat="42.86038" lon="0.22792">
        <ele>2297</ele>
        <time>2022-03-12T12:48:43Z</time>
      </trkpt>
      <trkpt lat="42.8604" lon="0.22791">
        <ele>2300</ele>
        <time>2022-03-12T12:48:47Z</time>
      </trkpt>
      <trkpt lat="42.86042" lon="0.22791">
        <ele>2300</ele>
        <time>2022-03-12T12:48:51Z</time>
      </trkpt>
      <trkpt lat="42.86044" lon="0.22791">
        <ele>2301</ele>
        <time>2022-03-12T12:48:58Z</time>
      </trkpt>
      <trkpt lat="42.86046" lon="0.2279">
        <ele>2301</ele>
        <time>2022-03-12T12:49:02Z</time>
      </trkpt>
      <trkpt lat="42.86048" lon="0.2279">
        <ele>2301</ele>
        <time>2022-03-12T12:49:05Z</time>
      </trkpt>
      <trkpt lat="42.8605" lon="0.2279">
        <ele>2302</ele>
        <time>2022-03-12T12:49:09Z</time>
      </trkpt>
      <trkpt lat="42.86052" lon="0.2279">
        <ele>2302</ele>
        <time>2022-03-12T12:49:13Z</time>
      </trkpt>
      <trkpt lat="42.86055" lon="0.2279">
        <ele>2304</ele>
        <time>2022-03-12T12:49:17Z</time>
      </trkpt>
      <trkpt lat="42.86057" lon="0.22789">
        <ele>2304</ele>
        <time>2022-03-12T12:49:21Z</time>
      </trkpt>
      <trkpt lat="42.86057" lon="0.22786">
        <ele>2304</ele>
        <time>2022-03-12T12:49:26Z</time>
      </trkpt>
      <trkpt lat="42.86056" lon="0.22783">
        <ele>2305</ele>
        <time>2022-03-12T12:49:30Z</time>
      </trkpt>
      <trkpt lat="42.86054" lon="0.22781">
        <ele>2306</ele>
        <time>2022-03-12T12:49:33Z</time>
      </trkpt>
      <trkpt lat="42.86053" lon="0.22779">
        <ele>2306</ele>
        <time>2022-03-12T12:49:36Z</time>
      </trkpt>
      <trkpt lat="42.86052" lon="0.22776">
        <ele>2306</ele>
        <time>2022-03-12T12:49:40Z</time>
      </trkpt>
      <trkpt lat="42.86051" lon="0.22774">
        <ele>2306</ele>
        <time>2022-03-12T12:49:43Z</time>
      </trkpt>
      <trkpt lat="42.8605" lon="0.22771">
        <ele>2306</ele>
        <time>2022-03-12T12:49:46Z</time>
      </trkpt>
      <trkpt lat="42.86049" lon="0.22769">
        <ele>2307</ele>
        <time>2022-03-12T12:49:49Z</time>
      </trkpt>
      <trkpt lat="42.86047" lon="0.22767">
        <ele>2308</ele>
        <time>2022-03-12T12:49:52Z</time>
      </trkpt>
      <trkpt lat="42.86046" lon="0.22765">
        <ele>2309</ele>
        <time>2022-03-12T12:49:55Z</time>
      </trkpt>
      <trkpt lat="42.86044" lon="0.22763">
        <ele>2309</ele>
        <time>2022-03-12T12:49:58Z</time>
      </trkpt>
      <trkpt lat="42.86043" lon="0.22761">
        <ele>2309</ele>
        <time>2022-03-12T12:50:01Z</time>
      </trkpt>
      <trkpt lat="42.86041" lon="0.22759">
        <ele>2310</ele>
        <time>2022-03-12T12:50:05Z</time>
      </trkpt>
      <trkpt lat="42.8604" lon="0.22757">
        <ele>2310</ele>
        <time>2022-03-12T12:50:09Z</time>
      </trkpt>
      <trkpt lat="42.86038" lon="0.22755">
        <ele>2311</ele>
        <time>2022-03-12T12:50:12Z</time>
      </trkpt>
      <trkpt lat="42.86037" lon="0.22752">
        <ele>2311</ele>
        <time>2022-03-12T12:50:16Z</time>
      </trkpt>
      <trkpt lat="42.86036" lon="0.2275">
        <ele>2311</ele>
        <time>2022-03-12T12:50:19Z</time>
      </trkpt>
      <trkpt lat="42.86036" lon="0.22748">
        <ele>2311</ele>
        <time>2022-03-12T12:50:23Z</time>
      </trkpt>
      <trkpt lat="42.86035" lon="0.22745">
        <ele>2312</ele>
        <time>2022-03-12T12:50:31Z</time>
      </trkpt>
      <trkpt lat="42.86034" lon="0.22742">
        <ele>2312</ele>
        <time>2022-03-12T12:50:35Z</time>
      </trkpt>
      <trkpt lat="42.86034" lon="0.22739">
        <ele>2313</ele>
        <time>2022-03-12T12:50:39Z</time>
      </trkpt>
      <trkpt lat="42.86035" lon="0.22737">
        <ele>2314</ele>
        <time>2022-03-12T12:50:43Z</time>
      </trkpt>
      <trkpt lat="42.86036" lon="0.22734">
        <ele>2315</ele>
        <time>2022-03-12T12:50:48Z</time>
      </trkpt>
      <trkpt lat="42.86036" lon="0.22732">
        <ele>2315</ele>
        <time>2022-03-12T12:50:52Z</time>
      </trkpt>
      <trkpt lat="42.86037" lon="0.22729">
        <ele>2316</ele>
        <time>2022-03-12T12:50:57Z</time>
      </trkpt>
      <trkpt lat="42.86038" lon="0.22726">
        <ele>2316</ele>
        <time>2022-03-12T12:51:01Z</time>
      </trkpt>
      <trkpt lat="42.86038" lon="0.22723">
        <ele>2317</ele>
        <time>2022-03-12T12:51:05Z</time>
      </trkpt>
      <trkpt lat="42.8604" lon="0.2272">
        <ele>2317</ele>
        <time>2022-03-12T12:51:09Z</time>
      </trkpt>
      <trkpt lat="42.86041" lon="0.22718">
        <ele>2318</ele>
        <time>2022-03-12T12:51:13Z</time>
      </trkpt>
      <trkpt lat="42.86043" lon="0.22715">
        <ele>2318</ele>
        <time>2022-03-12T12:51:17Z</time>
      </trkpt>
      <trkpt lat="42.86044" lon="0.22713">
        <ele>2319</ele>
        <time>2022-03-12T12:51:24Z</time>
      </trkpt>
      <trkpt lat="42.86045" lon="0.22711">
        <ele>2320</ele>
        <time>2022-03-12T12:51:28Z</time>
      </trkpt>
      <trkpt lat="42.86047" lon="0.22708">
        <ele>2320</ele>
        <time>2022-03-12T12:51:32Z</time>
      </trkpt>
      <trkpt lat="42.86048" lon="0.22706">
        <ele>2321</ele>
        <time>2022-03-12T12:51:36Z</time>
      </trkpt>
      <trkpt lat="42.86049" lon="0.22703">
        <ele>2321</ele>
        <time>2022-03-12T12:51:40Z</time>
      </trkpt>
      <trkpt lat="42.86049" lon="0.22701">
        <ele>2322</ele>
        <time>2022-03-12T12:51:44Z</time>
      </trkpt>
      <trkpt lat="42.8605" lon="0.22699">
        <ele>2322</ele>
        <time>2022-03-12T12:51:49Z</time>
      </trkpt>
      <trkpt lat="42.86051" lon="0.22696">
        <ele>2323</ele>
        <time>2022-03-12T12:51:53Z</time>
      </trkpt>
      <trkpt lat="42.86052" lon="0.22694">
        <ele>2323</ele>
        <time>2022-03-12T12:51:57Z</time>
      </trkpt>
      <trkpt lat="42.86052" lon="0.22691">
        <ele>2324</ele>
        <time>2022-03-12T12:52:01Z</time>
      </trkpt>
      <trkpt lat="42.86053" lon="0.22688">
        <ele>2324</ele>
        <time>2022-03-12T12:52:06Z</time>
      </trkpt>
      <trkpt lat="42.86054" lon="0.22686">
        <ele>2326</ele>
        <time>2022-03-12T12:52:10Z</time>
      </trkpt>
      <trkpt lat="42.86055" lon="0.22683">
        <ele>2326</ele>
        <time>2022-03-12T12:52:14Z</time>
      </trkpt>
      <trkpt lat="42.86056" lon="0.22681">
        <ele>2326</ele>
        <time>2022-03-12T12:52:18Z</time>
      </trkpt>
      <trkpt lat="42.86057" lon="0.22678">
        <ele>2327</ele>
        <time>2022-03-12T12:52:21Z</time>
      </trkpt>
      <trkpt lat="42.86059" lon="0.22676">
        <ele>2327</ele>
        <time>2022-03-12T12:52:24Z</time>
      </trkpt>
      <trkpt lat="42.8606" lon="0.22674">
        <ele>2328</ele>
        <time>2022-03-12T12:52:27Z</time>
      </trkpt>
      <trkpt lat="42.8606" lon="0.22672">
        <ele>2328</ele>
        <time>2022-03-12T12:52:30Z</time>
      </trkpt>
      <trkpt lat="42.86061" lon="0.2267">
        <ele>2328</ele>
        <time>2022-03-12T12:52:34Z</time>
      </trkpt>
      <trkpt lat="42.86062" lon="0.22667">
        <ele>2328</ele>
        <time>2022-03-12T12:52:38Z</time>
      </trkpt>
      <trkpt lat="42.86063" lon="0.22664">
        <ele>2329</ele>
        <time>2022-03-12T12:52:42Z</time>
      </trkpt>
      <trkpt lat="42.86065" lon="0.22662">
        <ele>2329</ele>
        <time>2022-03-12T12:52:46Z</time>
      </trkpt>
      <trkpt lat="42.86066" lon="0.2266">
        <ele>2330</ele>
        <time>2022-03-12T12:52:50Z</time>
      </trkpt>
      <trkpt lat="42.86068" lon="0.22658">
        <ele>2330</ele>
        <time>2022-03-12T12:52:54Z</time>
      </trkpt>
      <trkpt lat="42.86069" lon="0.22657">
        <ele>2331</ele>
        <time>2022-03-12T12:52:58Z</time>
      </trkpt>
      <trkpt lat="42.86071" lon="0.22655">
        <ele>2331</ele>
        <time>2022-03-12T12:53:02Z</time>
      </trkpt>
      <trkpt lat="42.86073" lon="0.22654">
        <ele>2332</ele>
        <time>2022-03-12T12:53:06Z</time>
      </trkpt>
      <trkpt lat="42.86075" lon="0.22652">
        <ele>2332</ele>
        <time>2022-03-12T12:53:22Z</time>
      </trkpt>
      <trkpt lat="42.86077" lon="0.2265">
        <ele>2332</ele>
        <time>2022-03-12T12:53:33Z</time>
      </trkpt>
      <trkpt lat="42.86078" lon="0.22648">
        <ele>2332</ele>
        <time>2022-03-12T12:53:36Z</time>
      </trkpt>
      <trkpt lat="42.86079" lon="0.22646">
        <ele>2332</ele>
        <time>2022-03-12T12:53:39Z</time>
      </trkpt>
      <trkpt lat="42.86081" lon="0.22644">
        <ele>2332</ele>
        <time>2022-03-12T12:53:42Z</time>
      </trkpt>
      <trkpt lat="42.86083" lon="0.22642">
        <ele>2333</ele>
        <time>2022-03-12T12:53:44Z</time>
      </trkpt>
      <trkpt lat="42.86084" lon="0.22641">
        <ele>2333</ele>
        <time>2022-03-12T12:53:46Z</time>
      </trkpt>
      <trkpt lat="42.86086" lon="0.22639">
        <ele>2333</ele>
        <time>2022-03-12T12:53:48Z</time>
      </trkpt>
      <trkpt lat="42.86087" lon="0.22637">
        <ele>2333</ele>
        <time>2022-03-12T12:53:50Z</time>
      </trkpt>
      <trkpt lat="42.86089" lon="0.22635">
        <ele>2333</ele>
        <time>2022-03-12T12:53:53Z</time>
      </trkpt>
      <trkpt lat="42.86091" lon="0.22633">
        <ele>2333</ele>
        <time>2022-03-12T12:53:55Z</time>
      </trkpt>
      <trkpt lat="42.86092" lon="0.2263">
        <ele>2333</ele>
        <time>2022-03-12T12:53:57Z</time>
      </trkpt>
      <trkpt lat="42.86093" lon="0.22628">
        <ele>2333</ele>
        <time>2022-03-12T12:53:59Z</time>
      </trkpt>
      <trkpt lat="42.86094" lon="0.22626">
        <ele>2333</ele>
        <time>2022-03-12T12:54:02Z</time>
      </trkpt>
      <trkpt lat="42.86096" lon="0.22623">
        <ele>2333</ele>
        <time>2022-03-12T12:54:05Z</time>
      </trkpt>
      <trkpt lat="42.86097" lon="0.2262">
        <ele>2333</ele>
        <time>2022-03-12T12:54:08Z</time>
      </trkpt>
      <trkpt lat="42.86099" lon="0.22617">
        <ele>2333</ele>
        <time>2022-03-12T12:54:11Z</time>
      </trkpt>
      <trkpt lat="42.861" lon="0.22615">
        <ele>2333</ele>
        <time>2022-03-12T12:54:14Z</time>
      </trkpt>
      <trkpt lat="42.86101" lon="0.22613">
        <ele>2334</ele>
        <time>2022-03-12T12:54:17Z</time>
      </trkpt>
      <trkpt lat="42.86103" lon="0.2261">
        <ele>2334</ele>
        <time>2022-03-12T12:54:20Z</time>
      </trkpt>
      <trkpt lat="42.86105" lon="0.22608">
        <ele>2335</ele>
        <time>2022-03-12T12:54:23Z</time>
      </trkpt>
      <trkpt lat="42.86106" lon="0.22606">
        <ele>2335</ele>
        <time>2022-03-12T12:54:26Z</time>
      </trkpt>
      <trkpt lat="42.86107" lon="0.22603">
        <ele>2336</ele>
        <time>2022-03-12T12:54:29Z</time>
      </trkpt>
      <trkpt lat="42.86109" lon="0.226">
        <ele>2336</ele>
        <time>2022-03-12T12:54:32Z</time>
      </trkpt>
      <trkpt lat="42.8611" lon="0.22598">
        <ele>2336</ele>
        <time>2022-03-12T12:54:35Z</time>
      </trkpt>
      <trkpt lat="42.86112" lon="0.22595">
        <ele>2336</ele>
        <time>2022-03-12T12:54:38Z</time>
      </trkpt>
      <trkpt lat="42.86113" lon="0.22592">
        <ele>2337</ele>
        <time>2022-03-12T12:54:41Z</time>
      </trkpt>
      <trkpt lat="42.86114" lon="0.2259">
        <ele>2337</ele>
        <time>2022-03-12T12:54:44Z</time>
      </trkpt>
      <trkpt lat="42.86115" lon="0.22587">
        <ele>2337</ele>
        <time>2022-03-12T12:54:47Z</time>
      </trkpt>
      <trkpt lat="42.86116" lon="0.22585">
        <ele>2337</ele>
        <time>2022-03-12T12:54:50Z</time>
      </trkpt>
      <trkpt lat="42.86117" lon="0.22582">
        <ele>2338</ele>
        <time>2022-03-12T12:54:53Z</time>
      </trkpt>
      <trkpt lat="42.86118" lon="0.2258">
        <ele>2338</ele>
        <time>2022-03-12T12:54:56Z</time>
      </trkpt>
      <trkpt lat="42.86119" lon="0.22577">
        <ele>2339</ele>
        <time>2022-03-12T12:54:59Z</time>
      </trkpt>
      <trkpt lat="42.8612" lon="0.22574">
        <ele>2339</ele>
        <time>2022-03-12T12:55:02Z</time>
      </trkpt>
      <trkpt lat="42.8612" lon="0.22571">
        <ele>2339</ele>
        <time>2022-03-12T12:55:05Z</time>
      </trkpt>
      <trkpt lat="42.86121" lon="0.22568">
        <ele>2339</ele>
        <time>2022-03-12T12:55:08Z</time>
      </trkpt>
      <trkpt lat="42.86122" lon="0.22565">
        <ele>2339</ele>
        <time>2022-03-12T12:55:11Z</time>
      </trkpt>
      <trkpt lat="42.86124" lon="0.22562">
        <ele>2340</ele>
        <time>2022-03-12T12:55:14Z</time>
      </trkpt>
      <trkpt lat="42.86124" lon="0.2256">
        <ele>2340</ele>
        <time>2022-03-12T12:55:17Z</time>
      </trkpt>
      <trkpt lat="42.86125" lon="0.22557">
        <ele>2340</ele>
        <time>2022-03-12T12:55:20Z</time>
      </trkpt>
      <trkpt lat="42.86126" lon="0.22555">
        <ele>2340</ele>
        <time>2022-03-12T12:55:23Z</time>
      </trkpt>
      <trkpt lat="42.86127" lon="0.22552">
        <ele>2340</ele>
        <time>2022-03-12T12:55:26Z</time>
      </trkpt>
      <trkpt lat="42.86127" lon="0.2255">
        <ele>2341</ele>
        <time>2022-03-12T12:55:29Z</time>
      </trkpt>
      <trkpt lat="42.86128" lon="0.22547">
        <ele>2342</ele>
        <time>2022-03-12T12:55:32Z</time>
      </trkpt>
      <trkpt lat="42.86128" lon="0.22544">
        <ele>2342</ele>
        <time>2022-03-12T12:55:36Z</time>
      </trkpt>
      <trkpt lat="42.86128" lon="0.22542">
        <ele>2342</ele>
        <time>2022-03-12T12:55:39Z</time>
      </trkpt>
      <trkpt lat="42.86129" lon="0.22539">
        <ele>2342</ele>
        <time>2022-03-12T12:55:42Z</time>
      </trkpt>
      <trkpt lat="42.86129" lon="0.22536">
        <ele>2343</ele>
        <time>2022-03-12T12:55:46Z</time>
      </trkpt>
      <trkpt lat="42.86129" lon="0.22533">
        <ele>2344</ele>
        <time>2022-03-12T12:55:50Z</time>
      </trkpt>
      <trkpt lat="42.86129" lon="0.22531">
        <ele>2345</ele>
        <time>2022-03-12T12:55:54Z</time>
      </trkpt>
      <trkpt lat="42.86129" lon="0.22528">
        <ele>2346</ele>
        <time>2022-03-12T12:55:58Z</time>
      </trkpt>
      <trkpt lat="42.86131" lon="0.22526">
        <ele>2346</ele>
        <time>2022-03-12T12:56:02Z</time>
      </trkpt>
      <trkpt lat="42.86132" lon="0.22524">
        <ele>2347</ele>
        <time>2022-03-12T12:56:06Z</time>
      </trkpt>
      <trkpt lat="42.86133" lon="0.22522">
        <ele>2347</ele>
        <time>2022-03-12T12:56:10Z</time>
      </trkpt>
      <trkpt lat="42.86135" lon="0.2252">
        <ele>2348</ele>
        <time>2022-03-12T12:56:14Z</time>
      </trkpt>
      <trkpt lat="42.86136" lon="0.22517">
        <ele>2349</ele>
        <time>2022-03-12T12:56:18Z</time>
      </trkpt>
      <trkpt lat="42.86138" lon="0.22515">
        <ele>2348</ele>
        <time>2022-03-12T12:56:22Z</time>
      </trkpt>
      <trkpt lat="42.86139" lon="0.22513">
        <ele>2349</ele>
        <time>2022-03-12T12:56:26Z</time>
      </trkpt>
      <trkpt lat="42.8614" lon="0.22511">
        <ele>2350</ele>
        <time>2022-03-12T12:56:30Z</time>
      </trkpt>
      <trkpt lat="42.86141" lon="0.22509">
        <ele>2350</ele>
        <time>2022-03-12T12:56:34Z</time>
      </trkpt>
      <trkpt lat="42.86143" lon="0.22506">
        <ele>2352</ele>
        <time>2022-03-12T12:56:38Z</time>
      </trkpt>
      <trkpt lat="42.86144" lon="0.22505">
        <ele>2353</ele>
        <time>2022-03-12T12:56:42Z</time>
      </trkpt>
      <trkpt lat="42.86146" lon="0.22502">
        <ele>2353</ele>
        <time>2022-03-12T12:56:46Z</time>
      </trkpt>
      <trkpt lat="42.86148" lon="0.22501">
        <ele>2353</ele>
        <time>2022-03-12T12:56:50Z</time>
      </trkpt>
      <trkpt lat="42.86149" lon="0.22499">
        <ele>2353</ele>
        <time>2022-03-12T12:56:53Z</time>
      </trkpt>
      <trkpt lat="42.86151" lon="0.22497">
        <ele>2354</ele>
        <time>2022-03-12T12:56:57Z</time>
      </trkpt>
      <trkpt lat="42.86152" lon="0.22495">
        <ele>2355</ele>
        <time>2022-03-12T12:57:00Z</time>
      </trkpt>
      <trkpt lat="42.86154" lon="0.22493">
        <ele>2355</ele>
        <time>2022-03-12T12:57:03Z</time>
      </trkpt>
      <trkpt lat="42.86155" lon="0.2249">
        <ele>2355</ele>
        <time>2022-03-12T12:57:06Z</time>
      </trkpt>
      <trkpt lat="42.86156" lon="0.22488">
        <ele>2356</ele>
        <time>2022-03-12T12:57:09Z</time>
      </trkpt>
      <trkpt lat="42.86158" lon="0.22486">
        <ele>2356</ele>
        <time>2022-03-12T12:57:12Z</time>
      </trkpt>
      <trkpt lat="42.86159" lon="0.22484">
        <ele>2356</ele>
        <time>2022-03-12T12:57:15Z</time>
      </trkpt>
      <trkpt lat="42.8616" lon="0.22481">
        <ele>2357</ele>
        <time>2022-03-12T12:57:18Z</time>
      </trkpt>
      <trkpt lat="42.86161" lon="0.2248">
        <ele>2357</ele>
        <time>2022-03-12T12:57:21Z</time>
      </trkpt>
      <trkpt lat="42.86162" lon="0.22477">
        <ele>2357</ele>
        <time>2022-03-12T12:57:25Z</time>
      </trkpt>
      <trkpt lat="42.86163" lon="0.22474">
        <ele>2358</ele>
        <time>2022-03-12T12:57:29Z</time>
      </trkpt>
      <trkpt lat="42.86164" lon="0.22472">
        <ele>2358</ele>
        <time>2022-03-12T12:57:33Z</time>
      </trkpt>
      <trkpt lat="42.86166" lon="0.2247">
        <ele>2358</ele>
        <time>2022-03-12T12:57:36Z</time>
      </trkpt>
      <trkpt lat="42.86167" lon="0.22468">
        <ele>2359</ele>
        <time>2022-03-12T12:57:39Z</time>
      </trkpt>
      <trkpt lat="42.86168" lon="0.22466">
        <ele>2360</ele>
        <time>2022-03-12T12:57:42Z</time>
      </trkpt>
      <trkpt lat="42.86169" lon="0.22464">
        <ele>2360</ele>
        <time>2022-03-12T12:57:45Z</time>
      </trkpt>
      <trkpt lat="42.8617" lon="0.22461">
        <ele>2360</ele>
        <time>2022-03-12T12:57:52Z</time>
      </trkpt>
      <trkpt lat="42.86172" lon="0.22459">
        <ele>2360</ele>
        <time>2022-03-12T12:57:55Z</time>
      </trkpt>
      <trkpt lat="42.86173" lon="0.22456">
        <ele>2361</ele>
        <time>2022-03-12T12:57:58Z</time>
      </trkpt>
      <trkpt lat="42.86174" lon="0.22454">
        <ele>2361</ele>
        <time>2022-03-12T12:58:01Z</time>
      </trkpt>
      <trkpt lat="42.86175" lon="0.22451">
        <ele>2362</ele>
        <time>2022-03-12T12:58:04Z</time>
      </trkpt>
      <trkpt lat="42.86176" lon="0.22449">
        <ele>2362</ele>
        <time>2022-03-12T12:58:07Z</time>
      </trkpt>
      <trkpt lat="42.86177" lon="0.22446">
        <ele>2363</ele>
        <time>2022-03-12T12:58:10Z</time>
      </trkpt>
      <trkpt lat="42.86179" lon="0.22444">
        <ele>2363</ele>
        <time>2022-03-12T12:58:13Z</time>
      </trkpt>
      <trkpt lat="42.8618" lon="0.22442">
        <ele>2363</ele>
        <time>2022-03-12T12:58:16Z</time>
      </trkpt>
      <trkpt lat="42.86181" lon="0.2244">
        <ele>2363</ele>
        <time>2022-03-12T12:58:19Z</time>
      </trkpt>
      <trkpt lat="42.86182" lon="0.22437">
        <ele>2363</ele>
        <time>2022-03-12T12:58:22Z</time>
      </trkpt>
      <trkpt lat="42.86183" lon="0.22435">
        <ele>2364</ele>
        <time>2022-03-12T12:58:25Z</time>
      </trkpt>
      <trkpt lat="42.86184" lon="0.22433">
        <ele>2364</ele>
        <time>2022-03-12T12:58:28Z</time>
      </trkpt>
      <trkpt lat="42.86185" lon="0.2243">
        <ele>2365</ele>
        <time>2022-03-12T12:58:32Z</time>
      </trkpt>
      <trkpt lat="42.86186" lon="0.22427">
        <ele>2365</ele>
        <time>2022-03-12T12:58:36Z</time>
      </trkpt>
      <trkpt lat="42.86187" lon="0.22425">
        <ele>2366</ele>
        <time>2022-03-12T12:58:39Z</time>
      </trkpt>
      <trkpt lat="42.86189" lon="0.22423">
        <ele>2366</ele>
        <time>2022-03-12T12:58:42Z</time>
      </trkpt>
      <trkpt lat="42.8619" lon="0.2242">
        <ele>2367</ele>
        <time>2022-03-12T12:58:45Z</time>
      </trkpt>
      <trkpt lat="42.86191" lon="0.22418">
        <ele>2367</ele>
        <time>2022-03-12T12:58:48Z</time>
      </trkpt>
      <trkpt lat="42.86193" lon="0.22416">
        <ele>2367</ele>
        <time>2022-03-12T12:58:55Z</time>
      </trkpt>
      <trkpt lat="42.86194" lon="0.22413">
        <ele>2368</ele>
        <time>2022-03-12T12:58:59Z</time>
      </trkpt>
      <trkpt lat="42.86195" lon="0.2241">
        <ele>2368</ele>
        <time>2022-03-12T12:59:03Z</time>
      </trkpt>
      <trkpt lat="42.86196" lon="0.22408">
        <ele>2369</ele>
        <time>2022-03-12T12:59:06Z</time>
      </trkpt>
      <trkpt lat="42.86197" lon="0.22406">
        <ele>2369</ele>
        <time>2022-03-12T12:59:10Z</time>
      </trkpt>
      <trkpt lat="42.86198" lon="0.22404">
        <ele>2369</ele>
        <time>2022-03-12T12:59:14Z</time>
      </trkpt>
      <trkpt lat="42.86199" lon="0.22402">
        <ele>2370</ele>
        <time>2022-03-12T12:59:18Z</time>
      </trkpt>
      <trkpt lat="42.862" lon="0.22399">
        <ele>2370</ele>
        <time>2022-03-12T12:59:22Z</time>
      </trkpt>
      <trkpt lat="42.86201" lon="0.22396">
        <ele>2371</ele>
        <time>2022-03-12T12:59:27Z</time>
      </trkpt>
      <trkpt lat="42.86202" lon="0.22394">
        <ele>2371</ele>
        <time>2022-03-12T12:59:31Z</time>
      </trkpt>
      <trkpt lat="42.86203" lon="0.22392">
        <ele>2372</ele>
        <time>2022-03-12T12:59:35Z</time>
      </trkpt>
      <trkpt lat="42.86204" lon="0.2239">
        <ele>2372</ele>
        <time>2022-03-12T12:59:39Z</time>
      </trkpt>
      <trkpt lat="42.86206" lon="0.22388">
        <ele>2373</ele>
        <time>2022-03-12T12:59:43Z</time>
      </trkpt>
      <trkpt lat="42.86208" lon="0.22386">
        <ele>2373</ele>
        <time>2022-03-12T12:59:47Z</time>
      </trkpt>
      <trkpt lat="42.86209" lon="0.22384">
        <ele>2374</ele>
        <time>2022-03-12T12:59:51Z</time>
      </trkpt>
      <trkpt lat="42.8621" lon="0.22382">
        <ele>2374</ele>
        <time>2022-03-12T12:59:55Z</time>
      </trkpt>
      <trkpt lat="42.86212" lon="0.2238">
        <ele>2375</ele>
        <time>2022-03-12T12:59:59Z</time>
      </trkpt>
      <trkpt lat="42.86213" lon="0.22378">
        <ele>2375</ele>
        <time>2022-03-12T13:00:03Z</time>
      </trkpt>
      <trkpt lat="42.86215" lon="0.22377">
        <ele>2376</ele>
        <time>2022-03-12T13:00:07Z</time>
      </trkpt>
      <trkpt lat="42.86217" lon="0.22375">
        <ele>2376</ele>
        <time>2022-03-12T13:00:11Z</time>
      </trkpt>
      <trkpt lat="42.86218" lon="0.22373">
        <ele>2378</ele>
        <time>2022-03-12T13:00:15Z</time>
      </trkpt>
      <trkpt lat="42.8622" lon="0.22371">
        <ele>2378</ele>
        <time>2022-03-12T13:00:19Z</time>
      </trkpt>
      <trkpt lat="42.86221" lon="0.2237">
        <ele>2379</ele>
        <time>2022-03-12T13:00:23Z</time>
      </trkpt>
      <trkpt lat="42.86223" lon="0.22368">
        <ele>2379</ele>
        <time>2022-03-12T13:00:27Z</time>
      </trkpt>
      <trkpt lat="42.86224" lon="0.22366">
        <ele>2379</ele>
        <time>2022-03-12T13:00:31Z</time>
      </trkpt>
      <trkpt lat="42.86226" lon="0.22364">
        <ele>2380</ele>
        <time>2022-03-12T13:00:35Z</time>
      </trkpt>
      <trkpt lat="42.86228" lon="0.22362">
        <ele>2381</ele>
        <time>2022-03-12T13:00:39Z</time>
      </trkpt>
      <trkpt lat="42.8623" lon="0.22361">
        <ele>2382</ele>
        <time>2022-03-12T13:00:42Z</time>
      </trkpt>
      <trkpt lat="42.86231" lon="0.22359">
        <ele>2382</ele>
        <time>2022-03-12T13:00:46Z</time>
      </trkpt>
      <trkpt lat="42.86234" lon="0.22358">
        <ele>2382</ele>
        <time>2022-03-12T13:00:50Z</time>
      </trkpt>
      <trkpt lat="42.86236" lon="0.22357">
        <ele>2382</ele>
        <time>2022-03-12T13:00:54Z</time>
      </trkpt>
      <trkpt lat="42.86238" lon="0.22356">
        <ele>2383</ele>
        <time>2022-03-12T13:00:58Z</time>
      </trkpt>
      <trkpt lat="42.8624" lon="0.22356">
        <ele>2384</ele>
        <time>2022-03-12T13:01:02Z</time>
      </trkpt>
      <trkpt lat="42.86241" lon="0.22353">
        <ele>2385</ele>
        <time>2022-03-12T13:01:07Z</time>
      </trkpt>
      <trkpt lat="42.8624" lon="0.2235">
        <ele>2385</ele>
        <time>2022-03-12T13:01:11Z</time>
      </trkpt>
      <trkpt lat="42.86239" lon="0.22348">
        <ele>2386</ele>
        <time>2022-03-12T13:01:15Z</time>
      </trkpt>
      <trkpt lat="42.86237" lon="0.22347">
        <ele>2387</ele>
        <time>2022-03-12T13:01:21Z</time>
      </trkpt>
      <trkpt lat="42.86235" lon="0.22346">
        <ele>2387</ele>
        <time>2022-03-12T13:01:29Z</time>
      </trkpt>
      <trkpt lat="42.86233" lon="0.22346">
        <ele>2387</ele>
        <time>2022-03-12T13:01:32Z</time>
      </trkpt>
      <trkpt lat="42.86231" lon="0.22345">
        <ele>2387</ele>
        <time>2022-03-12T13:01:35Z</time>
      </trkpt>
      <trkpt lat="42.86229" lon="0.22344">
        <ele>2388</ele>
        <time>2022-03-12T13:01:38Z</time>
      </trkpt>
      <trkpt lat="42.86227" lon="0.22344">
        <ele>2389</ele>
        <time>2022-03-12T13:01:41Z</time>
      </trkpt>
      <trkpt lat="42.86225" lon="0.22343">
        <ele>2389</ele>
        <time>2022-03-12T13:01:44Z</time>
      </trkpt>
      <trkpt lat="42.86223" lon="0.22342">
        <ele>2390</ele>
        <time>2022-03-12T13:01:47Z</time>
      </trkpt>
      <trkpt lat="42.86221" lon="0.22341">
        <ele>2390</ele>
        <time>2022-03-12T13:01:50Z</time>
      </trkpt>
      <trkpt lat="42.8622" lon="0.22339">
        <ele>2390</ele>
        <time>2022-03-12T13:01:53Z</time>
      </trkpt>
      <trkpt lat="42.8622" lon="0.22337">
        <ele>2391</ele>
        <time>2022-03-12T13:01:57Z</time>
      </trkpt>
      <trkpt lat="42.86222" lon="0.22335">
        <ele>2391</ele>
        <time>2022-03-12T13:02:01Z</time>
      </trkpt>
      <trkpt lat="42.86223" lon="0.22332">
        <ele>2392</ele>
        <time>2022-03-12T13:02:45Z</time>
      </trkpt>
      <trkpt lat="42.86225" lon="0.2233">
        <ele>2393</ele>
        <time>2022-03-12T13:02:48Z</time>
      </trkpt>
      <trkpt lat="42.86227" lon="0.22328">
        <ele>2393</ele>
        <time>2022-03-12T13:02:51Z</time>
      </trkpt>
      <trkpt lat="42.86229" lon="0.22327">
        <ele>2393</ele>
        <time>2022-03-12T13:02:54Z</time>
      </trkpt>
      <trkpt lat="42.8623" lon="0.22325">
        <ele>2393</ele>
        <time>2022-03-12T13:02:57Z</time>
      </trkpt>
      <trkpt lat="42.86232" lon="0.22324">
        <ele>2394</ele>
        <time>2022-03-12T13:03:03Z</time>
      </trkpt>
      <trkpt lat="42.86234" lon="0.22323">
        <ele>2395</ele>
        <time>2022-03-12T13:03:06Z</time>
      </trkpt>
      <trkpt lat="42.86236" lon="0.22322">
        <ele>2395</ele>
        <time>2022-03-12T13:03:09Z</time>
      </trkpt>
      <trkpt lat="42.86238" lon="0.22321">
        <ele>2395</ele>
        <time>2022-03-12T13:03:12Z</time>
      </trkpt>
      <trkpt lat="42.8624" lon="0.2232">
        <ele>2395</ele>
        <time>2022-03-12T13:03:15Z</time>
      </trkpt>
      <trkpt lat="42.86241" lon="0.22318">
        <ele>2396</ele>
        <time>2022-03-12T13:03:18Z</time>
      </trkpt>
      <trkpt lat="42.86243" lon="0.22316">
        <ele>2397</ele>
        <time>2022-03-12T13:03:29Z</time>
      </trkpt>
      <trkpt lat="42.86245" lon="0.22314">
        <ele>2397</ele>
        <time>2022-03-12T13:03:32Z</time>
      </trkpt>
      <trkpt lat="42.86247" lon="0.22313">
        <ele>2398</ele>
        <time>2022-03-12T13:03:35Z</time>
      </trkpt>
      <trkpt lat="42.86248" lon="0.22311">
        <ele>2398</ele>
        <time>2022-03-12T13:03:38Z</time>
      </trkpt>
      <trkpt lat="42.8625" lon="0.2231">
        <ele>2398</ele>
        <time>2022-03-12T13:03:41Z</time>
      </trkpt>
      <trkpt lat="42.86252" lon="0.22309">
        <ele>2399</ele>
        <time>2022-03-12T13:03:44Z</time>
      </trkpt>
      <trkpt lat="42.86253" lon="0.22307">
        <ele>2400</ele>
        <time>2022-03-12T13:03:48Z</time>
      </trkpt>
      <trkpt lat="42.86253" lon="0.22304">
        <ele>2400</ele>
        <time>2022-03-12T13:03:52Z</time>
      </trkpt>
      <trkpt lat="42.86252" lon="0.22301">
        <ele>2401</ele>
        <time>2022-03-12T13:03:56Z</time>
      </trkpt>
      <trkpt lat="42.86251" lon="0.22299">
        <ele>2402</ele>
        <time>2022-03-12T13:04:01Z</time>
      </trkpt>
      <trkpt lat="42.8625" lon="0.22297">
        <ele>2404</ele>
        <time>2022-03-12T13:04:06Z</time>
      </trkpt>
      <trkpt lat="42.86248" lon="0.22295">
        <ele>2404</ele>
        <time>2022-03-12T13:04:39Z</time>
      </trkpt>
      <trkpt lat="42.86246" lon="0.22293">
        <ele>2405</ele>
        <time>2022-03-12T13:04:42Z</time>
      </trkpt>
      <trkpt lat="42.86244" lon="0.22291">
        <ele>2405</ele>
        <time>2022-03-12T13:04:45Z</time>
      </trkpt>
      <trkpt lat="42.86243" lon="0.22288">
        <ele>2405</ele>
        <time>2022-03-12T13:04:48Z</time>
      </trkpt>
      <trkpt lat="42.86242" lon="0.22286">
        <ele>2406</ele>
        <time>2022-03-12T13:04:51Z</time>
      </trkpt>
      <trkpt lat="42.86241" lon="0.22283">
        <ele>2406</ele>
        <time>2022-03-12T13:04:54Z</time>
      </trkpt>
      <trkpt lat="42.8624" lon="0.22281">
        <ele>2407</ele>
        <time>2022-03-12T13:04:57Z</time>
      </trkpt>
      <trkpt lat="42.86239" lon="0.22278">
        <ele>2408</ele>
        <time>2022-03-12T13:05:00Z</time>
      </trkpt>
      <trkpt lat="42.86239" lon="0.22275">
        <ele>2408</ele>
        <time>2022-03-12T13:05:03Z</time>
      </trkpt>
      <trkpt lat="42.86238" lon="0.22272">
        <ele>2408</ele>
        <time>2022-03-12T13:05:06Z</time>
      </trkpt>
      <trkpt lat="42.86238" lon="0.2227">
        <ele>2409</ele>
        <time>2022-03-12T13:05:09Z</time>
      </trkpt>
      <trkpt lat="42.86238" lon="0.22267">
        <ele>2410</ele>
        <time>2022-03-12T13:05:13Z</time>
      </trkpt>
      <trkpt lat="42.86239" lon="0.22264">
        <ele>2410</ele>
        <time>2022-03-12T13:05:16Z</time>
      </trkpt>
      <trkpt lat="42.8624" lon="0.22262">
        <ele>2410</ele>
        <time>2022-03-12T13:05:19Z</time>
      </trkpt>
      <trkpt lat="42.86242" lon="0.22261">
        <ele>2411</ele>
        <time>2022-03-12T13:05:22Z</time>
      </trkpt>
      <trkpt lat="42.86245" lon="0.22262">
        <ele>2412</ele>
        <time>2022-03-12T13:05:30Z</time>
      </trkpt>
      <trkpt lat="42.86247" lon="0.22263">
        <ele>2412</ele>
        <time>2022-03-12T13:05:33Z</time>
      </trkpt>
      <trkpt lat="42.86249" lon="0.22263">
        <ele>2412</ele>
        <time>2022-03-12T13:05:37Z</time>
      </trkpt>
      <trkpt lat="42.86251" lon="0.22263">
        <ele>2413</ele>
        <time>2022-03-12T13:05:45Z</time>
      </trkpt>
      <trkpt lat="42.86253" lon="0.22261">
        <ele>2413</ele>
        <time>2022-03-12T13:05:48Z</time>
      </trkpt>
      <trkpt lat="42.86255" lon="0.22261">
        <ele>2414</ele>
        <time>2022-03-12T13:05:51Z</time>
      </trkpt>
      <trkpt lat="42.86257" lon="0.2226">
        <ele>2414</ele>
        <time>2022-03-12T13:05:54Z</time>
      </trkpt>
      <trkpt lat="42.86259" lon="0.22259">
        <ele>2415</ele>
        <time>2022-03-12T13:05:57Z</time>
      </trkpt>
      <trkpt lat="42.86261" lon="0.22259">
        <ele>2415</ele>
        <time>2022-03-12T13:06:00Z</time>
      </trkpt>
      <trkpt lat="42.86263" lon="0.2226">
        <ele>2415</ele>
        <time>2022-03-12T13:06:04Z</time>
      </trkpt>
      <trkpt lat="42.86265" lon="0.22261">
        <ele>2416</ele>
        <time>2022-03-12T13:06:07Z</time>
      </trkpt>
      <trkpt lat="42.86267" lon="0.22262">
        <ele>2417</ele>
        <time>2022-03-12T13:06:12Z</time>
      </trkpt>
      <trkpt lat="42.86268" lon="0.2226">
        <ele>2417</ele>
        <time>2022-03-12T13:06:17Z</time>
      </trkpt>
      <trkpt lat="42.86269" lon="0.22257">
        <ele>2419</ele>
        <time>2022-03-12T13:06:21Z</time>
      </trkpt>
      <trkpt lat="42.86269" lon="0.22254">
        <ele>2419</ele>
        <time>2022-03-12T13:06:25Z</time>
      </trkpt>
      <trkpt lat="42.86269" lon="0.22252">
        <ele>2420</ele>
        <time>2022-03-12T13:06:29Z</time>
      </trkpt>
      <trkpt lat="42.86269" lon="0.22249">
        <ele>2420</ele>
        <time>2022-03-12T13:06:34Z</time>
      </trkpt>
      <trkpt lat="42.86268" lon="0.22247">
        <ele>2420</ele>
        <time>2022-03-12T13:06:42Z</time>
      </trkpt>
      <trkpt lat="42.86266" lon="0.22244">
        <ele>2420</ele>
        <time>2022-03-12T13:06:46Z</time>
      </trkpt>
      <trkpt lat="42.86265" lon="0.22243">
        <ele>2421</ele>
        <time>2022-03-12T13:06:49Z</time>
      </trkpt>
      <trkpt lat="42.86264" lon="0.2224">
        <ele>2421</ele>
        <time>2022-03-12T13:06:53Z</time>
      </trkpt>
      <trkpt lat="42.86264" lon="0.22237">
        <ele>2421</ele>
        <time>2022-03-12T13:06:56Z</time>
      </trkpt>
      <trkpt lat="42.86264" lon="0.22234">
        <ele>2423</ele>
        <time>2022-03-12T13:07:00Z</time>
      </trkpt>
      <trkpt lat="42.86264" lon="0.22231">
        <ele>2423</ele>
        <time>2022-03-12T13:07:04Z</time>
      </trkpt>
      <trkpt lat="42.86265" lon="0.22229">
        <ele>2424</ele>
        <time>2022-03-12T13:07:07Z</time>
      </trkpt>
      <trkpt lat="42.86265" lon="0.22226">
        <ele>2424</ele>
        <time>2022-03-12T13:07:10Z</time>
      </trkpt>
      <trkpt lat="42.86266" lon="0.22224">
        <ele>2425</ele>
        <time>2022-03-12T13:07:15Z</time>
      </trkpt>
      <trkpt lat="42.86268" lon="0.22226">
        <ele>2426</ele>
        <time>2022-03-12T13:07:20Z</time>
      </trkpt>
      <trkpt lat="42.8627" lon="0.22227">
        <ele>2426</ele>
        <time>2022-03-12T13:07:24Z</time>
      </trkpt>
      <trkpt lat="42.86271" lon="0.22228">
        <ele>2426</ele>
        <time>2022-03-12T13:07:27Z</time>
      </trkpt>
      <trkpt lat="42.86273" lon="0.22229">
        <ele>2427</ele>
        <time>2022-03-12T13:07:31Z</time>
      </trkpt>
      <trkpt lat="42.86275" lon="0.2223">
        <ele>2427</ele>
        <time>2022-03-12T13:07:35Z</time>
      </trkpt>
      <trkpt lat="42.86277" lon="0.22231">
        <ele>2428</ele>
        <time>2022-03-12T13:07:39Z</time>
      </trkpt>
      <trkpt lat="42.86279" lon="0.22231">
        <ele>2430</ele>
        <time>2022-03-12T13:07:43Z</time>
      </trkpt>
      <trkpt lat="42.86281" lon="0.22232">
        <ele>2430</ele>
        <time>2022-03-12T13:07:48Z</time>
      </trkpt>
      <trkpt lat="42.86283" lon="0.22233">
        <ele>2431</ele>
        <time>2022-03-12T13:07:52Z</time>
      </trkpt>
      <trkpt lat="42.86285" lon="0.22234">
        <ele>2431</ele>
        <time>2022-03-12T13:08:28Z</time>
      </trkpt>
      <trkpt lat="42.86287" lon="0.22234">
        <ele>2432</ele>
        <time>2022-03-12T13:08:31Z</time>
      </trkpt>
      <trkpt lat="42.86289" lon="0.22235">
        <ele>2432</ele>
        <time>2022-03-12T13:08:34Z</time>
      </trkpt>
      <trkpt lat="42.86291" lon="0.22236">
        <ele>2432</ele>
        <time>2022-03-12T13:08:36Z</time>
      </trkpt>
      <trkpt lat="42.86293" lon="0.22236">
        <ele>2433</ele>
        <time>2022-03-12T13:08:39Z</time>
      </trkpt>
      <trkpt lat="42.86295" lon="0.22237">
        <ele>2433</ele>
        <time>2022-03-12T13:08:42Z</time>
      </trkpt>
      <trkpt lat="42.86296" lon="0.22238">
        <ele>2433</ele>
        <time>2022-03-12T13:08:45Z</time>
      </trkpt>
      <trkpt lat="42.86299" lon="0.22239">
        <ele>2434</ele>
        <time>2022-03-12T13:08:48Z</time>
      </trkpt>
      <trkpt lat="42.86301" lon="0.2224">
        <ele>2434</ele>
        <time>2022-03-12T13:08:51Z</time>
      </trkpt>
      <trkpt lat="42.86303" lon="0.22241">
        <ele>2435</ele>
        <time>2022-03-12T13:08:54Z</time>
      </trkpt>
      <trkpt lat="42.86305" lon="0.22242">
        <ele>2435</ele>
        <time>2022-03-12T13:08:57Z</time>
      </trkpt>
      <trkpt lat="42.86306" lon="0.22244">
        <ele>2436</ele>
        <time>2022-03-12T13:09:00Z</time>
      </trkpt>
      <trkpt lat="42.86308" lon="0.22245">
        <ele>2436</ele>
        <time>2022-03-12T13:09:03Z</time>
      </trkpt>
      <trkpt lat="42.8631" lon="0.22247">
        <ele>2437</ele>
        <time>2022-03-12T13:09:07Z</time>
      </trkpt>
      <trkpt lat="42.86312" lon="0.22248">
        <ele>2437</ele>
        <time>2022-03-12T13:09:11Z</time>
      </trkpt>
      <trkpt lat="42.86313" lon="0.22249">
        <ele>2437</ele>
        <time>2022-03-12T13:09:14Z</time>
      </trkpt>
      <trkpt lat="42.86315" lon="0.22251">
        <ele>2438</ele>
        <time>2022-03-12T13:09:17Z</time>
      </trkpt>
      <trkpt lat="42.86316" lon="0.22252">
        <ele>2438</ele>
        <time>2022-03-12T13:09:22Z</time>
      </trkpt>
      <trkpt lat="42.86318" lon="0.22253">
        <ele>2439</ele>
        <time>2022-03-12T13:09:25Z</time>
      </trkpt>
      <trkpt lat="42.86319" lon="0.22255">
        <ele>2439</ele>
        <time>2022-03-12T13:09:28Z</time>
      </trkpt>
      <trkpt lat="42.86321" lon="0.22257">
        <ele>2440</ele>
        <time>2022-03-12T13:09:31Z</time>
      </trkpt>
      <trkpt lat="42.86322" lon="0.2226">
        <ele>2441</ele>
        <time>2022-03-12T13:09:35Z</time>
      </trkpt>
      <trkpt lat="42.86323" lon="0.22263">
        <ele>2441</ele>
        <time>2022-03-12T13:09:39Z</time>
      </trkpt>
      <trkpt lat="42.86323" lon="0.22266">
        <ele>2441</ele>
        <time>2022-03-12T13:09:43Z</time>
      </trkpt>
      <trkpt lat="42.86325" lon="0.22265">
        <ele>2443</ele>
        <time>2022-03-12T13:09:50Z</time>
      </trkpt>
      <trkpt lat="42.86326" lon="0.22263">
        <ele>2443</ele>
        <time>2022-03-12T13:09:54Z</time>
      </trkpt>
      <trkpt lat="42.86328" lon="0.22262">
        <ele>2444</ele>
        <time>2022-03-12T13:09:58Z</time>
      </trkpt>
      <trkpt lat="42.8633" lon="0.2226">
        <ele>2444</ele>
        <time>2022-03-12T13:10:01Z</time>
      </trkpt>
      <trkpt lat="42.86331" lon="0.22258">
        <ele>2444</ele>
        <time>2022-03-12T13:10:05Z</time>
      </trkpt>
      <trkpt lat="42.86333" lon="0.22255">
        <ele>2445</ele>
        <time>2022-03-12T13:10:09Z</time>
      </trkpt>
      <trkpt lat="42.86334" lon="0.22253">
        <ele>2445</ele>
        <time>2022-03-12T13:10:13Z</time>
      </trkpt>
      <trkpt lat="42.86336" lon="0.22252">
        <ele>2445</ele>
        <time>2022-03-12T13:10:16Z</time>
      </trkpt>
      <trkpt lat="42.86338" lon="0.22251">
        <ele>2446</ele>
        <time>2022-03-12T13:10:19Z</time>
      </trkpt>
      <trkpt lat="42.8634" lon="0.22252">
        <ele>2448</ele>
        <time>2022-03-12T13:10:25Z</time>
      </trkpt>
      <trkpt lat="42.86341" lon="0.22255">
        <ele>2448</ele>
        <time>2022-03-12T13:10:29Z</time>
      </trkpt>
      <trkpt lat="42.86342" lon="0.22257">
        <ele>2449</ele>
        <time>2022-03-12T13:10:32Z</time>
      </trkpt>
      <trkpt lat="42.86343" lon="0.22259">
        <ele>2449</ele>
        <time>2022-03-12T13:10:35Z</time>
      </trkpt>
      <trkpt lat="42.86344" lon="0.22261">
        <ele>2449</ele>
        <time>2022-03-12T13:10:38Z</time>
      </trkpt>
      <trkpt lat="42.86345" lon="0.22263">
        <ele>2450</ele>
        <time>2022-03-12T13:10:43Z</time>
      </trkpt>
      <trkpt lat="42.86347" lon="0.22264">
        <ele>2450</ele>
        <time>2022-03-12T13:10:50Z</time>
      </trkpt>
      <trkpt lat="42.86349" lon="0.22263">
        <ele>2450</ele>
        <time>2022-03-12T13:10:53Z</time>
      </trkpt>
      <trkpt lat="42.86351" lon="0.22261">
        <ele>2451</ele>
        <time>2022-03-12T13:10:56Z</time>
      </trkpt>
      <trkpt lat="42.86352" lon="0.22259">
        <ele>2451</ele>
        <time>2022-03-12T13:11:23Z</time>
      </trkpt>
      <trkpt lat="42.86354" lon="0.22257">
        <ele>2451</ele>
        <time>2022-03-12T13:12:04Z</time>
      </trkpt>
      <trkpt lat="42.86353" lon="0.22255">
        <ele>2452</ele>
        <time>2022-03-12T13:12:51Z</time>
      </trkpt>
      <trkpt lat="42.86355" lon="0.22253">
        <ele>2452</ele>
        <time>2022-03-12T13:12:54Z</time>
      </trkpt>
      <trkpt lat="42.86355" lon="0.2225">
        <ele>2453</ele>
        <time>2022-03-12T13:13:07Z</time>
      </trkpt>
      <trkpt lat="42.86356" lon="0.22247">
        <ele>2453</ele>
        <time>2022-03-12T13:13:11Z</time>
      </trkpt>
      <trkpt lat="42.86357" lon="0.22245">
        <ele>2453</ele>
        <time>2022-03-12T13:13:14Z</time>
      </trkpt>
      <trkpt lat="42.86358" lon="0.22243">
        <ele>2454</ele>
        <time>2022-03-12T13:13:17Z</time>
      </trkpt>
      <trkpt lat="42.86358" lon="0.2224">
        <ele>2454</ele>
        <time>2022-03-12T13:13:20Z</time>
      </trkpt>
      <trkpt lat="42.86359" lon="0.22237">
        <ele>2456</ele>
        <time>2022-03-12T13:13:24Z</time>
      </trkpt>
      <trkpt lat="42.86359" lon="0.22234">
        <ele>2456</ele>
        <time>2022-03-12T13:13:27Z</time>
      </trkpt>
      <trkpt lat="42.86359" lon="0.22231">
        <ele>2457</ele>
        <time>2022-03-12T13:13:30Z</time>
      </trkpt>
      <trkpt lat="42.8636" lon="0.22229">
        <ele>2457</ele>
        <time>2022-03-12T13:13:33Z</time>
      </trkpt>
      <trkpt lat="42.8636" lon="0.22226">
        <ele>2458</ele>
        <time>2022-03-12T13:13:36Z</time>
      </trkpt>
      <trkpt lat="42.86359" lon="0.22223">
        <ele>2458</ele>
        <time>2022-03-12T13:13:39Z</time>
      </trkpt>
      <trkpt lat="42.86359" lon="0.2222">
        <ele>2458</ele>
        <time>2022-03-12T13:13:43Z</time>
      </trkpt>
      <trkpt lat="42.86359" lon="0.22216">
        <ele>2459</ele>
        <time>2022-03-12T13:13:46Z</time>
      </trkpt>
      <trkpt lat="42.86358" lon="0.22214">
        <ele>2459</ele>
        <time>2022-03-12T13:13:49Z</time>
      </trkpt>
      <trkpt lat="42.86357" lon="0.22212">
        <ele>2459</ele>
        <time>2022-03-12T13:13:53Z</time>
      </trkpt>
      <trkpt lat="42.86356" lon="0.2221">
        <ele>2460</ele>
        <time>2022-03-12T13:13:57Z</time>
      </trkpt>
      <trkpt lat="42.86355" lon="0.22208">
        <ele>2460</ele>
        <time>2022-03-12T13:14:00Z</time>
      </trkpt>
      <trkpt lat="42.86354" lon="0.22205">
        <ele>2460</ele>
        <time>2022-03-12T13:14:03Z</time>
      </trkpt>
      <trkpt lat="42.86352" lon="0.22203">
        <ele>2461</ele>
        <time>2022-03-12T13:14:06Z</time>
      </trkpt>
      <trkpt lat="42.86351" lon="0.222">
        <ele>2462</ele>
        <time>2022-03-12T13:14:10Z</time>
      </trkpt>
      <trkpt lat="42.8635" lon="0.22198">
        <ele>2462</ele>
        <time>2022-03-12T13:14:13Z</time>
      </trkpt>
      <trkpt lat="42.86349" lon="0.22196">
        <ele>2463</ele>
        <time>2022-03-12T13:14:29Z</time>
      </trkpt>
      <trkpt lat="42.86348" lon="0.22194">
        <ele>2463</ele>
        <time>2022-03-12T13:14:32Z</time>
      </trkpt>
      <trkpt lat="42.86347" lon="0.22191">
        <ele>2464</ele>
        <time>2022-03-12T13:14:35Z</time>
      </trkpt>
      <trkpt lat="42.86347" lon="0.22189">
        <ele>2464</ele>
        <time>2022-03-12T13:14:38Z</time>
      </trkpt>
      <trkpt lat="42.86346" lon="0.22186">
        <ele>2465</ele>
        <time>2022-03-12T13:14:41Z</time>
      </trkpt>
      <trkpt lat="42.86345" lon="0.22183">
        <ele>2466</ele>
        <time>2022-03-12T13:14:44Z</time>
      </trkpt>
      <trkpt lat="42.86344" lon="0.2218">
        <ele>2466</ele>
        <time>2022-03-12T13:14:47Z</time>
      </trkpt>
      <trkpt lat="42.86343" lon="0.22177">
        <ele>2466</ele>
        <time>2022-03-12T13:14:51Z</time>
      </trkpt>
      <trkpt lat="42.86342" lon="0.22175">
        <ele>2467</ele>
        <time>2022-03-12T13:14:54Z</time>
      </trkpt>
      <trkpt lat="42.86341" lon="0.22172">
        <ele>2467</ele>
        <time>2022-03-12T13:14:58Z</time>
      </trkpt>
      <trkpt lat="42.8634" lon="0.2217">
        <ele>2467</ele>
        <time>2022-03-12T13:15:01Z</time>
      </trkpt>
      <trkpt lat="42.86339" lon="0.22168">
        <ele>2468</ele>
        <time>2022-03-12T13:15:04Z</time>
      </trkpt>
      <trkpt lat="42.86338" lon="0.22165">
        <ele>2468</ele>
        <time>2022-03-12T13:15:08Z</time>
      </trkpt>
      <trkpt lat="42.86337" lon="0.22163">
        <ele>2468</ele>
        <time>2022-03-12T13:15:12Z</time>
      </trkpt>
      <trkpt lat="42.86337" lon="0.2216">
        <ele>2469</ele>
        <time>2022-03-12T13:15:15Z</time>
      </trkpt>
      <trkpt lat="42.86338" lon="0.22158">
        <ele>2470</ele>
        <time>2022-03-12T13:15:19Z</time>
      </trkpt>
      <trkpt lat="42.86341" lon="0.22157">
        <ele>2471</ele>
        <time>2022-03-12T13:15:23Z</time>
      </trkpt>
      <trkpt lat="42.86343" lon="0.22156">
        <ele>2471</ele>
        <time>2022-03-12T13:15:26Z</time>
      </trkpt>
      <trkpt lat="42.86345" lon="0.22157">
        <ele>2471</ele>
        <time>2022-03-12T13:15:30Z</time>
      </trkpt>
      <trkpt lat="42.86347" lon="0.22156">
        <ele>2472</ele>
        <time>2022-03-12T13:15:34Z</time>
      </trkpt>
      <trkpt lat="42.86349" lon="0.22156">
        <ele>2474</ele>
        <time>2022-03-12T13:15:38Z</time>
      </trkpt>
      <trkpt lat="42.86351" lon="0.22156">
        <ele>2474</ele>
        <time>2022-03-12T13:15:42Z</time>
      </trkpt>
      <trkpt lat="42.86353" lon="0.22156">
        <ele>2475</ele>
        <time>2022-03-12T13:15:46Z</time>
      </trkpt>
      <trkpt lat="42.86355" lon="0.22156">
        <ele>2475</ele>
        <time>2022-03-12T13:15:50Z</time>
      </trkpt>
      <trkpt lat="42.86361" lon="0.22154">
        <ele>2476</ele>
        <time>2022-03-12T13:15:59Z</time>
      </trkpt>
      <trkpt lat="42.86363" lon="0.22151">
        <ele>2477</ele>
        <time>2022-03-12T13:16:05Z</time>
      </trkpt>
      <trkpt lat="42.86363" lon="0.22148">
        <ele>2477</ele>
        <time>2022-03-12T13:16:08Z</time>
      </trkpt>
      <trkpt lat="42.86363" lon="0.22145">
        <ele>2478</ele>
        <time>2022-03-12T13:16:11Z</time>
      </trkpt>
      <trkpt lat="42.86363" lon="0.22142">
        <ele>2479</ele>
        <time>2022-03-12T13:16:15Z</time>
      </trkpt>
      <trkpt lat="42.86363" lon="0.22139">
        <ele>2479</ele>
        <time>2022-03-12T13:16:19Z</time>
      </trkpt>
      <trkpt lat="42.86364" lon="0.22135">
        <ele>2480</ele>
        <time>2022-03-12T13:16:27Z</time>
      </trkpt>
      <trkpt lat="42.86365" lon="0.22133">
        <ele>2481</ele>
        <time>2022-03-12T13:16:33Z</time>
      </trkpt>
      <trkpt lat="42.86367" lon="0.22131">
        <ele>2481</ele>
        <time>2022-03-12T13:16:39Z</time>
      </trkpt>
      <trkpt lat="42.86368" lon="0.22129">
        <ele>2482</ele>
        <time>2022-03-12T13:16:44Z</time>
      </trkpt>
      <trkpt lat="42.8637" lon="0.22126">
        <ele>2483</ele>
        <time>2022-03-12T13:16:49Z</time>
      </trkpt>
      <trkpt lat="42.86372" lon="0.22125">
        <ele>2483</ele>
        <time>2022-03-12T13:16:53Z</time>
      </trkpt>
      <trkpt lat="42.86373" lon="0.22124">
        <ele>2483</ele>
        <time>2022-03-12T13:16:57Z</time>
      </trkpt>
      <trkpt lat="42.86375" lon="0.22122">
        <ele>2484</ele>
        <time>2022-03-12T13:17:01Z</time>
      </trkpt>
      <trkpt lat="42.86376" lon="0.22117">
        <ele>2486</ele>
        <time>2022-03-12T13:17:08Z</time>
      </trkpt>
      <trkpt lat="42.86378" lon="0.22115">
        <ele>2486</ele>
        <time>2022-03-12T13:17:13Z</time>
      </trkpt>
      <trkpt lat="42.8638" lon="0.22114">
        <ele>2487</ele>
        <time>2022-03-12T13:17:18Z</time>
      </trkpt>
      <trkpt lat="42.86381" lon="0.22113">
        <ele>2487</ele>
        <time>2022-03-12T13:17:24Z</time>
      </trkpt>
      <trkpt lat="42.86383" lon="0.2211">
        <ele>2488</ele>
        <time>2022-03-12T13:17:29Z</time>
      </trkpt>
      <trkpt lat="42.86384" lon="0.22108">
        <ele>2488</ele>
        <time>2022-03-12T13:17:32Z</time>
      </trkpt>
      <trkpt lat="42.86385" lon="0.22105">
        <ele>2489</ele>
        <time>2022-03-12T13:17:37Z</time>
      </trkpt>
      <trkpt lat="42.86388" lon="0.221">
        <ele>2490</ele>
        <time>2022-03-12T13:17:47Z</time>
      </trkpt>
      <trkpt lat="42.8639" lon="0.22094">
        <ele>2491</ele>
        <time>2022-03-12T13:17:58Z</time>
      </trkpt>
      <trkpt lat="42.86391" lon="0.22092">
        <ele>2492</ele>
        <time>2022-03-12T13:18:01Z</time>
      </trkpt>
      <trkpt lat="42.86392" lon="0.2209">
        <ele>2492</ele>
        <time>2022-03-12T13:18:05Z</time>
      </trkpt>
      <trkpt lat="42.86392" lon="0.22086">
        <ele>2493</ele>
        <time>2022-03-12T13:18:10Z</time>
      </trkpt>
      <trkpt lat="42.86392" lon="0.22084">
        <ele>2493</ele>
        <time>2022-03-12T13:18:15Z</time>
      </trkpt>
      <trkpt lat="42.86391" lon="0.22081">
        <ele>2494</ele>
        <time>2022-03-12T13:18:19Z</time>
      </trkpt>
      <trkpt lat="42.86391" lon="0.22078">
        <ele>2494</ele>
        <time>2022-03-12T13:18:23Z</time>
      </trkpt>
      <trkpt lat="42.8639" lon="0.22076">
        <ele>2494</ele>
        <time>2022-03-12T13:18:27Z</time>
      </trkpt>
      <trkpt lat="42.8639" lon="0.22073">
        <ele>2496</ele>
        <time>2022-03-12T13:18:31Z</time>
      </trkpt>
      <trkpt lat="42.86391" lon="0.22071">
        <ele>2498</ele>
        <time>2022-03-12T13:18:35Z</time>
      </trkpt>
      <trkpt lat="42.86393" lon="0.2207">
        <ele>2498</ele>
        <time>2022-03-12T13:18:38Z</time>
      </trkpt>
      <trkpt lat="42.86395" lon="0.2207">
        <ele>2499</ele>
        <time>2022-03-12T13:18:42Z</time>
      </trkpt>
      <trkpt lat="42.86397" lon="0.22069">
        <ele>2499</ele>
        <time>2022-03-12T13:18:46Z</time>
      </trkpt>
      <trkpt lat="42.86399" lon="0.22069">
        <ele>2500</ele>
        <time>2022-03-12T13:18:52Z</time>
      </trkpt>
      <trkpt lat="42.86401" lon="0.22069">
        <ele>2500</ele>
        <time>2022-03-12T13:18:55Z</time>
      </trkpt>
      <trkpt lat="42.86403" lon="0.2207">
        <ele>2501</ele>
        <time>2022-03-12T13:18:59Z</time>
      </trkpt>
      <trkpt lat="42.86405" lon="0.2207">
        <ele>2501</ele>
        <time>2022-03-12T13:19:03Z</time>
      </trkpt>
      <trkpt lat="42.86407" lon="0.2207">
        <ele>2502</ele>
        <time>2022-03-12T13:19:07Z</time>
      </trkpt>
      <trkpt lat="42.86413" lon="0.22071">
        <ele>2503</ele>
        <time>2022-03-12T13:19:15Z</time>
      </trkpt>
      <trkpt lat="42.86415" lon="0.22072">
        <ele>2504</ele>
        <time>2022-03-12T13:19:19Z</time>
      </trkpt>
      <trkpt lat="42.86417" lon="0.22073">
        <ele>2504</ele>
        <time>2022-03-12T13:19:23Z</time>
      </trkpt>
      <trkpt lat="42.86419" lon="0.22074">
        <ele>2504</ele>
        <time>2022-03-12T13:19:26Z</time>
      </trkpt>
      <trkpt lat="42.86422" lon="0.22076">
        <ele>2505</ele>
        <time>2022-03-12T13:19:32Z</time>
      </trkpt>
      <trkpt lat="42.86425" lon="0.22076">
        <ele>2506</ele>
        <time>2022-03-12T13:19:39Z</time>
      </trkpt>
      <trkpt lat="42.86426" lon="0.22075">
        <ele>2507</ele>
        <time>2022-03-12T13:19:55Z</time>
      </trkpt>
      <trkpt lat="42.86426" lon="0.22062">
        <ele>2510</ele>
        <time>2022-03-12T13:20:07Z</time>
      </trkpt>
      <trkpt lat="42.86427" lon="0.22058">
        <ele>2510</ele>
        <time>2022-03-12T13:20:11Z</time>
      </trkpt>
      <trkpt lat="42.86427" lon="0.22055">
        <ele>2511</ele>
        <time>2022-03-12T13:20:16Z</time>
      </trkpt>
      <trkpt lat="42.86428" lon="0.22053">
        <ele>2512</ele>
        <time>2022-03-12T13:20:20Z</time>
      </trkpt>
      <trkpt lat="42.86428" lon="0.2205">
        <ele>2512</ele>
        <time>2022-03-12T13:20:23Z</time>
      </trkpt>
      <trkpt lat="42.86428" lon="0.22047">
        <ele>2513</ele>
        <time>2022-03-12T13:20:27Z</time>
      </trkpt>
      <trkpt lat="42.86427" lon="0.22043">
        <ele>2514</ele>
        <time>2022-03-12T13:20:32Z</time>
      </trkpt>
      <trkpt lat="42.86428" lon="0.22041">
        <ele>2515</ele>
        <time>2022-03-12T13:20:35Z</time>
      </trkpt>
      <trkpt lat="42.86429" lon="0.2204">
        <ele>2515</ele>
        <time>2022-03-12T13:20:38Z</time>
      </trkpt>
      <trkpt lat="42.86431" lon="0.22039">
        <ele>2515</ele>
        <time>2022-03-12T13:20:43Z</time>
      </trkpt>
      <trkpt lat="42.86433" lon="0.2204">
        <ele>2515</ele>
        <time>2022-03-12T13:20:48Z</time>
      </trkpt>
      <trkpt lat="42.86435" lon="0.22041">
        <ele>2516</ele>
        <time>2022-03-12T13:20:52Z</time>
      </trkpt>
      <trkpt lat="42.86437" lon="0.22041">
        <ele>2516</ele>
        <time>2022-03-12T13:20:56Z</time>
      </trkpt>
      <trkpt lat="42.86439" lon="0.22042">
        <ele>2517</ele>
        <time>2022-03-12T13:21:00Z</time>
      </trkpt>
      <trkpt lat="42.86441" lon="0.22042">
        <ele>2517</ele>
        <time>2022-03-12T13:21:03Z</time>
      </trkpt>
      <trkpt lat="42.86443" lon="0.22042">
        <ele>2517</ele>
        <time>2022-03-12T13:21:06Z</time>
      </trkpt>
      <trkpt lat="42.86445" lon="0.22042">
        <ele>2518</ele>
        <time>2022-03-12T13:21:09Z</time>
      </trkpt>
      <trkpt lat="42.86448" lon="0.22042">
        <ele>2518</ele>
        <time>2022-03-12T13:21:13Z</time>
      </trkpt>
      <trkpt lat="42.86449" lon="0.22042">
        <ele>2519</ele>
        <time>2022-03-12T13:21:16Z</time>
      </trkpt>
      <trkpt lat="42.86452" lon="0.22042">
        <ele>2519</ele>
        <time>2022-03-12T13:21:20Z</time>
      </trkpt>
      <trkpt lat="42.86454" lon="0.22042">
        <ele>2519</ele>
        <time>2022-03-12T13:21:24Z</time>
      </trkpt>
      <trkpt lat="42.86456" lon="0.22041">
        <ele>2519</ele>
        <time>2022-03-12T13:21:27Z</time>
      </trkpt>
      <trkpt lat="42.86458" lon="0.22041">
        <ele>2520</ele>
        <time>2022-03-12T13:21:30Z</time>
      </trkpt>
      <trkpt lat="42.8646" lon="0.2204">
        <ele>2520</ele>
        <time>2022-03-12T13:21:34Z</time>
      </trkpt>
      <trkpt lat="42.86462" lon="0.2204">
        <ele>2522</ele>
        <time>2022-03-12T13:21:37Z</time>
      </trkpt>
      <trkpt lat="42.86464" lon="0.2204">
        <ele>2522</ele>
        <time>2022-03-12T13:21:41Z</time>
      </trkpt>
      <trkpt lat="42.86466" lon="0.22039">
        <ele>2523</ele>
        <time>2022-03-12T13:21:44Z</time>
      </trkpt>
      <trkpt lat="42.86468" lon="0.22038">
        <ele>2524</ele>
        <time>2022-03-12T13:21:52Z</time>
      </trkpt>
      <trkpt lat="42.8647" lon="0.22037">
        <ele>2524</ele>
        <time>2022-03-12T13:21:55Z</time>
      </trkpt>
      <trkpt lat="42.86472" lon="0.22036">
        <ele>2524</ele>
        <time>2022-03-12T13:21:58Z</time>
      </trkpt>
      <trkpt lat="42.86474" lon="0.22035">
        <ele>2524</ele>
        <time>2022-03-12T13:22:01Z</time>
      </trkpt>
      <trkpt lat="42.86475" lon="0.22033">
        <ele>2524</ele>
        <time>2022-03-12T13:22:04Z</time>
      </trkpt>
      <trkpt lat="42.86477" lon="0.22032">
        <ele>2525</ele>
        <time>2022-03-12T13:22:07Z</time>
      </trkpt>
      <trkpt lat="42.86478" lon="0.2203">
        <ele>2525</ele>
        <time>2022-03-12T13:22:10Z</time>
      </trkpt>
      <trkpt lat="42.8648" lon="0.22029">
        <ele>2525</ele>
        <time>2022-03-12T13:22:13Z</time>
      </trkpt>
      <trkpt lat="42.86481" lon="0.22027">
        <ele>2525</ele>
        <time>2022-03-12T13:22:16Z</time>
      </trkpt>
      <trkpt lat="42.86483" lon="0.22025">
        <ele>2526</ele>
        <time>2022-03-12T13:22:19Z</time>
      </trkpt>
      <trkpt lat="42.86485" lon="0.22024">
        <ele>2526</ele>
        <time>2022-03-12T13:22:22Z</time>
      </trkpt>
      <trkpt lat="42.86486" lon="0.22022">
        <ele>2526</ele>
        <time>2022-03-12T13:22:25Z</time>
      </trkpt>
      <trkpt lat="42.86488" lon="0.2202">
        <ele>2526</ele>
        <time>2022-03-12T13:22:29Z</time>
      </trkpt>
      <trkpt lat="42.8649" lon="0.22019">
        <ele>2527</ele>
        <time>2022-03-12T13:22:32Z</time>
      </trkpt>
      <trkpt lat="42.86491" lon="0.22017">
        <ele>2527</ele>
        <time>2022-03-12T13:22:35Z</time>
      </trkpt>
      <trkpt lat="42.86493" lon="0.22015">
        <ele>2527</ele>
        <time>2022-03-12T13:22:38Z</time>
      </trkpt>
      <trkpt lat="42.86495" lon="0.22013">
        <ele>2527</ele>
        <time>2022-03-12T13:22:41Z</time>
      </trkpt>
      <trkpt lat="42.86497" lon="0.22011">
        <ele>2528</ele>
        <time>2022-03-12T13:22:45Z</time>
      </trkpt>
      <trkpt lat="42.86499" lon="0.2201">
        <ele>2529</ele>
        <time>2022-03-12T13:22:49Z</time>
      </trkpt>
      <trkpt lat="42.86499" lon="0.22007">
        <ele>2528</ele>
        <time>2022-03-12T13:23:36Z</time>
      </trkpt>
      <trkpt lat="42.86497" lon="0.22008">
        <ele>2529</ele>
        <time>2022-03-12T13:24:15Z</time>
      </trkpt>
      <trkpt lat="42.86499" lon="0.22008">
        <ele>2529</ele>
        <time>2022-03-12T13:24:43Z</time>
      </trkpt>
      <trkpt lat="42.86501" lon="0.22007">
        <ele>2529</ele>
        <time>2022-03-12T13:24:58Z</time>
      </trkpt>
      <trkpt lat="42.86502" lon="0.22006">
        <ele>2530</ele>
        <time>2022-03-12T13:25:01Z</time>
      </trkpt>
      <trkpt lat="42.86505" lon="0.22005">
        <ele>2530</ele>
        <time>2022-03-12T13:25:04Z</time>
      </trkpt>
      <trkpt lat="42.86507" lon="0.22003">
        <ele>2530</ele>
        <time>2022-03-12T13:25:07Z</time>
      </trkpt>
      <trkpt lat="42.86509" lon="0.22002">
        <ele>2531</ele>
        <time>2022-03-12T13:25:10Z</time>
      </trkpt>
      <trkpt lat="42.86511" lon="0.22001">
        <ele>2531</ele>
        <time>2022-03-12T13:25:13Z</time>
      </trkpt>
      <trkpt lat="42.86513" lon="0.22">
        <ele>2532</ele>
        <time>2022-03-12T13:25:16Z</time>
      </trkpt>
      <trkpt lat="42.86515" lon="0.21999">
        <ele>2533</ele>
        <time>2022-03-12T13:25:19Z</time>
      </trkpt>
      <trkpt lat="42.86517" lon="0.21998">
        <ele>2533</ele>
        <time>2022-03-12T13:25:22Z</time>
      </trkpt>
      <trkpt lat="42.86519" lon="0.21997">
        <ele>2533</ele>
        <time>2022-03-12T13:25:26Z</time>
      </trkpt>
      <trkpt lat="42.8652" lon="0.21994">
        <ele>2535</ele>
        <time>2022-03-12T13:25:33Z</time>
      </trkpt>
      <trkpt lat="42.86523" lon="0.21993">
        <ele>2536</ele>
        <time>2022-03-12T13:25:36Z</time>
      </trkpt>
      <trkpt lat="42.86525" lon="0.21992">
        <ele>2536</ele>
        <time>2022-03-12T13:25:39Z</time>
      </trkpt>
      <trkpt lat="42.86527" lon="0.21991">
        <ele>2536</ele>
        <time>2022-03-12T13:25:42Z</time>
      </trkpt>
      <trkpt lat="42.86529" lon="0.2199">
        <ele>2537</ele>
        <time>2022-03-12T13:25:45Z</time>
      </trkpt>
      <trkpt lat="42.86531" lon="0.2199">
        <ele>2537</ele>
        <time>2022-03-12T13:25:48Z</time>
      </trkpt>
      <trkpt lat="42.86533" lon="0.21989">
        <ele>2536</ele>
        <time>2022-03-12T13:25:54Z</time>
      </trkpt>
      <trkpt lat="42.86535" lon="0.21987">
        <ele>2537</ele>
        <time>2022-03-12T13:25:57Z</time>
      </trkpt>
      <trkpt lat="42.86536" lon="0.21986">
        <ele>2538</ele>
        <time>2022-03-12T13:26:02Z</time>
      </trkpt>
      <trkpt lat="42.86538" lon="0.21985">
        <ele>2538</ele>
        <time>2022-03-12T13:26:05Z</time>
      </trkpt>
      <trkpt lat="42.8654" lon="0.21984">
        <ele>2538</ele>
        <time>2022-03-12T13:26:08Z</time>
      </trkpt>
      <trkpt lat="42.86543" lon="0.21983">
        <ele>2540</ele>
        <time>2022-03-12T13:26:11Z</time>
      </trkpt>
      <trkpt lat="42.86545" lon="0.21982">
        <ele>2539</ele>
        <time>2022-03-12T13:26:14Z</time>
      </trkpt>
      <trkpt lat="42.86547" lon="0.21981">
        <ele>2540</ele>
        <time>2022-03-12T13:26:16Z</time>
      </trkpt>
      <trkpt lat="42.86549" lon="0.21979">
        <ele>2539</ele>
        <time>2022-03-12T13:26:19Z</time>
      </trkpt>
      <trkpt lat="42.86551" lon="0.21978">
        <ele>2541</ele>
        <time>2022-03-12T13:26:22Z</time>
      </trkpt>
      <trkpt lat="42.86553" lon="0.21977">
        <ele>2541</ele>
        <time>2022-03-12T13:26:25Z</time>
      </trkpt>
      <trkpt lat="42.86555" lon="0.21975">
        <ele>2540</ele>
        <time>2022-03-12T13:26:28Z</time>
      </trkpt>
      <trkpt lat="42.86557" lon="0.21975">
        <ele>2540</ele>
        <time>2022-03-12T13:26:31Z</time>
      </trkpt>
      <trkpt lat="42.8656" lon="0.21973">
        <ele>2539</ele>
        <time>2022-03-12T13:26:34Z</time>
      </trkpt>
      <trkpt lat="42.86562" lon="0.21972">
        <ele>2541</ele>
        <time>2022-03-12T13:26:37Z</time>
      </trkpt>
      <trkpt lat="42.86564" lon="0.21971">
        <ele>2541</ele>
        <time>2022-03-12T13:26:40Z</time>
      </trkpt>
      <trkpt lat="42.86567" lon="0.2197">
        <ele>2542</ele>
        <time>2022-03-12T13:26:43Z</time>
      </trkpt>
      <trkpt lat="42.86569" lon="0.2197">
        <ele>2542</ele>
        <time>2022-03-12T13:26:45Z</time>
      </trkpt>
      <trkpt lat="42.86571" lon="0.2197">
        <ele>2542</ele>
        <time>2022-03-12T13:26:48Z</time>
      </trkpt>
      <trkpt lat="42.86574" lon="0.21969">
        <ele>2542</ele>
        <time>2022-03-12T13:26:51Z</time>
      </trkpt>
      <trkpt lat="42.86576" lon="0.21969">
        <ele>2542</ele>
        <time>2022-03-12T13:26:54Z</time>
      </trkpt>
      <trkpt lat="42.86578" lon="0.21969">
        <ele>2542</ele>
        <time>2022-03-12T13:26:57Z</time>
      </trkpt>
      <trkpt lat="42.86581" lon="0.21969">
        <ele>2542</ele>
        <time>2022-03-12T13:27:00Z</time>
      </trkpt>
      <trkpt lat="42.86583" lon="0.21969">
        <ele>2543</ele>
        <time>2022-03-12T13:27:35Z</time>
      </trkpt>
      <trkpt lat="42.86585" lon="0.21969">
        <ele>2543</ele>
        <time>2022-03-12T13:27:38Z</time>
      </trkpt>
      <trkpt lat="42.86588" lon="0.21968">
        <ele>2543</ele>
        <time>2022-03-12T13:27:41Z</time>
      </trkpt>
      <trkpt lat="42.8659" lon="0.21968">
        <ele>2544</ele>
        <time>2022-03-12T13:27:44Z</time>
      </trkpt>
      <trkpt lat="42.86592" lon="0.21967">
        <ele>2544</ele>
        <time>2022-03-12T13:27:47Z</time>
      </trkpt>
      <trkpt lat="42.86594" lon="0.21966">
        <ele>2544</ele>
        <time>2022-03-12T13:27:50Z</time>
      </trkpt>
      <trkpt lat="42.86596" lon="0.21965">
        <ele>2544</ele>
        <time>2022-03-12T13:27:52Z</time>
      </trkpt>
      <trkpt lat="42.86598" lon="0.21964">
        <ele>2545</ele>
        <time>2022-03-12T13:27:55Z</time>
      </trkpt>
      <trkpt lat="42.866" lon="0.21962">
        <ele>2547</ele>
        <time>2022-03-12T13:27:58Z</time>
      </trkpt>
      <trkpt lat="42.86602" lon="0.21961">
        <ele>2547</ele>
        <time>2022-03-12T13:28:01Z</time>
      </trkpt>
      <trkpt lat="42.86604" lon="0.2196">
        <ele>2547</ele>
        <time>2022-03-12T13:28:03Z</time>
      </trkpt>
      <trkpt lat="42.86606" lon="0.21958">
        <ele>2547</ele>
        <time>2022-03-12T13:28:06Z</time>
      </trkpt>
      <trkpt lat="42.86608" lon="0.21957">
        <ele>2547</ele>
        <time>2022-03-12T13:28:09Z</time>
      </trkpt>
      <trkpt lat="42.8661" lon="0.21955">
        <ele>2548</ele>
        <time>2022-03-12T13:28:12Z</time>
      </trkpt>
      <trkpt lat="42.86612" lon="0.21953">
        <ele>2548</ele>
        <time>2022-03-12T13:28:15Z</time>
      </trkpt>
      <trkpt lat="42.86614" lon="0.21952">
        <ele>2548</ele>
        <time>2022-03-12T13:28:18Z</time>
      </trkpt>
      <trkpt lat="42.86616" lon="0.2195">
        <ele>2548</ele>
        <time>2022-03-12T13:28:21Z</time>
      </trkpt>
      <trkpt lat="42.86617" lon="0.21948">
        <ele>2549</ele>
        <time>2022-03-12T13:28:24Z</time>
      </trkpt>
      <trkpt lat="42.86619" lon="0.21946">
        <ele>2549</ele>
        <time>2022-03-12T13:28:27Z</time>
      </trkpt>
      <trkpt lat="42.86621" lon="0.21945">
        <ele>2550</ele>
        <time>2022-03-12T13:28:30Z</time>
      </trkpt>
      <trkpt lat="42.86622" lon="0.21943">
        <ele>2551</ele>
        <time>2022-03-12T13:28:33Z</time>
      </trkpt>
      <trkpt lat="42.86624" lon="0.2194">
        <ele>2551</ele>
        <time>2022-03-12T13:28:36Z</time>
      </trkpt>
      <trkpt lat="42.86626" lon="0.21938">
        <ele>2552</ele>
        <time>2022-03-12T13:28:39Z</time>
      </trkpt>
      <trkpt lat="42.86627" lon="0.21936">
        <ele>2552</ele>
        <time>2022-03-12T13:28:42Z</time>
      </trkpt>
      <trkpt lat="42.86628" lon="0.21934">
        <ele>2553</ele>
        <time>2022-03-12T13:28:45Z</time>
      </trkpt>
      <trkpt lat="42.8663" lon="0.21932">
        <ele>2553</ele>
        <time>2022-03-12T13:28:48Z</time>
      </trkpt>
      <trkpt lat="42.86631" lon="0.2193">
        <ele>2553</ele>
        <time>2022-03-12T13:28:51Z</time>
      </trkpt>
      <trkpt lat="42.86632" lon="0.21928">
        <ele>2553</ele>
        <time>2022-03-12T13:28:54Z</time>
      </trkpt>
      <trkpt lat="42.86634" lon="0.21926">
        <ele>2553</ele>
        <time>2022-03-12T13:28:57Z</time>
      </trkpt>
      <trkpt lat="42.86635" lon="0.21923">
        <ele>2553</ele>
        <time>2022-03-12T13:29:00Z</time>
      </trkpt>
      <trkpt lat="42.86636" lon="0.21921">
        <ele>2553</ele>
        <time>2022-03-12T13:29:03Z</time>
      </trkpt>
      <trkpt lat="42.86637" lon="0.21919">
        <ele>2554</ele>
        <time>2022-03-12T13:29:07Z</time>
      </trkpt>
      <trkpt lat="42.86637" lon="0.21917">
        <ele>2554</ele>
        <time>2022-03-12T13:29:12Z</time>
      </trkpt>
      <trkpt lat="42.86638" lon="0.21914">
        <ele>2555</ele>
        <time>2022-03-12T13:29:15Z</time>
      </trkpt>
      <trkpt lat="42.8664" lon="0.21911">
        <ele>2555</ele>
        <time>2022-03-12T13:29:19Z</time>
      </trkpt>
      <trkpt lat="42.8664" lon="0.21909">
        <ele>2556</ele>
        <time>2022-03-12T13:29:22Z</time>
      </trkpt>
      <trkpt lat="42.86641" lon="0.21907">
        <ele>2556</ele>
        <time>2022-03-12T13:29:25Z</time>
      </trkpt>
      <trkpt lat="42.86641" lon="0.21903">
        <ele>2557</ele>
        <time>2022-03-12T13:29:29Z</time>
      </trkpt>
      <trkpt lat="42.86642" lon="0.219">
        <ele>2557</ele>
        <time>2022-03-12T13:29:33Z</time>
      </trkpt>
      <trkpt lat="42.86642" lon="0.21897">
        <ele>2559</ele>
        <time>2022-03-12T13:29:37Z</time>
      </trkpt>
      <trkpt lat="42.86643" lon="0.21894">
        <ele>2559</ele>
        <time>2022-03-12T13:29:40Z</time>
      </trkpt>
      <trkpt lat="42.86644" lon="0.21894">
        <ele>2559</ele>
        <time>2022-03-12T13:29:44Z</time>
      </trkpt>
      <trkpt lat="42.86646" lon="0.21895">
        <ele>2560</ele>
        <time>2022-03-12T13:29:47Z</time>
      </trkpt>
      <trkpt lat="42.86648" lon="0.21896">
        <ele>2560</ele>
        <time>2022-03-12T13:29:51Z</time>
      </trkpt>
      <trkpt lat="42.8665" lon="0.21897">
        <ele>2561</ele>
        <time>2022-03-12T13:29:54Z</time>
      </trkpt>
      <trkpt lat="42.86652" lon="0.21899">
        <ele>2562</ele>
        <time>2022-03-12T13:29:58Z</time>
      </trkpt>
      <trkpt lat="42.86653" lon="0.21901">
        <ele>2562</ele>
        <time>2022-03-12T13:30:02Z</time>
      </trkpt>
      <trkpt lat="42.86655" lon="0.21903">
        <ele>2562</ele>
        <time>2022-03-12T13:30:06Z</time>
      </trkpt>
      <trkpt lat="42.86656" lon="0.21905">
        <ele>2563</ele>
        <time>2022-03-12T13:30:10Z</time>
      </trkpt>
      <trkpt lat="42.86658" lon="0.21906">
        <ele>2563</ele>
        <time>2022-03-12T13:30:14Z</time>
      </trkpt>
      <trkpt lat="42.8666" lon="0.21905">
        <ele>2565</ele>
        <time>2022-03-12T13:30:18Z</time>
      </trkpt>
      <trkpt lat="42.86661" lon="0.21903">
        <ele>2565</ele>
        <time>2022-03-12T13:30:22Z</time>
      </trkpt>
      <trkpt lat="42.86661" lon="0.219">
        <ele>2566</ele>
        <time>2022-03-12T13:30:39Z</time>
      </trkpt>
      <trkpt lat="42.86661" lon="0.21897">
        <ele>2567</ele>
        <time>2022-03-12T13:30:42Z</time>
      </trkpt>
      <trkpt lat="42.86662" lon="0.21894">
        <ele>2567</ele>
        <time>2022-03-12T13:30:45Z</time>
      </trkpt>
      <trkpt lat="42.86662" lon="0.21892">
        <ele>2568</ele>
        <time>2022-03-12T13:30:48Z</time>
      </trkpt>
      <trkpt lat="42.86663" lon="0.21889">
        <ele>2568</ele>
        <time>2022-03-12T13:30:51Z</time>
      </trkpt>
      <trkpt lat="42.86665" lon="0.21887">
        <ele>2569</ele>
        <time>2022-03-12T13:30:54Z</time>
      </trkpt>
      <trkpt lat="42.86667" lon="0.21887">
        <ele>2569</ele>
        <time>2022-03-12T13:30:58Z</time>
      </trkpt>
      <trkpt lat="42.86669" lon="0.21886">
        <ele>2571</ele>
        <time>2022-03-12T13:31:03Z</time>
      </trkpt>
      <trkpt lat="42.86671" lon="0.21885">
        <ele>2571</ele>
        <time>2022-03-12T13:31:07Z</time>
      </trkpt>
      <trkpt lat="42.86673" lon="0.21883">
        <ele>2573</ele>
        <time>2022-03-12T13:31:11Z</time>
      </trkpt>
      <trkpt lat="42.86673" lon="0.21881">
        <ele>2574</ele>
        <time>2022-03-12T13:31:14Z</time>
      </trkpt>
      <trkpt lat="42.86674" lon="0.21878">
        <ele>2573</ele>
        <time>2022-03-12T13:31:17Z</time>
      </trkpt>
      <trkpt lat="42.86675" lon="0.21876">
        <ele>2573</ele>
        <time>2022-03-12T13:31:21Z</time>
      </trkpt>
      <trkpt lat="42.86676" lon="0.21873">
        <ele>2573</ele>
        <time>2022-03-12T13:31:25Z</time>
      </trkpt>
      <trkpt lat="42.86676" lon="0.2187">
        <ele>2573</ele>
        <time>2022-03-12T13:31:28Z</time>
      </trkpt>
      <trkpt lat="42.86677" lon="0.21868">
        <ele>2574</ele>
        <time>2022-03-12T13:31:31Z</time>
      </trkpt>
      <trkpt lat="42.86677" lon="0.21865">
        <ele>2574</ele>
        <time>2022-03-12T13:31:34Z</time>
      </trkpt>
      <trkpt lat="42.86678" lon="0.21862">
        <ele>2576</ele>
        <time>2022-03-12T13:31:37Z</time>
      </trkpt>
      <trkpt lat="42.86678" lon="0.2186">
        <ele>2576</ele>
        <time>2022-03-12T13:31:40Z</time>
      </trkpt>
      <trkpt lat="42.86679" lon="0.21857">
        <ele>2576</ele>
        <time>2022-03-12T13:31:44Z</time>
      </trkpt>
      <trkpt lat="42.8668" lon="0.21854">
        <ele>2577</ele>
        <time>2022-03-12T13:31:48Z</time>
      </trkpt>
      <trkpt lat="42.8668" lon="0.21851">
        <ele>2576</ele>
        <time>2022-03-12T13:31:52Z</time>
      </trkpt>
      <trkpt lat="42.8668" lon="0.21849">
        <ele>2576</ele>
        <time>2022-03-12T13:31:55Z</time>
      </trkpt>
      <trkpt lat="42.86681" lon="0.21846">
        <ele>2576</ele>
        <time>2022-03-12T13:31:58Z</time>
      </trkpt>
      <trkpt lat="42.86681" lon="0.21843">
        <ele>2577</ele>
        <time>2022-03-12T13:32:02Z</time>
      </trkpt>
      <trkpt lat="42.86681" lon="0.21841">
        <ele>2577</ele>
        <time>2022-03-12T13:32:06Z</time>
      </trkpt>
      <trkpt lat="42.86682" lon="0.21837">
        <ele>2578</ele>
        <time>2022-03-12T13:32:10Z</time>
      </trkpt>
      <trkpt lat="42.86682" lon="0.21835">
        <ele>2579</ele>
        <time>2022-03-12T13:32:14Z</time>
      </trkpt>
      <trkpt lat="42.86682" lon="0.21831">
        <ele>2580</ele>
        <time>2022-03-12T13:32:18Z</time>
      </trkpt>
      <trkpt lat="42.86682" lon="0.21829">
        <ele>2580</ele>
        <time>2022-03-12T13:32:21Z</time>
      </trkpt>
      <trkpt lat="42.86682" lon="0.21826">
        <ele>2580</ele>
        <time>2022-03-12T13:32:25Z</time>
      </trkpt>
      <trkpt lat="42.86682" lon="0.21823">
        <ele>2580</ele>
        <time>2022-03-12T13:32:29Z</time>
      </trkpt>
      <trkpt lat="42.86682" lon="0.2182">
        <ele>2583</ele>
        <time>2022-03-12T13:32:33Z</time>
      </trkpt>
      <trkpt lat="42.86683" lon="0.21816">
        <ele>2584</ele>
        <time>2022-03-12T13:32:37Z</time>
      </trkpt>
      <trkpt lat="42.86684" lon="0.21814">
        <ele>2583</ele>
        <time>2022-03-12T13:32:40Z</time>
      </trkpt>
      <trkpt lat="42.86685" lon="0.21812">
        <ele>2583</ele>
        <time>2022-03-12T13:32:43Z</time>
      </trkpt>
      <trkpt lat="42.86687" lon="0.2181">
        <ele>2581</ele>
        <time>2022-03-12T13:32:47Z</time>
      </trkpt>
      <trkpt lat="42.86689" lon="0.21809">
        <ele>2584</ele>
        <time>2022-03-12T13:32:50Z</time>
      </trkpt>
      <trkpt lat="42.86691" lon="0.21808">
        <ele>2584</ele>
        <time>2022-03-12T13:32:54Z</time>
      </trkpt>
      <trkpt lat="42.86693" lon="0.21807">
        <ele>2584</ele>
        <time>2022-03-12T13:32:58Z</time>
      </trkpt>
      <trkpt lat="42.86695" lon="0.21806">
        <ele>2584</ele>
        <time>2022-03-12T13:33:02Z</time>
      </trkpt>
      <trkpt lat="42.86697" lon="0.21806">
        <ele>2585</ele>
        <time>2022-03-12T13:33:06Z</time>
      </trkpt>
      <trkpt lat="42.86699" lon="0.21807">
        <ele>2586</ele>
        <time>2022-03-12T13:33:10Z</time>
      </trkpt>
      <trkpt lat="42.86701" lon="0.21807">
        <ele>2586</ele>
        <time>2022-03-12T13:33:13Z</time>
      </trkpt>
      <trkpt lat="42.86702" lon="0.21807">
        <ele>2587</ele>
        <time>2022-03-12T13:33:16Z</time>
      </trkpt>
      <trkpt lat="42.86704" lon="0.21808">
        <ele>2587</ele>
        <time>2022-03-12T13:33:19Z</time>
      </trkpt>
      <trkpt lat="42.86707" lon="0.21809">
        <ele>2587</ele>
        <time>2022-03-12T13:33:23Z</time>
      </trkpt>
      <trkpt lat="42.86709" lon="0.21809">
        <ele>2588</ele>
        <time>2022-03-12T13:33:26Z</time>
      </trkpt>
      <trkpt lat="42.86711" lon="0.2181">
        <ele>2589</ele>
        <time>2022-03-12T13:33:30Z</time>
      </trkpt>
      <trkpt lat="42.86713" lon="0.21811">
        <ele>2590</ele>
        <time>2022-03-12T13:33:34Z</time>
      </trkpt>
      <trkpt lat="42.86715" lon="0.21812">
        <ele>2591</ele>
        <time>2022-03-12T13:33:37Z</time>
      </trkpt>
      <trkpt lat="42.86717" lon="0.21813">
        <ele>2591</ele>
        <time>2022-03-12T13:33:40Z</time>
      </trkpt>
      <trkpt lat="42.86718" lon="0.21814">
        <ele>2591</ele>
        <time>2022-03-12T13:33:43Z</time>
      </trkpt>
      <trkpt lat="42.8672" lon="0.21815">
        <ele>2592</ele>
        <time>2022-03-12T13:33:47Z</time>
      </trkpt>
      <trkpt lat="42.86722" lon="0.21817">
        <ele>2593</ele>
        <time>2022-03-12T13:33:51Z</time>
      </trkpt>
      <trkpt lat="42.86724" lon="0.21818">
        <ele>2593</ele>
        <time>2022-03-12T13:33:55Z</time>
      </trkpt>
      <trkpt lat="42.86726" lon="0.21818">
        <ele>2593</ele>
        <time>2022-03-12T13:33:59Z</time>
      </trkpt>
      <trkpt lat="42.86728" lon="0.21819">
        <ele>2595</ele>
        <time>2022-03-12T13:34:02Z</time>
      </trkpt>
      <trkpt lat="42.8673" lon="0.2182">
        <ele>2595</ele>
        <time>2022-03-12T13:34:06Z</time>
      </trkpt>
      <trkpt lat="42.86732" lon="0.2182">
        <ele>2596</ele>
        <time>2022-03-12T13:34:11Z</time>
      </trkpt>
      <trkpt lat="42.86734" lon="0.21821">
        <ele>2596</ele>
        <time>2022-03-12T13:34:16Z</time>
      </trkpt>
      <trkpt lat="42.86736" lon="0.21822">
        <ele>2597</ele>
        <time>2022-03-12T13:34:20Z</time>
      </trkpt>
      <trkpt lat="42.86738" lon="0.21822">
        <ele>2597</ele>
        <time>2022-03-12T13:34:36Z</time>
      </trkpt>
      <trkpt lat="42.8674" lon="0.21823">
        <ele>2598</ele>
        <time>2022-03-12T13:34:39Z</time>
      </trkpt>
      <trkpt lat="42.86741" lon="0.21824">
        <ele>2598</ele>
        <time>2022-03-12T13:34:42Z</time>
      </trkpt>
      <trkpt lat="42.86741" lon="0.21821">
        <ele>2599</ele>
        <time>2022-03-12T13:34:50Z</time>
      </trkpt>
      <trkpt lat="42.8674" lon="0.21818">
        <ele>2598</ele>
        <time>2022-03-12T13:34:53Z</time>
      </trkpt>
      <trkpt lat="42.8674" lon="0.21816">
        <ele>2599</ele>
        <time>2022-03-12T13:34:56Z</time>
      </trkpt>
      <trkpt lat="42.86739" lon="0.21813">
        <ele>2599</ele>
        <time>2022-03-12T13:34:59Z</time>
      </trkpt>
      <trkpt lat="42.86738" lon="0.21811">
        <ele>2599</ele>
        <time>2022-03-12T13:35:02Z</time>
      </trkpt>
      <trkpt lat="42.86738" lon="0.21808">
        <ele>2600</ele>
        <time>2022-03-12T13:35:05Z</time>
      </trkpt>
      <trkpt lat="42.86737" lon="0.21806">
        <ele>2601</ele>
        <time>2022-03-12T13:35:08Z</time>
      </trkpt>
      <trkpt lat="42.86736" lon="0.21803">
        <ele>2602</ele>
        <time>2022-03-12T13:35:12Z</time>
      </trkpt>
      <trkpt lat="42.86736" lon="0.218">
        <ele>2602</ele>
        <time>2022-03-12T13:35:15Z</time>
      </trkpt>
      <trkpt lat="42.86735" lon="0.21798">
        <ele>2603</ele>
        <time>2022-03-12T13:35:18Z</time>
      </trkpt>
      <trkpt lat="42.86735" lon="0.21794">
        <ele>2604</ele>
        <time>2022-03-12T13:35:22Z</time>
      </trkpt>
      <trkpt lat="42.86734" lon="0.21792">
        <ele>2604</ele>
        <time>2022-03-12T13:35:25Z</time>
      </trkpt>
      <trkpt lat="42.86733" lon="0.21789">
        <ele>2604</ele>
        <time>2022-03-12T13:35:28Z</time>
      </trkpt>
      <trkpt lat="42.86733" lon="0.21787">
        <ele>2605</ele>
        <time>2022-03-12T13:35:31Z</time>
      </trkpt>
      <trkpt lat="42.86732" lon="0.21784">
        <ele>2605</ele>
        <time>2022-03-12T13:35:34Z</time>
      </trkpt>
      <trkpt lat="42.86732" lon="0.21782">
        <ele>2605</ele>
        <time>2022-03-12T13:35:37Z</time>
      </trkpt>
      <trkpt lat="42.86732" lon="0.21779">
        <ele>2605</ele>
        <time>2022-03-12T13:35:40Z</time>
      </trkpt>
      <trkpt lat="42.86734" lon="0.21777">
        <ele>2607</ele>
        <time>2022-03-12T13:35:43Z</time>
      </trkpt>
      <trkpt lat="42.86736" lon="0.21778">
        <ele>2609</ele>
        <time>2022-03-12T13:35:47Z</time>
      </trkpt>
      <trkpt lat="42.86738" lon="0.21779">
        <ele>2610</ele>
        <time>2022-03-12T13:35:50Z</time>
      </trkpt>
      <trkpt lat="42.86739" lon="0.21781">
        <ele>2610</ele>
        <time>2022-03-12T13:35:53Z</time>
      </trkpt>
      <trkpt lat="42.86741" lon="0.21782">
        <ele>2610</ele>
        <time>2022-03-12T13:35:57Z</time>
      </trkpt>
      <trkpt lat="42.86743" lon="0.21783">
        <ele>2610</ele>
        <time>2022-03-12T13:36:00Z</time>
      </trkpt>
      <trkpt lat="42.86745" lon="0.21784">
        <ele>2611</ele>
        <time>2022-03-12T13:36:03Z</time>
      </trkpt>
      <trkpt lat="42.86747" lon="0.21785">
        <ele>2611</ele>
        <time>2022-03-12T13:36:06Z</time>
      </trkpt>
      <trkpt lat="42.86748" lon="0.21786">
        <ele>2612</ele>
        <time>2022-03-12T13:36:09Z</time>
      </trkpt>
      <trkpt lat="42.8675" lon="0.21787">
        <ele>2612</ele>
        <time>2022-03-12T13:36:12Z</time>
      </trkpt>
      <trkpt lat="42.86752" lon="0.21788">
        <ele>2612</ele>
        <time>2022-03-12T13:36:15Z</time>
      </trkpt>
      <trkpt lat="42.86754" lon="0.21789">
        <ele>2613</ele>
        <time>2022-03-12T13:36:18Z</time>
      </trkpt>
      <trkpt lat="42.86756" lon="0.2179">
        <ele>2613</ele>
        <time>2022-03-12T13:36:21Z</time>
      </trkpt>
      <trkpt lat="42.86757" lon="0.2179">
        <ele>2613</ele>
        <time>2022-03-12T13:36:24Z</time>
      </trkpt>
      <trkpt lat="42.86759" lon="0.21791">
        <ele>2614</ele>
        <time>2022-03-12T13:36:28Z</time>
      </trkpt>
      <trkpt lat="42.86761" lon="0.21792">
        <ele>2614</ele>
        <time>2022-03-12T13:36:32Z</time>
      </trkpt>
      <trkpt lat="42.86764" lon="0.21793">
        <ele>2614</ele>
        <time>2022-03-12T13:36:36Z</time>
      </trkpt>
      <trkpt lat="42.86766" lon="0.21793">
        <ele>2614</ele>
        <time>2022-03-12T13:36:39Z</time>
      </trkpt>
      <trkpt lat="42.86767" lon="0.21793">
        <ele>2615</ele>
        <time>2022-03-12T13:36:42Z</time>
      </trkpt>
      <trkpt lat="42.8677" lon="0.21793">
        <ele>2615</ele>
        <time>2022-03-12T13:36:46Z</time>
      </trkpt>
      <trkpt lat="42.86772" lon="0.21793">
        <ele>2616</ele>
        <time>2022-03-12T13:36:49Z</time>
      </trkpt>
      <trkpt lat="42.86774" lon="0.21793">
        <ele>2616</ele>
        <time>2022-03-12T13:36:52Z</time>
      </trkpt>
      <trkpt lat="42.86776" lon="0.21793">
        <ele>2617</ele>
        <time>2022-03-12T13:36:56Z</time>
      </trkpt>
      <trkpt lat="42.86778" lon="0.21794">
        <ele>2619</ele>
        <time>2022-03-12T13:36:59Z</time>
      </trkpt>
      <trkpt lat="42.8678" lon="0.21793">
        <ele>2619</ele>
        <time>2022-03-12T13:37:03Z</time>
      </trkpt>
      <trkpt lat="42.8678" lon="0.21791">
        <ele>2619</ele>
        <time>2022-03-12T13:37:07Z</time>
      </trkpt>
      <trkpt lat="42.8678" lon="0.21787">
        <ele>2620</ele>
        <time>2022-03-12T13:37:11Z</time>
      </trkpt>
      <trkpt lat="42.86779" lon="0.21785">
        <ele>2619</ele>
        <time>2022-03-12T13:38:03Z</time>
      </trkpt>
      <trkpt lat="42.86777" lon="0.21783">
        <ele>2620</ele>
        <time>2022-03-12T13:38:50Z</time>
      </trkpt>
      <trkpt lat="42.86776" lon="0.21781">
        <ele>2621</ele>
        <time>2022-03-12T13:39:15Z</time>
      </trkpt>
      <trkpt lat="42.86776" lon="0.21778">
        <ele>2622</ele>
        <time>2022-03-12T13:39:17Z</time>
      </trkpt>
      <trkpt lat="42.86774" lon="0.21775">
        <ele>2622</ele>
        <time>2022-03-12T13:39:20Z</time>
      </trkpt>
      <trkpt lat="42.86773" lon="0.21772">
        <ele>2622</ele>
        <time>2022-03-12T13:39:23Z</time>
      </trkpt>
      <trkpt lat="42.86772" lon="0.21769">
        <ele>2623</ele>
        <time>2022-03-12T13:39:26Z</time>
      </trkpt>
      <trkpt lat="42.86771" lon="0.21766">
        <ele>2624</ele>
        <time>2022-03-12T13:39:29Z</time>
      </trkpt>
      <trkpt lat="42.86769" lon="0.21764">
        <ele>2624</ele>
        <time>2022-03-12T13:39:32Z</time>
      </trkpt>
      <trkpt lat="42.86768" lon="0.21761">
        <ele>2624</ele>
        <time>2022-03-12T13:39:35Z</time>
      </trkpt>
      <trkpt lat="42.86767" lon="0.21757">
        <ele>2625</ele>
        <time>2022-03-12T13:39:38Z</time>
      </trkpt>
      <trkpt lat="42.86765" lon="0.21754">
        <ele>2625</ele>
        <time>2022-03-12T13:39:41Z</time>
      </trkpt>
      <trkpt lat="42.86765" lon="0.21752">
        <ele>2626</ele>
        <time>2022-03-12T13:39:43Z</time>
      </trkpt>
      <trkpt lat="42.86764" lon="0.21749">
        <ele>2626</ele>
        <time>2022-03-12T13:39:46Z</time>
      </trkpt>
      <trkpt lat="42.86764" lon="0.21745">
        <ele>2626</ele>
        <time>2022-03-12T13:39:49Z</time>
      </trkpt>
      <trkpt lat="42.86764" lon="0.21742">
        <ele>2626</ele>
        <time>2022-03-12T13:39:52Z</time>
      </trkpt>
      <trkpt lat="42.86764" lon="0.21739">
        <ele>2628</ele>
        <time>2022-03-12T13:39:55Z</time>
      </trkpt>
      <trkpt lat="42.86765" lon="0.21736">
        <ele>2627</ele>
        <time>2022-03-12T13:39:58Z</time>
      </trkpt>
      <trkpt lat="42.86766" lon="0.21734">
        <ele>2628</ele>
        <time>2022-03-12T13:40:01Z</time>
      </trkpt>
      <trkpt lat="42.86767" lon="0.21733">
        <ele>2628</ele>
        <time>2022-03-12T13:40:04Z</time>
      </trkpt>
      <trkpt lat="42.86769" lon="0.21731">
        <ele>2629</ele>
        <time>2022-03-12T13:40:07Z</time>
      </trkpt>
      <trkpt lat="42.86771" lon="0.2173">
        <ele>2631</ele>
        <time>2022-03-12T13:40:11Z</time>
      </trkpt>
      <trkpt lat="42.86773" lon="0.21729">
        <ele>2631</ele>
        <time>2022-03-12T13:40:14Z</time>
      </trkpt>
      <trkpt lat="42.86775" lon="0.21728">
        <ele>2631</ele>
        <time>2022-03-12T13:40:18Z</time>
      </trkpt>
      <trkpt lat="42.86776" lon="0.21725">
        <ele>2632</ele>
        <time>2022-03-12T13:40:22Z</time>
      </trkpt>
      <trkpt lat="42.86777" lon="0.21723">
        <ele>2632</ele>
        <time>2022-03-12T13:40:25Z</time>
      </trkpt>
      <trkpt lat="42.86778" lon="0.21721">
        <ele>2632</ele>
        <time>2022-03-12T13:40:28Z</time>
      </trkpt>
      <trkpt lat="42.86778" lon="0.21718">
        <ele>2633</ele>
        <time>2022-03-12T13:40:31Z</time>
      </trkpt>
      <trkpt lat="42.86778" lon="0.21715">
        <ele>2633</ele>
        <time>2022-03-12T13:40:34Z</time>
      </trkpt>
      <trkpt lat="42.86778" lon="0.21712">
        <ele>2633</ele>
        <time>2022-03-12T13:40:37Z</time>
      </trkpt>
      <trkpt lat="42.86779" lon="0.21709">
        <ele>2633</ele>
        <time>2022-03-12T13:40:40Z</time>
      </trkpt>
      <trkpt lat="42.86779" lon="0.21706">
        <ele>2634</ele>
        <time>2022-03-12T13:40:43Z</time>
      </trkpt>
      <trkpt lat="42.8678" lon="0.21704">
        <ele>2635</ele>
        <time>2022-03-12T13:40:46Z</time>
      </trkpt>
      <trkpt lat="42.8678" lon="0.21701">
        <ele>2634</ele>
        <time>2022-03-12T13:40:49Z</time>
      </trkpt>
      <trkpt lat="42.86781" lon="0.21698">
        <ele>2635</ele>
        <time>2022-03-12T13:40:52Z</time>
      </trkpt>
      <trkpt lat="42.86781" lon="0.21696">
        <ele>2635</ele>
        <time>2022-03-12T13:40:55Z</time>
      </trkpt>
      <trkpt lat="42.86782" lon="0.21693">
        <ele>2635</ele>
        <time>2022-03-12T13:40:58Z</time>
      </trkpt>
      <trkpt lat="42.86782" lon="0.2169">
        <ele>2636</ele>
        <time>2022-03-12T13:41:01Z</time>
      </trkpt>
      <trkpt lat="42.86783" lon="0.21687">
        <ele>2635</ele>
        <time>2022-03-12T13:42:29Z</time>
      </trkpt>
      <trkpt lat="42.86784" lon="0.21684">
        <ele>2636</ele>
        <time>2022-03-12T13:42:31Z</time>
      </trkpt>
      <trkpt lat="42.86785" lon="0.21681">
        <ele>2636</ele>
        <time>2022-03-12T13:42:33Z</time>
      </trkpt>
      <trkpt lat="42.86786" lon="0.21679">
        <ele>2636</ele>
        <time>2022-03-12T13:42:35Z</time>
      </trkpt>
      <trkpt lat="42.86787" lon="0.21676">
        <ele>2636</ele>
        <time>2022-03-12T13:42:37Z</time>
      </trkpt>
      <trkpt lat="42.86788" lon="0.21674">
        <ele>2636</ele>
        <time>2022-03-12T13:42:39Z</time>
      </trkpt>
      <trkpt lat="42.86789" lon="0.21671">
        <ele>2637</ele>
        <time>2022-03-12T13:42:42Z</time>
      </trkpt>
      <trkpt lat="42.8679" lon="0.21669">
        <ele>2638</ele>
        <time>2022-03-12T13:42:44Z</time>
      </trkpt>
      <trkpt lat="42.86791" lon="0.21666">
        <ele>2638</ele>
        <time>2022-03-12T13:42:47Z</time>
      </trkpt>
      <trkpt lat="42.86793" lon="0.21662">
        <ele>2639</ele>
        <time>2022-03-12T13:42:50Z</time>
      </trkpt>
      <trkpt lat="42.86794" lon="0.2166">
        <ele>2639</ele>
        <time>2022-03-12T13:42:53Z</time>
      </trkpt>
      <trkpt lat="42.86795" lon="0.21657">
        <ele>2640</ele>
        <time>2022-03-12T13:42:56Z</time>
      </trkpt>
      <trkpt lat="42.86796" lon="0.21654">
        <ele>2641</ele>
        <time>2022-03-12T13:42:59Z</time>
      </trkpt>
      <trkpt lat="42.86797" lon="0.21652">
        <ele>2641</ele>
        <time>2022-03-12T13:43:02Z</time>
      </trkpt>
      <trkpt lat="42.86798" lon="0.2165">
        <ele>2641</ele>
        <time>2022-03-12T13:43:05Z</time>
      </trkpt>
      <trkpt lat="42.86798" lon="0.21647">
        <ele>2641</ele>
        <time>2022-03-12T13:43:08Z</time>
      </trkpt>
      <trkpt lat="42.868" lon="0.21645">
        <ele>2642</ele>
        <time>2022-03-12T13:43:11Z</time>
      </trkpt>
      <trkpt lat="42.86801" lon="0.21643">
        <ele>2642</ele>
        <time>2022-03-12T13:43:14Z</time>
      </trkpt>
      <trkpt lat="42.86802" lon="0.21641">
        <ele>2644</ele>
        <time>2022-03-12T13:43:17Z</time>
      </trkpt>
      <trkpt lat="42.86803" lon="0.21638">
        <ele>2644</ele>
        <time>2022-03-12T13:43:20Z</time>
      </trkpt>
      <trkpt lat="42.86804" lon="0.21636">
        <ele>2645</ele>
        <time>2022-03-12T13:43:23Z</time>
      </trkpt>
      <trkpt lat="42.86805" lon="0.21633">
        <ele>2645</ele>
        <time>2022-03-12T13:43:27Z</time>
      </trkpt>
      <trkpt lat="42.86805" lon="0.2163">
        <ele>2646</ele>
        <time>2022-03-12T13:43:30Z</time>
      </trkpt>
      <trkpt lat="42.86806" lon="0.21628">
        <ele>2646</ele>
        <time>2022-03-12T13:43:33Z</time>
      </trkpt>
      <trkpt lat="42.86807" lon="0.21625">
        <ele>2647</ele>
        <time>2022-03-12T13:43:36Z</time>
      </trkpt>
      <trkpt lat="42.86807" lon="0.21623">
        <ele>2647</ele>
        <time>2022-03-12T13:43:39Z</time>
      </trkpt>
      <trkpt lat="42.86808" lon="0.2162">
        <ele>2647</ele>
        <time>2022-03-12T13:43:42Z</time>
      </trkpt>
      <trkpt lat="42.86809" lon="0.21618">
        <ele>2648</ele>
        <time>2022-03-12T13:43:45Z</time>
      </trkpt>
      <trkpt lat="42.86809" lon="0.21615">
        <ele>2649</ele>
        <time>2022-03-12T13:43:48Z</time>
      </trkpt>
      <trkpt lat="42.8681" lon="0.21613">
        <ele>2649</ele>
        <time>2022-03-12T13:43:51Z</time>
      </trkpt>
      <trkpt lat="42.86811" lon="0.2161">
        <ele>2650</ele>
        <time>2022-03-12T13:43:54Z</time>
      </trkpt>
      <trkpt lat="42.86811" lon="0.21607">
        <ele>2650</ele>
        <time>2022-03-12T13:43:57Z</time>
      </trkpt>
      <trkpt lat="42.86812" lon="0.21605">
        <ele>2650</ele>
        <time>2022-03-12T13:44:00Z</time>
      </trkpt>
      <trkpt lat="42.86813" lon="0.21602">
        <ele>2651</ele>
        <time>2022-03-12T13:44:03Z</time>
      </trkpt>
      <trkpt lat="42.86813" lon="0.216">
        <ele>2651</ele>
        <time>2022-03-12T13:44:06Z</time>
      </trkpt>
      <trkpt lat="42.86814" lon="0.21597">
        <ele>2652</ele>
        <time>2022-03-12T13:44:09Z</time>
      </trkpt>
      <trkpt lat="42.86814" lon="0.21595">
        <ele>2653</ele>
        <time>2022-03-12T13:44:12Z</time>
      </trkpt>
      <trkpt lat="42.86815" lon="0.21592">
        <ele>2653</ele>
        <time>2022-03-12T13:44:16Z</time>
      </trkpt>
      <trkpt lat="42.86816" lon="0.21589">
        <ele>2654</ele>
        <time>2022-03-12T13:44:19Z</time>
      </trkpt>
      <trkpt lat="42.86816" lon="0.21586">
        <ele>2654</ele>
        <time>2022-03-12T13:44:22Z</time>
      </trkpt>
      <trkpt lat="42.86816" lon="0.21584">
        <ele>2656</ele>
        <time>2022-03-12T13:44:25Z</time>
      </trkpt>
      <trkpt lat="42.86817" lon="0.21582">
        <ele>2656</ele>
        <time>2022-03-12T13:44:28Z</time>
      </trkpt>
      <trkpt lat="42.86818" lon="0.21579">
        <ele>2656</ele>
        <time>2022-03-12T13:44:32Z</time>
      </trkpt>
      <trkpt lat="42.86818" lon="0.21576">
        <ele>2657</ele>
        <time>2022-03-12T13:44:36Z</time>
      </trkpt>
      <trkpt lat="42.86818" lon="0.21573">
        <ele>2658</ele>
        <time>2022-03-12T13:44:40Z</time>
      </trkpt>
      <trkpt lat="42.86819" lon="0.2157">
        <ele>2658</ele>
        <time>2022-03-12T13:44:44Z</time>
      </trkpt>
      <trkpt lat="42.86819" lon="0.21567">
        <ele>2658</ele>
        <time>2022-03-12T13:44:48Z</time>
      </trkpt>
      <trkpt lat="42.86819" lon="0.21565">
        <ele>2659</ele>
        <time>2022-03-12T13:44:54Z</time>
      </trkpt>
      <trkpt lat="42.8682" lon="0.21562">
        <ele>2660</ele>
        <time>2022-03-12T13:45:00Z</time>
      </trkpt>
      <trkpt lat="42.86822" lon="0.2156">
        <ele>2661</ele>
        <time>2022-03-12T13:45:08Z</time>
      </trkpt>
      <trkpt lat="42.86824" lon="0.21562">
        <ele>2662</ele>
        <time>2022-03-12T13:45:11Z</time>
      </trkpt>
      <trkpt lat="42.86825" lon="0.21563">
        <ele>2662</ele>
        <time>2022-03-12T13:45:14Z</time>
      </trkpt>
      <trkpt lat="42.86827" lon="0.21564">
        <ele>2662</ele>
        <time>2022-03-12T13:45:17Z</time>
      </trkpt>
      <trkpt lat="42.86829" lon="0.21564">
        <ele>2663</ele>
        <time>2022-03-12T13:45:20Z</time>
      </trkpt>
      <trkpt lat="42.8683" lon="0.21561">
        <ele>2664</ele>
        <time>2022-03-12T13:45:24Z</time>
      </trkpt>
      <trkpt lat="42.86831" lon="0.21558">
        <ele>2665</ele>
        <time>2022-03-12T13:45:27Z</time>
      </trkpt>
      <trkpt lat="42.86831" lon="0.21556">
        <ele>2666</ele>
        <time>2022-03-12T13:45:30Z</time>
      </trkpt>
      <trkpt lat="42.86831" lon="0.21552">
        <ele>2668</ele>
        <time>2022-03-12T13:45:44Z</time>
      </trkpt>
      <trkpt lat="42.86831" lon="0.21549">
        <ele>2668</ele>
        <time>2022-03-12T13:45:47Z</time>
      </trkpt>
      <trkpt lat="42.8683" lon="0.21546">
        <ele>2668</ele>
        <time>2022-03-12T13:46:08Z</time>
      </trkpt>
      <trkpt lat="42.8683" lon="0.21543">
        <ele>2669</ele>
        <time>2022-03-12T13:46:11Z</time>
      </trkpt>
      <trkpt lat="42.86831" lon="0.2154">
        <ele>2669</ele>
        <time>2022-03-12T13:46:14Z</time>
      </trkpt>
      <trkpt lat="42.86831" lon="0.21537">
        <ele>2669</ele>
        <time>2022-03-12T13:46:19Z</time>
      </trkpt>
      <trkpt lat="42.86831" lon="0.21533">
        <ele>2671</ele>
        <time>2022-03-12T13:46:22Z</time>
      </trkpt>
      <trkpt lat="42.86832" lon="0.2153">
        <ele>2671</ele>
        <time>2022-03-12T13:46:25Z</time>
      </trkpt>
      <trkpt lat="42.86834" lon="0.21528">
        <ele>2671</ele>
        <time>2022-03-12T13:46:29Z</time>
      </trkpt>
      <trkpt lat="42.86836" lon="0.21529">
        <ele>2672</ele>
        <time>2022-03-12T13:46:32Z</time>
      </trkpt>
      <trkpt lat="42.86837" lon="0.21531">
        <ele>2672</ele>
        <time>2022-03-12T13:46:35Z</time>
      </trkpt>
      <trkpt lat="42.8684" lon="0.21532">
        <ele>2673</ele>
        <time>2022-03-12T13:46:44Z</time>
      </trkpt>
      <trkpt lat="42.86841" lon="0.21534">
        <ele>2673</ele>
        <time>2022-03-12T13:46:47Z</time>
      </trkpt>
      <trkpt lat="42.86843" lon="0.21536">
        <ele>2674</ele>
        <time>2022-03-12T13:46:50Z</time>
      </trkpt>
      <trkpt lat="42.86845" lon="0.21537">
        <ele>2674</ele>
        <time>2022-03-12T13:46:53Z</time>
      </trkpt>
      <trkpt lat="42.86847" lon="0.21539">
        <ele>2675</ele>
        <time>2022-03-12T13:46:56Z</time>
      </trkpt>
      <trkpt lat="42.86849" lon="0.2154">
        <ele>2676</ele>
        <time>2022-03-12T13:46:59Z</time>
      </trkpt>
      <trkpt lat="42.86851" lon="0.21542">
        <ele>2676</ele>
        <time>2022-03-12T13:47:02Z</time>
      </trkpt>
      <trkpt lat="42.86852" lon="0.21543">
        <ele>2676</ele>
        <time>2022-03-12T13:47:05Z</time>
      </trkpt>
      <trkpt lat="42.86854" lon="0.21545">
        <ele>2677</ele>
        <time>2022-03-12T13:47:08Z</time>
      </trkpt>
      <trkpt lat="42.86855" lon="0.21546">
        <ele>2677</ele>
        <time>2022-03-12T13:47:11Z</time>
      </trkpt>
      <trkpt lat="42.86857" lon="0.21547">
        <ele>2678</ele>
        <time>2022-03-12T13:47:14Z</time>
      </trkpt>
      <trkpt lat="42.86859" lon="0.21548">
        <ele>2678</ele>
        <time>2022-03-12T13:47:17Z</time>
      </trkpt>
      <trkpt lat="42.8686" lon="0.21547">
        <ele>2680</ele>
        <time>2022-03-12T13:47:22Z</time>
      </trkpt>
      <trkpt lat="42.86861" lon="0.21544">
        <ele>2681</ele>
        <time>2022-03-12T13:47:25Z</time>
      </trkpt>
      <trkpt lat="42.86861" lon="0.21541">
        <ele>2681</ele>
        <time>2022-03-12T13:47:28Z</time>
      </trkpt>
      <trkpt lat="42.86861" lon="0.21538">
        <ele>2682</ele>
        <time>2022-03-12T13:47:31Z</time>
      </trkpt>
      <trkpt lat="42.86861" lon="0.21535">
        <ele>2682</ele>
        <time>2022-03-12T13:47:34Z</time>
      </trkpt>
      <trkpt lat="42.86861" lon="0.21533">
        <ele>2682</ele>
        <time>2022-03-12T13:47:37Z</time>
      </trkpt>
      <trkpt lat="42.86862" lon="0.2153">
        <ele>2683</ele>
        <time>2022-03-12T13:47:40Z</time>
      </trkpt>
      <trkpt lat="42.86862" lon="0.21527">
        <ele>2684</ele>
        <time>2022-03-12T13:47:44Z</time>
      </trkpt>
      <trkpt lat="42.86862" lon="0.21524">
        <ele>2684</ele>
        <time>2022-03-12T13:47:47Z</time>
      </trkpt>
      <trkpt lat="42.86862" lon="0.21521">
        <ele>2684</ele>
        <time>2022-03-12T13:47:50Z</time>
      </trkpt>
      <trkpt lat="42.86862" lon="0.21518">
        <ele>2685</ele>
        <time>2022-03-12T13:47:53Z</time>
      </trkpt>
      <trkpt lat="42.86862" lon="0.21515">
        <ele>2685</ele>
        <time>2022-03-12T13:47:56Z</time>
      </trkpt>
      <trkpt lat="42.86862" lon="0.21512">
        <ele>2685</ele>
        <time>2022-03-12T13:47:59Z</time>
      </trkpt>
      <trkpt lat="42.86863" lon="0.2151">
        <ele>2686</ele>
        <time>2022-03-12T13:48:02Z</time>
      </trkpt>
      <trkpt lat="42.86864" lon="0.21509">
        <ele>2687</ele>
        <time>2022-03-12T13:48:05Z</time>
      </trkpt>
      <trkpt lat="42.86866" lon="0.21511">
        <ele>2687</ele>
        <time>2022-03-12T13:48:08Z</time>
      </trkpt>
      <trkpt lat="42.86867" lon="0.21512">
        <ele>2687</ele>
        <time>2022-03-12T13:48:11Z</time>
      </trkpt>
      <trkpt lat="42.86869" lon="0.21514">
        <ele>2688</ele>
        <time>2022-03-12T13:48:14Z</time>
      </trkpt>
      <trkpt lat="42.86871" lon="0.21516">
        <ele>2688</ele>
        <time>2022-03-12T13:48:17Z</time>
      </trkpt>
      <trkpt lat="42.86872" lon="0.21517">
        <ele>2689</ele>
        <time>2022-03-12T13:48:20Z</time>
      </trkpt>
      <trkpt lat="42.86874" lon="0.21519">
        <ele>2689</ele>
        <time>2022-03-12T13:48:23Z</time>
      </trkpt>
      <trkpt lat="42.86876" lon="0.21521">
        <ele>2689</ele>
        <time>2022-03-12T13:48:26Z</time>
      </trkpt>
      <trkpt lat="42.86877" lon="0.21523">
        <ele>2690</ele>
        <time>2022-03-12T13:48:29Z</time>
      </trkpt>
      <trkpt lat="42.86879" lon="0.21525">
        <ele>2690</ele>
        <time>2022-03-12T13:48:32Z</time>
      </trkpt>
      <trkpt lat="42.8688" lon="0.21527">
        <ele>2692</ele>
        <time>2022-03-12T13:48:36Z</time>
      </trkpt>
      <trkpt lat="42.86882" lon="0.21529">
        <ele>2693</ele>
        <time>2022-03-12T13:48:39Z</time>
      </trkpt>
      <trkpt lat="42.86883" lon="0.2153">
        <ele>2693</ele>
        <time>2022-03-12T13:48:42Z</time>
      </trkpt>
      <trkpt lat="42.86885" lon="0.2153">
        <ele>2694</ele>
        <time>2022-03-12T13:48:49Z</time>
      </trkpt>
      <trkpt lat="42.86885" lon="0.21527">
        <ele>2695</ele>
        <time>2022-03-12T13:48:52Z</time>
      </trkpt>
      <trkpt lat="42.86886" lon="0.21524">
        <ele>2695</ele>
        <time>2022-03-12T13:48:55Z</time>
      </trkpt>
      <trkpt lat="42.86887" lon="0.21521">
        <ele>2695</ele>
        <time>2022-03-12T13:48:58Z</time>
      </trkpt>
      <trkpt lat="42.86887" lon="0.21519">
        <ele>2696</ele>
        <time>2022-03-12T13:49:01Z</time>
      </trkpt>
      <trkpt lat="42.86888" lon="0.21516">
        <ele>2697</ele>
        <time>2022-03-12T13:49:04Z</time>
      </trkpt>
      <trkpt lat="42.86888" lon="0.21513">
        <ele>2697</ele>
        <time>2022-03-12T13:49:07Z</time>
      </trkpt>
      <trkpt lat="42.86888" lon="0.21511">
        <ele>2698</ele>
        <time>2022-03-12T13:49:10Z</time>
      </trkpt>
      <trkpt lat="42.86889" lon="0.21508">
        <ele>2698</ele>
        <time>2022-03-12T13:49:13Z</time>
      </trkpt>
      <trkpt lat="42.86889" lon="0.21505">
        <ele>2699</ele>
        <time>2022-03-12T13:49:16Z</time>
      </trkpt>
      <trkpt lat="42.8689" lon="0.21503">
        <ele>2700</ele>
        <time>2022-03-12T13:49:19Z</time>
      </trkpt>
      <trkpt lat="42.8689" lon="0.215">
        <ele>2700</ele>
        <time>2022-03-12T13:49:22Z</time>
      </trkpt>
      <trkpt lat="42.8689" lon="0.21497">
        <ele>2700</ele>
        <time>2022-03-12T13:49:25Z</time>
      </trkpt>
      <trkpt lat="42.86891" lon="0.21494">
        <ele>2701</ele>
        <time>2022-03-12T13:49:28Z</time>
      </trkpt>
      <trkpt lat="42.86891" lon="0.21492">
        <ele>2702</ele>
        <time>2022-03-12T13:49:31Z</time>
      </trkpt>
      <trkpt lat="42.86892" lon="0.21489">
        <ele>2702</ele>
        <time>2022-03-12T13:49:34Z</time>
      </trkpt>
      <trkpt lat="42.86893" lon="0.21487">
        <ele>2704</ele>
        <time>2022-03-12T13:49:37Z</time>
      </trkpt>
      <trkpt lat="42.86894" lon="0.21484">
        <ele>2705</ele>
        <time>2022-03-12T13:49:40Z</time>
      </trkpt>
      <trkpt lat="42.86894" lon="0.21482">
        <ele>2705</ele>
        <time>2022-03-12T13:49:43Z</time>
      </trkpt>
      <trkpt lat="42.86894" lon="0.21479">
        <ele>2705</ele>
        <time>2022-03-12T13:49:46Z</time>
      </trkpt>
      <trkpt lat="42.86895" lon="0.21476">
        <ele>2706</ele>
        <time>2022-03-12T13:49:49Z</time>
      </trkpt>
      <trkpt lat="42.86895" lon="0.21473">
        <ele>2706</ele>
        <time>2022-03-12T13:49:52Z</time>
      </trkpt>
      <trkpt lat="42.86896" lon="0.2147">
        <ele>2707</ele>
        <time>2022-03-12T13:49:55Z</time>
      </trkpt>
      <trkpt lat="42.86896" lon="0.21467">
        <ele>2707</ele>
        <time>2022-03-12T13:49:58Z</time>
      </trkpt>
      <trkpt lat="42.86896" lon="0.21465">
        <ele>2708</ele>
        <time>2022-03-12T13:50:01Z</time>
      </trkpt>
      <trkpt lat="42.86897" lon="0.21462">
        <ele>2709</ele>
        <time>2022-03-12T13:50:04Z</time>
      </trkpt>
      <trkpt lat="42.86898" lon="0.2146">
        <ele>2710</ele>
        <time>2022-03-12T13:50:07Z</time>
      </trkpt>
      <trkpt lat="42.86898" lon="0.21457">
        <ele>2710</ele>
        <time>2022-03-12T13:50:10Z</time>
      </trkpt>
      <trkpt lat="42.86899" lon="0.21455">
        <ele>2710</ele>
        <time>2022-03-12T13:50:13Z</time>
      </trkpt>
      <trkpt lat="42.869" lon="0.21452">
        <ele>2710</ele>
        <time>2022-03-12T13:50:16Z</time>
      </trkpt>
      <trkpt lat="42.869" lon="0.2145">
        <ele>2711</ele>
        <time>2022-03-12T13:50:27Z</time>
      </trkpt>
      <trkpt lat="42.86901" lon="0.21447">
        <ele>2711</ele>
        <time>2022-03-12T13:50:30Z</time>
      </trkpt>
      <trkpt lat="42.86902" lon="0.21445">
        <ele>2712</ele>
        <time>2022-03-12T13:50:33Z</time>
      </trkpt>
      <trkpt lat="42.86903" lon="0.21442">
        <ele>2713</ele>
        <time>2022-03-12T13:50:36Z</time>
      </trkpt>
      <trkpt lat="42.86904" lon="0.2144">
        <ele>2714</ele>
        <time>2022-03-12T13:50:40Z</time>
      </trkpt>
      <trkpt lat="42.86906" lon="0.21439">
        <ele>2714</ele>
        <time>2022-03-12T13:50:43Z</time>
      </trkpt>
      <trkpt lat="42.86908" lon="0.21439">
        <ele>2717</ele>
        <time>2022-03-12T13:50:47Z</time>
      </trkpt>
      <trkpt lat="42.86909" lon="0.21441">
        <ele>2717</ele>
        <time>2022-03-12T13:50:50Z</time>
      </trkpt>
      <trkpt lat="42.8691" lon="0.21444">
        <ele>2717</ele>
        <time>2022-03-12T13:50:53Z</time>
      </trkpt>
      <trkpt lat="42.86911" lon="0.21446">
        <ele>2718</ele>
        <time>2022-03-12T13:50:56Z</time>
      </trkpt>
      <trkpt lat="42.86912" lon="0.21449">
        <ele>2719</ele>
        <time>2022-03-12T13:50:59Z</time>
      </trkpt>
      <trkpt lat="42.86914" lon="0.21451">
        <ele>2720</ele>
        <time>2022-03-12T13:51:03Z</time>
      </trkpt>
      <trkpt lat="42.86915" lon="0.21454">
        <ele>2721</ele>
        <time>2022-03-12T13:51:07Z</time>
      </trkpt>
      <trkpt lat="42.86916" lon="0.21456">
        <ele>2721</ele>
        <time>2022-03-12T13:51:10Z</time>
      </trkpt>
      <trkpt lat="42.86917" lon="0.21458">
        <ele>2722</ele>
        <time>2022-03-12T13:51:13Z</time>
      </trkpt>
      <trkpt lat="42.86918" lon="0.2146">
        <ele>2722</ele>
        <time>2022-03-12T13:51:16Z</time>
      </trkpt>
      <trkpt lat="42.86919" lon="0.21463">
        <ele>2722</ele>
        <time>2022-03-12T13:51:20Z</time>
      </trkpt>
      <trkpt lat="42.8692" lon="0.21465">
        <ele>2723</ele>
        <time>2022-03-12T13:51:46Z</time>
      </trkpt>
      <trkpt lat="42.86922" lon="0.21467">
        <ele>2723</ele>
        <time>2022-03-12T13:51:49Z</time>
      </trkpt>
      <trkpt lat="42.86923" lon="0.21469">
        <ele>2723</ele>
        <time>2022-03-12T13:51:52Z</time>
      </trkpt>
      <trkpt lat="42.86924" lon="0.21471">
        <ele>2724</ele>
        <time>2022-03-12T13:51:55Z</time>
      </trkpt>
      <trkpt lat="42.86926" lon="0.21474">
        <ele>2724</ele>
        <time>2022-03-12T13:51:58Z</time>
      </trkpt>
      <trkpt lat="42.86927" lon="0.21476">
        <ele>2725</ele>
        <time>2022-03-12T13:52:01Z</time>
      </trkpt>
      <trkpt lat="42.86929" lon="0.21478">
        <ele>2726</ele>
        <time>2022-03-12T13:52:04Z</time>
      </trkpt>
      <trkpt lat="42.8693" lon="0.2148">
        <ele>2728</ele>
        <time>2022-03-12T13:52:07Z</time>
      </trkpt>
      <trkpt lat="42.86931" lon="0.21482">
        <ele>2728</ele>
        <time>2022-03-12T13:52:10Z</time>
      </trkpt>
      <trkpt lat="42.86932" lon="0.21485">
        <ele>2728</ele>
        <time>2022-03-12T13:52:13Z</time>
      </trkpt>
      <trkpt lat="42.86934" lon="0.21487">
        <ele>2729</ele>
        <time>2022-03-12T13:52:16Z</time>
      </trkpt>
      <trkpt lat="42.86935" lon="0.21489">
        <ele>2730</ele>
        <time>2022-03-12T13:52:19Z</time>
      </trkpt>
      <trkpt lat="42.86936" lon="0.21492">
        <ele>2731</ele>
        <time>2022-03-12T13:52:22Z</time>
      </trkpt>
      <trkpt lat="42.86937" lon="0.21494">
        <ele>2732</ele>
        <time>2022-03-12T13:52:25Z</time>
      </trkpt>
      <trkpt lat="42.86939" lon="0.21496">
        <ele>2732</ele>
        <time>2022-03-12T13:52:28Z</time>
      </trkpt>
      <trkpt lat="42.8694" lon="0.21498">
        <ele>2734</ele>
        <time>2022-03-12T13:52:31Z</time>
      </trkpt>
      <trkpt lat="42.86942" lon="0.215">
        <ele>2734</ele>
        <time>2022-03-12T13:52:34Z</time>
      </trkpt>
      <trkpt lat="42.86944" lon="0.21501">
        <ele>2735</ele>
        <time>2022-03-12T13:52:37Z</time>
      </trkpt>
      <trkpt lat="42.86946" lon="0.21503">
        <ele>2735</ele>
        <time>2022-03-12T13:52:40Z</time>
      </trkpt>
      <trkpt lat="42.86948" lon="0.21505">
        <ele>2735</ele>
        <time>2022-03-12T13:52:43Z</time>
      </trkpt>
      <trkpt lat="42.8695" lon="0.21506">
        <ele>2736</ele>
        <time>2022-03-12T13:52:46Z</time>
      </trkpt>
      <trkpt lat="42.86952" lon="0.21507">
        <ele>2736</ele>
        <time>2022-03-12T13:52:49Z</time>
      </trkpt>
      <trkpt lat="42.86954" lon="0.21506">
        <ele>2738</ele>
        <time>2022-03-12T13:52:53Z</time>
      </trkpt>
      <trkpt lat="42.86955" lon="0.21504">
        <ele>2738</ele>
        <time>2022-03-12T13:52:56Z</time>
      </trkpt>
      <trkpt lat="42.86956" lon="0.21501">
        <ele>2740</ele>
        <time>2022-03-12T13:52:59Z</time>
      </trkpt>
      <trkpt lat="42.86957" lon="0.21498">
        <ele>2742</ele>
        <time>2022-03-12T13:53:02Z</time>
      </trkpt>
      <trkpt lat="42.86958" lon="0.21496">
        <ele>2742</ele>
        <time>2022-03-12T13:53:05Z</time>
      </trkpt>
      <trkpt lat="42.86959" lon="0.21493">
        <ele>2742</ele>
        <time>2022-03-12T13:53:16Z</time>
      </trkpt>
      <trkpt lat="42.86958" lon="0.2149">
        <ele>2743</ele>
        <time>2022-03-12T13:53:20Z</time>
      </trkpt>
      <trkpt lat="42.86957" lon="0.21492">
        <ele>2742</ele>
        <time>2022-03-12T13:53:48Z</time>
      </trkpt>
      <trkpt lat="42.86957" lon="0.2149">
        <ele>2743</ele>
        <time>2022-03-12T13:54:32Z</time>
      </trkpt>
      <trkpt lat="42.86956" lon="0.2149">
        <ele>2744</ele>
        <time>2022-03-12T13:56:36Z</time>
      </trkpt>
      <trkpt lat="42.86957" lon="0.21493">
        <ele>2742</ele>
        <time>2022-03-12T13:58:43Z</time>
      </trkpt>
      <trkpt lat="42.86958" lon="0.2149">
        <ele>2740</ele>
        <time>2022-03-12T14:00:58Z</time>
      </trkpt>
      <trkpt lat="42.86956" lon="0.21493">
        <ele>2742</ele>
        <time>2022-03-12T14:07:34Z</time>
      </trkpt>
      <trkpt lat="42.86955" lon="0.21496">
        <ele>2741</ele>
        <time>2022-03-12T14:07:35Z</time>
      </trkpt>
      <trkpt lat="42.86954" lon="0.215">
        <ele>2740</ele>
        <time>2022-03-12T14:07:36Z</time>
      </trkpt>
      <trkpt lat="42.86953" lon="0.21506">
        <ele>2738</ele>
        <time>2022-03-12T14:07:37Z</time>
      </trkpt>
      <trkpt lat="42.86953" lon="0.21513">
        <ele>2737</ele>
        <time>2022-03-12T14:07:38Z</time>
      </trkpt>
      <trkpt lat="42.86953" lon="0.21521">
        <ele>2737</ele>
        <time>2022-03-12T14:07:39Z</time>
      </trkpt>
      <trkpt lat="42.86951" lon="0.21528">
        <ele>2736</ele>
        <time>2022-03-12T14:07:40Z</time>
      </trkpt>
      <trkpt lat="42.86949" lon="0.21536">
        <ele>2735</ele>
        <time>2022-03-12T14:07:41Z</time>
      </trkpt>
      <trkpt lat="42.86948" lon="0.21541">
        <ele>2733</ele>
        <time>2022-03-12T14:07:42Z</time>
      </trkpt>
      <trkpt lat="42.86946" lon="0.21541">
        <ele>2730</ele>
        <time>2022-03-12T14:07:47Z</time>
      </trkpt>
      <trkpt lat="42.86947" lon="0.21545">
        <ele>2730</ele>
        <time>2022-03-12T14:07:52Z</time>
      </trkpt>
      <trkpt lat="42.86947" lon="0.21548">
        <ele>2729</ele>
        <time>2022-03-12T14:07:53Z</time>
      </trkpt>
      <trkpt lat="42.86947" lon="0.21553">
        <ele>2729</ele>
        <time>2022-03-12T14:07:54Z</time>
      </trkpt>
      <trkpt lat="42.86949" lon="0.2156">
        <ele>2729</ele>
        <time>2022-03-12T14:07:55Z</time>
      </trkpt>
      <trkpt lat="42.86949" lon="0.21568">
        <ele>2728</ele>
        <time>2022-03-12T14:07:56Z</time>
      </trkpt>
      <trkpt lat="42.8695" lon="0.21577">
        <ele>2726</ele>
        <time>2022-03-12T14:07:57Z</time>
      </trkpt>
      <trkpt lat="42.86949" lon="0.21585">
        <ele>2723</ele>
        <time>2022-03-12T14:07:58Z</time>
      </trkpt>
      <trkpt lat="42.86946" lon="0.21589">
        <ele>2722</ele>
        <time>2022-03-12T14:07:59Z</time>
      </trkpt>
      <trkpt lat="42.86943" lon="0.21588">
        <ele>2720</ele>
        <time>2022-03-12T14:08:00Z</time>
      </trkpt>
      <trkpt lat="42.86941" lon="0.21587">
        <ele>2719</ele>
        <time>2022-03-12T14:08:15Z</time>
      </trkpt>
      <trkpt lat="42.86939" lon="0.21589">
        <ele>2719</ele>
        <time>2022-03-12T14:08:16Z</time>
      </trkpt>
      <trkpt lat="42.86938" lon="0.21593">
        <ele>2718</ele>
        <time>2022-03-12T14:08:17Z</time>
      </trkpt>
      <trkpt lat="42.86935" lon="0.21597">
        <ele>2717</ele>
        <time>2022-03-12T14:08:18Z</time>
      </trkpt>
      <trkpt lat="42.86931" lon="0.21599">
        <ele>2717</ele>
        <time>2022-03-12T14:08:19Z</time>
      </trkpt>
      <trkpt lat="42.86929" lon="0.21603">
        <ele>2713</ele>
        <time>2022-03-12T14:08:20Z</time>
      </trkpt>
      <trkpt lat="42.86928" lon="0.21611">
        <ele>2712</ele>
        <time>2022-03-12T14:08:21Z</time>
      </trkpt>
      <trkpt lat="42.86926" lon="0.21618">
        <ele>2710</ele>
        <time>2022-03-12T14:08:22Z</time>
      </trkpt>
      <trkpt lat="42.86923" lon="0.21625">
        <ele>2706</ele>
        <time>2022-03-12T14:08:23Z</time>
      </trkpt>
      <trkpt lat="42.86922" lon="0.21633">
        <ele>2704</ele>
        <time>2022-03-12T14:08:24Z</time>
      </trkpt>
      <trkpt lat="42.86919" lon="0.21639">
        <ele>2701</ele>
        <time>2022-03-12T14:08:25Z</time>
      </trkpt>
      <trkpt lat="42.86916" lon="0.21647">
        <ele>2699</ele>
        <time>2022-03-12T14:08:26Z</time>
      </trkpt>
      <trkpt lat="42.86912" lon="0.21652">
        <ele>2697</ele>
        <time>2022-03-12T14:08:27Z</time>
      </trkpt>
      <trkpt lat="42.86907" lon="0.21652">
        <ele>2694</ele>
        <time>2022-03-12T14:08:28Z</time>
      </trkpt>
      <trkpt lat="42.86902" lon="0.21655">
        <ele>2692</ele>
        <time>2022-03-12T14:08:29Z</time>
      </trkpt>
      <trkpt lat="42.86899" lon="0.21661">
        <ele>2689</ele>
        <time>2022-03-12T14:08:30Z</time>
      </trkpt>
      <trkpt lat="42.86894" lon="0.21665">
        <ele>2688</ele>
        <time>2022-03-12T14:08:31Z</time>
      </trkpt>
      <trkpt lat="42.8689" lon="0.21669">
        <ele>2686</ele>
        <time>2022-03-12T14:08:32Z</time>
      </trkpt>
      <trkpt lat="42.86887" lon="0.21675">
        <ele>2684</ele>
        <time>2022-03-12T14:08:33Z</time>
      </trkpt>
      <trkpt lat="42.86883" lon="0.21678">
        <ele>2682</ele>
        <time>2022-03-12T14:08:34Z</time>
      </trkpt>
      <trkpt lat="42.86879" lon="0.21681">
        <ele>2678</ele>
        <time>2022-03-12T14:08:35Z</time>
      </trkpt>
      <trkpt lat="42.86876" lon="0.21688">
        <ele>2677</ele>
        <time>2022-03-12T14:08:36Z</time>
      </trkpt>
      <trkpt lat="42.86872" lon="0.21693">
        <ele>2676</ele>
        <time>2022-03-12T14:08:37Z</time>
      </trkpt>
      <trkpt lat="42.86869" lon="0.21697">
        <ele>2674</ele>
        <time>2022-03-12T14:08:38Z</time>
      </trkpt>
      <trkpt lat="42.86869" lon="0.217">
        <ele>2672</ele>
        <time>2022-03-12T14:08:39Z</time>
      </trkpt>
      <trkpt lat="42.86869" lon="0.21697">
        <ele>2668</ele>
        <time>2022-03-12T14:09:03Z</time>
      </trkpt>
      <trkpt lat="42.86871" lon="0.21696">
        <ele>2669</ele>
        <time>2022-03-12T14:09:36Z</time>
      </trkpt>
      <trkpt lat="42.86869" lon="0.21696">
        <ele>2669</ele>
        <time>2022-03-12T14:10:11Z</time>
      </trkpt>
      <trkpt lat="42.86868" lon="0.21701">
        <ele>2671</ele>
        <time>2022-03-12T14:10:29Z</time>
      </trkpt>
      <trkpt lat="42.86867" lon="0.21707">
        <ele>2671</ele>
        <time>2022-03-12T14:10:30Z</time>
      </trkpt>
      <trkpt lat="42.86866" lon="0.21713">
        <ele>2669</ele>
        <time>2022-03-12T14:10:31Z</time>
      </trkpt>
      <trkpt lat="42.86865" lon="0.21721">
        <ele>2666</ele>
        <time>2022-03-12T14:10:32Z</time>
      </trkpt>
      <trkpt lat="42.86865" lon="0.21729">
        <ele>2665</ele>
        <time>2022-03-12T14:10:33Z</time>
      </trkpt>
      <trkpt lat="42.86865" lon="0.21737">
        <ele>2664</ele>
        <time>2022-03-12T14:10:34Z</time>
      </trkpt>
      <trkpt lat="42.86866" lon="0.21746">
        <ele>2664</ele>
        <time>2022-03-12T14:10:35Z</time>
      </trkpt>
      <trkpt lat="42.86867" lon="0.21753">
        <ele>2663</ele>
        <time>2022-03-12T14:10:36Z</time>
      </trkpt>
      <trkpt lat="42.86868" lon="0.2176">
        <ele>2662</ele>
        <time>2022-03-12T14:10:37Z</time>
      </trkpt>
      <trkpt lat="42.86868" lon="0.21766">
        <ele>2661</ele>
        <time>2022-03-12T14:10:38Z</time>
      </trkpt>
      <trkpt lat="42.86869" lon="0.21773">
        <ele>2660</ele>
        <time>2022-03-12T14:10:39Z</time>
      </trkpt>
      <trkpt lat="42.86867" lon="0.21779">
        <ele>2660</ele>
        <time>2022-03-12T14:10:40Z</time>
      </trkpt>
      <trkpt lat="42.86864" lon="0.21785">
        <ele>2660</ele>
        <time>2022-03-12T14:10:41Z</time>
      </trkpt>
      <trkpt lat="42.86861" lon="0.21791">
        <ele>2658</ele>
        <time>2022-03-12T14:10:42Z</time>
      </trkpt>
      <trkpt lat="42.86857" lon="0.21796">
        <ele>2657</ele>
        <time>2022-03-12T14:10:43Z</time>
      </trkpt>
      <trkpt lat="42.86854" lon="0.21803">
        <ele>2653</ele>
        <time>2022-03-12T14:10:44Z</time>
      </trkpt>
      <trkpt lat="42.8685" lon="0.21807">
        <ele>2651</ele>
        <time>2022-03-12T14:10:45Z</time>
      </trkpt>
      <trkpt lat="42.86846" lon="0.21811">
        <ele>2649</ele>
        <time>2022-03-12T14:10:46Z</time>
      </trkpt>
      <trkpt lat="42.86844" lon="0.21818">
        <ele>2646</ele>
        <time>2022-03-12T14:10:47Z</time>
      </trkpt>
      <trkpt lat="42.86842" lon="0.21825">
        <ele>2642</ele>
        <time>2022-03-12T14:10:48Z</time>
      </trkpt>
      <trkpt lat="42.86838" lon="0.2183">
        <ele>2640</ele>
        <time>2022-03-12T14:10:49Z</time>
      </trkpt>
      <trkpt lat="42.86834" lon="0.21836">
        <ele>2638</ele>
        <time>2022-03-12T14:10:50Z</time>
      </trkpt>
      <trkpt lat="42.86831" lon="0.21843">
        <ele>2636</ele>
        <time>2022-03-12T14:10:51Z</time>
      </trkpt>
      <trkpt lat="42.86827" lon="0.21847">
        <ele>2632</ele>
        <time>2022-03-12T14:10:52Z</time>
      </trkpt>
      <trkpt lat="42.86823" lon="0.21852">
        <ele>2628</ele>
        <time>2022-03-12T14:10:53Z</time>
      </trkpt>
      <trkpt lat="42.86819" lon="0.21858">
        <ele>2627</ele>
        <time>2022-03-12T14:10:54Z</time>
      </trkpt>
      <trkpt lat="42.86808" lon="0.21866">
        <ele>2622</ele>
        <time>2022-03-12T14:10:56Z</time>
      </trkpt>
      <trkpt lat="42.86795" lon="0.21873">
        <ele>2617</ele>
        <time>2022-03-12T14:10:58Z</time>
      </trkpt>
      <trkpt lat="42.86786" lon="0.2188">
        <ele>2611</ele>
        <time>2022-03-12T14:11:00Z</time>
      </trkpt>
      <trkpt lat="42.86773" lon="0.21887">
        <ele>2602</ele>
        <time>2022-03-12T14:11:03Z</time>
      </trkpt>
      <trkpt lat="42.86766" lon="0.21896">
        <ele>2597</ele>
        <time>2022-03-12T14:11:05Z</time>
      </trkpt>
      <trkpt lat="42.86755" lon="0.21903">
        <ele>2590</ele>
        <time>2022-03-12T14:11:07Z</time>
      </trkpt>
      <trkpt lat="42.86743" lon="0.21911">
        <ele>2585</ele>
        <time>2022-03-12T14:11:09Z</time>
      </trkpt>
      <trkpt lat="42.86729" lon="0.21913">
        <ele>2581</ele>
        <time>2022-03-12T14:11:11Z</time>
      </trkpt>
      <trkpt lat="42.8672" lon="0.2192">
        <ele>2577</ele>
        <time>2022-03-12T14:11:12Z</time>
      </trkpt>
      <trkpt lat="42.86706" lon="0.21921">
        <ele>2573</ele>
        <time>2022-03-12T14:11:14Z</time>
      </trkpt>
      <trkpt lat="42.86705" lon="0.21919">
        <ele>2572</ele>
        <time>2022-03-12T14:11:15Z</time>
      </trkpt>
      <trkpt lat="42.86708" lon="0.21918">
        <ele>2569</ele>
        <time>2022-03-12T14:11:18Z</time>
      </trkpt>
      <trkpt lat="42.8671" lon="0.21916">
        <ele>2569</ele>
        <time>2022-03-12T14:11:35Z</time>
      </trkpt>
      <trkpt lat="42.86711" lon="0.21914">
        <ele>2567</ele>
        <time>2022-03-12T14:12:49Z</time>
      </trkpt>
      <trkpt lat="42.86712" lon="0.21918">
        <ele>2568</ele>
        <time>2022-03-12T14:14:27Z</time>
      </trkpt>
      <trkpt lat="42.86712" lon="0.21922">
        <ele>2568</ele>
        <time>2022-03-12T14:14:28Z</time>
      </trkpt>
      <trkpt lat="42.86713" lon="0.21927">
        <ele>2568</ele>
        <time>2022-03-12T14:14:29Z</time>
      </trkpt>
      <trkpt lat="42.86714" lon="0.21934">
        <ele>2568</ele>
        <time>2022-03-12T14:14:30Z</time>
      </trkpt>
      <trkpt lat="42.86717" lon="0.21941">
        <ele>2567</ele>
        <time>2022-03-12T14:14:31Z</time>
      </trkpt>
      <trkpt lat="42.8672" lon="0.2195">
        <ele>2565</ele>
        <time>2022-03-12T14:14:32Z</time>
      </trkpt>
      <trkpt lat="42.86724" lon="0.21959">
        <ele>2564</ele>
        <time>2022-03-12T14:14:33Z</time>
      </trkpt>
      <trkpt lat="42.86727" lon="0.21969">
        <ele>2562</ele>
        <time>2022-03-12T14:14:34Z</time>
      </trkpt>
      <trkpt lat="42.86731" lon="0.21978">
        <ele>2561</ele>
        <time>2022-03-12T14:14:35Z</time>
      </trkpt>
      <trkpt lat="42.86734" lon="0.21987">
        <ele>2559</ele>
        <time>2022-03-12T14:14:36Z</time>
      </trkpt>
      <trkpt lat="42.86737" lon="0.21996">
        <ele>2557</ele>
        <time>2022-03-12T14:14:37Z</time>
      </trkpt>
      <trkpt lat="42.86739" lon="0.22005">
        <ele>2556</ele>
        <time>2022-03-12T14:14:38Z</time>
      </trkpt>
      <trkpt lat="42.86741" lon="0.22013">
        <ele>2555</ele>
        <time>2022-03-12T14:14:39Z</time>
      </trkpt>
      <trkpt lat="42.86742" lon="0.2202">
        <ele>2554</ele>
        <time>2022-03-12T14:14:40Z</time>
      </trkpt>
      <trkpt lat="42.86743" lon="0.22028">
        <ele>2551</ele>
        <time>2022-03-12T14:14:41Z</time>
      </trkpt>
      <trkpt lat="42.86744" lon="0.22036">
        <ele>2550</ele>
        <time>2022-03-12T14:14:42Z</time>
      </trkpt>
      <trkpt lat="42.86742" lon="0.22044">
        <ele>2551</ele>
        <time>2022-03-12T14:14:43Z</time>
      </trkpt>
      <trkpt lat="42.8674" lon="0.2205">
        <ele>2551</ele>
        <time>2022-03-12T14:14:44Z</time>
      </trkpt>
      <trkpt lat="42.86738" lon="0.22056">
        <ele>2550</ele>
        <time>2022-03-12T14:14:45Z</time>
      </trkpt>
      <trkpt lat="42.86737" lon="0.22062">
        <ele>2549</ele>
        <time>2022-03-12T14:14:46Z</time>
      </trkpt>
      <trkpt lat="42.86736" lon="0.22068">
        <ele>2549</ele>
        <time>2022-03-12T14:14:47Z</time>
      </trkpt>
      <trkpt lat="42.86735" lon="0.22075">
        <ele>2549</ele>
        <time>2022-03-12T14:14:48Z</time>
      </trkpt>
      <trkpt lat="42.86735" lon="0.22082">
        <ele>2549</ele>
        <time>2022-03-12T14:14:49Z</time>
      </trkpt>
      <trkpt lat="42.86734" lon="0.22089">
        <ele>2548</ele>
        <time>2022-03-12T14:14:50Z</time>
      </trkpt>
      <trkpt lat="42.86733" lon="0.22096">
        <ele>2547</ele>
        <time>2022-03-12T14:14:51Z</time>
      </trkpt>
      <trkpt lat="42.86733" lon="0.22104">
        <ele>2545</ele>
        <time>2022-03-12T14:14:52Z</time>
      </trkpt>
      <trkpt lat="42.86733" lon="0.22111">
        <ele>2545</ele>
        <time>2022-03-12T14:14:53Z</time>
      </trkpt>
      <trkpt lat="42.86732" lon="0.22117">
        <ele>2544</ele>
        <time>2022-03-12T14:14:54Z</time>
      </trkpt>
      <trkpt lat="42.86732" lon="0.22125">
        <ele>2543</ele>
        <time>2022-03-12T14:14:55Z</time>
      </trkpt>
      <trkpt lat="42.86732" lon="0.22132">
        <ele>2542</ele>
        <time>2022-03-12T14:14:56Z</time>
      </trkpt>
      <trkpt lat="42.86732" lon="0.22139">
        <ele>2541</ele>
        <time>2022-03-12T14:14:57Z</time>
      </trkpt>
      <trkpt lat="42.86732" lon="0.22147">
        <ele>2540</ele>
        <time>2022-03-12T14:14:58Z</time>
      </trkpt>
      <trkpt lat="42.86733" lon="0.22161">
        <ele>2539</ele>
        <time>2022-03-12T14:15:00Z</time>
      </trkpt>
      <trkpt lat="42.86735" lon="0.22168">
        <ele>2539</ele>
        <time>2022-03-12T14:15:01Z</time>
      </trkpt>
      <trkpt lat="42.86736" lon="0.22174">
        <ele>2536</ele>
        <time>2022-03-12T14:15:02Z</time>
      </trkpt>
      <trkpt lat="42.86738" lon="0.22179">
        <ele>2536</ele>
        <time>2022-03-12T14:15:03Z</time>
      </trkpt>
      <trkpt lat="42.8674" lon="0.22182">
        <ele>2536</ele>
        <time>2022-03-12T14:15:04Z</time>
      </trkpt>
      <trkpt lat="42.86741" lon="0.22186">
        <ele>2536</ele>
        <time>2022-03-12T14:15:05Z</time>
      </trkpt>
      <trkpt lat="42.86742" lon="0.2219">
        <ele>2536</ele>
        <time>2022-03-12T14:15:06Z</time>
      </trkpt>
      <trkpt lat="42.86743" lon="0.22193">
        <ele>2535</ele>
        <time>2022-03-12T14:15:07Z</time>
      </trkpt>
      <trkpt lat="42.86744" lon="0.22197">
        <ele>2535</ele>
        <time>2022-03-12T14:15:08Z</time>
      </trkpt>
      <trkpt lat="42.86745" lon="0.222">
        <ele>2535</ele>
        <time>2022-03-12T14:15:09Z</time>
      </trkpt>
      <trkpt lat="42.86746" lon="0.22204">
        <ele>2535</ele>
        <time>2022-03-12T14:15:10Z</time>
      </trkpt>
      <trkpt lat="42.86747" lon="0.22208">
        <ele>2535</ele>
        <time>2022-03-12T14:15:11Z</time>
      </trkpt>
      <trkpt lat="42.86747" lon="0.22211">
        <ele>2533</ele>
        <time>2022-03-12T14:15:12Z</time>
      </trkpt>
      <trkpt lat="42.86747" lon="0.22216">
        <ele>2533</ele>
        <time>2022-03-12T14:15:14Z</time>
      </trkpt>
      <trkpt lat="42.86748" lon="0.22219">
        <ele>2533</ele>
        <time>2022-03-12T14:15:15Z</time>
      </trkpt>
      <trkpt lat="42.86749" lon="0.22222">
        <ele>2533</ele>
        <time>2022-03-12T14:15:16Z</time>
      </trkpt>
      <trkpt lat="42.8675" lon="0.22226">
        <ele>2533</ele>
        <time>2022-03-12T14:15:17Z</time>
      </trkpt>
      <trkpt lat="42.8675" lon="0.22232">
        <ele>2533</ele>
        <time>2022-03-12T14:15:18Z</time>
      </trkpt>
      <trkpt lat="42.8675" lon="0.22238">
        <ele>2532</ele>
        <time>2022-03-12T14:15:19Z</time>
      </trkpt>
      <trkpt lat="42.86749" lon="0.22243">
        <ele>2532</ele>
        <time>2022-03-12T14:15:20Z</time>
      </trkpt>
      <trkpt lat="42.86748" lon="0.22247">
        <ele>2531</ele>
        <time>2022-03-12T14:15:21Z</time>
      </trkpt>
      <trkpt lat="42.86749" lon="0.22251">
        <ele>2529</ele>
        <time>2022-03-12T14:15:43Z</time>
      </trkpt>
      <trkpt lat="42.86751" lon="0.22256">
        <ele>2528</ele>
        <time>2022-03-12T14:15:44Z</time>
      </trkpt>
      <trkpt lat="42.86752" lon="0.22262">
        <ele>2528</ele>
        <time>2022-03-12T14:15:45Z</time>
      </trkpt>
      <trkpt lat="42.86752" lon="0.22269">
        <ele>2527</ele>
        <time>2022-03-12T14:15:46Z</time>
      </trkpt>
      <trkpt lat="42.86752" lon="0.22272">
        <ele>2526</ele>
        <time>2022-03-12T14:15:47Z</time>
      </trkpt>
      <trkpt lat="42.86754" lon="0.22272">
        <ele>2522</ele>
        <time>2022-03-12T14:15:51Z</time>
      </trkpt>
      <trkpt lat="42.86757" lon="0.22273">
        <ele>2522</ele>
        <time>2022-03-12T14:15:54Z</time>
      </trkpt>
      <trkpt lat="42.86759" lon="0.22275">
        <ele>2522</ele>
        <time>2022-03-12T14:15:55Z</time>
      </trkpt>
      <trkpt lat="42.8676" lon="0.22279">
        <ele>2522</ele>
        <time>2022-03-12T14:15:56Z</time>
      </trkpt>
      <trkpt lat="42.86761" lon="0.22285">
        <ele>2520</ele>
        <time>2022-03-12T14:15:57Z</time>
      </trkpt>
      <trkpt lat="42.86763" lon="0.22288">
        <ele>2518</ele>
        <time>2022-03-12T14:15:58Z</time>
      </trkpt>
      <trkpt lat="42.86765" lon="0.22292">
        <ele>2515</ele>
        <time>2022-03-12T14:15:59Z</time>
      </trkpt>
      <trkpt lat="42.86764" lon="0.22297">
        <ele>2512</ele>
        <time>2022-03-12T14:16:00Z</time>
      </trkpt>
      <trkpt lat="42.86765" lon="0.22302">
        <ele>2512</ele>
        <time>2022-03-12T14:16:01Z</time>
      </trkpt>
      <trkpt lat="42.86769" lon="0.22307">
        <ele>2508</ele>
        <time>2022-03-12T14:16:02Z</time>
      </trkpt>
      <trkpt lat="42.86769" lon="0.22312">
        <ele>2506</ele>
        <time>2022-03-12T14:16:03Z</time>
      </trkpt>
      <trkpt lat="42.8677" lon="0.22317">
        <ele>2504</ele>
        <time>2022-03-12T14:16:04Z</time>
      </trkpt>
      <trkpt lat="42.86773" lon="0.22322">
        <ele>2501</ele>
        <time>2022-03-12T14:16:05Z</time>
      </trkpt>
      <trkpt lat="42.86774" lon="0.22329">
        <ele>2498</ele>
        <time>2022-03-12T14:16:06Z</time>
      </trkpt>
      <trkpt lat="42.86775" lon="0.22338">
        <ele>2493</ele>
        <time>2022-03-12T14:16:07Z</time>
      </trkpt>
      <trkpt lat="42.86777" lon="0.22347">
        <ele>2491</ele>
        <time>2022-03-12T14:16:08Z</time>
      </trkpt>
      <trkpt lat="42.86775" lon="0.22355">
        <ele>2489</ele>
        <time>2022-03-12T14:16:09Z</time>
      </trkpt>
      <trkpt lat="42.86774" lon="0.22365">
        <ele>2487</ele>
        <time>2022-03-12T14:16:10Z</time>
      </trkpt>
      <trkpt lat="42.86773" lon="0.22373">
        <ele>2483</ele>
        <time>2022-03-12T14:16:11Z</time>
      </trkpt>
      <trkpt lat="42.86774" lon="0.22381">
        <ele>2481</ele>
        <time>2022-03-12T14:16:12Z</time>
      </trkpt>
      <trkpt lat="42.86778" lon="0.22389">
        <ele>2477</ele>
        <time>2022-03-12T14:16:13Z</time>
      </trkpt>
      <trkpt lat="42.86777" lon="0.22397">
        <ele>2472</ele>
        <time>2022-03-12T14:16:14Z</time>
      </trkpt>
      <trkpt lat="42.86773" lon="0.22402">
        <ele>2469</ele>
        <time>2022-03-12T14:16:15Z</time>
      </trkpt>
      <trkpt lat="42.86772" lon="0.22408">
        <ele>2467</ele>
        <time>2022-03-12T14:16:16Z</time>
      </trkpt>
      <trkpt lat="42.86772" lon="0.22415">
        <ele>2466</ele>
        <time>2022-03-12T14:16:17Z</time>
      </trkpt>
      <trkpt lat="42.86769" lon="0.22422">
        <ele>2465</ele>
        <time>2022-03-12T14:16:18Z</time>
      </trkpt>
      <trkpt lat="42.86766" lon="0.22424">
        <ele>2463</ele>
        <time>2022-03-12T14:16:19Z</time>
      </trkpt>
      <trkpt lat="42.86764" lon="0.22426">
        <ele>2459</ele>
        <time>2022-03-12T14:17:47Z</time>
      </trkpt>
      <trkpt lat="42.86763" lon="0.22428">
        <ele>2459</ele>
        <time>2022-03-12T14:17:48Z</time>
      </trkpt>
      <trkpt lat="42.86761" lon="0.22433">
        <ele>2458</ele>
        <time>2022-03-12T14:17:49Z</time>
      </trkpt>
      <trkpt lat="42.86759" lon="0.22438">
        <ele>2457</ele>
        <time>2022-03-12T14:17:50Z</time>
      </trkpt>
      <trkpt lat="42.86756" lon="0.22444">
        <ele>2457</ele>
        <time>2022-03-12T14:17:51Z</time>
      </trkpt>
      <trkpt lat="42.86752" lon="0.22451">
        <ele>2456</ele>
        <time>2022-03-12T14:17:52Z</time>
      </trkpt>
      <trkpt lat="42.86748" lon="0.22458">
        <ele>2454</ele>
        <time>2022-03-12T14:17:53Z</time>
      </trkpt>
      <trkpt lat="42.86744" lon="0.22466">
        <ele>2453</ele>
        <time>2022-03-12T14:17:54Z</time>
      </trkpt>
      <trkpt lat="42.8674" lon="0.22475">
        <ele>2452</ele>
        <time>2022-03-12T14:17:55Z</time>
      </trkpt>
      <trkpt lat="42.86736" lon="0.22483">
        <ele>2450</ele>
        <time>2022-03-12T14:17:56Z</time>
      </trkpt>
      <trkpt lat="42.86732" lon="0.22492">
        <ele>2449</ele>
        <time>2022-03-12T14:17:57Z</time>
      </trkpt>
      <trkpt lat="42.86728" lon="0.22499">
        <ele>2448</ele>
        <time>2022-03-12T14:17:58Z</time>
      </trkpt>
      <trkpt lat="42.86724" lon="0.22506">
        <ele>2447</ele>
        <time>2022-03-12T14:17:59Z</time>
      </trkpt>
      <trkpt lat="42.8672" lon="0.22513">
        <ele>2447</ele>
        <time>2022-03-12T14:18:00Z</time>
      </trkpt>
      <trkpt lat="42.86716" lon="0.2252">
        <ele>2447</ele>
        <time>2022-03-12T14:18:01Z</time>
      </trkpt>
      <trkpt lat="42.86711" lon="0.22526">
        <ele>2446</ele>
        <time>2022-03-12T14:18:02Z</time>
      </trkpt>
      <trkpt lat="42.86707" lon="0.22533">
        <ele>2445</ele>
        <time>2022-03-12T14:18:03Z</time>
      </trkpt>
      <trkpt lat="42.86704" lon="0.22538">
        <ele>2444</ele>
        <time>2022-03-12T14:18:04Z</time>
      </trkpt>
      <trkpt lat="42.86701" lon="0.22541">
        <ele>2444</ele>
        <time>2022-03-12T14:18:05Z</time>
      </trkpt>
      <trkpt lat="42.86698" lon="0.22544">
        <ele>2444</ele>
        <time>2022-03-12T14:18:06Z</time>
      </trkpt>
      <trkpt lat="42.86696" lon="0.22547">
        <ele>2444</ele>
        <time>2022-03-12T14:18:07Z</time>
      </trkpt>
      <trkpt lat="42.86695" lon="0.22548">
        <ele>2444</ele>
        <time>2022-03-12T14:18:08Z</time>
      </trkpt>
      <trkpt lat="42.86692" lon="0.2255">
        <ele>2443</ele>
        <time>2022-03-12T14:18:10Z</time>
      </trkpt>
      <trkpt lat="42.8669" lon="0.22551">
        <ele>2444</ele>
        <time>2022-03-12T14:18:12Z</time>
      </trkpt>
      <trkpt lat="42.86688" lon="0.22554">
        <ele>2445</ele>
        <time>2022-03-12T14:18:14Z</time>
      </trkpt>
      <trkpt lat="42.86686" lon="0.22556">
        <ele>2444</ele>
        <time>2022-03-12T14:18:15Z</time>
      </trkpt>
      <trkpt lat="42.86683" lon="0.2256">
        <ele>2444</ele>
        <time>2022-03-12T14:18:16Z</time>
      </trkpt>
      <trkpt lat="42.86679" lon="0.22564">
        <ele>2444</ele>
        <time>2022-03-12T14:18:17Z</time>
      </trkpt>
      <trkpt lat="42.86676" lon="0.22569">
        <ele>2443</ele>
        <time>2022-03-12T14:18:18Z</time>
      </trkpt>
      <trkpt lat="42.86672" lon="0.22575">
        <ele>2442</ele>
        <time>2022-03-12T14:18:19Z</time>
      </trkpt>
      <trkpt lat="42.86668" lon="0.22581">
        <ele>2440</ele>
        <time>2022-03-12T14:18:20Z</time>
      </trkpt>
      <trkpt lat="42.86663" lon="0.22588">
        <ele>2439</ele>
        <time>2022-03-12T14:18:21Z</time>
      </trkpt>
      <trkpt lat="42.86659" lon="0.22596">
        <ele>2436</ele>
        <time>2022-03-12T14:18:22Z</time>
      </trkpt>
      <trkpt lat="42.86654" lon="0.22605">
        <ele>2434</ele>
        <time>2022-03-12T14:18:23Z</time>
      </trkpt>
      <trkpt lat="42.86649" lon="0.22612">
        <ele>2431</ele>
        <time>2022-03-12T14:18:24Z</time>
      </trkpt>
      <trkpt lat="42.86645" lon="0.22617">
        <ele>2430</ele>
        <time>2022-03-12T14:18:25Z</time>
      </trkpt>
      <trkpt lat="42.86641" lon="0.22621">
        <ele>2428</ele>
        <time>2022-03-12T14:18:26Z</time>
      </trkpt>
      <trkpt lat="42.86638" lon="0.22624">
        <ele>2428</ele>
        <time>2022-03-12T14:18:27Z</time>
      </trkpt>
      <trkpt lat="42.86635" lon="0.22628">
        <ele>2427</ele>
        <time>2022-03-12T14:18:28Z</time>
      </trkpt>
      <trkpt lat="42.86632" lon="0.22632">
        <ele>2427</ele>
        <time>2022-03-12T14:18:29Z</time>
      </trkpt>
      <trkpt lat="42.86628" lon="0.22637">
        <ele>2426</ele>
        <time>2022-03-12T14:18:30Z</time>
      </trkpt>
      <trkpt lat="42.86624" lon="0.22641">
        <ele>2425</ele>
        <time>2022-03-12T14:18:31Z</time>
      </trkpt>
      <trkpt lat="42.86621" lon="0.22646">
        <ele>2424</ele>
        <time>2022-03-12T14:18:32Z</time>
      </trkpt>
      <trkpt lat="42.86618" lon="0.22651">
        <ele>2424</ele>
        <time>2022-03-12T14:18:33Z</time>
      </trkpt>
      <trkpt lat="42.86615" lon="0.22654">
        <ele>2421</ele>
        <time>2022-03-12T14:18:34Z</time>
      </trkpt>
      <trkpt lat="42.86612" lon="0.22658">
        <ele>2422</ele>
        <time>2022-03-12T14:18:35Z</time>
      </trkpt>
      <trkpt lat="42.8661" lon="0.22661">
        <ele>2422</ele>
        <time>2022-03-12T14:18:36Z</time>
      </trkpt>
      <trkpt lat="42.86608" lon="0.22664">
        <ele>2422</ele>
        <time>2022-03-12T14:18:37Z</time>
      </trkpt>
      <trkpt lat="42.86605" lon="0.22666">
        <ele>2422</ele>
        <time>2022-03-12T14:18:38Z</time>
      </trkpt>
      <trkpt lat="42.86602" lon="0.2267">
        <ele>2421</ele>
        <time>2022-03-12T14:18:39Z</time>
      </trkpt>
      <trkpt lat="42.86599" lon="0.22674">
        <ele>2420</ele>
        <time>2022-03-12T14:18:40Z</time>
      </trkpt>
      <trkpt lat="42.86595" lon="0.22681">
        <ele>2419</ele>
        <time>2022-03-12T14:18:41Z</time>
      </trkpt>
      <trkpt lat="42.8659" lon="0.22688">
        <ele>2418</ele>
        <time>2022-03-12T14:18:42Z</time>
      </trkpt>
      <trkpt lat="42.86586" lon="0.22695">
        <ele>2416</ele>
        <time>2022-03-12T14:18:43Z</time>
      </trkpt>
      <trkpt lat="42.86581" lon="0.22702">
        <ele>2415</ele>
        <time>2022-03-12T14:18:44Z</time>
      </trkpt>
      <trkpt lat="42.86577" lon="0.2271">
        <ele>2413</ele>
        <time>2022-03-12T14:18:45Z</time>
      </trkpt>
      <trkpt lat="42.86572" lon="0.22717">
        <ele>2412</ele>
        <time>2022-03-12T14:18:46Z</time>
      </trkpt>
      <trkpt lat="42.86567" lon="0.22724">
        <ele>2411</ele>
        <time>2022-03-12T14:18:47Z</time>
      </trkpt>
      <trkpt lat="42.86561" lon="0.22731">
        <ele>2409</ele>
        <time>2022-03-12T14:18:48Z</time>
      </trkpt>
      <trkpt lat="42.86556" lon="0.2274">
        <ele>2407</ele>
        <time>2022-03-12T14:18:49Z</time>
      </trkpt>
      <trkpt lat="42.86551" lon="0.22748">
        <ele>2406</ele>
        <time>2022-03-12T14:18:50Z</time>
      </trkpt>
      <trkpt lat="42.86547" lon="0.22756">
        <ele>2405</ele>
        <time>2022-03-12T14:18:51Z</time>
      </trkpt>
      <trkpt lat="42.86543" lon="0.22764">
        <ele>2404</ele>
        <time>2022-03-12T14:18:52Z</time>
      </trkpt>
      <trkpt lat="42.8654" lon="0.22771">
        <ele>2402</ele>
        <time>2022-03-12T14:18:53Z</time>
      </trkpt>
      <trkpt lat="42.86537" lon="0.22778">
        <ele>2401</ele>
        <time>2022-03-12T14:18:54Z</time>
      </trkpt>
      <trkpt lat="42.86535" lon="0.22784">
        <ele>2401</ele>
        <time>2022-03-12T14:18:55Z</time>
      </trkpt>
      <trkpt lat="42.86533" lon="0.22791">
        <ele>2400</ele>
        <time>2022-03-12T14:18:56Z</time>
      </trkpt>
      <trkpt lat="42.8653" lon="0.22799">
        <ele>2399</ele>
        <time>2022-03-12T14:18:57Z</time>
      </trkpt>
      <trkpt lat="42.86526" lon="0.22807">
        <ele>2398</ele>
        <time>2022-03-12T14:18:58Z</time>
      </trkpt>
      <trkpt lat="42.86523" lon="0.22814">
        <ele>2398</ele>
        <time>2022-03-12T14:18:59Z</time>
      </trkpt>
      <trkpt lat="42.8652" lon="0.22822">
        <ele>2394</ele>
        <time>2022-03-12T14:19:00Z</time>
      </trkpt>
      <trkpt lat="42.86517" lon="0.22833">
        <ele>2394</ele>
        <time>2022-03-12T14:19:01Z</time>
      </trkpt>
      <trkpt lat="42.86514" lon="0.22844">
        <ele>2393</ele>
        <time>2022-03-12T14:19:02Z</time>
      </trkpt>
      <trkpt lat="42.86512" lon="0.22855">
        <ele>2391</ele>
        <time>2022-03-12T14:19:03Z</time>
      </trkpt>
      <trkpt lat="42.8651" lon="0.22865">
        <ele>2389</ele>
        <time>2022-03-12T14:19:04Z</time>
      </trkpt>
      <trkpt lat="42.8651" lon="0.22876">
        <ele>2388</ele>
        <time>2022-03-12T14:19:05Z</time>
      </trkpt>
      <trkpt lat="42.8651" lon="0.22886">
        <ele>2386</ele>
        <time>2022-03-12T14:19:06Z</time>
      </trkpt>
      <trkpt lat="42.86508" lon="0.22896">
        <ele>2383</ele>
        <time>2022-03-12T14:19:07Z</time>
      </trkpt>
      <trkpt lat="42.86504" lon="0.22906">
        <ele>2382</ele>
        <time>2022-03-12T14:19:08Z</time>
      </trkpt>
      <trkpt lat="42.86501" lon="0.22915">
        <ele>2382</ele>
        <time>2022-03-12T14:19:09Z</time>
      </trkpt>
      <trkpt lat="42.86496" lon="0.22922">
        <ele>2381</ele>
        <time>2022-03-12T14:19:10Z</time>
      </trkpt>
      <trkpt lat="42.8649" lon="0.22926">
        <ele>2380</ele>
        <time>2022-03-12T14:19:11Z</time>
      </trkpt>
      <trkpt lat="42.86485" lon="0.22929">
        <ele>2379</ele>
        <time>2022-03-12T14:19:12Z</time>
      </trkpt>
      <trkpt lat="42.86481" lon="0.22932">
        <ele>2378</ele>
        <time>2022-03-12T14:19:13Z</time>
      </trkpt>
      <trkpt lat="42.86469" lon="0.22941">
        <ele>2376</ele>
        <time>2022-03-12T14:19:16Z</time>
      </trkpt>
      <trkpt lat="42.86458" lon="0.22952">
        <ele>2374</ele>
        <time>2022-03-12T14:19:19Z</time>
      </trkpt>
      <trkpt lat="42.86452" lon="0.22957">
        <ele>2373</ele>
        <time>2022-03-12T14:19:21Z</time>
      </trkpt>
      <trkpt lat="42.86449" lon="0.22962">
        <ele>2372</ele>
        <time>2022-03-12T14:19:22Z</time>
      </trkpt>
      <trkpt lat="42.86447" lon="0.22966">
        <ele>2372</ele>
        <time>2022-03-12T14:19:23Z</time>
      </trkpt>
      <trkpt lat="42.86445" lon="0.22969">
        <ele>2371</ele>
        <time>2022-03-12T14:19:24Z</time>
      </trkpt>
      <trkpt lat="42.86444" lon="0.22972">
        <ele>2371</ele>
        <time>2022-03-12T14:19:25Z</time>
      </trkpt>
      <trkpt lat="42.86443" lon="0.22975">
        <ele>2370</ele>
        <time>2022-03-12T14:19:26Z</time>
      </trkpt>
      <trkpt lat="42.86442" lon="0.22978">
        <ele>2370</ele>
        <time>2022-03-12T14:19:27Z</time>
      </trkpt>
      <trkpt lat="42.8644" lon="0.22981">
        <ele>2370</ele>
        <time>2022-03-12T14:19:28Z</time>
      </trkpt>
      <trkpt lat="42.86439" lon="0.22983">
        <ele>2370</ele>
        <time>2022-03-12T14:19:29Z</time>
      </trkpt>
      <trkpt lat="42.86438" lon="0.22985">
        <ele>2369</ele>
        <time>2022-03-12T14:19:30Z</time>
      </trkpt>
      <trkpt lat="42.86437" lon="0.22988">
        <ele>2369</ele>
        <time>2022-03-12T14:19:32Z</time>
      </trkpt>
      <trkpt lat="42.86446" lon="0.23">
        <ele>2366</ele>
        <time>2022-03-12T14:20:04Z</time>
      </trkpt>
      <trkpt lat="42.8645" lon="0.23016">
        <ele>2359</ele>
        <time>2022-03-12T14:20:06Z</time>
      </trkpt>
      <trkpt lat="42.86452" lon="0.23034">
        <ele>2355</ele>
        <time>2022-03-12T14:20:08Z</time>
      </trkpt>
      <trkpt lat="42.86446" lon="0.2305">
        <ele>2347</ele>
        <time>2022-03-12T14:20:10Z</time>
      </trkpt>
      <trkpt lat="42.86444" lon="0.23068">
        <ele>2344</ele>
        <time>2022-03-12T14:20:12Z</time>
      </trkpt>
      <trkpt lat="42.86435" lon="0.23081">
        <ele>2337</ele>
        <time>2022-03-12T14:20:14Z</time>
      </trkpt>
      <trkpt lat="42.86426" lon="0.23093">
        <ele>2333</ele>
        <time>2022-03-12T14:20:16Z</time>
      </trkpt>
      <trkpt lat="42.86418" lon="0.23108">
        <ele>2330</ele>
        <time>2022-03-12T14:20:18Z</time>
      </trkpt>
      <trkpt lat="42.86408" lon="0.23123">
        <ele>2324</ele>
        <time>2022-03-12T14:20:20Z</time>
      </trkpt>
      <trkpt lat="42.86399" lon="0.23139">
        <ele>2320</ele>
        <time>2022-03-12T14:20:22Z</time>
      </trkpt>
      <trkpt lat="42.86386" lon="0.23153">
        <ele>2314</ele>
        <time>2022-03-12T14:20:24Z</time>
      </trkpt>
      <trkpt lat="42.86375" lon="0.23163">
        <ele>2308</ele>
        <time>2022-03-12T14:20:26Z</time>
      </trkpt>
      <trkpt lat="42.86367" lon="0.23184">
        <ele>2305</ele>
        <time>2022-03-12T14:20:28Z</time>
      </trkpt>
      <trkpt lat="42.86362" lon="0.23196">
        <ele>2302</ele>
        <time>2022-03-12T14:20:29Z</time>
      </trkpt>
      <trkpt lat="42.86354" lon="0.23208">
        <ele>2298</ele>
        <time>2022-03-12T14:20:30Z</time>
      </trkpt>
      <trkpt lat="42.86344" lon="0.23218">
        <ele>2294</ele>
        <time>2022-03-12T14:20:31Z</time>
      </trkpt>
      <trkpt lat="42.86335" lon="0.23227">
        <ele>2292</ele>
        <time>2022-03-12T14:20:32Z</time>
      </trkpt>
      <trkpt lat="42.86325" lon="0.23237">
        <ele>2289</ele>
        <time>2022-03-12T14:20:33Z</time>
      </trkpt>
      <trkpt lat="42.86318" lon="0.23246">
        <ele>2286</ele>
        <time>2022-03-12T14:20:34Z</time>
      </trkpt>
      <trkpt lat="42.86309" lon="0.23262">
        <ele>2284</ele>
        <time>2022-03-12T14:20:36Z</time>
      </trkpt>
      <trkpt lat="42.86305" lon="0.23278">
        <ele>2282</ele>
        <time>2022-03-12T14:20:38Z</time>
      </trkpt>
      <trkpt lat="42.86302" lon="0.23296">
        <ele>2280</ele>
        <time>2022-03-12T14:20:40Z</time>
      </trkpt>
      <trkpt lat="42.86305" lon="0.23313">
        <ele>2278</ele>
        <time>2022-03-12T14:20:42Z</time>
      </trkpt>
      <trkpt lat="42.86303" lon="0.23329">
        <ele>2276</ele>
        <time>2022-03-12T14:20:44Z</time>
      </trkpt>
      <trkpt lat="42.86302" lon="0.23344">
        <ele>2275</ele>
        <time>2022-03-12T14:20:46Z</time>
      </trkpt>
      <trkpt lat="42.863" lon="0.23356">
        <ele>2274</ele>
        <time>2022-03-12T14:20:49Z</time>
      </trkpt>
      <trkpt lat="42.86299" lon="0.23363">
        <ele>2272</ele>
        <time>2022-03-12T14:22:03Z</time>
      </trkpt>
      <trkpt lat="42.86299" lon="0.23366">
        <ele>2271</ele>
        <time>2022-03-12T14:22:05Z</time>
      </trkpt>
      <trkpt lat="42.86298" lon="0.23369">
        <ele>2272</ele>
        <time>2022-03-12T14:22:07Z</time>
      </trkpt>
      <trkpt lat="42.86296" lon="0.2337">
        <ele>2272</ele>
        <time>2022-03-12T14:22:09Z</time>
      </trkpt>
      <trkpt lat="42.86295" lon="0.23372">
        <ele>2272</ele>
        <time>2022-03-12T14:22:28Z</time>
      </trkpt>
      <trkpt lat="42.86294" lon="0.23374">
        <ele>2272</ele>
        <time>2022-03-12T14:22:30Z</time>
      </trkpt>
      <trkpt lat="42.86292" lon="0.23376">
        <ele>2272</ele>
        <time>2022-03-12T14:22:33Z</time>
      </trkpt>
      <trkpt lat="42.8629" lon="0.2338">
        <ele>2270</ele>
        <time>2022-03-12T14:22:35Z</time>
      </trkpt>
      <trkpt lat="42.86288" lon="0.23382">
        <ele>2270</ele>
        <time>2022-03-12T14:22:36Z</time>
      </trkpt>
      <trkpt lat="42.86287" lon="0.23385">
        <ele>2271</ele>
        <time>2022-03-12T14:22:37Z</time>
      </trkpt>
      <trkpt lat="42.86284" lon="0.23388">
        <ele>2271</ele>
        <time>2022-03-12T14:22:38Z</time>
      </trkpt>
      <trkpt lat="42.86275" lon="0.23401">
        <ele>2270</ele>
        <time>2022-03-12T14:22:41Z</time>
      </trkpt>
      <trkpt lat="42.8627" lon="0.23412">
        <ele>2269</ele>
        <time>2022-03-12T14:22:43Z</time>
      </trkpt>
      <trkpt lat="42.86262" lon="0.23423">
        <ele>2268</ele>
        <time>2022-03-12T14:22:45Z</time>
      </trkpt>
      <trkpt lat="42.86255" lon="0.23431">
        <ele>2266</ele>
        <time>2022-03-12T14:22:47Z</time>
      </trkpt>
      <trkpt lat="42.8625" lon="0.23435">
        <ele>2263</ele>
        <time>2022-03-12T14:22:50Z</time>
      </trkpt>
      <trkpt lat="42.86251" lon="0.23443">
        <ele>2262</ele>
        <time>2022-03-12T14:22:52Z</time>
      </trkpt>
      <trkpt lat="42.86248" lon="0.23457">
        <ele>2259</ele>
        <time>2022-03-12T14:22:54Z</time>
      </trkpt>
      <trkpt lat="42.86238" lon="0.23462">
        <ele>2255</ele>
        <time>2022-03-12T14:22:56Z</time>
      </trkpt>
      <trkpt lat="42.86233" lon="0.23475">
        <ele>2251</ele>
        <time>2022-03-12T14:22:59Z</time>
      </trkpt>
      <trkpt lat="42.86235" lon="0.23489">
        <ele>2246</ele>
        <time>2022-03-12T14:23:01Z</time>
      </trkpt>
      <trkpt lat="42.86244" lon="0.23503">
        <ele>2240</ele>
        <time>2022-03-12T14:23:03Z</time>
      </trkpt>
      <trkpt lat="42.86244" lon="0.23514">
        <ele>2237</ele>
        <time>2022-03-12T14:23:04Z</time>
      </trkpt>
      <trkpt lat="42.8624" lon="0.23522">
        <ele>2235</ele>
        <time>2022-03-12T14:23:05Z</time>
      </trkpt>
      <trkpt lat="42.86235" lon="0.23526">
        <ele>2233</ele>
        <time>2022-03-12T14:23:06Z</time>
      </trkpt>
      <trkpt lat="42.86231" lon="0.23531">
        <ele>2232</ele>
        <time>2022-03-12T14:23:07Z</time>
      </trkpt>
      <trkpt lat="42.86228" lon="0.23536">
        <ele>2231</ele>
        <time>2022-03-12T14:23:08Z</time>
      </trkpt>
      <trkpt lat="42.86224" lon="0.23541">
        <ele>2230</ele>
        <time>2022-03-12T14:23:09Z</time>
      </trkpt>
      <trkpt lat="42.86221" lon="0.23547">
        <ele>2230</ele>
        <time>2022-03-12T14:23:10Z</time>
      </trkpt>
      <trkpt lat="42.86219" lon="0.23553">
        <ele>2229</ele>
        <time>2022-03-12T14:23:11Z</time>
      </trkpt>
      <trkpt lat="42.86218" lon="0.23562">
        <ele>2228</ele>
        <time>2022-03-12T14:23:12Z</time>
      </trkpt>
      <trkpt lat="42.86214" lon="0.23579">
        <ele>2223</ele>
        <time>2022-03-12T14:23:14Z</time>
      </trkpt>
      <trkpt lat="42.86215" lon="0.23587">
        <ele>2220</ele>
        <time>2022-03-12T14:23:15Z</time>
      </trkpt>
      <trkpt lat="42.86218" lon="0.23603">
        <ele>2214</ele>
        <time>2022-03-12T14:23:17Z</time>
      </trkpt>
      <trkpt lat="42.86218" lon="0.23619">
        <ele>2212</ele>
        <time>2022-03-12T14:23:19Z</time>
      </trkpt>
      <trkpt lat="42.86215" lon="0.23631">
        <ele>2208</ele>
        <time>2022-03-12T14:23:21Z</time>
      </trkpt>
      <trkpt lat="42.86211" lon="0.23629">
        <ele>2206</ele>
        <time>2022-03-12T14:24:08Z</time>
      </trkpt>
      <trkpt lat="42.86204" lon="0.23643">
        <ele>2204</ele>
        <time>2022-03-12T14:24:53Z</time>
      </trkpt>
      <trkpt lat="42.86195" lon="0.23657">
        <ele>2202</ele>
        <time>2022-03-12T14:24:56Z</time>
      </trkpt>
      <trkpt lat="42.86188" lon="0.23667">
        <ele>2200</ele>
        <time>2022-03-12T14:24:58Z</time>
      </trkpt>
      <trkpt lat="42.86179" lon="0.23677">
        <ele>2198</ele>
        <time>2022-03-12T14:25:01Z</time>
      </trkpt>
      <trkpt lat="42.86173" lon="0.23685">
        <ele>2196</ele>
        <time>2022-03-12T14:25:03Z</time>
      </trkpt>
      <trkpt lat="42.8617" lon="0.23688">
        <ele>2196</ele>
        <time>2022-03-12T14:25:04Z</time>
      </trkpt>
      <trkpt lat="42.86167" lon="0.23691">
        <ele>2194</ele>
        <time>2022-03-12T14:25:05Z</time>
      </trkpt>
      <trkpt lat="42.86165" lon="0.23693">
        <ele>2193</ele>
        <time>2022-03-12T14:25:06Z</time>
      </trkpt>
      <trkpt lat="42.86163" lon="0.23696">
        <ele>2192</ele>
        <time>2022-03-12T14:25:07Z</time>
      </trkpt>
      <trkpt lat="42.86162" lon="0.23699">
        <ele>2192</ele>
        <time>2022-03-12T14:25:08Z</time>
      </trkpt>
      <trkpt lat="42.86159" lon="0.23702">
        <ele>2191</ele>
        <time>2022-03-12T14:25:09Z</time>
      </trkpt>
      <trkpt lat="42.86156" lon="0.23705">
        <ele>2191</ele>
        <time>2022-03-12T14:25:10Z</time>
      </trkpt>
      <trkpt lat="42.86153" lon="0.23709">
        <ele>2190</ele>
        <time>2022-03-12T14:25:11Z</time>
      </trkpt>
      <trkpt lat="42.86157" lon="0.23713">
        <ele>2188</ele>
        <time>2022-03-12T14:25:13Z</time>
      </trkpt>
      <trkpt lat="42.86161" lon="0.23717">
        <ele>2185</ele>
        <time>2022-03-12T14:25:14Z</time>
      </trkpt>
      <trkpt lat="42.86164" lon="0.23732">
        <ele>2179</ele>
        <time>2022-03-12T14:25:17Z</time>
      </trkpt>
      <trkpt lat="42.8616" lon="0.23747">
        <ele>2174</ele>
        <time>2022-03-12T14:25:19Z</time>
      </trkpt>
      <trkpt lat="42.86152" lon="0.23761">
        <ele>2171</ele>
        <time>2022-03-12T14:25:21Z</time>
      </trkpt>
      <trkpt lat="42.86146" lon="0.23769">
        <ele>2168</ele>
        <time>2022-03-12T14:25:23Z</time>
      </trkpt>
      <trkpt lat="42.86138" lon="0.23778">
        <ele>2167</ele>
        <time>2022-03-12T14:25:25Z</time>
      </trkpt>
      <trkpt lat="42.86127" lon="0.23788">
        <ele>2164</ele>
        <time>2022-03-12T14:25:28Z</time>
      </trkpt>
      <trkpt lat="42.86118" lon="0.23796">
        <ele>2162</ele>
        <time>2022-03-12T14:25:30Z</time>
      </trkpt>
      <trkpt lat="42.86107" lon="0.23808">
        <ele>2160</ele>
        <time>2022-03-12T14:25:32Z</time>
      </trkpt>
      <trkpt lat="42.86099" lon="0.2382">
        <ele>2158</ele>
        <time>2022-03-12T14:25:34Z</time>
      </trkpt>
      <trkpt lat="42.86095" lon="0.23831">
        <ele>2156</ele>
        <time>2022-03-12T14:25:36Z</time>
      </trkpt>
      <trkpt lat="42.86091" lon="0.23843">
        <ele>2155</ele>
        <time>2022-03-12T14:25:38Z</time>
      </trkpt>
      <trkpt lat="42.86085" lon="0.23853">
        <ele>2153</ele>
        <time>2022-03-12T14:25:40Z</time>
      </trkpt>
      <trkpt lat="42.86076" lon="0.23858">
        <ele>2152</ele>
        <time>2022-03-12T14:25:47Z</time>
      </trkpt>
      <trkpt lat="42.86076" lon="0.23854">
        <ele>2152</ele>
        <time>2022-03-12T14:26:11Z</time>
      </trkpt>
      <trkpt lat="42.86084" lon="0.23854">
        <ele>2150</ele>
        <time>2022-03-12T14:26:21Z</time>
      </trkpt>
      <trkpt lat="42.86083" lon="0.23856">
        <ele>2151</ele>
        <time>2022-03-12T14:27:02Z</time>
      </trkpt>
      <trkpt lat="42.86082" lon="0.23858">
        <ele>2150</ele>
        <time>2022-03-12T14:27:05Z</time>
      </trkpt>
      <trkpt lat="42.86084" lon="0.23861">
        <ele>2149</ele>
        <time>2022-03-12T14:27:07Z</time>
      </trkpt>
      <trkpt lat="42.86087" lon="0.23862">
        <ele>2148</ele>
        <time>2022-03-12T14:27:10Z</time>
      </trkpt>
      <trkpt lat="42.86089" lon="0.23864">
        <ele>2148</ele>
        <time>2022-03-12T14:27:11Z</time>
      </trkpt>
      <trkpt lat="42.8609" lon="0.23868">
        <ele>2147</ele>
        <time>2022-03-12T14:27:12Z</time>
      </trkpt>
      <trkpt lat="42.86087" lon="0.23874">
        <ele>2146</ele>
        <time>2022-03-12T14:27:13Z</time>
      </trkpt>
      <trkpt lat="42.86085" lon="0.23876">
        <ele>2144</ele>
        <time>2022-03-12T14:27:14Z</time>
      </trkpt>
      <trkpt lat="42.86084" lon="0.23879">
        <ele>2141</ele>
        <time>2022-03-12T14:27:23Z</time>
      </trkpt>
      <trkpt lat="42.86081" lon="0.23881">
        <ele>2140</ele>
        <time>2022-03-12T14:27:49Z</time>
      </trkpt>
      <trkpt lat="42.86078" lon="0.23883">
        <ele>2140</ele>
        <time>2022-03-12T14:27:50Z</time>
      </trkpt>
      <trkpt lat="42.86075" lon="0.23885">
        <ele>2139</ele>
        <time>2022-03-12T14:27:51Z</time>
      </trkpt>
      <trkpt lat="42.86075" lon="0.23888">
        <ele>2138</ele>
        <time>2022-03-12T14:27:52Z</time>
      </trkpt>
      <trkpt lat="42.86078" lon="0.239">
        <ele>2136</ele>
        <time>2022-03-12T14:27:54Z</time>
      </trkpt>
      <trkpt lat="42.86072" lon="0.2391">
        <ele>2132</ele>
        <time>2022-03-12T14:27:56Z</time>
      </trkpt>
      <trkpt lat="42.86073" lon="0.23925">
        <ele>2128</ele>
        <time>2022-03-12T14:27:59Z</time>
      </trkpt>
      <trkpt lat="42.86071" lon="0.23931">
        <ele>2126</ele>
        <time>2022-03-12T14:28:00Z</time>
      </trkpt>
      <trkpt lat="42.86075" lon="0.23945">
        <ele>2125</ele>
        <time>2022-03-12T14:28:02Z</time>
      </trkpt>
      <trkpt lat="42.86079" lon="0.23967">
        <ele>2121</ele>
        <time>2022-03-12T14:28:04Z</time>
      </trkpt>
      <trkpt lat="42.86083" lon="0.23987">
        <ele>2119</ele>
        <time>2022-03-12T14:28:06Z</time>
      </trkpt>
      <trkpt lat="42.86085" lon="0.24002">
        <ele>2120</ele>
        <time>2022-03-12T14:28:09Z</time>
      </trkpt>
      <trkpt lat="42.86089" lon="0.24014">
        <ele>2119</ele>
        <time>2022-03-12T14:28:23Z</time>
      </trkpt>
      <trkpt lat="42.8609" lon="0.24029">
        <ele>2119</ele>
        <time>2022-03-12T14:28:33Z</time>
      </trkpt>
      <trkpt lat="42.86084" lon="0.24042">
        <ele>2114</ele>
        <time>2022-03-12T14:28:35Z</time>
      </trkpt>
      <trkpt lat="42.86074" lon="0.24054">
        <ele>2109</ele>
        <time>2022-03-12T14:28:37Z</time>
      </trkpt>
      <trkpt lat="42.86061" lon="0.24067">
        <ele>2103</ele>
        <time>2022-03-12T14:28:39Z</time>
      </trkpt>
      <trkpt lat="42.86049" lon="0.24073">
        <ele>2099</ele>
        <time>2022-03-12T14:28:41Z</time>
      </trkpt>
      <trkpt lat="42.86034" lon="0.24079">
        <ele>2093</ele>
        <time>2022-03-12T14:28:43Z</time>
      </trkpt>
      <trkpt lat="42.86023" lon="0.24089">
        <ele>2090</ele>
        <time>2022-03-12T14:28:45Z</time>
      </trkpt>
      <trkpt lat="42.86012" lon="0.241">
        <ele>2087</ele>
        <time>2022-03-12T14:28:47Z</time>
      </trkpt>
      <trkpt lat="42.85999" lon="0.24115">
        <ele>2084</ele>
        <time>2022-03-12T14:28:49Z</time>
      </trkpt>
      <trkpt lat="42.85986" lon="0.24127">
        <ele>2079</ele>
        <time>2022-03-12T14:28:51Z</time>
      </trkpt>
      <trkpt lat="42.85981" lon="0.24134">
        <ele>2077</ele>
        <time>2022-03-12T14:28:52Z</time>
      </trkpt>
      <trkpt lat="42.85977" lon="0.24141">
        <ele>2075</ele>
        <time>2022-03-12T14:28:53Z</time>
      </trkpt>
      <trkpt lat="42.85971" lon="0.24145">
        <ele>2072</ele>
        <time>2022-03-12T14:28:54Z</time>
      </trkpt>
      <trkpt lat="42.85961" lon="0.24157">
        <ele>2064</ele>
        <time>2022-03-12T14:28:56Z</time>
      </trkpt>
      <trkpt lat="42.85955" lon="0.24163">
        <ele>2062</ele>
        <time>2022-03-12T14:28:57Z</time>
      </trkpt>
      <trkpt lat="42.85953" lon="0.24166">
        <ele>2062</ele>
        <time>2022-03-12T14:28:58Z</time>
      </trkpt>
      <trkpt lat="42.85955" lon="0.24163">
        <ele>2059</ele>
        <time>2022-03-12T14:29:02Z</time>
      </trkpt>
      <trkpt lat="42.85956" lon="0.24161">
        <ele>2058</ele>
        <time>2022-03-12T14:29:05Z</time>
      </trkpt>
      <trkpt lat="42.85959" lon="0.24159">
        <ele>2059</ele>
        <time>2022-03-12T14:29:35Z</time>
      </trkpt>
      <trkpt lat="42.85959" lon="0.24165">
        <ele>2058</ele>
        <time>2022-03-12T14:29:49Z</time>
      </trkpt>
      <trkpt lat="42.85956" lon="0.2417">
        <ele>2057</ele>
        <time>2022-03-12T14:29:50Z</time>
      </trkpt>
      <trkpt lat="42.85953" lon="0.24173">
        <ele>2057</ele>
        <time>2022-03-12T14:29:51Z</time>
      </trkpt>
      <trkpt lat="42.85951" lon="0.24174">
        <ele>2056</ele>
        <time>2022-03-12T14:29:52Z</time>
      </trkpt>
      <trkpt lat="42.85948" lon="0.24176">
        <ele>2055</ele>
        <time>2022-03-12T14:29:56Z</time>
      </trkpt>
      <trkpt lat="42.85945" lon="0.24178">
        <ele>2054</ele>
        <time>2022-03-12T14:29:57Z</time>
      </trkpt>
      <trkpt lat="42.85941" lon="0.2418">
        <ele>2053</ele>
        <time>2022-03-12T14:29:58Z</time>
      </trkpt>
      <trkpt lat="42.85937" lon="0.24183">
        <ele>2053</ele>
        <time>2022-03-12T14:29:59Z</time>
      </trkpt>
      <trkpt lat="42.85933" lon="0.24186">
        <ele>2053</ele>
        <time>2022-03-12T14:30:00Z</time>
      </trkpt>
      <trkpt lat="42.85932" lon="0.24192">
        <ele>2052</ele>
        <time>2022-03-12T14:30:01Z</time>
      </trkpt>
      <trkpt lat="42.85934" lon="0.24199">
        <ele>2050</ele>
        <time>2022-03-12T14:30:02Z</time>
      </trkpt>
      <trkpt lat="42.85929" lon="0.24214">
        <ele>2044</ele>
        <time>2022-03-12T14:30:04Z</time>
      </trkpt>
      <trkpt lat="42.85924" lon="0.24226">
        <ele>2038</ele>
        <time>2022-03-12T14:30:06Z</time>
      </trkpt>
      <trkpt lat="42.85917" lon="0.24239">
        <ele>2031</ele>
        <time>2022-03-12T14:30:08Z</time>
      </trkpt>
      <trkpt lat="42.85913" lon="0.24253">
        <ele>2025</ele>
        <time>2022-03-12T14:30:10Z</time>
      </trkpt>
      <trkpt lat="42.85909" lon="0.2426">
        <ele>2022</ele>
        <time>2022-03-12T14:30:11Z</time>
      </trkpt>
      <trkpt lat="42.85909" lon="0.24268">
        <ele>2019</ele>
        <time>2022-03-12T14:30:12Z</time>
      </trkpt>
      <trkpt lat="42.85907" lon="0.24277">
        <ele>2016</ele>
        <time>2022-03-12T14:30:13Z</time>
      </trkpt>
      <trkpt lat="42.85904" lon="0.24285">
        <ele>2012</ele>
        <time>2022-03-12T14:30:14Z</time>
      </trkpt>
      <trkpt lat="42.85902" lon="0.24293">
        <ele>2010</ele>
        <time>2022-03-12T14:30:15Z</time>
      </trkpt>
      <trkpt lat="42.85898" lon="0.24303">
        <ele>2007</ele>
        <time>2022-03-12T14:30:16Z</time>
      </trkpt>
      <trkpt lat="42.85894" lon="0.24311">
        <ele>2003</ele>
        <time>2022-03-12T14:30:17Z</time>
      </trkpt>
      <trkpt lat="42.85891" lon="0.24316">
        <ele>2001</ele>
        <time>2022-03-12T14:30:18Z</time>
      </trkpt>
      <trkpt lat="42.85889" lon="0.24321">
        <ele>2000</ele>
        <time>2022-03-12T14:30:19Z</time>
      </trkpt>
      <trkpt lat="42.85883" lon="0.24327">
        <ele>1997</ele>
        <time>2022-03-12T14:30:20Z</time>
      </trkpt>
      <trkpt lat="42.85875" lon="0.24331">
        <ele>1995</ele>
        <time>2022-03-12T14:30:21Z</time>
      </trkpt>
      <trkpt lat="42.8587" lon="0.24338">
        <ele>1993</ele>
        <time>2022-03-12T14:30:22Z</time>
      </trkpt>
      <trkpt lat="42.85859" lon="0.24345">
        <ele>1989</ele>
        <time>2022-03-12T14:30:24Z</time>
      </trkpt>
      <trkpt lat="42.85855" lon="0.24358">
        <ele>1984</ele>
        <time>2022-03-12T14:30:26Z</time>
      </trkpt>
      <trkpt lat="42.85844" lon="0.24364">
        <ele>1979</ele>
        <time>2022-03-12T14:30:28Z</time>
      </trkpt>
      <trkpt lat="42.8584" lon="0.24354">
        <ele>1973</ele>
        <time>2022-03-12T14:30:40Z</time>
      </trkpt>
      <trkpt lat="42.85842" lon="0.24354">
        <ele>1973</ele>
        <time>2022-03-12T14:31:07Z</time>
      </trkpt>
      <trkpt lat="42.85836" lon="0.24345">
        <ele>1973</ele>
        <time>2022-03-12T14:31:29Z</time>
      </trkpt>
      <trkpt lat="42.85834" lon="0.24344">
        <ele>1974</ele>
        <time>2022-03-12T14:31:52Z</time>
      </trkpt>
      <trkpt lat="42.85832" lon="0.24345">
        <ele>1973</ele>
        <time>2022-03-12T14:31:53Z</time>
      </trkpt>
      <trkpt lat="42.8583" lon="0.24347">
        <ele>1973</ele>
        <time>2022-03-12T14:31:54Z</time>
      </trkpt>
      <trkpt lat="42.85827" lon="0.24351">
        <ele>1973</ele>
        <time>2022-03-12T14:31:55Z</time>
      </trkpt>
      <trkpt lat="42.85823" lon="0.24357">
        <ele>1973</ele>
        <time>2022-03-12T14:31:56Z</time>
      </trkpt>
      <trkpt lat="42.85816" lon="0.24361">
        <ele>1970</ele>
        <time>2022-03-12T14:31:57Z</time>
      </trkpt>
      <trkpt lat="42.8581" lon="0.24363">
        <ele>1967</ele>
        <time>2022-03-12T14:31:58Z</time>
      </trkpt>
      <trkpt lat="42.85805" lon="0.24364">
        <ele>1966</ele>
        <time>2022-03-12T14:31:59Z</time>
      </trkpt>
      <trkpt lat="42.85801" lon="0.24367">
        <ele>1966</ele>
        <time>2022-03-12T14:32:00Z</time>
      </trkpt>
      <trkpt lat="42.85799" lon="0.24375">
        <ele>1965</ele>
        <time>2022-03-12T14:32:01Z</time>
      </trkpt>
      <trkpt lat="42.85795" lon="0.24382">
        <ele>1963</ele>
        <time>2022-03-12T14:32:02Z</time>
      </trkpt>
      <trkpt lat="42.85789" lon="0.2439">
        <ele>1960</ele>
        <time>2022-03-12T14:32:03Z</time>
      </trkpt>
      <trkpt lat="42.85783" lon="0.24396">
        <ele>1958</ele>
        <time>2022-03-12T14:32:04Z</time>
      </trkpt>
      <trkpt lat="42.85777" lon="0.24396">
        <ele>1955</ele>
        <time>2022-03-12T14:32:05Z</time>
      </trkpt>
      <trkpt lat="42.85772" lon="0.24394">
        <ele>1954</ele>
        <time>2022-03-12T14:32:06Z</time>
      </trkpt>
      <trkpt lat="42.85766" lon="0.24394">
        <ele>1953</ele>
        <time>2022-03-12T14:32:07Z</time>
      </trkpt>
      <trkpt lat="42.85759" lon="0.24394">
        <ele>1952</ele>
        <time>2022-03-12T14:32:08Z</time>
      </trkpt>
      <trkpt lat="42.85752" lon="0.24394">
        <ele>1950</ele>
        <time>2022-03-12T14:32:09Z</time>
      </trkpt>
      <trkpt lat="42.85746" lon="0.24399">
        <ele>1948</ele>
        <time>2022-03-12T14:32:10Z</time>
      </trkpt>
      <trkpt lat="42.85739" lon="0.24405">
        <ele>1945</ele>
        <time>2022-03-12T14:32:11Z</time>
      </trkpt>
      <trkpt lat="42.85731" lon="0.24408">
        <ele>1942</ele>
        <time>2022-03-12T14:32:12Z</time>
      </trkpt>
      <trkpt lat="42.85723" lon="0.24411">
        <ele>1941</ele>
        <time>2022-03-12T14:32:13Z</time>
      </trkpt>
      <trkpt lat="42.85719" lon="0.24415">
        <ele>1941</ele>
        <time>2022-03-12T14:32:14Z</time>
      </trkpt>
      <trkpt lat="42.85721" lon="0.24416">
        <ele>1939</ele>
        <time>2022-03-12T14:32:17Z</time>
      </trkpt>
      <trkpt lat="42.85722" lon="0.24415">
        <ele>1940</ele>
        <time>2022-03-12T14:32:25Z</time>
      </trkpt>
      <trkpt lat="42.85725" lon="0.24419">
        <ele>1939</ele>
        <time>2022-03-12T14:32:43Z</time>
      </trkpt>
      <trkpt lat="42.85726" lon="0.24426">
        <ele>1938</ele>
        <time>2022-03-12T14:32:44Z</time>
      </trkpt>
      <trkpt lat="42.85724" lon="0.24435">
        <ele>1936</ele>
        <time>2022-03-12T14:32:45Z</time>
      </trkpt>
      <trkpt lat="42.8572" lon="0.24443">
        <ele>1935</ele>
        <time>2022-03-12T14:32:46Z</time>
      </trkpt>
      <trkpt lat="42.85717" lon="0.24452">
        <ele>1933</ele>
        <time>2022-03-12T14:32:47Z</time>
      </trkpt>
      <trkpt lat="42.85714" lon="0.24461">
        <ele>1932</ele>
        <time>2022-03-12T14:32:48Z</time>
      </trkpt>
      <trkpt lat="42.8571" lon="0.24467">
        <ele>1930</ele>
        <time>2022-03-12T14:32:49Z</time>
      </trkpt>
      <trkpt lat="42.85707" lon="0.2447">
        <ele>1928</ele>
        <time>2022-03-12T14:32:50Z</time>
      </trkpt>
      <trkpt lat="42.85708" lon="0.24473">
        <ele>1925</ele>
        <time>2022-03-12T14:32:52Z</time>
      </trkpt>
      <trkpt lat="42.85708" lon="0.2447">
        <ele>1925</ele>
        <time>2022-03-12T14:33:07Z</time>
      </trkpt>
      <trkpt lat="42.85709" lon="0.24468">
        <ele>1926</ele>
        <time>2022-03-12T14:33:48Z</time>
      </trkpt>
      <trkpt lat="42.85709" lon="0.24472">
        <ele>1925</ele>
        <time>2022-03-12T14:34:09Z</time>
      </trkpt>
      <trkpt lat="42.85708" lon="0.24477">
        <ele>1924</ele>
        <time>2022-03-12T14:34:10Z</time>
      </trkpt>
      <trkpt lat="42.85706" lon="0.24484">
        <ele>1924</ele>
        <time>2022-03-12T14:34:11Z</time>
      </trkpt>
      <trkpt lat="42.85703" lon="0.24492">
        <ele>1924</ele>
        <time>2022-03-12T14:34:12Z</time>
      </trkpt>
      <trkpt lat="42.85702" lon="0.24502">
        <ele>1922</ele>
        <time>2022-03-12T14:34:13Z</time>
      </trkpt>
      <trkpt lat="42.85701" lon="0.24512">
        <ele>1920</ele>
        <time>2022-03-12T14:34:14Z</time>
      </trkpt>
      <trkpt lat="42.85699" lon="0.24522">
        <ele>1918</ele>
        <time>2022-03-12T14:34:15Z</time>
      </trkpt>
      <trkpt lat="42.857" lon="0.24531">
        <ele>1916</ele>
        <time>2022-03-12T14:34:16Z</time>
      </trkpt>
      <trkpt lat="42.85703" lon="0.2454">
        <ele>1913</ele>
        <time>2022-03-12T14:34:17Z</time>
      </trkpt>
      <trkpt lat="42.85704" lon="0.24549">
        <ele>1911</ele>
        <time>2022-03-12T14:34:18Z</time>
      </trkpt>
      <trkpt lat="42.85705" lon="0.24573">
        <ele>1908</ele>
        <time>2022-03-12T14:34:20Z</time>
      </trkpt>
      <trkpt lat="42.85706" lon="0.24587">
        <ele>1907</ele>
        <time>2022-03-12T14:34:21Z</time>
      </trkpt>
      <trkpt lat="42.85705" lon="0.24601">
        <ele>1905</ele>
        <time>2022-03-12T14:34:22Z</time>
      </trkpt>
      <trkpt lat="42.85706" lon="0.24615">
        <ele>1903</ele>
        <time>2022-03-12T14:34:23Z</time>
      </trkpt>
      <trkpt lat="42.85706" lon="0.24629">
        <ele>1901</ele>
        <time>2022-03-12T14:34:24Z</time>
      </trkpt>
      <trkpt lat="42.85705" lon="0.24644">
        <ele>1898</ele>
        <time>2022-03-12T14:34:25Z</time>
      </trkpt>
      <trkpt lat="42.85705" lon="0.24658">
        <ele>1895</ele>
        <time>2022-03-12T14:34:26Z</time>
      </trkpt>
      <trkpt lat="42.85705" lon="0.24673">
        <ele>1893</ele>
        <time>2022-03-12T14:34:27Z</time>
      </trkpt>
      <trkpt lat="42.85706" lon="0.24687">
        <ele>1891</ele>
        <time>2022-03-12T14:34:28Z</time>
      </trkpt>
      <trkpt lat="42.85705" lon="0.24699">
        <ele>1889</ele>
        <time>2022-03-12T14:34:29Z</time>
      </trkpt>
      <trkpt lat="42.85703" lon="0.2471">
        <ele>1887</ele>
        <time>2022-03-12T14:34:30Z</time>
      </trkpt>
      <trkpt lat="42.857" lon="0.24719">
        <ele>1886</ele>
        <time>2022-03-12T14:34:31Z</time>
      </trkpt>
      <trkpt lat="42.85698" lon="0.24728">
        <ele>1885</ele>
        <time>2022-03-12T14:34:32Z</time>
      </trkpt>
      <trkpt lat="42.85695" lon="0.24735">
        <ele>1885</ele>
        <time>2022-03-12T14:34:33Z</time>
      </trkpt>
      <trkpt lat="42.85693" lon="0.24742">
        <ele>1884</ele>
        <time>2022-03-12T14:34:34Z</time>
      </trkpt>
      <trkpt lat="42.85689" lon="0.24748">
        <ele>1884</ele>
        <time>2022-03-12T14:34:35Z</time>
      </trkpt>
      <trkpt lat="42.85686" lon="0.24755">
        <ele>1883</ele>
        <time>2022-03-12T14:34:36Z</time>
      </trkpt>
      <trkpt lat="42.85682" lon="0.24763">
        <ele>1883</ele>
        <time>2022-03-12T14:34:37Z</time>
      </trkpt>
      <trkpt lat="42.85679" lon="0.24772">
        <ele>1883</ele>
        <time>2022-03-12T14:34:38Z</time>
      </trkpt>
      <trkpt lat="42.85676" lon="0.24781">
        <ele>1882</ele>
        <time>2022-03-12T14:34:39Z</time>
      </trkpt>
      <trkpt lat="42.85672" lon="0.2479">
        <ele>1881</ele>
        <time>2022-03-12T14:34:40Z</time>
      </trkpt>
      <trkpt lat="42.85669" lon="0.24798">
        <ele>1880</ele>
        <time>2022-03-12T14:34:41Z</time>
      </trkpt>
      <trkpt lat="42.85667" lon="0.24806">
        <ele>1879</ele>
        <time>2022-03-12T14:34:42Z</time>
      </trkpt>
      <trkpt lat="42.85665" lon="0.24814">
        <ele>1878</ele>
        <time>2022-03-12T14:34:43Z</time>
      </trkpt>
      <trkpt lat="42.85663" lon="0.24822">
        <ele>1877</ele>
        <time>2022-03-12T14:34:44Z</time>
      </trkpt>
      <trkpt lat="42.85662" lon="0.24829">
        <ele>1877</ele>
        <time>2022-03-12T14:34:45Z</time>
      </trkpt>
      <trkpt lat="42.85662" lon="0.24836">
        <ele>1877</ele>
        <time>2022-03-12T14:34:46Z</time>
      </trkpt>
      <trkpt lat="42.85661" lon="0.24843">
        <ele>1877</ele>
        <time>2022-03-12T14:34:47Z</time>
      </trkpt>
      <trkpt lat="42.85661" lon="0.24849">
        <ele>1876</ele>
        <time>2022-03-12T14:34:48Z</time>
      </trkpt>
      <trkpt lat="42.85661" lon="0.24855">
        <ele>1875</ele>
        <time>2022-03-12T14:34:49Z</time>
      </trkpt>
      <trkpt lat="42.85662" lon="0.24861">
        <ele>1875</ele>
        <time>2022-03-12T14:34:50Z</time>
      </trkpt>
      <trkpt lat="42.85663" lon="0.24868">
        <ele>1875</ele>
        <time>2022-03-12T14:34:51Z</time>
      </trkpt>
      <trkpt lat="42.85664" lon="0.24875">
        <ele>1875</ele>
        <time>2022-03-12T14:34:52Z</time>
      </trkpt>
      <trkpt lat="42.85666" lon="0.24883">
        <ele>1875</ele>
        <time>2022-03-12T14:34:53Z</time>
      </trkpt>
      <trkpt lat="42.85668" lon="0.2489">
        <ele>1874</ele>
        <time>2022-03-12T14:34:54Z</time>
      </trkpt>
      <trkpt lat="42.85669" lon="0.24898">
        <ele>1874</ele>
        <time>2022-03-12T14:34:55Z</time>
      </trkpt>
      <trkpt lat="42.85669" lon="0.24905">
        <ele>1873</ele>
        <time>2022-03-12T14:34:56Z</time>
      </trkpt>
      <trkpt lat="42.85669" lon="0.24912">
        <ele>1873</ele>
        <time>2022-03-12T14:34:57Z</time>
      </trkpt>
      <trkpt lat="42.85668" lon="0.24918">
        <ele>1872</ele>
        <time>2022-03-12T14:34:58Z</time>
      </trkpt>
      <trkpt lat="42.85667" lon="0.24924">
        <ele>1872</ele>
        <time>2022-03-12T14:34:59Z</time>
      </trkpt>
      <trkpt lat="42.85666" lon="0.2493">
        <ele>1871</ele>
        <time>2022-03-12T14:35:00Z</time>
      </trkpt>
      <trkpt lat="42.85665" lon="0.24935">
        <ele>1871</ele>
        <time>2022-03-12T14:35:01Z</time>
      </trkpt>
      <trkpt lat="42.85664" lon="0.24942">
        <ele>1870</ele>
        <time>2022-03-12T14:35:02Z</time>
      </trkpt>
      <trkpt lat="42.85663" lon="0.24948">
        <ele>1870</ele>
        <time>2022-03-12T14:35:03Z</time>
      </trkpt>
      <trkpt lat="42.85663" lon="0.24954">
        <ele>1870</ele>
        <time>2022-03-12T14:35:04Z</time>
      </trkpt>
      <trkpt lat="42.85665" lon="0.24953">
        <ele>1868</ele>
        <time>2022-03-12T14:35:14Z</time>
      </trkpt>
      <trkpt lat="42.85664" lon="0.2495">
        <ele>1869</ele>
        <time>2022-03-12T14:35:25Z</time>
      </trkpt>
      <trkpt lat="42.85664" lon="0.24954">
        <ele>1869</ele>
        <time>2022-03-12T14:35:57Z</time>
      </trkpt>
      <trkpt lat="42.85664" lon="0.24958">
        <ele>1869</ele>
        <time>2022-03-12T14:35:59Z</time>
      </trkpt>
      <trkpt lat="42.85666" lon="0.24963">
        <ele>1867</ele>
        <time>2022-03-12T14:36:01Z</time>
      </trkpt>
      <trkpt lat="42.85666" lon="0.24966">
        <ele>1868</ele>
        <time>2022-03-12T14:36:02Z</time>
      </trkpt>
      <trkpt lat="42.85667" lon="0.24968">
        <ele>1868</ele>
        <time>2022-03-12T14:36:03Z</time>
      </trkpt>
      <trkpt lat="42.85668" lon="0.24972">
        <ele>1868</ele>
        <time>2022-03-12T14:36:04Z</time>
      </trkpt>
      <trkpt lat="42.85668" lon="0.24976">
        <ele>1868</ele>
        <time>2022-03-12T14:36:05Z</time>
      </trkpt>
      <trkpt lat="42.85667" lon="0.24982">
        <ele>1866</ele>
        <time>2022-03-12T14:36:06Z</time>
      </trkpt>
      <trkpt lat="42.85666" lon="0.24988">
        <ele>1865</ele>
        <time>2022-03-12T14:36:07Z</time>
      </trkpt>
      <trkpt lat="42.85664" lon="0.24994">
        <ele>1865</ele>
        <time>2022-03-12T14:36:08Z</time>
      </trkpt>
      <trkpt lat="42.85662" lon="0.25">
        <ele>1865</ele>
        <time>2022-03-12T14:36:09Z</time>
      </trkpt>
      <trkpt lat="42.85661" lon="0.25006">
        <ele>1865</ele>
        <time>2022-03-12T14:36:10Z</time>
      </trkpt>
      <trkpt lat="42.8566" lon="0.2501">
        <ele>1865</ele>
        <time>2022-03-12T14:36:11Z</time>
      </trkpt>
      <trkpt lat="42.85659" lon="0.25014">
        <ele>1865</ele>
        <time>2022-03-12T14:36:12Z</time>
      </trkpt>
      <trkpt lat="42.85658" lon="0.25017">
        <ele>1864</ele>
        <time>2022-03-12T14:36:13Z</time>
      </trkpt>
      <trkpt lat="42.85658" lon="0.25019">
        <ele>1864</ele>
        <time>2022-03-12T14:36:15Z</time>
      </trkpt>
      <trkpt lat="42.85657" lon="0.25023">
        <ele>1865</ele>
        <time>2022-03-12T14:36:18Z</time>
      </trkpt>
      <trkpt lat="42.85656" lon="0.25027">
        <ele>1864</ele>
        <time>2022-03-12T14:36:20Z</time>
      </trkpt>
      <trkpt lat="42.85657" lon="0.25029">
        <ele>1864</ele>
        <time>2022-03-12T14:36:22Z</time>
      </trkpt>
      <trkpt lat="42.85657" lon="0.25032">
        <ele>1865</ele>
        <time>2022-03-12T14:36:26Z</time>
      </trkpt>
      <trkpt lat="42.85657" lon="0.25035">
        <ele>1865</ele>
        <time>2022-03-12T14:36:28Z</time>
      </trkpt>
      <trkpt lat="42.85657" lon="0.25038">
        <ele>1865</ele>
        <time>2022-03-12T14:36:31Z</time>
      </trkpt>
      <trkpt lat="42.85657" lon="0.2504">
        <ele>1864</ele>
        <time>2022-03-12T14:36:33Z</time>
      </trkpt>
      <trkpt lat="42.85656" lon="0.25043">
        <ele>1865</ele>
        <time>2022-03-12T14:36:35Z</time>
      </trkpt>
      <trkpt lat="42.85655" lon="0.25045">
        <ele>1866</ele>
        <time>2022-03-12T14:36:37Z</time>
      </trkpt>
      <trkpt lat="42.85652" lon="0.25047">
        <ele>1865</ele>
        <time>2022-03-12T14:36:39Z</time>
      </trkpt>
      <trkpt lat="42.8565" lon="0.25047">
        <ele>1866</ele>
        <time>2022-03-12T14:36:40Z</time>
      </trkpt>
      <trkpt lat="42.85648" lon="0.25046">
        <ele>1866</ele>
        <time>2022-03-12T14:36:41Z</time>
      </trkpt>
      <trkpt lat="42.85645" lon="0.25046">
        <ele>1866</ele>
        <time>2022-03-12T14:36:42Z</time>
      </trkpt>
      <trkpt lat="42.85641" lon="0.25046">
        <ele>1865</ele>
        <time>2022-03-12T14:36:43Z</time>
      </trkpt>
      <trkpt lat="42.85638" lon="0.25047">
        <ele>1865</ele>
        <time>2022-03-12T14:36:44Z</time>
      </trkpt>
      <trkpt lat="42.85635" lon="0.25051">
        <ele>1865</ele>
        <time>2022-03-12T14:36:45Z</time>
      </trkpt>
      <trkpt lat="42.85633" lon="0.25055">
        <ele>1865</ele>
        <time>2022-03-12T14:36:46Z</time>
      </trkpt>
      <trkpt lat="42.8563" lon="0.25061">
        <ele>1865</ele>
        <time>2022-03-12T14:36:47Z</time>
      </trkpt>
      <trkpt lat="42.85626" lon="0.25066">
        <ele>1864</ele>
        <time>2022-03-12T14:36:48Z</time>
      </trkpt>
      <trkpt lat="42.85621" lon="0.25069">
        <ele>1863</ele>
        <time>2022-03-12T14:36:49Z</time>
      </trkpt>
      <trkpt lat="42.85617" lon="0.25074">
        <ele>1862</ele>
        <time>2022-03-12T14:36:50Z</time>
      </trkpt>
      <trkpt lat="42.85613" lon="0.25081">
        <ele>1861</ele>
        <time>2022-03-12T14:36:51Z</time>
      </trkpt>
      <trkpt lat="42.85612" lon="0.25089">
        <ele>1860</ele>
        <time>2022-03-12T14:36:52Z</time>
      </trkpt>
      <trkpt lat="42.85613" lon="0.25098">
        <ele>1859</ele>
        <time>2022-03-12T14:36:53Z</time>
      </trkpt>
      <trkpt lat="42.85614" lon="0.25104">
        <ele>1858</ele>
        <time>2022-03-12T14:36:54Z</time>
      </trkpt>
      <trkpt lat="42.85614" lon="0.25109">
        <ele>1857</ele>
        <time>2022-03-12T14:36:55Z</time>
      </trkpt>
      <trkpt lat="42.85614" lon="0.25113">
        <ele>1856</ele>
        <time>2022-03-12T14:36:56Z</time>
      </trkpt>
      <trkpt lat="42.85614" lon="0.25116">
        <ele>1856</ele>
        <time>2022-03-12T14:36:57Z</time>
      </trkpt>
      <trkpt lat="42.85614" lon="0.25118">
        <ele>1857</ele>
        <time>2022-03-12T14:37:01Z</time>
      </trkpt>
      <trkpt lat="42.85615" lon="0.25116">
        <ele>1858</ele>
        <time>2022-03-12T14:37:09Z</time>
      </trkpt>
      <trkpt lat="42.85616" lon="0.25114">
        <ele>1857</ele>
        <time>2022-03-12T14:38:00Z</time>
      </trkpt>
      <trkpt lat="42.85614" lon="0.25114">
        <ele>1857</ele>
        <time>2022-03-12T14:38:05Z</time>
      </trkpt>
      <trkpt lat="42.8562" lon="0.25117">
        <ele>1857</ele>
        <time>2022-03-12T14:38:15Z</time>
      </trkpt>
      <trkpt lat="42.85618" lon="0.25116">
        <ele>1857</ele>
        <time>2022-03-12T14:38:22Z</time>
      </trkpt>
      <trkpt lat="42.85617" lon="0.25118">
        <ele>1856</ele>
        <time>2022-03-12T14:38:38Z</time>
      </trkpt>
      <trkpt lat="42.85616" lon="0.25115">
        <ele>1857</ele>
        <time>2022-03-12T14:38:56Z</time>
      </trkpt>
      <trkpt lat="42.85615" lon="0.25113">
        <ele>1857</ele>
        <time>2022-03-12T14:39:16Z</time>
      </trkpt>
      <trkpt lat="42.85613" lon="0.25115">
        <ele>1857</ele>
        <time>2022-03-12T14:39:24Z</time>
      </trkpt>
      <trkpt lat="42.85614" lon="0.25114">
        <ele>1857</ele>
        <time>2022-03-12T14:39:55Z</time>
      </trkpt>
      <trkpt lat="42.85615" lon="0.25116">
        <ele>1857</ele>
        <time>2022-03-12T14:40:38Z</time>
      </trkpt>
      <trkpt lat="42.85613" lon="0.25115">
        <ele>1857</ele>
        <time>2022-03-12T14:40:52Z</time>
      </trkpt>
      <trkpt lat="42.85621" lon="0.25113">
        <ele>1857</ele>
        <time>2022-03-12T14:41:05Z</time>
      </trkpt>
      <trkpt lat="42.85619" lon="0.25112">
        <ele>1857</ele>
        <time>2022-03-12T14:41:13Z</time>
      </trkpt>
      <trkpt lat="42.85618" lon="0.25113">
        <ele>1857</ele>
        <time>2022-03-12T14:41:24Z</time>
      </trkpt>
      <trkpt lat="42.85615" lon="0.25114">
        <ele>1857</ele>
        <time>2022-03-12T14:41:29Z</time>
      </trkpt>
      <trkpt lat="42.85617" lon="0.25112">
        <ele>1857</ele>
        <time>2022-03-12T14:41:43Z</time>
      </trkpt>
      <trkpt lat="42.85616" lon="0.25113">
        <ele>1857</ele>
        <time>2022-03-12T14:42:07Z</time>
      </trkpt>
      <trkpt lat="42.85614" lon="0.25113">
        <ele>1857</ele>
        <time>2022-03-12T14:42:11Z</time>
      </trkpt>
      <trkpt lat="42.85613" lon="0.2511">
        <ele>1858</ele>
        <time>2022-03-12T14:42:29Z</time>
      </trkpt>
      <trkpt lat="42.85613" lon="0.25112">
        <ele>1857</ele>
        <time>2022-03-12T14:42:48Z</time>
      </trkpt>
      <trkpt lat="42.85614" lon="0.25112">
        <ele>1857</ele>
        <time>2022-03-12T14:43:00Z</time>
      </trkpt>
      <trkpt lat="42.8562" lon="0.25113">
        <ele>1858</ele>
        <time>2022-03-12T14:44:07Z</time>
      </trkpt>
      <trkpt lat="42.85616" lon="0.25113">
        <ele>1858</ele>
        <time>2022-03-12T14:44:12Z</time>
      </trkpt>
      <trkpt lat="42.85614" lon="0.25112">
        <ele>1857</ele>
        <time>2022-03-12T14:44:20Z</time>
      </trkpt>
      <trkpt lat="42.85613" lon="0.25111">
        <ele>1858</ele>
        <time>2022-03-12T14:44:33Z</time>
      </trkpt>
      <trkpt lat="42.85615" lon="0.25115">
        <ele>1857</ele>
        <time>2022-03-12T14:45:09Z</time>
      </trkpt>
      <trkpt lat="42.85613" lon="0.25115">
        <ele>1859</ele>
        <time>2022-03-12T14:45:12Z</time>
      </trkpt>
      <trkpt lat="42.85614" lon="0.25111">
        <ele>1858</ele>
        <time>2022-03-12T14:45:51Z</time>
      </trkpt>
      <trkpt lat="42.85618" lon="0.25106">
        <ele>1858</ele>
        <time>2022-03-12T14:46:52Z</time>
      </trkpt>
      <trkpt lat="42.85615" lon="0.25108">
        <ele>1859</ele>
        <time>2022-03-12T14:47:10Z</time>
      </trkpt>
      <trkpt lat="42.85614" lon="0.2511">
        <ele>1858</ele>
        <time>2022-03-12T14:47:33Z</time>
      </trkpt>
      <trkpt lat="42.85611" lon="0.25111">
        <ele>1858</ele>
        <time>2022-03-12T14:47:48Z</time>
      </trkpt>
      <trkpt lat="42.85612" lon="0.25114">
        <ele>1857</ele>
        <time>2022-03-12T14:48:04Z</time>
      </trkpt>
      <trkpt lat="42.85612" lon="0.25111">
        <ele>1859</ele>
        <time>2022-03-12T14:48:52Z</time>
      </trkpt>
      <trkpt lat="42.85614" lon="0.25111">
        <ele>1858</ele>
        <time>2022-03-12T14:49:22Z</time>
      </trkpt>
      <trkpt lat="42.85613" lon="0.25113">
        <ele>1858</ele>
        <time>2022-03-12T14:50:14Z</time>
      </trkpt>
      <trkpt lat="42.85613" lon="0.2511">
        <ele>1858</ele>
        <time>2022-03-12T14:51:03Z</time>
      </trkpt>
      <trkpt lat="42.85614" lon="0.25107">
        <ele>1858</ele>
        <time>2022-03-12T14:52:15Z</time>
      </trkpt>
      <trkpt lat="42.85616" lon="0.2511">
        <ele>1857</ele>
        <time>2022-03-12T14:52:26Z</time>
      </trkpt>
      <trkpt lat="42.85615" lon="0.25112">
        <ele>1857</ele>
        <time>2022-03-12T14:52:29Z</time>
      </trkpt>
      <trkpt lat="42.85614" lon="0.2511">
        <ele>1858</ele>
        <time>2022-03-12T14:52:38Z</time>
      </trkpt>
      <trkpt lat="42.85614" lon="0.25107">
        <ele>1858</ele>
        <time>2022-03-12T14:52:40Z</time>
      </trkpt>
      <trkpt lat="42.85614" lon="0.25111">
        <ele>1857</ele>
        <time>2022-03-12T14:52:52Z</time>
      </trkpt>
      <trkpt lat="42.85616" lon="0.25115">
        <ele>1857</ele>
        <time>2022-03-12T14:53:14Z</time>
      </trkpt>
      <trkpt lat="42.85614" lon="0.25116">
        <ele>1857</ele>
        <time>2022-03-12T14:53:25Z</time>
      </trkpt>
      <trkpt lat="42.85613" lon="0.25114">
        <ele>1857</ele>
        <time>2022-03-12T14:53:51Z</time>
      </trkpt>
      <trkpt lat="42.85614" lon="0.25116">
        <ele>1857</ele>
        <time>2022-03-12T14:53:57Z</time>
      </trkpt>
      <trkpt lat="42.85612" lon="0.25115">
        <ele>1856</ele>
        <time>2022-03-12T14:54:00Z</time>
      </trkpt>
      <trkpt lat="42.8561" lon="0.25114">
        <ele>1856</ele>
        <time>2022-03-12T14:54:04Z</time>
      </trkpt>
      <trkpt lat="42.85612" lon="0.25113">
        <ele>1856</ele>
        <time>2022-03-12T14:54:15Z</time>
      </trkpt>
      <trkpt lat="42.85612" lon="0.25111">
        <ele>1856</ele>
        <time>2022-03-12T14:54:21Z</time>
      </trkpt>
      <trkpt lat="42.85612" lon="0.25113">
        <ele>1857</ele>
        <time>2022-03-12T14:54:30Z</time>
      </trkpt>
      <trkpt lat="42.85613" lon="0.25116">
        <ele>1858</ele>
        <time>2022-03-12T14:54:45Z</time>
      </trkpt>
      <trkpt lat="42.85615" lon="0.25126">
        <ele>1856</ele>
        <time>2022-03-12T14:55:05Z</time>
      </trkpt>
      <trkpt lat="42.85612" lon="0.25118">
        <ele>1857</ele>
        <time>2022-03-12T14:55:24Z</time>
      </trkpt>
      <trkpt lat="42.85611" lon="0.25116">
        <ele>1857</ele>
        <time>2022-03-12T14:55:52Z</time>
      </trkpt>
      <trkpt lat="42.85612" lon="0.25119">
        <ele>1857</ele>
        <time>2022-03-12T14:56:43Z</time>
      </trkpt>
      <trkpt lat="42.85612" lon="0.25121">
        <ele>1858</ele>
        <time>2022-03-12T14:56:44Z</time>
      </trkpt>
      <trkpt lat="42.85612" lon="0.25124">
        <ele>1858</ele>
        <time>2022-03-12T14:56:45Z</time>
      </trkpt>
      <trkpt lat="42.85612" lon="0.25127">
        <ele>1858</ele>
        <time>2022-03-12T14:56:46Z</time>
      </trkpt>
      <trkpt lat="42.85611" lon="0.25132">
        <ele>1858</ele>
        <time>2022-03-12T14:56:48Z</time>
      </trkpt>
      <trkpt lat="42.85611" lon="0.25135">
        <ele>1857</ele>
        <time>2022-03-12T14:56:49Z</time>
      </trkpt>
      <trkpt lat="42.8561" lon="0.25139">
        <ele>1856</ele>
        <time>2022-03-12T14:56:50Z</time>
      </trkpt>
      <trkpt lat="42.8561" lon="0.25144">
        <ele>1856</ele>
        <time>2022-03-12T14:56:51Z</time>
      </trkpt>
      <trkpt lat="42.85609" lon="0.25151">
        <ele>1856</ele>
        <time>2022-03-12T14:56:52Z</time>
      </trkpt>
      <trkpt lat="42.85608" lon="0.25159">
        <ele>1855</ele>
        <time>2022-03-12T14:56:53Z</time>
      </trkpt>
      <trkpt lat="42.85608" lon="0.25169">
        <ele>1855</ele>
        <time>2022-03-12T14:56:54Z</time>
      </trkpt>
      <trkpt lat="42.85607" lon="0.25178">
        <ele>1854</ele>
        <time>2022-03-12T14:56:55Z</time>
      </trkpt>
      <trkpt lat="42.85607" lon="0.25187">
        <ele>1853</ele>
        <time>2022-03-12T14:56:56Z</time>
      </trkpt>
      <trkpt lat="42.85606" lon="0.25195">
        <ele>1852</ele>
        <time>2022-03-12T14:56:57Z</time>
      </trkpt>
      <trkpt lat="42.85606" lon="0.25204">
        <ele>1851</ele>
        <time>2022-03-12T14:56:58Z</time>
      </trkpt>
      <trkpt lat="42.85606" lon="0.25213">
        <ele>1851</ele>
        <time>2022-03-12T14:56:59Z</time>
      </trkpt>
      <trkpt lat="42.85607" lon="0.25223">
        <ele>1850</ele>
        <time>2022-03-12T14:57:00Z</time>
      </trkpt>
      <trkpt lat="42.85607" lon="0.25232">
        <ele>1849</ele>
        <time>2022-03-12T14:57:01Z</time>
      </trkpt>
      <trkpt lat="42.85607" lon="0.25241">
        <ele>1848</ele>
        <time>2022-03-12T14:57:02Z</time>
      </trkpt>
      <trkpt lat="42.85605" lon="0.2525">
        <ele>1847</ele>
        <time>2022-03-12T14:57:03Z</time>
      </trkpt>
      <trkpt lat="42.85605" lon="0.25258">
        <ele>1847</ele>
        <time>2022-03-12T14:57:04Z</time>
      </trkpt>
      <trkpt lat="42.85605" lon="0.25264">
        <ele>1847</ele>
        <time>2022-03-12T14:57:05Z</time>
      </trkpt>
      <trkpt lat="42.85607" lon="0.2527">
        <ele>1847</ele>
        <time>2022-03-12T14:57:06Z</time>
      </trkpt>
      <trkpt lat="42.85608" lon="0.25277">
        <ele>1847</ele>
        <time>2022-03-12T14:57:07Z</time>
      </trkpt>
      <trkpt lat="42.85608" lon="0.25284">
        <ele>1846</ele>
        <time>2022-03-12T14:57:08Z</time>
      </trkpt>
      <trkpt lat="42.85607" lon="0.25291">
        <ele>1846</ele>
        <time>2022-03-12T14:57:09Z</time>
      </trkpt>
      <trkpt lat="42.85606" lon="0.25299">
        <ele>1846</ele>
        <time>2022-03-12T14:57:10Z</time>
      </trkpt>
      <trkpt lat="42.85606" lon="0.25307">
        <ele>1845</ele>
        <time>2022-03-12T14:57:11Z</time>
      </trkpt>
      <trkpt lat="42.85607" lon="0.25316">
        <ele>1845</ele>
        <time>2022-03-12T14:57:12Z</time>
      </trkpt>
      <trkpt lat="42.85608" lon="0.25323">
        <ele>1845</ele>
        <time>2022-03-12T14:57:13Z</time>
      </trkpt>
      <trkpt lat="42.85611" lon="0.25331">
        <ele>1844</ele>
        <time>2022-03-12T14:57:14Z</time>
      </trkpt>
      <trkpt lat="42.85616" lon="0.25339">
        <ele>1843</ele>
        <time>2022-03-12T14:57:15Z</time>
      </trkpt>
      <trkpt lat="42.85621" lon="0.25348">
        <ele>1842</ele>
        <time>2022-03-12T14:57:16Z</time>
      </trkpt>
      <trkpt lat="42.85625" lon="0.25358">
        <ele>1841</ele>
        <time>2022-03-12T14:57:17Z</time>
      </trkpt>
      <trkpt lat="42.85629" lon="0.25367">
        <ele>1839</ele>
        <time>2022-03-12T14:57:18Z</time>
      </trkpt>
      <trkpt lat="42.85632" lon="0.25377">
        <ele>1838</ele>
        <time>2022-03-12T14:57:19Z</time>
      </trkpt>
      <trkpt lat="42.85636" lon="0.25386">
        <ele>1836</ele>
        <time>2022-03-12T14:57:20Z</time>
      </trkpt>
      <trkpt lat="42.8564" lon="0.25396">
        <ele>1835</ele>
        <time>2022-03-12T14:57:21Z</time>
      </trkpt>
      <trkpt lat="42.85644" lon="0.25406">
        <ele>1833</ele>
        <time>2022-03-12T14:57:22Z</time>
      </trkpt>
      <trkpt lat="42.8565" lon="0.25417">
        <ele>1831</ele>
        <time>2022-03-12T14:57:23Z</time>
      </trkpt>
      <trkpt lat="42.85655" lon="0.25427">
        <ele>1829</ele>
        <time>2022-03-12T14:57:24Z</time>
      </trkpt>
      <trkpt lat="42.85662" lon="0.25436">
        <ele>1827</ele>
        <time>2022-03-12T14:57:25Z</time>
      </trkpt>
      <trkpt lat="42.8567" lon="0.25444">
        <ele>1826</ele>
        <time>2022-03-12T14:57:26Z</time>
      </trkpt>
      <trkpt lat="42.85678" lon="0.25451">
        <ele>1824</ele>
        <time>2022-03-12T14:57:27Z</time>
      </trkpt>
      <trkpt lat="42.85685" lon="0.25457">
        <ele>1823</ele>
        <time>2022-03-12T14:57:28Z</time>
      </trkpt>
      <trkpt lat="42.8569" lon="0.25464">
        <ele>1822</ele>
        <time>2022-03-12T14:57:29Z</time>
      </trkpt>
      <trkpt lat="42.85694" lon="0.25471">
        <ele>1821</ele>
        <time>2022-03-12T14:57:30Z</time>
      </trkpt>
      <trkpt lat="42.85698" lon="0.25479">
        <ele>1820</ele>
        <time>2022-03-12T14:57:31Z</time>
      </trkpt>
      <trkpt lat="42.85701" lon="0.25484">
        <ele>1819</ele>
        <time>2022-03-12T14:57:32Z</time>
      </trkpt>
      <trkpt lat="42.85703" lon="0.25486">
        <ele>1819</ele>
        <time>2022-03-12T14:57:33Z</time>
      </trkpt>
      <trkpt lat="42.85701" lon="0.25484">
        <ele>1816</ele>
        <time>2022-03-12T14:57:40Z</time>
      </trkpt>
      <trkpt lat="42.85701" lon="0.25482">
        <ele>1815</ele>
        <time>2022-03-12T14:57:52Z</time>
      </trkpt>
      <trkpt lat="42.857" lon="0.2548">
        <ele>1815</ele>
        <time>2022-03-12T14:58:05Z</time>
      </trkpt>
      <trkpt lat="42.85704" lon="0.25479">
        <ele>1815</ele>
        <time>2022-03-12T14:58:08Z</time>
      </trkpt>
      <trkpt lat="42.85708" lon="0.25479">
        <ele>1815</ele>
        <time>2022-03-12T14:58:09Z</time>
      </trkpt>
      <trkpt lat="42.85713" lon="0.25482">
        <ele>1815</ele>
        <time>2022-03-12T14:58:10Z</time>
      </trkpt>
      <trkpt lat="42.85717" lon="0.25488">
        <ele>1813</ele>
        <time>2022-03-12T14:58:11Z</time>
      </trkpt>
      <trkpt lat="42.85722" lon="0.25492">
        <ele>1811</ele>
        <time>2022-03-12T14:58:12Z</time>
      </trkpt>
      <trkpt lat="42.85731" lon="0.25499">
        <ele>1806</ele>
        <time>2022-03-12T14:58:14Z</time>
      </trkpt>
      <trkpt lat="42.85741" lon="0.25503">
        <ele>1803</ele>
        <time>2022-03-12T14:58:16Z</time>
      </trkpt>
      <trkpt lat="42.85747" lon="0.25515">
        <ele>1798</ele>
        <time>2022-03-12T14:58:18Z</time>
      </trkpt>
      <trkpt lat="42.85756" lon="0.25525">
        <ele>1795</ele>
        <time>2022-03-12T14:58:21Z</time>
      </trkpt>
      <trkpt lat="42.85761" lon="0.25536">
        <ele>1790</ele>
        <time>2022-03-12T14:58:23Z</time>
      </trkpt>
      <trkpt lat="42.85773" lon="0.25538">
        <ele>1784</ele>
        <time>2022-03-12T14:58:26Z</time>
      </trkpt>
      <trkpt lat="42.85777" lon="0.25538">
        <ele>1781</ele>
        <time>2022-03-12T14:58:27Z</time>
      </trkpt>
      <trkpt lat="42.85781" lon="0.25532">
        <ele>1778</ele>
        <time>2022-03-12T14:58:28Z</time>
      </trkpt>
      <trkpt lat="42.85785" lon="0.25525">
        <ele>1777</ele>
        <time>2022-03-12T14:58:29Z</time>
      </trkpt>
      <trkpt lat="42.85785" lon="0.25522">
        <ele>1773</ele>
        <time>2022-03-12T14:58:36Z</time>
      </trkpt>
      <trkpt lat="42.85782" lon="0.25521">
        <ele>1773</ele>
        <time>2022-03-12T14:58:45Z</time>
      </trkpt>
      <trkpt lat="42.85787" lon="0.25525">
        <ele>1772</ele>
        <time>2022-03-12T14:58:56Z</time>
      </trkpt>
      <trkpt lat="42.85785" lon="0.25523">
        <ele>1772</ele>
        <time>2022-03-12T14:59:08Z</time>
      </trkpt>
      <trkpt lat="42.85784" lon="0.25521">
        <ele>1773</ele>
        <time>2022-03-12T14:59:30Z</time>
      </trkpt>
      <trkpt lat="42.85787" lon="0.25519">
        <ele>1773</ele>
        <time>2022-03-12T14:59:40Z</time>
      </trkpt>
      <trkpt lat="42.85791" lon="0.25518">
        <ele>1773</ele>
        <time>2022-03-12T14:59:41Z</time>
      </trkpt>
      <trkpt lat="42.85795" lon="0.25515">
        <ele>1771</ele>
        <time>2022-03-12T14:59:42Z</time>
      </trkpt>
      <trkpt lat="42.85801" lon="0.25505">
        <ele>1767</ele>
        <time>2022-03-12T14:59:44Z</time>
      </trkpt>
      <trkpt lat="42.85812" lon="0.25501">
        <ele>1765</ele>
        <time>2022-03-12T14:59:46Z</time>
      </trkpt>
      <trkpt lat="42.85821" lon="0.25506">
        <ele>1763</ele>
        <time>2022-03-12T14:59:48Z</time>
      </trkpt>
      <trkpt lat="42.85831" lon="0.25516">
        <ele>1759</ele>
        <time>2022-03-12T14:59:51Z</time>
      </trkpt>
      <trkpt lat="42.85838" lon="0.25526">
        <ele>1757</ele>
        <time>2022-03-12T14:59:53Z</time>
      </trkpt>
      <trkpt lat="42.85847" lon="0.25532">
        <ele>1753</ele>
        <time>2022-03-12T14:59:55Z</time>
      </trkpt>
      <trkpt lat="42.85849" lon="0.25544">
        <ele>1748</ele>
        <time>2022-03-12T15:00:01Z</time>
      </trkpt>
      <trkpt lat="42.85859" lon="0.25551">
        <ele>1741</ele>
        <time>2022-03-12T15:00:48Z</time>
      </trkpt>
      <trkpt lat="42.85868" lon="0.25559">
        <ele>1739</ele>
        <time>2022-03-12T15:00:52Z</time>
      </trkpt>
      <trkpt lat="42.85876" lon="0.25569">
        <ele>1736</ele>
        <time>2022-03-12T15:00:58Z</time>
      </trkpt>
      <trkpt lat="42.85884" lon="0.25577">
        <ele>1733</ele>
        <time>2022-03-12T15:01:41Z</time>
      </trkpt>
      <trkpt lat="42.85893" lon="0.25586">
        <ele>1732</ele>
        <time>2022-03-12T15:01:43Z</time>
      </trkpt>
      <trkpt lat="42.85902" lon="0.25599">
        <ele>1729</ele>
        <time>2022-03-12T15:01:45Z</time>
      </trkpt>
      <trkpt lat="42.85907" lon="0.25612">
        <ele>1728</ele>
        <time>2022-03-12T15:01:47Z</time>
      </trkpt>
      <trkpt lat="42.85915" lon="0.25625">
        <ele>1726</ele>
        <time>2022-03-12T15:01:50Z</time>
      </trkpt>
      <trkpt lat="42.8592" lon="0.25639">
        <ele>1723</ele>
        <time>2022-03-12T15:01:53Z</time>
      </trkpt>
      <trkpt lat="42.85923" lon="0.25652">
        <ele>1721</ele>
        <time>2022-03-12T15:01:55Z</time>
      </trkpt>
      <trkpt lat="42.85925" lon="0.25666">
        <ele>1720</ele>
        <time>2022-03-12T15:01:57Z</time>
      </trkpt>
      <trkpt lat="42.85928" lon="0.25679">
        <ele>1715</ele>
        <time>2022-03-12T15:02:00Z</time>
      </trkpt>
      <trkpt lat="42.85933" lon="0.25691">
        <ele>1713</ele>
        <time>2022-03-12T15:02:03Z</time>
      </trkpt>
      <trkpt lat="42.85936" lon="0.25706">
        <ele>1711</ele>
        <time>2022-03-12T15:02:06Z</time>
      </trkpt>
      <trkpt lat="42.85942" lon="0.25719">
        <ele>1708</ele>
        <time>2022-03-12T15:02:11Z</time>
      </trkpt>
      <trkpt lat="42.85944" lon="0.25732">
        <ele>1707</ele>
        <time>2022-03-12T15:02:13Z</time>
      </trkpt>
      <trkpt lat="42.85948" lon="0.2575">
        <ele>1705</ele>
        <time>2022-03-12T15:02:16Z</time>
      </trkpt>
      <trkpt lat="42.85949" lon="0.25765">
        <ele>1703</ele>
        <time>2022-03-12T15:02:18Z</time>
      </trkpt>
      <trkpt lat="42.85951" lon="0.25778">
        <ele>1699</ele>
        <time>2022-03-12T15:02:21Z</time>
      </trkpt>
      <trkpt lat="42.8595" lon="0.25792">
        <ele>1695</ele>
        <time>2022-03-12T15:02:24Z</time>
      </trkpt>
      <trkpt lat="42.85949" lon="0.2581">
        <ele>1692</ele>
        <time>2022-03-12T15:02:28Z</time>
      </trkpt>
      <trkpt lat="42.8596" lon="0.25821">
        <ele>1687</ele>
        <time>2022-03-12T15:03:32Z</time>
      </trkpt>
      <trkpt lat="42.85969" lon="0.25828">
        <ele>1686</ele>
        <time>2022-03-12T15:03:34Z</time>
      </trkpt>
      <trkpt lat="42.85976" lon="0.25838">
        <ele>1684</ele>
        <time>2022-03-12T15:03:39Z</time>
      </trkpt>
      <trkpt lat="42.85981" lon="0.25857">
        <ele>1684</ele>
        <time>2022-03-12T15:03:42Z</time>
      </trkpt>
      <trkpt lat="42.85979" lon="0.25871">
        <ele>1682</ele>
        <time>2022-03-12T15:03:44Z</time>
      </trkpt>
      <trkpt lat="42.85973" lon="0.25887">
        <ele>1679</ele>
        <time>2022-03-12T15:03:46Z</time>
      </trkpt>
      <trkpt lat="42.85964" lon="0.25897">
        <ele>1677</ele>
        <time>2022-03-12T15:03:48Z</time>
      </trkpt>
      <trkpt lat="42.85957" lon="0.25907">
        <ele>1674</ele>
        <time>2022-03-12T15:03:50Z</time>
      </trkpt>
      <trkpt lat="42.85951" lon="0.25919">
        <ele>1670</ele>
        <time>2022-03-12T15:03:52Z</time>
      </trkpt>
      <trkpt lat="42.85943" lon="0.2593">
        <ele>1667</ele>
        <time>2022-03-12T15:03:54Z</time>
      </trkpt>
      <trkpt lat="42.85932" lon="0.25943">
        <ele>1663</ele>
        <time>2022-03-12T15:03:56Z</time>
      </trkpt>
      <trkpt lat="42.85927" lon="0.25958">
        <ele>1658</ele>
        <time>2022-03-12T15:03:58Z</time>
      </trkpt>
      <trkpt lat="42.85921" lon="0.25971">
        <ele>1655</ele>
        <time>2022-03-12T15:04:00Z</time>
      </trkpt>
      <trkpt lat="42.85912" lon="0.25984">
        <ele>1652</ele>
        <time>2022-03-12T15:04:02Z</time>
      </trkpt>
      <trkpt lat="42.85902" lon="0.25996">
        <ele>1648</ele>
        <time>2022-03-12T15:04:04Z</time>
      </trkpt>
      <trkpt lat="42.85906" lon="0.26008">
        <ele>1642</ele>
        <time>2022-03-12T15:05:33Z</time>
      </trkpt>
      <trkpt lat="42.85901" lon="0.26023">
        <ele>1642</ele>
        <time>2022-03-12T15:05:37Z</time>
      </trkpt>
      <trkpt lat="42.85893" lon="0.26036">
        <ele>1641</ele>
        <time>2022-03-12T15:05:40Z</time>
      </trkpt>
      <trkpt lat="42.85884" lon="0.26046">
        <ele>1637</ele>
        <time>2022-03-12T15:05:45Z</time>
      </trkpt>
      <trkpt lat="42.85877" lon="0.26057">
        <ele>1634</ele>
        <time>2022-03-12T15:05:50Z</time>
      </trkpt>
      <trkpt lat="42.8587" lon="0.26068">
        <ele>1632</ele>
        <time>2022-03-12T15:05:54Z</time>
      </trkpt>
      <trkpt lat="42.85865" lon="0.26079">
        <ele>1630</ele>
        <time>2022-03-12T15:06:00Z</time>
      </trkpt>
      <trkpt lat="42.85866" lon="0.26066">
        <ele>1629</ele>
        <time>2022-03-12T15:07:31Z</time>
      </trkpt>
      <trkpt lat="42.85866" lon="0.26079">
        <ele>1628</ele>
        <time>2022-03-12T15:12:03Z</time>
      </trkpt>
      <trkpt lat="42.85861" lon="0.26091">
        <ele>1629</ele>
        <time>2022-03-12T15:12:51Z</time>
      </trkpt>
      <trkpt lat="42.85854" lon="0.261">
        <ele>1626</ele>
        <time>2022-03-12T15:12:59Z</time>
      </trkpt>
      <trkpt lat="42.85851" lon="0.26112">
        <ele>1626</ele>
        <time>2022-03-12T15:13:08Z</time>
      </trkpt>
      <trkpt lat="42.85847" lon="0.26124">
        <ele>1627</ele>
        <time>2022-03-12T15:13:17Z</time>
      </trkpt>
      <trkpt lat="42.85841" lon="0.26134">
        <ele>1626</ele>
        <time>2022-03-12T15:13:25Z</time>
      </trkpt>
      <trkpt lat="42.85838" lon="0.26146">
        <ele>1626</ele>
        <time>2022-03-12T15:13:39Z</time>
      </trkpt>
      <trkpt lat="42.85832" lon="0.26157">
        <ele>1624</ele>
        <time>2022-03-12T15:13:47Z</time>
      </trkpt>
      <trkpt lat="42.85831" lon="0.2617">
        <ele>1624</ele>
        <time>2022-03-12T15:13:58Z</time>
      </trkpt>
      <trkpt lat="42.85828" lon="0.26182">
        <ele>1621</ele>
        <time>2022-03-12T15:14:10Z</time>
      </trkpt>
      <trkpt lat="42.8582" lon="0.26189">
        <ele>1619</ele>
        <time>2022-03-12T15:14:23Z</time>
      </trkpt>
      <trkpt lat="42.85816" lon="0.26201">
        <ele>1618</ele>
        <time>2022-03-12T15:14:36Z</time>
      </trkpt>
      <trkpt lat="42.85813" lon="0.26213">
        <ele>1618</ele>
        <time>2022-03-12T15:14:47Z</time>
      </trkpt>
      <trkpt lat="42.85813" lon="0.2622">
        <ele>1617</ele>
        <time>2022-03-12T15:15:31Z</time>
      </trkpt>
      <trkpt lat="42.85815" lon="0.26225">
        <ele>1618</ele>
        <time>2022-03-12T15:16:26Z</time>
      </trkpt>
      <trkpt lat="42.85815" lon="0.2622">
        <ele>1618</ele>
        <time>2022-03-12T15:16:29Z</time>
      </trkpt>
      <trkpt lat="42.85814" lon="0.26233">
        <ele>1618</ele>
        <time>2022-03-12T15:16:40Z</time>
      </trkpt>
      <trkpt lat="42.85815" lon="0.26246">
        <ele>1616</ele>
        <time>2022-03-12T15:16:48Z</time>
      </trkpt>
      <trkpt lat="42.85817" lon="0.26258">
        <ele>1617</ele>
        <time>2022-03-12T15:16:54Z</time>
      </trkpt>
      <trkpt lat="42.85817" lon="0.26271">
        <ele>1618</ele>
        <time>2022-03-12T15:17:05Z</time>
      </trkpt>
      <trkpt lat="42.85815" lon="0.26283">
        <ele>1619</ele>
        <time>2022-03-12T15:17:14Z</time>
      </trkpt>
      <trkpt lat="42.85814" lon="0.26298">
        <ele>1619</ele>
        <time>2022-03-12T15:17:24Z</time>
      </trkpt>
      <trkpt lat="42.85811" lon="0.2631">
        <ele>1620</ele>
        <time>2022-03-12T15:17:34Z</time>
      </trkpt>
      <trkpt lat="42.85806" lon="0.26322">
        <ele>1618</ele>
        <time>2022-03-12T15:17:42Z</time>
      </trkpt>
      <trkpt lat="42.85801" lon="0.26333">
        <ele>1616</ele>
        <time>2022-03-12T15:17:51Z</time>
      </trkpt>
      <trkpt lat="42.858" lon="0.26336">
        <ele>1615</ele>
        <time>2022-03-12T15:17:53Z</time>
      </trkpt>
      <trkpt lat="42.85797" lon="0.26343">
        <ele>1614</ele>
        <time>2022-03-12T15:17:58Z</time>
      </trkpt>
      <trkpt lat="42.85796" lon="0.26347">
        <ele>1613</ele>
        <time>2022-03-12T15:18:01Z</time>
      </trkpt>
      <trkpt lat="42.85795" lon="0.26351">
        <ele>1613</ele>
        <time>2022-03-12T15:18:03Z</time>
      </trkpt>
      <trkpt lat="42.85791" lon="0.26364">
        <ele>1611</ele>
        <time>2022-03-12T15:18:11Z</time>
      </trkpt>
      <trkpt lat="42.85787" lon="0.26371">
        <ele>1609</ele>
        <time>2022-03-12T15:18:18Z</time>
      </trkpt>
      <trkpt lat="42.85785" lon="0.26375">
        <ele>1608</ele>
        <time>2022-03-12T15:18:21Z</time>
      </trkpt>
      <trkpt lat="42.8578" lon="0.26381">
        <ele>1605</ele>
        <time>2022-03-12T15:18:30Z</time>
      </trkpt>
      <trkpt lat="42.8578" lon="0.26384">
        <ele>1605</ele>
        <time>2022-03-12T15:18:32Z</time>
      </trkpt>
      <trkpt lat="42.8578" lon="0.26397">
        <ele>1604</ele>
        <time>2022-03-12T15:18:40Z</time>
      </trkpt>
      <trkpt lat="42.8578" lon="0.26408">
        <ele>1603</ele>
        <time>2022-03-12T15:18:48Z</time>
      </trkpt>
      <trkpt lat="42.85776" lon="0.2642">
        <ele>1600</ele>
        <time>2022-03-12T15:18:57Z</time>
      </trkpt>
      <trkpt lat="42.85774" lon="0.26433">
        <ele>1598</ele>
        <time>2022-03-12T15:19:07Z</time>
      </trkpt>
      <trkpt lat="42.85772" lon="0.26446">
        <ele>1598</ele>
        <time>2022-03-12T15:19:14Z</time>
      </trkpt>
      <trkpt lat="42.85769" lon="0.26458">
        <ele>1597</ele>
        <time>2022-03-12T15:19:24Z</time>
      </trkpt>
      <trkpt lat="42.85767" lon="0.26471">
        <ele>1594</ele>
        <time>2022-03-12T15:19:36Z</time>
      </trkpt>
      <trkpt lat="42.85766" lon="0.26483">
        <ele>1593</ele>
        <time>2022-03-12T15:19:45Z</time>
      </trkpt>
      <trkpt lat="42.85767" lon="0.26497">
        <ele>1591</ele>
        <time>2022-03-12T15:19:53Z</time>
      </trkpt>
      <trkpt lat="42.85761" lon="0.26505">
        <ele>1589</ele>
        <time>2022-03-12T15:20:01Z</time>
      </trkpt>
      <trkpt lat="42.8576" lon="0.26514">
        <ele>1588</ele>
        <time>2022-03-12T15:20:07Z</time>
      </trkpt>
      <trkpt lat="42.8576" lon="0.26517">
        <ele>1588</ele>
        <time>2022-03-12T15:20:10Z</time>
      </trkpt>
      <trkpt lat="42.85759" lon="0.26521">
        <ele>1588</ele>
        <time>2022-03-12T15:20:14Z</time>
      </trkpt>
      <trkpt lat="42.85759" lon="0.26527">
        <ele>1588</ele>
        <time>2022-03-12T15:20:18Z</time>
      </trkpt>
      <trkpt lat="42.85758" lon="0.26529">
        <ele>1587</ele>
        <time>2022-03-12T15:20:21Z</time>
      </trkpt>
      <trkpt lat="42.85757" lon="0.26532">
        <ele>1587</ele>
        <time>2022-03-12T15:20:23Z</time>
      </trkpt>
      <trkpt lat="42.85757" lon="0.26534">
        <ele>1586</ele>
        <time>2022-03-12T15:20:26Z</time>
      </trkpt>
      <trkpt lat="42.85756" lon="0.26537">
        <ele>1585</ele>
        <time>2022-03-12T15:20:28Z</time>
      </trkpt>
      <trkpt lat="42.85756" lon="0.2654">
        <ele>1585</ele>
        <time>2022-03-12T15:20:30Z</time>
      </trkpt>
      <trkpt lat="42.85756" lon="0.26543">
        <ele>1584</ele>
        <time>2022-03-12T15:20:32Z</time>
      </trkpt>
      <trkpt lat="42.85755" lon="0.26545">
        <ele>1584</ele>
        <time>2022-03-12T15:20:34Z</time>
      </trkpt>
      <trkpt lat="42.85754" lon="0.26548">
        <ele>1584</ele>
        <time>2022-03-12T15:20:36Z</time>
      </trkpt>
      <trkpt lat="42.85754" lon="0.26552">
        <ele>1584</ele>
        <time>2022-03-12T15:20:39Z</time>
      </trkpt>
      <trkpt lat="42.85754" lon="0.26555">
        <ele>1583</ele>
        <time>2022-03-12T15:20:42Z</time>
      </trkpt>
      <trkpt lat="42.85754" lon="0.26558">
        <ele>1583</ele>
        <time>2022-03-12T15:20:45Z</time>
      </trkpt>
      <trkpt lat="42.85753" lon="0.2656">
        <ele>1583</ele>
        <time>2022-03-12T15:20:47Z</time>
      </trkpt>
      <trkpt lat="42.85753" lon="0.26563">
        <ele>1583</ele>
        <time>2022-03-12T15:20:49Z</time>
      </trkpt>
      <trkpt lat="42.85752" lon="0.26565">
        <ele>1583</ele>
        <time>2022-03-12T15:20:51Z</time>
      </trkpt>
      <trkpt lat="42.85751" lon="0.26567">
        <ele>1583</ele>
        <time>2022-03-12T15:20:53Z</time>
      </trkpt>
      <trkpt lat="42.8575" lon="0.2657">
        <ele>1582</ele>
        <time>2022-03-12T15:20:55Z</time>
      </trkpt>
      <trkpt lat="42.85751" lon="0.26573">
        <ele>1582</ele>
        <time>2022-03-12T15:20:57Z</time>
      </trkpt>
      <trkpt lat="42.85751" lon="0.26576">
        <ele>1581</ele>
        <time>2022-03-12T15:20:59Z</time>
      </trkpt>
      <trkpt lat="42.85751" lon="0.26579">
        <ele>1581</ele>
        <time>2022-03-12T15:21:01Z</time>
      </trkpt>
      <trkpt lat="42.85751" lon="0.26582">
        <ele>1581</ele>
        <time>2022-03-12T15:21:03Z</time>
      </trkpt>
      <trkpt lat="42.8575" lon="0.26584">
        <ele>1581</ele>
        <time>2022-03-12T15:21:05Z</time>
      </trkpt>
      <trkpt lat="42.85749" lon="0.26586">
        <ele>1581</ele>
        <time>2022-03-12T15:21:07Z</time>
      </trkpt>
      <trkpt lat="42.85747" lon="0.26589">
        <ele>1580</ele>
        <time>2022-03-12T15:21:09Z</time>
      </trkpt>
      <trkpt lat="42.85747" lon="0.26591">
        <ele>1579</ele>
        <time>2022-03-12T15:21:11Z</time>
      </trkpt>
      <trkpt lat="42.85747" lon="0.26594">
        <ele>1578</ele>
        <time>2022-03-12T15:21:13Z</time>
      </trkpt>
      <trkpt lat="42.85746" lon="0.26597">
        <ele>1578</ele>
        <time>2022-03-12T15:21:15Z</time>
      </trkpt>
      <trkpt lat="42.85746" lon="0.26601">
        <ele>1578</ele>
        <time>2022-03-12T15:21:17Z</time>
      </trkpt>
      <trkpt lat="42.85745" lon="0.26604">
        <ele>1578</ele>
        <time>2022-03-12T15:21:19Z</time>
      </trkpt>
      <trkpt lat="42.85745" lon="0.26607">
        <ele>1578</ele>
        <time>2022-03-12T15:21:21Z</time>
      </trkpt>
      <trkpt lat="42.85745" lon="0.2661">
        <ele>1577</ele>
        <time>2022-03-12T15:21:23Z</time>
      </trkpt>
      <trkpt lat="42.85745" lon="0.26613">
        <ele>1576</ele>
        <time>2022-03-12T15:21:25Z</time>
      </trkpt>
      <trkpt lat="42.85744" lon="0.26616">
        <ele>1576</ele>
        <time>2022-03-12T15:21:27Z</time>
      </trkpt>
      <trkpt lat="42.85744" lon="0.26619">
        <ele>1576</ele>
        <time>2022-03-12T15:21:29Z</time>
      </trkpt>
      <trkpt lat="42.85744" lon="0.26622">
        <ele>1575</ele>
        <time>2022-03-12T15:21:31Z</time>
      </trkpt>
      <trkpt lat="42.85743" lon="0.26625">
        <ele>1575</ele>
        <time>2022-03-12T15:21:33Z</time>
      </trkpt>
      <trkpt lat="42.85743" lon="0.26629">
        <ele>1575</ele>
        <time>2022-03-12T15:21:35Z</time>
      </trkpt>
      <trkpt lat="42.85743" lon="0.26632">
        <ele>1575</ele>
        <time>2022-03-12T15:21:37Z</time>
      </trkpt>
      <trkpt lat="42.85742" lon="0.26636">
        <ele>1574</ele>
        <time>2022-03-12T15:21:39Z</time>
      </trkpt>
      <trkpt lat="42.85742" lon="0.26639">
        <ele>1574</ele>
        <time>2022-03-12T15:21:41Z</time>
      </trkpt>
      <trkpt lat="42.85741" lon="0.26642">
        <ele>1574</ele>
        <time>2022-03-12T15:21:43Z</time>
      </trkpt>
      <trkpt lat="42.8574" lon="0.26645">
        <ele>1573</ele>
        <time>2022-03-12T15:21:45Z</time>
      </trkpt>
      <trkpt lat="42.8574" lon="0.26647">
        <ele>1573</ele>
        <time>2022-03-12T15:21:47Z</time>
      </trkpt>
      <trkpt lat="42.85739" lon="0.2665">
        <ele>1572</ele>
        <time>2022-03-12T15:21:49Z</time>
      </trkpt>
      <trkpt lat="42.85738" lon="0.26653">
        <ele>1572</ele>
        <time>2022-03-12T15:21:51Z</time>
      </trkpt>
      <trkpt lat="42.85736" lon="0.26656">
        <ele>1571</ele>
        <time>2022-03-12T15:21:53Z</time>
      </trkpt>
      <trkpt lat="42.85734" lon="0.26658">
        <ele>1571</ele>
        <time>2022-03-12T15:21:55Z</time>
      </trkpt>
      <trkpt lat="42.85733" lon="0.2666">
        <ele>1571</ele>
        <time>2022-03-12T15:21:57Z</time>
      </trkpt>
      <trkpt lat="42.85732" lon="0.26663">
        <ele>1571</ele>
        <time>2022-03-12T15:21:59Z</time>
      </trkpt>
      <trkpt lat="42.85731" lon="0.26665">
        <ele>1570</ele>
        <time>2022-03-12T15:22:01Z</time>
      </trkpt>
      <trkpt lat="42.85731" lon="0.26667">
        <ele>1570</ele>
        <time>2022-03-12T15:22:03Z</time>
      </trkpt>
      <trkpt lat="42.85729" lon="0.26668">
        <ele>1570</ele>
        <time>2022-03-12T15:22:05Z</time>
      </trkpt>
      <trkpt lat="42.85729" lon="0.26672">
        <ele>1570</ele>
        <time>2022-03-12T15:22:10Z</time>
      </trkpt>
      <trkpt lat="42.85729" lon="0.26674">
        <ele>1570</ele>
        <time>2022-03-12T15:22:12Z</time>
      </trkpt>
      <trkpt lat="42.85728" lon="0.26677">
        <ele>1570</ele>
        <time>2022-03-12T15:22:15Z</time>
      </trkpt>
      <trkpt lat="42.85728" lon="0.26681">
        <ele>1570</ele>
        <time>2022-03-12T15:22:16Z</time>
      </trkpt>
      <trkpt lat="42.85728" lon="0.26684">
        <ele>1569</ele>
        <time>2022-03-12T15:22:18Z</time>
      </trkpt>
      <trkpt lat="42.85729" lon="0.26686">
        <ele>1569</ele>
        <time>2022-03-12T15:22:26Z</time>
      </trkpt>
      <trkpt lat="42.85731" lon="0.26687">
        <ele>1569</ele>
        <time>2022-03-12T15:22:32Z</time>
      </trkpt>
      <trkpt lat="42.85732" lon="0.26691">
        <ele>1569</ele>
        <time>2022-03-12T15:22:37Z</time>
      </trkpt>
      <trkpt lat="42.8573" lon="0.26697">
        <ele>1569</ele>
        <time>2022-03-12T15:22:44Z</time>
      </trkpt>
      <trkpt lat="42.85729" lon="0.26699">
        <ele>1568</ele>
        <time>2022-03-12T15:22:49Z</time>
      </trkpt>
      <trkpt lat="42.85728" lon="0.26703">
        <ele>1568</ele>
        <time>2022-03-12T15:22:56Z</time>
      </trkpt>
      <trkpt lat="42.85727" lon="0.26705">
        <ele>1568</ele>
        <time>2022-03-12T15:22:59Z</time>
      </trkpt>
      <trkpt lat="42.85724" lon="0.26705">
        <ele>1567</ele>
        <time>2022-03-12T15:23:02Z</time>
      </trkpt>
      <trkpt lat="42.85722" lon="0.26704">
        <ele>1566</ele>
        <time>2022-03-12T15:23:05Z</time>
      </trkpt>
      <trkpt lat="42.8572" lon="0.26705">
        <ele>1566</ele>
        <time>2022-03-12T15:23:08Z</time>
      </trkpt>
      <trkpt lat="42.85718" lon="0.26707">
        <ele>1565</ele>
        <time>2022-03-12T15:23:11Z</time>
      </trkpt>
      <trkpt lat="42.85717" lon="0.2671">
        <ele>1565</ele>
        <time>2022-03-12T15:23:13Z</time>
      </trkpt>
      <trkpt lat="42.85715" lon="0.26712">
        <ele>1564</ele>
        <time>2022-03-12T15:23:15Z</time>
      </trkpt>
      <trkpt lat="42.85713" lon="0.26713">
        <ele>1564</ele>
        <time>2022-03-12T15:23:17Z</time>
      </trkpt>
      <trkpt lat="42.85711" lon="0.26716">
        <ele>1564</ele>
        <time>2022-03-12T15:23:19Z</time>
      </trkpt>
      <trkpt lat="42.8571" lon="0.26718">
        <ele>1563</ele>
        <time>2022-03-12T15:23:21Z</time>
      </trkpt>
      <trkpt lat="42.85709" lon="0.26721">
        <ele>1562</ele>
        <time>2022-03-12T15:23:23Z</time>
      </trkpt>
      <trkpt lat="42.85708" lon="0.26723">
        <ele>1562</ele>
        <time>2022-03-12T15:23:26Z</time>
      </trkpt>
      <trkpt lat="42.85706" lon="0.26725">
        <ele>1562</ele>
        <time>2022-03-12T15:23:28Z</time>
      </trkpt>
      <trkpt lat="42.85704" lon="0.26726">
        <ele>1561</ele>
        <time>2022-03-12T15:23:30Z</time>
      </trkpt>
      <trkpt lat="42.85702" lon="0.26727">
        <ele>1561</ele>
        <time>2022-03-12T15:23:32Z</time>
      </trkpt>
      <trkpt lat="42.857" lon="0.26729">
        <ele>1561</ele>
        <time>2022-03-12T15:23:34Z</time>
      </trkpt>
      <trkpt lat="42.85698" lon="0.26729">
        <ele>1560</ele>
        <time>2022-03-12T15:23:36Z</time>
      </trkpt>
      <trkpt lat="42.85696" lon="0.2673">
        <ele>1560</ele>
        <time>2022-03-12T15:23:38Z</time>
      </trkpt>
      <trkpt lat="42.85694" lon="0.26732">
        <ele>1560</ele>
        <time>2022-03-12T15:23:40Z</time>
      </trkpt>
      <trkpt lat="42.85692" lon="0.26733">
        <ele>1559</ele>
        <time>2022-03-12T15:23:43Z</time>
      </trkpt>
      <trkpt lat="42.85691" lon="0.26734">
        <ele>1558</ele>
        <time>2022-03-12T15:24:02Z</time>
      </trkpt>
      <trkpt lat="42.85688" lon="0.26735">
        <ele>1558</ele>
        <time>2022-03-12T15:24:04Z</time>
      </trkpt>
      <trkpt lat="42.85685" lon="0.26736">
        <ele>1557</ele>
        <time>2022-03-12T15:24:06Z</time>
      </trkpt>
      <trkpt lat="42.85682" lon="0.26737">
        <ele>1556</ele>
        <time>2022-03-12T15:24:08Z</time>
      </trkpt>
      <trkpt lat="42.85679" lon="0.26738">
        <ele>1556</ele>
        <time>2022-03-12T15:24:10Z</time>
      </trkpt>
      <trkpt lat="42.85677" lon="0.26739">
        <ele>1555</ele>
        <time>2022-03-12T15:24:12Z</time>
      </trkpt>
      <trkpt lat="42.85675" lon="0.2674">
        <ele>1554</ele>
        <time>2022-03-12T15:24:14Z</time>
      </trkpt>
      <trkpt lat="42.85673" lon="0.2674">
        <ele>1553</ele>
        <time>2022-03-12T15:24:16Z</time>
      </trkpt>
      <trkpt lat="42.85671" lon="0.26742">
        <ele>1551</ele>
        <time>2022-03-12T15:24:25Z</time>
      </trkpt>
      <trkpt lat="42.85669" lon="0.26742">
        <ele>1551</ele>
        <time>2022-03-12T15:24:27Z</time>
      </trkpt>
      <trkpt lat="42.85666" lon="0.26742">
        <ele>1549</ele>
        <time>2022-03-12T15:24:30Z</time>
      </trkpt>
      <trkpt lat="42.85664" lon="0.26743">
        <ele>1549</ele>
        <time>2022-03-12T15:24:31Z</time>
      </trkpt>
      <trkpt lat="42.85662" lon="0.26742">
        <ele>1548</ele>
        <time>2022-03-12T15:24:33Z</time>
      </trkpt>
      <trkpt lat="42.85659" lon="0.26743">
        <ele>1547</ele>
        <time>2022-03-12T15:24:36Z</time>
      </trkpt>
      <trkpt lat="42.85656" lon="0.26744">
        <ele>1546</ele>
        <time>2022-03-12T15:24:38Z</time>
      </trkpt>
      <trkpt lat="42.85655" lon="0.26744">
        <ele>1546</ele>
        <time>2022-03-12T15:24:40Z</time>
      </trkpt>
      <trkpt lat="42.85653" lon="0.26745">
        <ele>1545</ele>
        <time>2022-03-12T15:24:43Z</time>
      </trkpt>
      <trkpt lat="42.85651" lon="0.26747">
        <ele>1543</ele>
        <time>2022-03-12T15:25:05Z</time>
      </trkpt>
      <trkpt lat="42.85646" lon="0.26752">
        <ele>1541</ele>
        <time>2022-03-12T15:25:14Z</time>
      </trkpt>
      <trkpt lat="42.85644" lon="0.26755">
        <ele>1541</ele>
        <time>2022-03-12T15:25:16Z</time>
      </trkpt>
      <trkpt lat="42.85642" lon="0.26757">
        <ele>1540</ele>
        <time>2022-03-12T15:25:18Z</time>
      </trkpt>
      <trkpt lat="42.85641" lon="0.26759">
        <ele>1540</ele>
        <time>2022-03-12T15:25:20Z</time>
      </trkpt>
      <trkpt lat="42.85639" lon="0.26761">
        <ele>1538</ele>
        <time>2022-03-12T15:25:23Z</time>
      </trkpt>
      <trkpt lat="42.85638" lon="0.26763">
        <ele>1538</ele>
        <time>2022-03-12T15:25:25Z</time>
      </trkpt>
      <trkpt lat="42.85636" lon="0.26765">
        <ele>1537</ele>
        <time>2022-03-12T15:25:27Z</time>
      </trkpt>
      <trkpt lat="42.85634" lon="0.26766">
        <ele>1536</ele>
        <time>2022-03-12T15:25:29Z</time>
      </trkpt>
      <trkpt lat="42.85632" lon="0.26768">
        <ele>1536</ele>
        <time>2022-03-12T15:25:31Z</time>
      </trkpt>
      <trkpt lat="42.8563" lon="0.26769">
        <ele>1536</ele>
        <time>2022-03-12T15:25:33Z</time>
      </trkpt>
      <trkpt lat="42.85628" lon="0.26771">
        <ele>1534</ele>
        <time>2022-03-12T15:25:36Z</time>
      </trkpt>
      <trkpt lat="42.85625" lon="0.26772">
        <ele>1533</ele>
        <time>2022-03-12T15:25:41Z</time>
      </trkpt>
      <trkpt lat="42.85624" lon="0.26774">
        <ele>1533</ele>
        <time>2022-03-12T15:25:43Z</time>
      </trkpt>
      <trkpt lat="42.85623" lon="0.26777">
        <ele>1532</ele>
        <time>2022-03-12T15:25:45Z</time>
      </trkpt>
      <trkpt lat="42.85621" lon="0.26779">
        <ele>1532</ele>
        <time>2022-03-12T15:25:47Z</time>
      </trkpt>
      <trkpt lat="42.85619" lon="0.26781">
        <ele>1532</ele>
        <time>2022-03-12T15:25:49Z</time>
      </trkpt>
      <trkpt lat="42.85617" lon="0.26782">
        <ele>1531</ele>
        <time>2022-03-12T15:25:51Z</time>
      </trkpt>
      <trkpt lat="42.85615" lon="0.26784">
        <ele>1530</ele>
        <time>2022-03-12T15:25:56Z</time>
      </trkpt>
      <trkpt lat="42.85614" lon="0.26786">
        <ele>1529</ele>
        <time>2022-03-12T15:25:58Z</time>
      </trkpt>
      <trkpt lat="42.85613" lon="0.26788">
        <ele>1528</ele>
        <time>2022-03-12T15:26:10Z</time>
      </trkpt>
      <trkpt lat="42.8561" lon="0.26792">
        <ele>1528</ele>
        <time>2022-03-12T15:26:13Z</time>
      </trkpt>
      <trkpt lat="42.85608" lon="0.26796">
        <ele>1526</ele>
        <time>2022-03-12T15:26:17Z</time>
      </trkpt>
      <trkpt lat="42.85606" lon="0.26797">
        <ele>1526</ele>
        <time>2022-03-12T15:26:22Z</time>
      </trkpt>
      <trkpt lat="42.85604" lon="0.26799">
        <ele>1525</ele>
        <time>2022-03-12T15:26:24Z</time>
      </trkpt>
      <trkpt lat="42.85601" lon="0.26801">
        <ele>1524</ele>
        <time>2022-03-12T15:26:27Z</time>
      </trkpt>
      <trkpt lat="42.856" lon="0.26804">
        <ele>1523</ele>
        <time>2022-03-12T15:26:30Z</time>
      </trkpt>
      <trkpt lat="42.85598" lon="0.26806">
        <ele>1523</ele>
        <time>2022-03-12T15:26:32Z</time>
      </trkpt>
      <trkpt lat="42.85597" lon="0.26808">
        <ele>1522</ele>
        <time>2022-03-12T15:26:34Z</time>
      </trkpt>
      <trkpt lat="42.85595" lon="0.2681">
        <ele>1522</ele>
        <time>2022-03-12T15:26:36Z</time>
      </trkpt>
      <trkpt lat="42.85594" lon="0.26812">
        <ele>1521</ele>
        <time>2022-03-12T15:26:38Z</time>
      </trkpt>
      <trkpt lat="42.85592" lon="0.26813">
        <ele>1520</ele>
        <time>2022-03-12T15:26:42Z</time>
      </trkpt>
      <trkpt lat="42.85591" lon="0.26815">
        <ele>1520</ele>
        <time>2022-03-12T15:26:44Z</time>
      </trkpt>
      <trkpt lat="42.85589" lon="0.26817">
        <ele>1519</ele>
        <time>2022-03-12T15:26:46Z</time>
      </trkpt>
      <trkpt lat="42.85587" lon="0.26819">
        <ele>1518</ele>
        <time>2022-03-12T15:26:48Z</time>
      </trkpt>
      <trkpt lat="42.85585" lon="0.26821">
        <ele>1518</ele>
        <time>2022-03-12T15:26:50Z</time>
      </trkpt>
      <trkpt lat="42.85584" lon="0.26822">
        <ele>1517</ele>
        <time>2022-03-12T15:26:52Z</time>
      </trkpt>
      <trkpt lat="42.85582" lon="0.26824">
        <ele>1515</ele>
        <time>2022-03-12T15:26:54Z</time>
      </trkpt>
      <trkpt lat="42.8558" lon="0.26827">
        <ele>1514</ele>
        <time>2022-03-12T15:26:56Z</time>
      </trkpt>
      <trkpt lat="42.85579" lon="0.26829">
        <ele>1513</ele>
        <time>2022-03-12T15:26:58Z</time>
      </trkpt>
      <trkpt lat="42.85578" lon="0.26832">
        <ele>1513</ele>
        <time>2022-03-12T15:27:00Z</time>
      </trkpt>
      <trkpt lat="42.85576" lon="0.26836">
        <ele>1511</ele>
        <time>2022-03-12T15:27:09Z</time>
      </trkpt>
      <trkpt lat="42.85574" lon="0.26834">
        <ele>1511</ele>
        <time>2022-03-12T15:27:12Z</time>
      </trkpt>
      <trkpt lat="42.85575" lon="0.26844">
        <ele>1511</ele>
        <time>2022-03-12T15:27:22Z</time>
      </trkpt>
      <trkpt lat="42.85575" lon="0.26857">
        <ele>1509</ele>
        <time>2022-03-12T15:27:32Z</time>
      </trkpt>
      <trkpt lat="42.85576" lon="0.26871">
        <ele>1507</ele>
        <time>2022-03-12T15:27:40Z</time>
      </trkpt>
      <trkpt lat="42.85573" lon="0.26884">
        <ele>1505</ele>
        <time>2022-03-12T15:27:48Z</time>
      </trkpt>
      <trkpt lat="42.85573" lon="0.26887">
        <ele>1505</ele>
        <time>2022-03-12T15:27:51Z</time>
      </trkpt>
      <trkpt lat="42.85571" lon="0.26889">
        <ele>1505</ele>
        <time>2022-03-12T15:27:53Z</time>
      </trkpt>
      <trkpt lat="42.8557" lon="0.26891">
        <ele>1504</ele>
        <time>2022-03-12T15:27:57Z</time>
      </trkpt>
      <trkpt lat="42.85569" lon="0.26893">
        <ele>1503</ele>
        <time>2022-03-12T15:27:59Z</time>
      </trkpt>
      <trkpt lat="42.85569" lon="0.26897">
        <ele>1503</ele>
        <time>2022-03-12T15:28:03Z</time>
      </trkpt>
      <trkpt lat="42.85569" lon="0.26901">
        <ele>1502</ele>
        <time>2022-03-12T15:28:05Z</time>
      </trkpt>
      <trkpt lat="42.85569" lon="0.26903">
        <ele>1502</ele>
        <time>2022-03-12T15:28:07Z</time>
      </trkpt>
      <trkpt lat="42.85568" lon="0.26906">
        <ele>1502</ele>
        <time>2022-03-12T15:28:09Z</time>
      </trkpt>
      <trkpt lat="42.85567" lon="0.26909">
        <ele>1501</ele>
        <time>2022-03-12T15:28:12Z</time>
      </trkpt>
      <trkpt lat="42.85561" lon="0.26917">
        <ele>1498</ele>
        <time>2022-03-12T15:28:21Z</time>
      </trkpt>
      <trkpt lat="42.85561" lon="0.26921">
        <ele>1498</ele>
        <time>2022-03-12T15:28:26Z</time>
      </trkpt>
      <trkpt lat="42.8556" lon="0.26924">
        <ele>1498</ele>
        <time>2022-03-12T15:28:27Z</time>
      </trkpt>
      <trkpt lat="42.85559" lon="0.26928">
        <ele>1497</ele>
        <time>2022-03-12T15:28:29Z</time>
      </trkpt>
      <trkpt lat="42.85558" lon="0.26931">
        <ele>1497</ele>
        <time>2022-03-12T15:28:31Z</time>
      </trkpt>
      <trkpt lat="42.85557" lon="0.26933">
        <ele>1497</ele>
        <time>2022-03-12T15:28:33Z</time>
      </trkpt>
      <trkpt lat="42.85555" lon="0.26935">
        <ele>1496</ele>
        <time>2022-03-12T15:28:35Z</time>
      </trkpt>
      <trkpt lat="42.85552" lon="0.26935">
        <ele>1496</ele>
        <time>2022-03-12T15:28:37Z</time>
      </trkpt>
      <trkpt lat="42.85542" lon="0.26934">
        <ele>1492</ele>
        <time>2022-03-12T15:28:46Z</time>
      </trkpt>
      <trkpt lat="42.85534" lon="0.2694">
        <ele>1490</ele>
        <time>2022-03-12T15:29:00Z</time>
      </trkpt>
      <trkpt lat="42.85525" lon="0.26944">
        <ele>1488</ele>
        <time>2022-03-12T15:29:06Z</time>
      </trkpt>
      <trkpt lat="42.85521" lon="0.26943">
        <ele>1487</ele>
        <time>2022-03-12T15:29:09Z</time>
      </trkpt>
      <trkpt lat="42.85518" lon="0.26943">
        <ele>1487</ele>
        <time>2022-03-12T15:29:11Z</time>
      </trkpt>
      <trkpt lat="42.85514" lon="0.26942">
        <ele>1486</ele>
        <time>2022-03-12T15:29:15Z</time>
      </trkpt>
      <trkpt lat="42.85513" lon="0.26941">
        <ele>1485</ele>
        <time>2022-03-12T15:29:18Z</time>
      </trkpt>
      <trkpt lat="42.8551" lon="0.26941">
        <ele>1485</ele>
        <time>2022-03-12T15:29:20Z</time>
      </trkpt>
      <trkpt lat="42.85507" lon="0.26943">
        <ele>1483</ele>
        <time>2022-03-12T15:29:23Z</time>
      </trkpt>
      <trkpt lat="42.85505" lon="0.26944">
        <ele>1483</ele>
        <time>2022-03-12T15:29:26Z</time>
      </trkpt>
      <trkpt lat="42.85504" lon="0.26947">
        <ele>1483</ele>
        <time>2022-03-12T15:29:27Z</time>
      </trkpt>
      <trkpt lat="42.85502" lon="0.26949">
        <ele>1482</ele>
        <time>2022-03-12T15:29:29Z</time>
      </trkpt>
      <trkpt lat="42.85501" lon="0.26951">
        <ele>1482</ele>
        <time>2022-03-12T15:29:31Z</time>
      </trkpt>
      <trkpt lat="42.85499" lon="0.26952">
        <ele>1481</ele>
        <time>2022-03-12T15:29:34Z</time>
      </trkpt>
      <trkpt lat="42.85497" lon="0.26954">
        <ele>1480</ele>
        <time>2022-03-12T15:29:36Z</time>
      </trkpt>
      <trkpt lat="42.85496" lon="0.26954">
        <ele>1480</ele>
        <time>2022-03-12T15:29:38Z</time>
      </trkpt>
      <trkpt lat="42.85494" lon="0.26954">
        <ele>1480</ele>
        <time>2022-03-12T15:29:40Z</time>
      </trkpt>
      <trkpt lat="42.85492" lon="0.26954">
        <ele>1479</ele>
        <time>2022-03-12T15:29:42Z</time>
      </trkpt>
      <trkpt lat="42.8549" lon="0.26953">
        <ele>1479</ele>
        <time>2022-03-12T15:29:44Z</time>
      </trkpt>
      <trkpt lat="42.85487" lon="0.26953">
        <ele>1478</ele>
        <time>2022-03-12T15:29:46Z</time>
      </trkpt>
      <trkpt lat="42.85485" lon="0.26953">
        <ele>1478</ele>
        <time>2022-03-12T15:29:48Z</time>
      </trkpt>
      <trkpt lat="42.85484" lon="0.26954">
        <ele>1477</ele>
        <time>2022-03-12T15:29:50Z</time>
      </trkpt>
      <trkpt lat="42.8548" lon="0.26954">
        <ele>1477</ele>
        <time>2022-03-12T15:29:53Z</time>
      </trkpt>
      <trkpt lat="42.85478" lon="0.26953">
        <ele>1476</ele>
        <time>2022-03-12T15:29:55Z</time>
      </trkpt>
      <trkpt lat="42.85476" lon="0.26952">
        <ele>1476</ele>
        <time>2022-03-12T15:29:57Z</time>
      </trkpt>
      <trkpt lat="42.85474" lon="0.26952">
        <ele>1476</ele>
        <time>2022-03-12T15:29:59Z</time>
      </trkpt>
      <trkpt lat="42.85472" lon="0.2695">
        <ele>1475</ele>
        <time>2022-03-12T15:30:01Z</time>
      </trkpt>
      <trkpt lat="42.8547" lon="0.26949">
        <ele>1475</ele>
        <time>2022-03-12T15:30:03Z</time>
      </trkpt>
      <trkpt lat="42.85469" lon="0.26949">
        <ele>1473</ele>
        <time>2022-03-12T15:30:08Z</time>
      </trkpt>
      <trkpt lat="42.85467" lon="0.26951">
        <ele>1473</ele>
        <time>2022-03-12T15:30:11Z</time>
      </trkpt>
      <trkpt lat="42.85466" lon="0.26954">
        <ele>1472</ele>
        <time>2022-03-12T15:30:13Z</time>
      </trkpt>
      <trkpt lat="42.85464" lon="0.26955">
        <ele>1471</ele>
        <time>2022-03-12T15:30:15Z</time>
      </trkpt>
      <trkpt lat="42.85462" lon="0.26956">
        <ele>1470</ele>
        <time>2022-03-12T15:30:17Z</time>
      </trkpt>
      <trkpt lat="42.8546" lon="0.26956">
        <ele>1470</ele>
        <time>2022-03-12T15:30:19Z</time>
      </trkpt>
      <trkpt lat="42.85457" lon="0.26957">
        <ele>1469</ele>
        <time>2022-03-12T15:30:22Z</time>
      </trkpt>
      <trkpt lat="42.85455" lon="0.26959">
        <ele>1468</ele>
        <time>2022-03-12T15:30:27Z</time>
      </trkpt>
      <trkpt lat="42.85453" lon="0.2696">
        <ele>1468</ele>
        <time>2022-03-12T15:30:29Z</time>
      </trkpt>
      <trkpt lat="42.85451" lon="0.26961">
        <ele>1467</ele>
        <time>2022-03-12T15:30:31Z</time>
      </trkpt>
      <trkpt lat="42.85449" lon="0.26962">
        <ele>1467</ele>
        <time>2022-03-12T15:30:33Z</time>
      </trkpt>
      <trkpt lat="42.85448" lon="0.26965">
        <ele>1466</ele>
        <time>2022-03-12T15:30:35Z</time>
      </trkpt>
      <trkpt lat="42.85447" lon="0.26967">
        <ele>1466</ele>
        <time>2022-03-12T15:30:37Z</time>
      </trkpt>
      <trkpt lat="42.85441" lon="0.26978">
        <ele>1463</ele>
        <time>2022-03-12T15:30:45Z</time>
      </trkpt>
      <trkpt lat="42.85438" lon="0.26991">
        <ele>1462</ele>
        <time>2022-03-12T15:30:55Z</time>
      </trkpt>
      <trkpt lat="42.85438" lon="0.27005">
        <ele>1459</ele>
        <time>2022-03-12T15:31:04Z</time>
      </trkpt>
      <trkpt lat="42.85429" lon="0.27011">
        <ele>1457</ele>
        <time>2022-03-12T15:31:15Z</time>
      </trkpt>
      <trkpt lat="42.85421" lon="0.27018">
        <ele>1454</ele>
        <time>2022-03-12T15:31:23Z</time>
      </trkpt>
      <trkpt lat="42.85416" lon="0.27023">
        <ele>1453</ele>
        <time>2022-03-12T15:31:29Z</time>
      </trkpt>
      <trkpt lat="42.85414" lon="0.27026">
        <ele>1452</ele>
        <time>2022-03-12T15:31:31Z</time>
      </trkpt>
      <trkpt lat="42.85412" lon="0.27028">
        <ele>1452</ele>
        <time>2022-03-12T15:31:33Z</time>
      </trkpt>
      <trkpt lat="42.8541" lon="0.2703">
        <ele>1450</ele>
        <time>2022-03-12T15:31:36Z</time>
      </trkpt>
      <trkpt lat="42.85409" lon="0.27033">
        <ele>1450</ele>
        <time>2022-03-12T15:31:38Z</time>
      </trkpt>
      <trkpt lat="42.85407" lon="0.27034">
        <ele>1450</ele>
        <time>2022-03-12T15:31:40Z</time>
      </trkpt>
      <trkpt lat="42.85405" lon="0.27035">
        <ele>1450</ele>
        <time>2022-03-12T15:31:42Z</time>
      </trkpt>
      <trkpt lat="42.85403" lon="0.27037">
        <ele>1449</ele>
        <time>2022-03-12T15:31:44Z</time>
      </trkpt>
      <trkpt lat="42.85402" lon="0.27038">
        <ele>1449</ele>
        <time>2022-03-12T15:31:46Z</time>
      </trkpt>
      <trkpt lat="42.854" lon="0.27041">
        <ele>1448</ele>
        <time>2022-03-12T15:31:48Z</time>
      </trkpt>
      <trkpt lat="42.85398" lon="0.27041">
        <ele>1447</ele>
        <time>2022-03-12T15:31:50Z</time>
      </trkpt>
      <trkpt lat="42.85395" lon="0.27041">
        <ele>1447</ele>
        <time>2022-03-12T15:31:52Z</time>
      </trkpt>
      <trkpt lat="42.85393" lon="0.27041">
        <ele>1447</ele>
        <time>2022-03-12T15:31:54Z</time>
      </trkpt>
      <trkpt lat="42.85391" lon="0.27042">
        <ele>1446</ele>
        <time>2022-03-12T15:31:56Z</time>
      </trkpt>
      <trkpt lat="42.85389" lon="0.27043">
        <ele>1445</ele>
        <time>2022-03-12T15:31:59Z</time>
      </trkpt>
      <trkpt lat="42.85387" lon="0.27044">
        <ele>1445</ele>
        <time>2022-03-12T15:32:00Z</time>
      </trkpt>
      <trkpt lat="42.85385" lon="0.27045">
        <ele>1445</ele>
        <time>2022-03-12T15:32:02Z</time>
      </trkpt>
      <trkpt lat="42.85383" lon="0.27047">
        <ele>1444</ele>
        <time>2022-03-12T15:32:04Z</time>
      </trkpt>
      <trkpt lat="42.85381" lon="0.27048">
        <ele>1444</ele>
        <time>2022-03-12T15:32:06Z</time>
      </trkpt>
      <trkpt lat="42.85379" lon="0.27049">
        <ele>1443</ele>
        <time>2022-03-12T15:32:08Z</time>
      </trkpt>
      <trkpt lat="42.85377" lon="0.2705">
        <ele>1443</ele>
        <time>2022-03-12T15:32:10Z</time>
      </trkpt>
      <trkpt lat="42.85375" lon="0.27051">
        <ele>1443</ele>
        <time>2022-03-12T15:32:12Z</time>
      </trkpt>
      <trkpt lat="42.85373" lon="0.27053">
        <ele>1442</ele>
        <time>2022-03-12T15:32:14Z</time>
      </trkpt>
      <trkpt lat="42.8537" lon="0.27054">
        <ele>1442</ele>
        <time>2022-03-12T15:32:16Z</time>
      </trkpt>
      <trkpt lat="42.85368" lon="0.27055">
        <ele>1441</ele>
        <time>2022-03-12T15:32:18Z</time>
      </trkpt>
      <trkpt lat="42.85366" lon="0.27056">
        <ele>1441</ele>
        <time>2022-03-12T15:32:20Z</time>
      </trkpt>
      <trkpt lat="42.85364" lon="0.27058">
        <ele>1441</ele>
        <time>2022-03-12T15:32:22Z</time>
      </trkpt>
      <trkpt lat="42.85362" lon="0.27059">
        <ele>1440</ele>
        <time>2022-03-12T15:32:24Z</time>
      </trkpt>
      <trkpt lat="42.8536" lon="0.2706">
        <ele>1440</ele>
        <time>2022-03-12T15:32:26Z</time>
      </trkpt>
      <trkpt lat="42.85359" lon="0.27061">
        <ele>1439</ele>
        <time>2022-03-12T15:32:28Z</time>
      </trkpt>
      <trkpt lat="42.85357" lon="0.27062">
        <ele>1439</ele>
        <time>2022-03-12T15:32:30Z</time>
      </trkpt>
      <trkpt lat="42.85355" lon="0.27062">
        <ele>1439</ele>
        <time>2022-03-12T15:32:32Z</time>
      </trkpt>
      <trkpt lat="42.85353" lon="0.27064">
        <ele>1439</ele>
        <time>2022-03-12T15:32:34Z</time>
      </trkpt>
      <trkpt lat="42.85351" lon="0.27064">
        <ele>1438</ele>
        <time>2022-03-12T15:32:36Z</time>
      </trkpt>
      <trkpt lat="42.85349" lon="0.27065">
        <ele>1437</ele>
        <time>2022-03-12T15:32:39Z</time>
      </trkpt>
      <trkpt lat="42.85347" lon="0.27066">
        <ele>1437</ele>
        <time>2022-03-12T15:32:40Z</time>
      </trkpt>
      <trkpt lat="42.85345" lon="0.27067">
        <ele>1437</ele>
        <time>2022-03-12T15:32:42Z</time>
      </trkpt>
      <trkpt lat="42.85343" lon="0.27068">
        <ele>1436</ele>
        <time>2022-03-12T15:32:44Z</time>
      </trkpt>
      <trkpt lat="42.8534" lon="0.27069">
        <ele>1436</ele>
        <time>2022-03-12T15:32:46Z</time>
      </trkpt>
      <trkpt lat="42.85338" lon="0.2707">
        <ele>1435</ele>
        <time>2022-03-12T15:32:49Z</time>
      </trkpt>
      <trkpt lat="42.85336" lon="0.27071">
        <ele>1435</ele>
        <time>2022-03-12T15:32:50Z</time>
      </trkpt>
      <trkpt lat="42.85334" lon="0.27072">
        <ele>1435</ele>
        <time>2022-03-12T15:32:52Z</time>
      </trkpt>
      <trkpt lat="42.85332" lon="0.27073">
        <ele>1435</ele>
        <time>2022-03-12T15:32:54Z</time>
      </trkpt>
      <trkpt lat="42.8533" lon="0.27074">
        <ele>1435</ele>
        <time>2022-03-12T15:32:56Z</time>
      </trkpt>
      <trkpt lat="42.85328" lon="0.27075">
        <ele>1435</ele>
        <time>2022-03-12T15:32:58Z</time>
      </trkpt>
      <trkpt lat="42.85326" lon="0.27076">
        <ele>1434</ele>
        <time>2022-03-12T15:33:00Z</time>
      </trkpt>
      <trkpt lat="42.85324" lon="0.27077">
        <ele>1434</ele>
        <time>2022-03-12T15:33:02Z</time>
      </trkpt>
      <trkpt lat="42.85322" lon="0.27079">
        <ele>1434</ele>
        <time>2022-03-12T15:33:05Z</time>
      </trkpt>
      <trkpt lat="42.8532" lon="0.27081">
        <ele>1434</ele>
        <time>2022-03-12T15:33:07Z</time>
      </trkpt>
      <trkpt lat="42.85319" lon="0.27084">
        <ele>1433</ele>
        <time>2022-03-12T15:33:09Z</time>
      </trkpt>
      <trkpt lat="42.85319" lon="0.27086">
        <ele>1432</ele>
        <time>2022-03-12T15:33:11Z</time>
      </trkpt>
      <trkpt lat="42.85318" lon="0.27089">
        <ele>1432</ele>
        <time>2022-03-12T15:33:14Z</time>
      </trkpt>
      <trkpt lat="42.85317" lon="0.27092">
        <ele>1431</ele>
        <time>2022-03-12T15:33:15Z</time>
      </trkpt>
      <trkpt lat="42.85316" lon="0.27095">
        <ele>1431</ele>
        <time>2022-03-12T15:33:17Z</time>
      </trkpt>
      <trkpt lat="42.85315" lon="0.27098">
        <ele>1430</ele>
        <time>2022-03-12T15:33:19Z</time>
      </trkpt>
      <trkpt lat="42.85315" lon="0.27102">
        <ele>1430</ele>
        <time>2022-03-12T15:33:21Z</time>
      </trkpt>
      <trkpt lat="42.85314" lon="0.27105">
        <ele>1430</ele>
        <time>2022-03-12T15:33:23Z</time>
      </trkpt>
      <trkpt lat="42.85312" lon="0.27108">
        <ele>1429</ele>
        <time>2022-03-12T15:33:25Z</time>
      </trkpt>
      <trkpt lat="42.85311" lon="0.2711">
        <ele>1429</ele>
        <time>2022-03-12T15:33:27Z</time>
      </trkpt>
      <trkpt lat="42.85309" lon="0.27112">
        <ele>1428</ele>
        <time>2022-03-12T15:33:30Z</time>
      </trkpt>
      <trkpt lat="42.85307" lon="0.27115">
        <ele>1428</ele>
        <time>2022-03-12T15:33:31Z</time>
      </trkpt>
      <trkpt lat="42.85306" lon="0.27117">
        <ele>1427</ele>
        <time>2022-03-12T15:33:33Z</time>
      </trkpt>
      <trkpt lat="42.85305" lon="0.27119">
        <ele>1427</ele>
        <time>2022-03-12T15:33:35Z</time>
      </trkpt>
      <trkpt lat="42.85303" lon="0.27121">
        <ele>1427</ele>
        <time>2022-03-12T15:33:37Z</time>
      </trkpt>
      <trkpt lat="42.85302" lon="0.27124">
        <ele>1427</ele>
        <time>2022-03-12T15:33:39Z</time>
      </trkpt>
      <trkpt lat="42.853" lon="0.27125">
        <ele>1427</ele>
        <time>2022-03-12T15:33:41Z</time>
      </trkpt>
      <trkpt lat="42.85298" lon="0.27127">
        <ele>1427</ele>
        <time>2022-03-12T15:33:43Z</time>
      </trkpt>
      <trkpt lat="42.85296" lon="0.27129">
        <ele>1426</ele>
        <time>2022-03-12T15:33:45Z</time>
      </trkpt>
      <trkpt lat="42.85294" lon="0.27129">
        <ele>1425</ele>
        <time>2022-03-12T15:33:47Z</time>
      </trkpt>
      <trkpt lat="42.85292" lon="0.27129">
        <ele>1425</ele>
        <time>2022-03-12T15:33:49Z</time>
      </trkpt>
      <trkpt lat="42.8529" lon="0.27128">
        <ele>1424</ele>
        <time>2022-03-12T15:33:51Z</time>
      </trkpt>
      <trkpt lat="42.85288" lon="0.27129">
        <ele>1424</ele>
        <time>2022-03-12T15:33:53Z</time>
      </trkpt>
      <trkpt lat="42.85286" lon="0.27129">
        <ele>1423</ele>
        <time>2022-03-12T15:33:55Z</time>
      </trkpt>
      <trkpt lat="42.85284" lon="0.27129">
        <ele>1422</ele>
        <time>2022-03-12T15:33:59Z</time>
      </trkpt>
      <trkpt lat="42.85281" lon="0.27129">
        <ele>1421</ele>
        <time>2022-03-12T15:34:01Z</time>
      </trkpt>
      <trkpt lat="42.85279" lon="0.27129">
        <ele>1420</ele>
        <time>2022-03-12T15:34:04Z</time>
      </trkpt>
      <trkpt lat="42.85277" lon="0.27129">
        <ele>1420</ele>
        <time>2022-03-12T15:34:05Z</time>
      </trkpt>
      <trkpt lat="42.85275" lon="0.27129">
        <ele>1420</ele>
        <time>2022-03-12T15:34:07Z</time>
      </trkpt>
      <trkpt lat="42.85273" lon="0.2713">
        <ele>1419</ele>
        <time>2022-03-12T15:34:09Z</time>
      </trkpt>
      <trkpt lat="42.8527" lon="0.2713">
        <ele>1419</ele>
        <time>2022-03-12T15:34:11Z</time>
      </trkpt>
      <trkpt lat="42.85268" lon="0.2713">
        <ele>1419</ele>
        <time>2022-03-12T15:34:13Z</time>
      </trkpt>
      <trkpt lat="42.85266" lon="0.27131">
        <ele>1418</ele>
        <time>2022-03-12T15:34:15Z</time>
      </trkpt>
      <trkpt lat="42.85264" lon="0.27131">
        <ele>1418</ele>
        <time>2022-03-12T15:34:17Z</time>
      </trkpt>
      <trkpt lat="42.85262" lon="0.27132">
        <ele>1417</ele>
        <time>2022-03-12T15:34:19Z</time>
      </trkpt>
      <trkpt lat="42.8526" lon="0.27132">
        <ele>1417</ele>
        <time>2022-03-12T15:34:21Z</time>
      </trkpt>
      <trkpt lat="42.85258" lon="0.27132">
        <ele>1416</ele>
        <time>2022-03-12T15:34:23Z</time>
      </trkpt>
      <trkpt lat="42.85256" lon="0.27133">
        <ele>1416</ele>
        <time>2022-03-12T15:34:25Z</time>
      </trkpt>
      <trkpt lat="42.85253" lon="0.27133">
        <ele>1415</ele>
        <time>2022-03-12T15:34:27Z</time>
      </trkpt>
      <trkpt lat="42.85252" lon="0.27134">
        <ele>1414</ele>
        <time>2022-03-12T15:34:29Z</time>
      </trkpt>
      <trkpt lat="42.85249" lon="0.27134">
        <ele>1413</ele>
        <time>2022-03-12T15:34:32Z</time>
      </trkpt>
      <trkpt lat="42.85247" lon="0.27135">
        <ele>1413</ele>
        <time>2022-03-12T15:34:34Z</time>
      </trkpt>
      <trkpt lat="42.85245" lon="0.27136">
        <ele>1412</ele>
        <time>2022-03-12T15:34:36Z</time>
      </trkpt>
      <trkpt lat="42.85243" lon="0.27136">
        <ele>1412</ele>
        <time>2022-03-12T15:34:38Z</time>
      </trkpt>
      <trkpt lat="42.85241" lon="0.27137">
        <ele>1411</ele>
        <time>2022-03-12T15:34:40Z</time>
      </trkpt>
      <trkpt lat="42.85234" lon="0.27141">
        <ele>1410</ele>
        <time>2022-03-12T15:34:46Z</time>
      </trkpt>
      <trkpt lat="42.85225" lon="0.27144">
        <ele>1408</ele>
        <time>2022-03-12T15:34:53Z</time>
      </trkpt>
      <trkpt lat="42.85219" lon="0.27151">
        <ele>1407</ele>
        <time>2022-03-12T15:35:01Z</time>
      </trkpt>
      <trkpt lat="42.85217" lon="0.27153">
        <ele>1407</ele>
        <time>2022-03-12T15:35:03Z</time>
      </trkpt>
      <trkpt lat="42.85216" lon="0.27155">
        <ele>1406</ele>
        <time>2022-03-12T15:35:05Z</time>
      </trkpt>
      <trkpt lat="42.85214" lon="0.27157">
        <ele>1406</ele>
        <time>2022-03-12T15:35:10Z</time>
      </trkpt>
      <trkpt lat="42.85213" lon="0.2716">
        <ele>1406</ele>
        <time>2022-03-12T15:35:11Z</time>
      </trkpt>
      <trkpt lat="42.85212" lon="0.27164">
        <ele>1405</ele>
        <time>2022-03-12T15:35:13Z</time>
      </trkpt>
      <trkpt lat="42.85211" lon="0.27167">
        <ele>1404</ele>
        <time>2022-03-12T15:35:15Z</time>
      </trkpt>
      <trkpt lat="42.8521" lon="0.27169">
        <ele>1404</ele>
        <time>2022-03-12T15:35:17Z</time>
      </trkpt>
      <trkpt lat="42.85208" lon="0.27172">
        <ele>1404</ele>
        <time>2022-03-12T15:35:19Z</time>
      </trkpt>
      <trkpt lat="42.85205" lon="0.27173">
        <ele>1403</ele>
        <time>2022-03-12T15:35:21Z</time>
      </trkpt>
      <trkpt lat="42.85203" lon="0.27173">
        <ele>1403</ele>
        <time>2022-03-12T15:35:23Z</time>
      </trkpt>
      <trkpt lat="42.85201" lon="0.27174">
        <ele>1403</ele>
        <time>2022-03-12T15:35:25Z</time>
      </trkpt>
      <trkpt lat="42.85199" lon="0.27175">
        <ele>1403</ele>
        <time>2022-03-12T15:35:27Z</time>
      </trkpt>
      <trkpt lat="42.85197" lon="0.27176">
        <ele>1403</ele>
        <time>2022-03-12T15:35:29Z</time>
      </trkpt>
      <trkpt lat="42.85196" lon="0.27177">
        <ele>1403</ele>
        <time>2022-03-12T15:35:31Z</time>
      </trkpt>
      <trkpt lat="42.85194" lon="0.27179">
        <ele>1403</ele>
        <time>2022-03-12T15:35:33Z</time>
      </trkpt>
      <trkpt lat="42.85192" lon="0.27182">
        <ele>1402</ele>
        <time>2022-03-12T15:35:35Z</time>
      </trkpt>
      <trkpt lat="42.8519" lon="0.27184">
        <ele>1402</ele>
        <time>2022-03-12T15:35:37Z</time>
      </trkpt>
      <trkpt lat="42.85189" lon="0.27187">
        <ele>1402</ele>
        <time>2022-03-12T15:35:39Z</time>
      </trkpt>
      <trkpt lat="42.85188" lon="0.27188">
        <ele>1401</ele>
        <time>2022-03-12T15:35:41Z</time>
      </trkpt>
      <trkpt lat="42.85186" lon="0.27191">
        <ele>1401</ele>
        <time>2022-03-12T15:35:43Z</time>
      </trkpt>
      <trkpt lat="42.85185" lon="0.27194">
        <ele>1401</ele>
        <time>2022-03-12T15:35:46Z</time>
      </trkpt>
      <trkpt lat="42.85183" lon="0.27196">
        <ele>1401</ele>
        <time>2022-03-12T15:35:47Z</time>
      </trkpt>
      <trkpt lat="42.85181" lon="0.27199">
        <ele>1401</ele>
        <time>2022-03-12T15:35:49Z</time>
      </trkpt>
      <trkpt lat="42.8518" lon="0.27201">
        <ele>1400</ele>
        <time>2022-03-12T15:35:51Z</time>
      </trkpt>
      <trkpt lat="42.85178" lon="0.27202">
        <ele>1400</ele>
        <time>2022-03-12T15:35:56Z</time>
      </trkpt>
      <trkpt lat="42.85176" lon="0.27205">
        <ele>1400</ele>
        <time>2022-03-12T15:35:58Z</time>
      </trkpt>
      <trkpt lat="42.85174" lon="0.27207">
        <ele>1399</ele>
        <time>2022-03-12T15:36:01Z</time>
      </trkpt>
      <trkpt lat="42.85171" lon="0.27209">
        <ele>1399</ele>
        <time>2022-03-12T15:36:02Z</time>
      </trkpt>
      <trkpt lat="42.85169" lon="0.27211">
        <ele>1398</ele>
        <time>2022-03-12T15:36:04Z</time>
      </trkpt>
      <trkpt lat="42.85168" lon="0.27214">
        <ele>1398</ele>
        <time>2022-03-12T15:36:06Z</time>
      </trkpt>
      <trkpt lat="42.85166" lon="0.27216">
        <ele>1397</ele>
        <time>2022-03-12T15:36:08Z</time>
      </trkpt>
      <trkpt lat="42.85165" lon="0.2722">
        <ele>1397</ele>
        <time>2022-03-12T15:36:10Z</time>
      </trkpt>
      <trkpt lat="42.85165" lon="0.27223">
        <ele>1397</ele>
        <time>2022-03-12T15:36:12Z</time>
      </trkpt>
      <trkpt lat="42.85163" lon="0.27226">
        <ele>1396</ele>
        <time>2022-03-12T15:36:14Z</time>
      </trkpt>
      <trkpt lat="42.85161" lon="0.27228">
        <ele>1395</ele>
        <time>2022-03-12T15:36:17Z</time>
      </trkpt>
      <trkpt lat="42.85161" lon="0.27232">
        <ele>1394</ele>
        <time>2022-03-12T15:36:22Z</time>
      </trkpt>
      <trkpt lat="42.85162" lon="0.27235">
        <ele>1394</ele>
        <time>2022-03-12T15:36:24Z</time>
      </trkpt>
      <trkpt lat="42.8516" lon="0.27233">
        <ele>1394</ele>
        <time>2022-03-12T15:36:28Z</time>
      </trkpt>
      <trkpt lat="42.85158" lon="0.27232">
        <ele>1394</ele>
        <time>2022-03-12T15:36:31Z</time>
      </trkpt>
      <trkpt lat="42.85156" lon="0.27231">
        <ele>1394</ele>
        <time>2022-03-12T15:36:33Z</time>
      </trkpt>
      <trkpt lat="42.85154" lon="0.27231">
        <ele>1394</ele>
        <time>2022-03-12T15:36:37Z</time>
      </trkpt>
      <trkpt lat="42.85157" lon="0.27235">
        <ele>1394</ele>
        <time>2022-03-12T15:36:54Z</time>
      </trkpt>
      <trkpt lat="42.85161" lon="0.27239">
        <ele>1394</ele>
        <time>2022-03-12T15:37:00Z</time>
      </trkpt>
      <trkpt lat="42.85159" lon="0.27241">
        <ele>1394</ele>
        <time>2022-03-12T15:37:04Z</time>
      </trkpt>
      <trkpt lat="42.85153" lon="0.27239">
        <ele>1394</ele>
        <time>2022-03-12T15:37:10Z</time>
      </trkpt>
      <trkpt lat="42.8515" lon="0.2724">
        <ele>1394</ele>
        <time>2022-03-12T15:37:11Z</time>
      </trkpt>
      <trkpt lat="42.85149" lon="0.27243">
        <ele>1394</ele>
        <time>2022-03-12T15:37:13Z</time>
      </trkpt>
      <trkpt lat="42.85148" lon="0.27248">
        <ele>1393</ele>
        <time>2022-03-12T15:37:16Z</time>
      </trkpt>
      <trkpt lat="42.85145" lon="0.27245">
        <ele>1392</ele>
        <time>2022-03-12T15:37:23Z</time>
      </trkpt>
      <trkpt lat="42.85144" lon="0.27251">
        <ele>1391</ele>
        <time>2022-03-12T15:37:32Z</time>
      </trkpt>
      <trkpt lat="42.85143" lon="0.27255">
        <ele>1391</ele>
        <time>2022-03-12T15:37:44Z</time>
      </trkpt>
      <trkpt lat="42.85141" lon="0.27259">
        <ele>1391</ele>
        <time>2022-03-12T15:37:45Z</time>
      </trkpt>
      <trkpt lat="42.8514" lon="0.2726">
        <ele>1391</ele>
        <time>2022-03-12T15:37:48Z</time>
      </trkpt>
      <trkpt lat="42.85139" lon="0.27273">
        <ele>1390</ele>
        <time>2022-03-12T15:37:57Z</time>
      </trkpt>
      <trkpt lat="42.85139" lon="0.27278">
        <ele>1389</ele>
        <time>2022-03-12T15:38:00Z</time>
      </trkpt>
      <trkpt lat="42.85139" lon="0.27281">
        <ele>1389</ele>
        <time>2022-03-12T15:38:02Z</time>
      </trkpt>
      <trkpt lat="42.85139" lon="0.27285">
        <ele>1389</ele>
        <time>2022-03-12T15:38:04Z</time>
      </trkpt>
      <trkpt lat="42.85139" lon="0.27288">
        <ele>1388</ele>
        <time>2022-03-12T15:38:06Z</time>
      </trkpt>
      <trkpt lat="42.85142" lon="0.27298">
        <ele>1388</ele>
        <time>2022-03-12T15:38:15Z</time>
      </trkpt>
      <trkpt lat="42.85143" lon="0.27301">
        <ele>1388</ele>
        <time>2022-03-12T15:38:17Z</time>
      </trkpt>
      <trkpt lat="42.85145" lon="0.27304">
        <ele>1388</ele>
        <time>2022-03-12T15:38:19Z</time>
      </trkpt>
      <trkpt lat="42.85147" lon="0.27306">
        <ele>1388</ele>
        <time>2022-03-12T15:38:21Z</time>
      </trkpt>
      <trkpt lat="42.85148" lon="0.27307">
        <ele>1388</ele>
        <time>2022-03-12T15:38:23Z</time>
      </trkpt>
      <trkpt lat="42.85154" lon="0.27312">
        <ele>1388</ele>
        <time>2022-03-12T15:38:28Z</time>
      </trkpt>
      <trkpt lat="42.85155" lon="0.27314">
        <ele>1388</ele>
        <time>2022-03-12T15:38:30Z</time>
      </trkpt>
      <trkpt lat="42.85149" lon="0.27323">
        <ele>1386</ele>
        <time>2022-03-12T15:38:41Z</time>
      </trkpt>
      <trkpt lat="42.85147" lon="0.27325">
        <ele>1386</ele>
        <time>2022-03-12T15:38:43Z</time>
      </trkpt>
      <trkpt lat="42.85146" lon="0.27327">
        <ele>1386</ele>
        <time>2022-03-12T15:38:45Z</time>
      </trkpt>
      <trkpt lat="42.85144" lon="0.27329">
        <ele>1386</ele>
        <time>2022-03-12T15:38:48Z</time>
      </trkpt>
      <trkpt lat="42.85143" lon="0.27326">
        <ele>1384</ele>
        <time>2022-03-12T15:39:07Z</time>
      </trkpt>
      <trkpt lat="42.85142" lon="0.27325">
        <ele>1384</ele>
        <time>2022-03-12T15:39:09Z</time>
      </trkpt>
      <trkpt lat="42.8514" lon="0.27324">
        <ele>1384</ele>
        <time>2022-03-12T15:39:11Z</time>
      </trkpt>
      <trkpt lat="42.85138" lon="0.27322">
        <ele>1385</ele>
        <time>2022-03-12T15:39:57Z</time>
      </trkpt>
      <trkpt lat="42.85139" lon="0.2733">
        <ele>1384</ele>
        <time>2022-03-12T15:40:11Z</time>
      </trkpt>
      <trkpt lat="42.8514" lon="0.27334">
        <ele>1384</ele>
        <time>2022-03-12T15:40:14Z</time>
      </trkpt>
      <trkpt lat="42.8514" lon="0.27338">
        <ele>1384</ele>
        <time>2022-03-12T15:40:18Z</time>
      </trkpt>
      <trkpt lat="42.85138" lon="0.2734">
        <ele>1384</ele>
        <time>2022-03-12T15:40:20Z</time>
      </trkpt>
      <trkpt lat="42.85136" lon="0.27342">
        <ele>1383</ele>
        <time>2022-03-12T15:40:22Z</time>
      </trkpt>
      <trkpt lat="42.85135" lon="0.27343">
        <ele>1383</ele>
        <time>2022-03-12T15:40:24Z</time>
      </trkpt>
      <trkpt lat="42.85133" lon="0.27346">
        <ele>1383</ele>
        <time>2022-03-12T15:40:26Z</time>
      </trkpt>
      <trkpt lat="42.8513" lon="0.27349">
        <ele>1382</ele>
        <time>2022-03-12T15:40:30Z</time>
      </trkpt>
      <trkpt lat="42.85129" lon="0.27351">
        <ele>1382</ele>
        <time>2022-03-12T15:40:33Z</time>
      </trkpt>
      <trkpt lat="42.85127" lon="0.27352">
        <ele>1382</ele>
        <time>2022-03-12T15:40:36Z</time>
      </trkpt>
      <trkpt lat="42.85124" lon="0.27355">
        <ele>1381</ele>
        <time>2022-03-12T15:40:41Z</time>
      </trkpt>
      <trkpt lat="42.85124" lon="0.27351">
        <ele>1381</ele>
        <time>2022-03-12T15:41:10Z</time>
      </trkpt>
      <trkpt lat="42.8512" lon="0.27348">
        <ele>1381</ele>
        <time>2022-03-12T15:41:17Z</time>
      </trkpt>
      <trkpt lat="42.85122" lon="0.2735">
        <ele>1382</ele>
        <time>2022-03-12T15:41:53Z</time>
      </trkpt>
      <trkpt lat="42.85122" lon="0.27353">
        <ele>1381</ele>
        <time>2022-03-12T15:42:20Z</time>
      </trkpt>
      <trkpt lat="42.85117" lon="0.27363">
        <ele>1380</ele>
        <time>2022-03-12T15:42:29Z</time>
      </trkpt>
      <trkpt lat="42.85116" lon="0.27364">
        <ele>1380</ele>
        <time>2022-03-12T15:42:32Z</time>
      </trkpt>
      <trkpt lat="42.85114" lon="0.27366">
        <ele>1380</ele>
        <time>2022-03-12T15:42:34Z</time>
      </trkpt>
      <trkpt lat="42.85113" lon="0.27367">
        <ele>1379</ele>
        <time>2022-03-12T15:42:37Z</time>
      </trkpt>
      <trkpt lat="42.85111" lon="0.2737">
        <ele>1379</ele>
        <time>2022-03-12T15:42:38Z</time>
      </trkpt>
      <trkpt lat="42.85109" lon="0.27373">
        <ele>1379</ele>
        <time>2022-03-12T15:42:40Z</time>
      </trkpt>
      <trkpt lat="42.85106" lon="0.27375">
        <ele>1378</ele>
        <time>2022-03-12T15:42:42Z</time>
      </trkpt>
      <trkpt lat="42.85104" lon="0.27378">
        <ele>1378</ele>
        <time>2022-03-12T15:42:44Z</time>
      </trkpt>
      <trkpt lat="42.85103" lon="0.2738">
        <ele>1378</ele>
        <time>2022-03-12T15:42:46Z</time>
      </trkpt>
      <trkpt lat="42.85102" lon="0.27382">
        <ele>1377</ele>
        <time>2022-03-12T15:42:48Z</time>
      </trkpt>
      <trkpt lat="42.851" lon="0.27384">
        <ele>1377</ele>
        <time>2022-03-12T15:42:50Z</time>
      </trkpt>
      <trkpt lat="42.85099" lon="0.27387">
        <ele>1377</ele>
        <time>2022-03-12T15:42:52Z</time>
      </trkpt>
      <trkpt lat="42.85097" lon="0.27389">
        <ele>1377</ele>
        <time>2022-03-12T15:42:54Z</time>
      </trkpt>
      <trkpt lat="42.85096" lon="0.27391">
        <ele>1377</ele>
        <time>2022-03-12T15:42:56Z</time>
      </trkpt>
      <trkpt lat="42.85094" lon="0.27393">
        <ele>1376</ele>
        <time>2022-03-12T15:42:58Z</time>
      </trkpt>
      <trkpt lat="42.85093" lon="0.27395">
        <ele>1375</ele>
        <time>2022-03-12T15:43:00Z</time>
      </trkpt>
      <trkpt lat="42.85091" lon="0.27397">
        <ele>1375</ele>
        <time>2022-03-12T15:43:04Z</time>
      </trkpt>
      <trkpt lat="42.8509" lon="0.27399">
        <ele>1375</ele>
        <time>2022-03-12T15:43:06Z</time>
      </trkpt>
      <trkpt lat="42.85089" lon="0.27402">
        <ele>1375</ele>
        <time>2022-03-12T15:43:07Z</time>
      </trkpt>
      <trkpt lat="42.85087" lon="0.27404">
        <ele>1374</ele>
        <time>2022-03-12T15:43:09Z</time>
      </trkpt>
      <trkpt lat="42.85086" lon="0.27406">
        <ele>1374</ele>
        <time>2022-03-12T15:43:11Z</time>
      </trkpt>
      <trkpt lat="42.85084" lon="0.27408">
        <ele>1373</ele>
        <time>2022-03-12T15:43:14Z</time>
      </trkpt>
      <trkpt lat="42.85082" lon="0.2741">
        <ele>1373</ele>
        <time>2022-03-12T15:43:16Z</time>
      </trkpt>
      <trkpt lat="42.8508" lon="0.27413">
        <ele>1373</ele>
        <time>2022-03-12T15:43:17Z</time>
      </trkpt>
      <trkpt lat="42.85079" lon="0.27415">
        <ele>1373</ele>
        <time>2022-03-12T15:43:18Z</time>
      </trkpt>
      <trkpt lat="42.85078" lon="0.27416">
        <ele>1373</ele>
        <time>2022-03-12T15:43:20Z</time>
      </trkpt>
      <trkpt lat="42.85075" lon="0.27418">
        <ele>1373</ele>
        <time>2022-03-12T15:43:21Z</time>
      </trkpt>
      <trkpt lat="42.85073" lon="0.27419">
        <ele>1372</ele>
        <time>2022-03-12T15:43:24Z</time>
      </trkpt>
      <trkpt lat="42.85071" lon="0.27422">
        <ele>1372</ele>
        <time>2022-03-12T15:43:26Z</time>
      </trkpt>
      <trkpt lat="42.8507" lon="0.27425">
        <ele>1372</ele>
        <time>2022-03-12T15:43:28Z</time>
      </trkpt>
      <trkpt lat="42.85067" lon="0.27427">
        <ele>1372</ele>
        <time>2022-03-12T15:43:30Z</time>
      </trkpt>
      <trkpt lat="42.85065" lon="0.27428">
        <ele>1372</ele>
        <time>2022-03-12T15:43:32Z</time>
      </trkpt>
      <trkpt lat="42.85063" lon="0.2743">
        <ele>1372</ele>
        <time>2022-03-12T15:43:35Z</time>
      </trkpt>
      <trkpt lat="42.85061" lon="0.27431">
        <ele>1372</ele>
        <time>2022-03-12T15:43:37Z</time>
      </trkpt>
      <trkpt lat="42.85059" lon="0.27433">
        <ele>1372</ele>
        <time>2022-03-12T15:43:39Z</time>
      </trkpt>
      <trkpt lat="42.85058" lon="0.27435">
        <ele>1371</ele>
        <time>2022-03-12T15:43:42Z</time>
      </trkpt>
      <trkpt lat="42.85056" lon="0.27437">
        <ele>1371</ele>
        <time>2022-03-12T15:43:44Z</time>
      </trkpt>
      <trkpt lat="42.85055" lon="0.27439">
        <ele>1370</ele>
        <time>2022-03-12T15:43:46Z</time>
      </trkpt>
      <trkpt lat="42.85054" lon="0.27442">
        <ele>1370</ele>
        <time>2022-03-12T15:43:49Z</time>
      </trkpt>
      <trkpt lat="42.85046" lon="0.2745">
        <ele>1369</ele>
        <time>2022-03-12T15:43:56Z</time>
      </trkpt>
      <trkpt lat="42.85037" lon="0.27456">
        <ele>1367</ele>
        <time>2022-03-12T15:44:02Z</time>
      </trkpt>
      <trkpt lat="42.85036" lon="0.27457">
        <ele>1367</ele>
        <time>2022-03-12T15:44:05Z</time>
      </trkpt>
      <trkpt lat="42.85028" lon="0.27464">
        <ele>1366</ele>
        <time>2022-03-12T15:44:15Z</time>
      </trkpt>
      <trkpt lat="42.85021" lon="0.27471">
        <ele>1364</ele>
        <time>2022-03-12T15:44:23Z</time>
      </trkpt>
      <trkpt lat="42.85014" lon="0.27483">
        <ele>1363</ele>
        <time>2022-03-12T15:44:31Z</time>
      </trkpt>
      <trkpt lat="42.85011" lon="0.27494">
        <ele>1363</ele>
        <time>2022-03-12T15:44:41Z</time>
      </trkpt>
      <trkpt lat="42.85006" lon="0.27506">
        <ele>1362</ele>
        <time>2022-03-12T15:44:48Z</time>
      </trkpt>
      <trkpt lat="42.85005" lon="0.27513">
        <ele>1362</ele>
        <time>2022-03-12T15:44:52Z</time>
      </trkpt>
      <trkpt lat="42.85002" lon="0.27525">
        <ele>1361</ele>
        <time>2022-03-12T15:45:03Z</time>
      </trkpt>
      <trkpt lat="42.84995" lon="0.27536">
        <ele>1360</ele>
        <time>2022-03-12T15:45:11Z</time>
      </trkpt>
      <trkpt lat="42.84994" lon="0.2755">
        <ele>1360</ele>
        <time>2022-03-12T15:45:17Z</time>
      </trkpt>
      <trkpt lat="42.84991" lon="0.27564">
        <ele>1359</ele>
        <time>2022-03-12T15:45:26Z</time>
      </trkpt>
      <trkpt lat="42.8499" lon="0.27577">
        <ele>1358</ele>
        <time>2022-03-12T15:45:32Z</time>
      </trkpt>
      <trkpt lat="42.84989" lon="0.27589">
        <ele>1358</ele>
        <time>2022-03-12T15:45:42Z</time>
      </trkpt>
      <trkpt lat="42.84985" lon="0.27601">
        <ele>1358</ele>
        <time>2022-03-12T15:45:54Z</time>
      </trkpt>
      <trkpt lat="42.84982" lon="0.27614">
        <ele>1358</ele>
        <time>2022-03-12T15:46:03Z</time>
      </trkpt>
      <trkpt lat="42.84978" lon="0.27626">
        <ele>1358</ele>
        <time>2022-03-12T15:46:11Z</time>
      </trkpt>
      <trkpt lat="42.84974" lon="0.27638">
        <ele>1358</ele>
        <time>2022-03-12T15:46:18Z</time>
      </trkpt>
      <trkpt lat="42.84968" lon="0.27648">
        <ele>1357</ele>
        <time>2022-03-12T15:46:24Z</time>
      </trkpt>
      <trkpt lat="42.84961" lon="0.27656">
        <ele>1357</ele>
        <time>2022-03-12T15:46:29Z</time>
      </trkpt>
      <trkpt lat="42.84955" lon="0.27665">
        <ele>1356</ele>
        <time>2022-03-12T15:46:37Z</time>
      </trkpt>
      <trkpt lat="42.84954" lon="0.27679">
        <ele>1356</ele>
        <time>2022-03-12T15:46:47Z</time>
      </trkpt>
      <trkpt lat="42.84954" lon="0.27693">
        <ele>1355</ele>
        <time>2022-03-12T15:46:56Z</time>
      </trkpt>
      <trkpt lat="42.84953" lon="0.27706">
        <ele>1354</ele>
        <time>2022-03-12T15:47:04Z</time>
      </trkpt>
      <trkpt lat="42.8495" lon="0.27718">
        <ele>1354</ele>
        <time>2022-03-12T15:47:12Z</time>
      </trkpt>
      <trkpt lat="42.84943" lon="0.27728">
        <ele>1352</ele>
        <time>2022-03-12T15:47:20Z</time>
      </trkpt>
      <trkpt lat="42.84938" lon="0.27739">
        <ele>1351</ele>
        <time>2022-03-12T15:47:29Z</time>
      </trkpt>
      <trkpt lat="42.84937" lon="0.27753">
        <ele>1350</ele>
        <time>2022-03-12T15:47:39Z</time>
      </trkpt>
      <trkpt lat="42.84934" lon="0.27765">
        <ele>1348</ele>
        <time>2022-03-12T15:47:49Z</time>
      </trkpt>
      <trkpt lat="42.84927" lon="0.27774">
        <ele>1347</ele>
        <time>2022-03-12T15:47:56Z</time>
      </trkpt>
      <trkpt lat="42.84925" lon="0.27786">
        <ele>1346</ele>
        <time>2022-03-12T15:48:04Z</time>
      </trkpt>
      <trkpt lat="42.84924" lon="0.27799">
        <ele>1345</ele>
        <time>2022-03-12T15:48:10Z</time>
      </trkpt>
      <trkpt lat="42.84922" lon="0.27811">
        <ele>1343</ele>
        <time>2022-03-12T15:48:18Z</time>
      </trkpt>
      <trkpt lat="42.84922" lon="0.27825">
        <ele>1341</ele>
        <time>2022-03-12T15:48:27Z</time>
      </trkpt>
      <trkpt lat="42.84922" lon="0.27837">
        <ele>1341</ele>
        <time>2022-03-12T15:48:34Z</time>
      </trkpt>
      <trkpt lat="42.8492" lon="0.2785">
        <ele>1340</ele>
        <time>2022-03-12T15:48:43Z</time>
      </trkpt>
      <trkpt lat="42.84914" lon="0.2786">
        <ele>1338</ele>
        <time>2022-03-12T15:48:50Z</time>
      </trkpt>
      <trkpt lat="42.84909" lon="0.27871">
        <ele>1338</ele>
        <time>2022-03-12T15:48:58Z</time>
      </trkpt>
      <trkpt lat="42.84902" lon="0.27879">
        <ele>1336</ele>
        <time>2022-03-12T15:49:06Z</time>
      </trkpt>
      <trkpt lat="42.849" lon="0.27892">
        <ele>1335</ele>
        <time>2022-03-12T15:49:15Z</time>
      </trkpt>
      <trkpt lat="42.84895" lon="0.27904">
        <ele>1334</ele>
        <time>2022-03-12T15:49:21Z</time>
      </trkpt>
      <trkpt lat="42.8489" lon="0.27915">
        <ele>1333</ele>
        <time>2022-03-12T15:49:29Z</time>
      </trkpt>
      <trkpt lat="42.84889" lon="0.27923">
        <ele>1333</ele>
        <time>2022-03-12T15:49:34Z</time>
      </trkpt>
      <trkpt lat="42.84888" lon="0.27925">
        <ele>1333</ele>
        <time>2022-03-12T15:49:36Z</time>
      </trkpt>
      <trkpt lat="42.84888" lon="0.27929">
        <ele>1333</ele>
        <time>2022-03-12T15:49:38Z</time>
      </trkpt>
      <trkpt lat="42.84887" lon="0.27932">
        <ele>1332</ele>
        <time>2022-03-12T15:49:40Z</time>
      </trkpt>
      <trkpt lat="42.84884" lon="0.27938">
        <ele>1332</ele>
        <time>2022-03-12T15:49:45Z</time>
      </trkpt>
      <trkpt lat="42.8488" lon="0.27951">
        <ele>1331</ele>
        <time>2022-03-12T15:49:53Z</time>
      </trkpt>
      <trkpt lat="42.84875" lon="0.27962">
        <ele>1330</ele>
        <time>2022-03-12T15:50:02Z</time>
      </trkpt>
      <trkpt lat="42.84869" lon="0.27972">
        <ele>1329</ele>
        <time>2022-03-12T15:50:10Z</time>
      </trkpt>
      <trkpt lat="42.84861" lon="0.27979">
        <ele>1329</ele>
        <time>2022-03-12T15:50:15Z</time>
      </trkpt>
      <trkpt lat="42.8486" lon="0.27989">
        <ele>1328</ele>
        <time>2022-03-12T15:50:23Z</time>
      </trkpt>
      <trkpt lat="42.84859" lon="0.27992">
        <ele>1328</ele>
        <time>2022-03-12T15:50:25Z</time>
      </trkpt>
      <trkpt lat="42.84857" lon="0.27999">
        <ele>1327</ele>
        <time>2022-03-12T15:50:30Z</time>
      </trkpt>
      <trkpt lat="42.84855" lon="0.28002">
        <ele>1327</ele>
        <time>2022-03-12T15:50:32Z</time>
      </trkpt>
      <trkpt lat="42.84853" lon="0.28002">
        <ele>1327</ele>
        <time>2022-03-12T15:50:33Z</time>
      </trkpt>
      <trkpt lat="42.84852" lon="0.28004">
        <ele>1327</ele>
        <time>2022-03-12T15:50:35Z</time>
      </trkpt>
      <trkpt lat="42.84851" lon="0.28006">
        <ele>1327</ele>
        <time>2022-03-12T15:50:37Z</time>
      </trkpt>
      <trkpt lat="42.84851" lon="0.28019">
        <ele>1326</ele>
        <time>2022-03-12T15:50:45Z</time>
      </trkpt>
      <trkpt lat="42.84852" lon="0.28032">
        <ele>1325</ele>
        <time>2022-03-12T15:50:53Z</time>
      </trkpt>
      <trkpt lat="42.84847" lon="0.28043">
        <ele>1325</ele>
        <time>2022-03-12T15:51:01Z</time>
      </trkpt>
      <trkpt lat="42.84846" lon="0.28056">
        <ele>1324</ele>
        <time>2022-03-12T15:51:09Z</time>
      </trkpt>
      <trkpt lat="42.84841" lon="0.28069">
        <ele>1322</ele>
        <time>2022-03-12T15:51:19Z</time>
      </trkpt>
      <trkpt lat="42.84841" lon="0.28082">
        <ele>1320</ele>
        <time>2022-03-12T15:51:28Z</time>
      </trkpt>
      <trkpt lat="42.84839" lon="0.28095">
        <ele>1319</ele>
        <time>2022-03-12T15:51:36Z</time>
      </trkpt>
      <trkpt lat="42.84836" lon="0.28108">
        <ele>1318</ele>
        <time>2022-03-12T15:51:43Z</time>
      </trkpt>
      <trkpt lat="42.84831" lon="0.28119">
        <ele>1317</ele>
        <time>2022-03-12T15:51:52Z</time>
      </trkpt>
      <trkpt lat="42.84827" lon="0.28141">
        <ele>1315</ele>
        <time>2022-03-12T15:52:04Z</time>
      </trkpt>
      <trkpt lat="42.84824" lon="0.28154">
        <ele>1313</ele>
        <time>2022-03-12T15:52:13Z</time>
      </trkpt>
      <trkpt lat="42.84822" lon="0.28167">
        <ele>1312</ele>
        <time>2022-03-12T15:52:22Z</time>
      </trkpt>
      <trkpt lat="42.84824" lon="0.2818">
        <ele>1311</ele>
        <time>2022-03-12T15:52:29Z</time>
      </trkpt>
      <trkpt lat="42.84829" lon="0.28192">
        <ele>1311</ele>
        <time>2022-03-12T15:52:34Z</time>
      </trkpt>
      <trkpt lat="42.84826" lon="0.28205">
        <ele>1309</ele>
        <time>2022-03-12T15:52:43Z</time>
      </trkpt>
      <trkpt lat="42.8482" lon="0.28216">
        <ele>1308</ele>
        <time>2022-03-12T15:52:52Z</time>
      </trkpt>
      <trkpt lat="42.84817" lon="0.28228">
        <ele>1307</ele>
        <time>2022-03-12T15:53:00Z</time>
      </trkpt>
      <trkpt lat="42.84817" lon="0.28241">
        <ele>1306</ele>
        <time>2022-03-12T15:53:09Z</time>
      </trkpt>
      <trkpt lat="42.84813" lon="0.28254">
        <ele>1304</ele>
        <time>2022-03-12T15:53:18Z</time>
      </trkpt>
      <trkpt lat="42.84816" lon="0.28266">
        <ele>1303</ele>
        <time>2022-03-12T15:53:25Z</time>
      </trkpt>
      <trkpt lat="42.84815" lon="0.28279">
        <ele>1302</ele>
        <time>2022-03-12T15:53:31Z</time>
      </trkpt>
      <trkpt lat="42.84824" lon="0.28286">
        <ele>1302</ele>
        <time>2022-03-12T15:53:34Z</time>
      </trkpt>
      <trkpt lat="42.84826" lon="0.283">
        <ele>1300</ele>
        <time>2022-03-12T15:53:41Z</time>
      </trkpt>
      <trkpt lat="42.84825" lon="0.28313">
        <ele>1298</ele>
        <time>2022-03-12T15:53:50Z</time>
      </trkpt>
      <trkpt lat="42.84822" lon="0.28325">
        <ele>1298</ele>
        <time>2022-03-12T15:53:58Z</time>
      </trkpt>
      <trkpt lat="42.84824" lon="0.28337">
        <ele>1296</ele>
        <time>2022-03-12T15:54:06Z</time>
      </trkpt>
      <trkpt lat="42.84825" lon="0.2835">
        <ele>1295</ele>
        <time>2022-03-12T15:54:14Z</time>
      </trkpt>
      <trkpt lat="42.84827" lon="0.28365">
        <ele>1294</ele>
        <time>2022-03-12T15:54:21Z</time>
      </trkpt>
      <trkpt lat="42.8483" lon="0.28377">
        <ele>1293</ele>
        <time>2022-03-12T15:54:28Z</time>
      </trkpt>
      <trkpt lat="42.84836" lon="0.28388">
        <ele>1292</ele>
        <time>2022-03-12T15:54:35Z</time>
      </trkpt>
      <trkpt lat="42.84841" lon="0.28398">
        <ele>1290</ele>
        <time>2022-03-12T15:54:41Z</time>
      </trkpt>
      <trkpt lat="42.84846" lon="0.28409">
        <ele>1290</ele>
        <time>2022-03-12T15:54:47Z</time>
      </trkpt>
      <trkpt lat="42.84854" lon="0.28418">
        <ele>1289</ele>
        <time>2022-03-12T15:54:53Z</time>
      </trkpt>
      <trkpt lat="42.8486" lon="0.28429">
        <ele>1287</ele>
        <time>2022-03-12T15:55:03Z</time>
      </trkpt>
      <trkpt lat="42.84869" lon="0.28434">
        <ele>1285</ele>
        <time>2022-03-12T15:55:13Z</time>
      </trkpt>
      <trkpt lat="42.84876" lon="0.28443">
        <ele>1284</ele>
        <time>2022-03-12T15:55:20Z</time>
      </trkpt>
      <trkpt lat="42.84868" lon="0.28451">
        <ele>1284</ele>
        <time>2022-03-12T15:55:26Z</time>
      </trkpt>
      <trkpt lat="42.84861" lon="0.28461">
        <ele>1283</ele>
        <time>2022-03-12T15:55:34Z</time>
      </trkpt>
      <trkpt lat="42.84851" lon="0.28458">
        <ele>1283</ele>
        <time>2022-03-12T15:55:50Z</time>
      </trkpt>
      <trkpt lat="42.84848" lon="0.28446">
        <ele>1282</ele>
        <time>2022-03-12T15:55:59Z</time>
      </trkpt>
      <trkpt lat="42.84838" lon="0.2844">
        <ele>1280</ele>
        <time>2022-03-12T15:56:07Z</time>
      </trkpt>
      <trkpt lat="42.84829" lon="0.28438">
        <ele>1280</ele>
        <time>2022-03-12T15:56:13Z</time>
      </trkpt>
      <trkpt lat="42.84822" lon="0.28431">
        <ele>1279</ele>
        <time>2022-03-12T15:56:21Z</time>
      </trkpt>
      <trkpt lat="42.84813" lon="0.28437">
        <ele>1278</ele>
        <time>2022-03-12T15:56:37Z</time>
      </trkpt>
      <trkpt lat="42.84814" lon="0.2845">
        <ele>1278</ele>
        <time>2022-03-12T15:56:45Z</time>
      </trkpt>
      <trkpt lat="42.84813" lon="0.28463">
        <ele>1278</ele>
        <time>2022-03-12T15:56:54Z</time>
      </trkpt>
      <trkpt lat="42.84813" lon="0.28476">
        <ele>1278</ele>
        <time>2022-03-12T15:57:00Z</time>
      </trkpt>
      <trkpt lat="42.84815" lon="0.28489">
        <ele>1278</ele>
        <time>2022-03-12T15:57:08Z</time>
      </trkpt>
      <trkpt lat="42.84818" lon="0.28502">
        <ele>1278</ele>
        <time>2022-03-12T15:57:18Z</time>
      </trkpt>
      <trkpt lat="42.84821" lon="0.28515">
        <ele>1278</ele>
        <time>2022-03-12T15:57:26Z</time>
      </trkpt>
      <trkpt lat="42.84822" lon="0.28528">
        <ele>1278</ele>
        <time>2022-03-12T15:57:35Z</time>
      </trkpt>
      <trkpt lat="42.84823" lon="0.28541">
        <ele>1278</ele>
        <time>2022-03-12T15:57:43Z</time>
      </trkpt>
      <trkpt lat="42.84827" lon="0.28553">
        <ele>1279</ele>
        <time>2022-03-12T15:57:51Z</time>
      </trkpt>
      <trkpt lat="42.84828" lon="0.28565">
        <ele>1279</ele>
        <time>2022-03-12T15:58:07Z</time>
      </trkpt>
      <trkpt lat="42.84827" lon="0.28577">
        <ele>1280</ele>
        <time>2022-03-12T15:58:18Z</time>
      </trkpt>
      <trkpt lat="42.84834" lon="0.28588">
        <ele>1280</ele>
        <time>2022-03-12T15:58:26Z</time>
      </trkpt>
      <trkpt lat="42.84839" lon="0.28599">
        <ele>1280</ele>
        <time>2022-03-12T15:58:35Z</time>
      </trkpt>
      <trkpt lat="42.84846" lon="0.28609">
        <ele>1281</ele>
        <time>2022-03-12T15:58:42Z</time>
      </trkpt>
      <trkpt lat="42.84853" lon="0.28618">
        <ele>1282</ele>
        <time>2022-03-12T15:58:49Z</time>
      </trkpt>
      <trkpt lat="42.8486" lon="0.28634">
        <ele>1283</ele>
        <time>2022-03-12T15:58:53Z</time>
      </trkpt>
      <trkpt lat="42.84868" lon="0.28643">
        <ele>1283</ele>
        <time>2022-03-12T15:58:58Z</time>
      </trkpt>
      <trkpt lat="42.84868" lon="0.28655">
        <ele>1283</ele>
        <time>2022-03-12T15:59:15Z</time>
      </trkpt>
      <trkpt lat="42.84868" lon="0.28668">
        <ele>1284</ele>
        <time>2022-03-12T15:59:21Z</time>
      </trkpt>
      <trkpt lat="42.84871" lon="0.2868">
        <ele>1284</ele>
        <time>2022-03-12T15:59:26Z</time>
      </trkpt>
      <trkpt lat="42.84874" lon="0.28692">
        <ele>1284</ele>
        <time>2022-03-12T15:59:31Z</time>
      </trkpt>
      <trkpt lat="42.84877" lon="0.28706">
        <ele>1284</ele>
        <time>2022-03-12T15:59:38Z</time>
      </trkpt>
      <trkpt lat="42.84878" lon="0.28719">
        <ele>1284</ele>
        <time>2022-03-12T15:59:47Z</time>
      </trkpt>
      <trkpt lat="42.8488" lon="0.28732">
        <ele>1284</ele>
        <time>2022-03-12T15:59:54Z</time>
      </trkpt>
      <trkpt lat="42.84879" lon="0.28746">
        <ele>1284</ele>
        <time>2022-03-12T16:00:03Z</time>
      </trkpt>
      <trkpt lat="42.84876" lon="0.28758">
        <ele>1284</ele>
        <time>2022-03-12T16:00:10Z</time>
      </trkpt>
      <trkpt lat="42.84868" lon="0.28765">
        <ele>1284</ele>
        <time>2022-03-12T16:00:17Z</time>
      </trkpt>
      <trkpt lat="42.84865" lon="0.28778">
        <ele>1284</ele>
        <time>2022-03-12T16:00:25Z</time>
      </trkpt>
      <trkpt lat="42.84869" lon="0.28789">
        <ele>1284</ele>
        <time>2022-03-12T16:00:30Z</time>
      </trkpt>
      <trkpt lat="42.84872" lon="0.288">
        <ele>1284</ele>
        <time>2022-03-12T16:00:34Z</time>
      </trkpt>
      <trkpt lat="42.84877" lon="0.28811">
        <ele>1283</ele>
        <time>2022-03-12T16:00:40Z</time>
      </trkpt>
      <trkpt lat="42.8488" lon="0.28823">
        <ele>1283</ele>
        <time>2022-03-12T16:00:46Z</time>
      </trkpt>
      <trkpt lat="42.84881" lon="0.28835">
        <ele>1282</ele>
        <time>2022-03-12T16:00:53Z</time>
      </trkpt>
      <trkpt lat="42.84882" lon="0.28848">
        <ele>1282</ele>
        <time>2022-03-12T16:01:00Z</time>
      </trkpt>
      <trkpt lat="42.84878" lon="0.2886">
        <ele>1280</ele>
        <time>2022-03-12T16:01:12Z</time>
      </trkpt>
      <trkpt lat="42.84878" lon="0.28873">
        <ele>1279</ele>
        <time>2022-03-12T16:01:22Z</time>
      </trkpt>
      <trkpt lat="42.84888" lon="0.28876">
        <ele>1279</ele>
        <time>2022-03-12T16:01:30Z</time>
      </trkpt>
      <trkpt lat="42.84878" lon="0.28872">
        <ele>1279</ele>
        <time>2022-03-12T16:02:04Z</time>
      </trkpt>
      <trkpt lat="42.84869" lon="0.28862">
        <ele>1280</ele>
        <time>2022-03-12T16:02:10Z</time>
      </trkpt>
      <trkpt lat="42.8486" lon="0.28862">
        <ele>1279</ele>
        <time>2022-03-12T16:02:33Z</time>
      </trkpt>
      <trkpt lat="42.84861" lon="0.2885">
        <ele>1280</ele>
        <time>2022-03-12T16:02:45Z</time>
      </trkpt>
      <trkpt lat="42.8487" lon="0.28855">
        <ele>1280</ele>
        <time>2022-03-12T16:02:53Z</time>
      </trkpt>
      <trkpt lat="42.84877" lon="0.28864">
        <ele>1280</ele>
        <time>2022-03-12T16:03:16Z</time>
      </trkpt>
      <trkpt lat="42.84871" lon="0.28873">
        <ele>1279</ele>
        <time>2022-03-12T16:03:28Z</time>
      </trkpt>
      <trkpt lat="42.84862" lon="0.28866">
        <ele>1280</ele>
        <time>2022-03-12T16:04:18Z</time>
      </trkpt>
      <trkpt lat="42.8485" lon="0.28868">
        <ele>1280</ele>
        <time>2022-03-12T16:04:22Z</time>
      </trkpt>
      <trkpt lat="42.84859" lon="0.28864">
        <ele>1279</ele>
        <time>2022-03-12T16:04:39Z</time>
      </trkpt>
      <trkpt lat="42.84868" lon="0.28863">
        <ele>1279</ele>
        <time>2022-03-12T16:05:11Z</time>
      </trkpt>
      <trkpt lat="42.84855" lon="0.28851">
        <ele>1279</ele>
        <time>2022-03-12T16:05:24Z</time>
      </trkpt>
      <trkpt lat="42.84845" lon="0.28853">
        <ele>1280</ele>
        <time>2022-03-12T16:05:43Z</time>
      </trkpt>
      <trkpt lat="42.84835" lon="0.28856">
        <ele>1278</ele>
        <time>2022-03-12T16:06:22Z</time>
      </trkpt>
      <trkpt lat="42.84843" lon="0.28851">
        <ele>1279</ele>
        <time>2022-03-12T16:06:56Z</time>
      </trkpt>
      <trkpt lat="42.84834" lon="0.28855">
        <ele>1279</ele>
        <time>2022-03-12T16:08:12Z</time>
      </trkpt>
      <trkpt lat="42.84826" lon="0.28851">
        <ele>1279</ele>
        <time>2022-03-12T16:08:43Z</time>
      </trkpt>
      <trkpt lat="42.84836" lon="0.2885">
        <ele>1279</ele>
        <time>2022-03-12T16:08:59Z</time>
      </trkpt>
      <trkpt lat="42.84845" lon="0.28847">
        <ele>1279</ele>
        <time>2022-03-12T16:09:32Z</time>
      </trkpt>
      <trkpt lat="42.84834" lon="0.28849">
        <ele>1279</ele>
        <time>2022-03-12T16:09:45Z</time>
      </trkpt>
      <trkpt lat="42.84833" lon="0.28849">
        <ele>1280</ele>
        <time>2022-03-12T16:12:52Z</time>
      </trkpt>
    </trkseg>
  </trk>
</gpx>